# Wetter Temperatur Luftdruck Luftfeuchtigkeit Sichtweite Windgeschwindigkeit Windrichtung Zeit
1 Clouds 14 1020 82 10000 9.8 250 09:40 29.01.2020
2 Clouds 14 1020 82 10000 9.8 250 09:21 29.01.2020
3 Clouds 13 1019 82 10000 9.3 260 08:57 29.01.2020
4 Clouds 12 1019 82 10000 9.3 260 08:39 29.01.2020
5 Clouds 13 1019 82 10000 7.7 250 08:20 29.01.2020
6 Clouds 12 1019 82 10000 8.7 260 07:44 29.01.2020
7 Clouds 12 1019 82 10000 8.2 260 07:24 29.01.2020
8 Clouds 12 1019 82 10000 8.2 260 06:54 29.01.2020
9 Clouds 12 1019 82 10000 9.3 260 06:36 29.01.2020
10 Clouds 12 1019 82 10000 9.3 260 06:18 29.01.2020
11 Clouds 12 1019 82 10000 10.3 260 05:43 29.01.2020
12 Clouds 12 1021 80 0 7.6 0 05:25 29.01.2020
13 Clouds 12 1019 82 10000 10.8 260 04:37 29.01.2020
14 Clouds 13 1019 82 10000 11.3 260 02:43 29.01.2020
15 Clouds 13 1019 82 10000 8.7 240 02:18 29.01.2020
16 Clouds 12 1019 82 10000 7.7 220 00:43 29.01.2020
17 Clouds 12 1019 82 10000 8.2 220 00:24 29.01.2020
18 Clouds 12 1019 77 10000 8.2 220 23:56 28.01.2020
19 Clouds 12 1019 77 10000 8.7 220 23:37 28.01.2020
20 Clouds 12 1019 77 10000 8.7 220 23:18 28.01.2020
21 Clouds 12 1019 77 10000 7.2 220 22:40 28.01.2020
22 Clouds 12 1020 77 10000 7.2 220 22:21 28.01.2020
23 Clouds 12 1020 72 10000 7.7 220 21:42 28.01.2020
24 Clouds 11 1019 71 10000 6.7 200 21:22 28.01.2020
25 Clouds 11 1020 71 10000 7.2 220 20:58 28.01.2020
26 Clouds 11 1019 62 10000 6.7 200 20:40 28.01.2020
27 Clouds 11 1019 62 10000 6.7 200 20:21 28.01.2020
28 Clouds 11 1020 71 10000 7.2 210 19:39 28.01.2020
29 Clouds 11 1020 72 10000 7.7 220 19:20 28.01.2020
30 Clouds 12 1020 76 10000 7.2 220 18:58 28.01.2020
31 Clouds 12 1020 76 10000 7.2 220 18:40 28.01.2020
32 Clouds 12 1020 72 10000 7.7 230 18:21 28.01.2020
33 Clouds 12 1019 72 10000 7.7 240 17:57 28.01.2020
34 Clouds 12 1019 72 10000 7.7 240 17:37 28.01.2020
35 Clouds 13 1019 72 10000 8.2 240 17:19 28.01.2020
36 Clouds 13 1019 72 10000 8.2 240 16:54 28.01.2020
37 Clouds 13 1019 67 10000 8.7 230 16:36 28.01.2020
38 Clouds 14 1019 67 10000 8.7 230 16:18 28.01.2020
39 Clouds 14 1019 72 10000 8.7 240 15:42 28.01.2020
40 Clouds 14 1019 67 10000 9.3 240 15:19 28.01.2020
41 Clouds 14 1020 67 10000 8.7 240 14:54 28.01.2020
42 Clouds 14 1020 67 10000 7.7 230 14:36 28.01.2020
43 Clouds 14 1020 67 10000 7.7 230 14:18 28.01.2020
44 Clouds 14 1020 67 10000 8.7 230 13:39 28.01.2020
45 Clouds 14 1021 67 10000 7.7 230 13:21 28.01.2020
46 Clouds 14 1021 72 10000 7.2 230 12:42 28.01.2020
47 Clouds 14 1022 67 10000 7.7 230 12:23 28.01.2020
48 Clouds 14 1022 63 10000 8.2 220 11:48 28.01.2020
49 Clouds 14 1022 63 10000 7.7 220 11:23 28.01.2020
50 Clouds 13 1022 72 10000 7.7 220 10:59 28.01.2020
51 Clouds 13 1022 72 10000 7.7 220 10:40 28.01.2020
52 Clouds 12 1022 72 10000 6.2 220 10:21 28.01.2020
53 Clouds 12 1022 76 10000 5.7 200 09:55 28.01.2020
54 Clouds 12 1022 76 10000 5.7 200 09:55 28.01.2020
55 Clouds 12 1022 76 10000 6.2 200 09:36 28.01.2020
56 Clouds 12 1022 76 10000 6.2 200 09:18 28.01.2020
57 Clouds 12 1022 76 10000 6.2 210 08:40 28.01.2020
58 Clouds 12 1022 76 10000 6.2 210 08:19 28.01.2020
59 Rain 12 1022 82 10000 6.2 200 07:38 28.01.2020
60 Clouds 11 1022 82 10000 5.7 210 06:51 28.01.2020
61 Clouds 11 1022 76 10000 5.1 200 06:28 28.01.2020
62 Clouds 11 1022 82 10000 5.7 200 05:55 28.01.2020
63 Clouds 11 1022 82 10000 4.6 200 05:27 28.01.2020
64 Clouds 11 1022 76 10000 5.1 200 04:30 28.01.2020
65 Clouds 11 1022 82 10000 5.1 200 03:33 28.01.2020
66 Clouds 11 1022 81 10000 4.1 190 02:25 28.01.2020
67 Clouds 11 1022 81 10000 4.1 190 02:25 28.01.2020
68 Clouds 11 1022 81 10000 3.6 180 01:57 28.01.2020
69 Clouds 11 1023 76 10000 4.6 190 01:32 28.01.2020
70 Clouds 11 1023 81 10000 3.6 190 00:51 28.01.2020
71 Clouds 11 1023 81 10000 3.6 180 00:29 28.01.2020
72 Clouds 10 1023 81 10000 3.6 180 23:51 27.01.2020
73 Clouds 10 1023 81 10000 3.6 180 23:51 27.01.2020
74 Clouds 11 1023 81 10000 3.6 180 23:30 27.01.2020
75 Clear 11 1023 81 10000 3.6 180 22:59 27.01.2020
76 Clear 10 1023 81 10000 3.6 180 22:41 27.01.2020
77 Clouds 10 1023 81 10000 3.6 190 22:20 27.01.2020
78 Clouds 10 1023 81 10000 2.6 190 21:56 27.01.2020
79 Clouds 10 1023 81 10000 2.6 190 21:37 27.01.2020
80 Clouds 10 1023 81 10000 2.6 180 21:18 27.01.2020
81 Clouds 11 1023 87 10000 2.6 190 20:54 27.01.2020
82 Clouds 10 1023 82 10000 3.1 240 20:36 27.01.2020
83 Clouds 11 1023 82 10000 3.1 240 20:18 27.01.2020
84 Clouds 11 1022 82 10000 6.2 270 19:41 27.01.2020
85 Clouds 11 1022 82 10000 6.2 270 19:22 27.01.2020
86 Clear 11 1026 85 0 0.45 293 18:56 27.01.2020
87 Clear 11 1026 86 0 2.24 315 18:38 27.01.2020
88 Clouds 12 1022 82 10000 6.7 270 18:19 27.01.2020
89 Clear 12 1022 82 10000 3.1 260 17:39 27.01.2020
90 Clear 12 1022 82 10000 3.1 260 17:21 27.01.2020
91 Clear 12 1022 82 10000 3.1 260 16:59 27.01.2020
92 Clear 13 1022 82 10000 3.1 260 16:41 27.01.2020
93 Clear 14 1022 72 10000 1 0 16:23 27.01.2020
94 Clear 14 1022 67 10000 1.5 250 15:55 27.01.2020
95 Clear 15 1022 67 10000 1.5 240 15:37 27.01.2020
96 Clear 15 1022 67 10000 1.5 240 15:37 27.01.2020
97 Clear 15 1022 67 10000 1.5 240 15:18 27.01.2020
98 Clear 15 1022 72 10000 2.1 290 14:42 27.01.2020
99 Clear 15 1022 72 10000 2.1 270 14:22 27.01.2020
100 Clear 15 1022 72 10000 2.6 250 13:58 27.01.2020
101 Clear 15 1022 72 10000 2.6 250 13:40 27.01.2020
102 Clear 15 1023 76 10000 3.6 260 13:20 27.01.2020
103 Clear 14 1023 76 10000 3.6 270 12:54 27.01.2020
104 Clear 14 1023 72 10000 3.1 270 12:36 27.01.2020
105 Clear 14 1023 72 10000 3.1 270 12:18 27.01.2020
106 Clear 13 1023 76 10000 2.1 250 11:41 27.01.2020
107 Clear 13 1023 76 10000 2.1 250 11:41 27.01.2020
108 Clear 13 1023 76 10000 2.1 250 11:20 27.01.2020
109 Clear 13 1023 71 10000 2.1 240 10:43 27.01.2020
110 Clear 12 1023 67 10000 1.5 200 10:24 27.01.2020
111 Clear 12 1023 76 10000 2.1 170 09:56 27.01.2020
112 Clouds 11 1023 87 10000 2.6 170 09:38 27.01.2020
113 Clouds 11 1023 87 10000 2.6 170 09:18 27.01.2020
114 Clouds 10 1023 87 10000 2.6 170 08:42 27.01.2020
115 Clouds 9 1023 87 10000 2.1 170 08:20 27.01.2020
116 Clouds 9 1022 87 10000 2.1 180 07:54 27.01.2020
117 Clouds 9 1022 87 10000 2.1 180 07:54 27.01.2020
118 Clouds 9 1022 87 10000 2.1 190 07:33 27.01.2020
119 Clouds 10 1022 81 10000 2.6 180 06:53 27.01.2020
120 Clouds 9 1022 81 10000 2.6 180 06:25 27.01.2020
121 Clouds 9 1021 76 10000 3.6 280 05:23 27.01.2020
122 Clouds 10 1021 71 10000 3.1 280 03:47 27.01.2020
123 Clouds 10 1021 71 10000 3.1 290 02:38 27.01.2020
124 Clouds 10 1021 82 10000 3.1 290 01:29 27.01.2020
125 Clouds 10 1021 76 10000 3.6 290 00:57 27.01.2020
126 Clouds 10 1021 82 10000 3.1 300 00:36 27.01.2020
127 Clouds 10 1021 82 10000 3.1 300 00:18 27.01.2020
128 Clouds 10 1021 82 10000 3.1 300 00:18 27.01.2020
129 Clouds 10 1021 82 10000 3.1 300 23:41 26.01.2020
130 Clouds 10 1021 82 10000 3.1 300 23:41 26.01.2020
131 Clouds 11 1021 82 10000 3.6 300 23:19 26.01.2020
132 Clouds 11 1021 82 10000 4.1 310 22:54 26.01.2020
133 Clouds 11 1021 87 10000 3.6 300 22:36 26.01.2020
134 Clouds 11 1021 87 10000 3.6 300 22:18 26.01.2020
135 Clouds 11 1021 87 10000 2.6 300 21:55 26.01.2020
136 Clouds 11 1020 87 10000 1 0 21:37 26.01.2020
137 Clouds 11 1020 87 10000 1 0 21:18 26.01.2020
138 Clouds 11 1020 87 10000 1.5 290 20:55 26.01.2020
139 Clouds 11 1020 87 10000 2.1 300 20:36 26.01.2020
140 Clouds 11 1020 87 10000 2.1 300 20:18 26.01.2020
141 Clouds 11 1020 87 10000 4.1 310 19:41 26.01.2020
142 Clouds 11 1020 87 10000 5.1 300 19:21 26.01.2020
143 Clouds 11 1019 87 10000 6.7 300 18:59 26.01.2020
144 Clouds 12 1019 82 10000 7.2 290 18:40 26.01.2020
145 Clouds 12 1019 82 10000 7.2 290 18:22 26.01.2020
146 Clouds 12 1019 87 10000 7.2 290 17:58 26.01.2020
147 Clouds 12 1019 87 10000 6.2 300 17:38 26.01.2020
148 Clouds 13 1019 87 10000 6.2 300 17:19 26.01.2020
149 Clouds 13 1019 82 10000 6.7 300 16:58 26.01.2020
150 Clouds 14 1019 82 10000 6.7 300 16:39 26.01.2020
151 Clouds 14 1018 82 10000 7.7 300 16:20 26.01.2020
152 Clouds 15 1019 71 0 2.68 330 15:55 26.01.2020
153 Clouds 15 1018 72 0 2.24 337 15:37 26.01.2020
154 Clouds 15 1019 71 0 2.24 326 15:18 26.01.2020
155 Clouds 16 1024 69 0 0.89 327 14:40 26.01.2020
156 Clouds 16 1024 68 0 1.79 341 14:19 26.01.2020
157 Clouds 16 1024 68 0 1.79 341 14:19 26.01.2020
158 Clouds 16 1022 60 0 3.58 248 13:42 26.01.2020
159 Clouds 16 1023 58 0 3.58 225 13:20 26.01.2020
160 Clouds 17 993 73 0 2.05 262 12:58 26.01.2020
161 Clouds 16 993 73 0 2.05 262 12:39 26.01.2020
162 Clouds 16 1023 57 0 3.13 225 12:21 26.01.2020
163 Clouds 16 993 73 0 2.05 262 12:21 26.01.2020
164 Clouds 16 994 74 0 2.05 262 11:57 26.01.2020
165 Clouds 16 994 74 0 2.05 262 11:57 26.01.2020
166 Clouds 15 1023 54 0 3.58 225 11:38 26.01.2020
167 Clouds 15 1020 63 10000 6.2 190 11:18 26.01.2020
168 Clouds 14 1020 63 10000 6.2 190 10:58 26.01.2020
169 Clouds 14 1020 63 10000 6.2 190 10:38 26.01.2020
170 Clouds 14 1020 63 10000 6.2 190 10:38 26.01.2020
171 Clouds 14 1020 63 10000 6.2 190 10:38 26.01.2020
172 Clouds 14 1020 63 10000 6.2 190 10:38 26.01.2020
173 Clouds 14 1020 63 10000 6.2 190 10:20 26.01.2020
174 Clouds 13 1019 67 10000 7.2 200 09:56 26.01.2020
175 Clouds 12 1019 67 10000 5.7 200 09:38 26.01.2020
176 Clouds 12 1019 67 10000 5.7 200 09:20 26.01.2020
177 Clouds 12 1019 76 10000 4.6 210 08:42 26.01.2020
178 Clouds 11 1019 81 10000 3.1 210 08:22 26.01.2020
179 Clouds 11 1019 81 10000 3.1 200 07:56 26.01.2020
180 Clouds 11 1019 81 10000 3.1 200 07:38 26.01.2020
181 Clouds 11 1019 81 10000 2.6 230 07:19 26.01.2020
182 Clouds 10 1019 87 10000 1.5 180 06:29 26.01.2020
183 Clouds 11 1019 87 10000 2.1 180 05:30 26.01.2020
184 Clouds 11 1019 87 10000 1.5 130 04:44 26.01.2020
185 Clouds 11 1020 87 10000 0.5 0 02:41 26.01.2020
186 Clouds 11 1020 82 10000 0.5 0 01:47 26.01.2020
187 Clouds 11 1021 82 10000 0.5 0 01:24 26.01.2020
188 Clouds 11 1021 82 10000 1 360 00:44 26.01.2020
189 Clouds 11 1021 76 10000 0.5 170 00:26 26.01.2020
190 Clouds 11 1021 70 0 3.13 199 23:41 25.01.2020
191 Clouds 12 1022 70 0 3.13 202 23:21 25.01.2020
192 Clouds 12 1022 70 0 3.13 185 22:58 25.01.2020
193 Clouds 12 1022 70 0 3.13 204 22:40 25.01.2020
194 Clouds 11 1025 88 0 1.79 225 22:19 25.01.2020
195 Clouds 11 1022 71 0 2.24 188 21:57 25.01.2020
196 Clouds 11 1025 88 0 0.89 270 21:38 25.01.2020
197 Clouds 12 1022 71 0 0.89 137 21:19 25.01.2020
198 Clouds 11 1022 72 0 0.89 126 20:44 25.01.2020
199 Clouds 11 1025 87 0 0.89 270 20:25 25.01.2020
200 Clouds 9 1022 91 0 1.18 169 19:55 25.01.2020
201 Clouds 12 1022 74 0 0.45 143 19:37 25.01.2020
202 Clouds 12 1025 84 0 0.45 270 19:18 25.01.2020
203 Clouds 12 1025 84 0 0.89 270 18:41 25.01.2020
204 Clouds 12 1025 84 0 0.45 270 18:21 25.01.2020
205 Clouds 12 1025 84 0 0.89 270 17:58 25.01.2020
206 Clouds 12 1025 80 0 0.89 270 17:38 25.01.2020
207 Clouds 13 1021 71 0 2.24 105 17:18 25.01.2020
208 Clouds 13 1022 68 0 2.68 55 16:42 25.01.2020
209 Clouds 14 1021 64 0 1.79 138 16:23 25.01.2020
210 Clouds 14 1022 53 0 3.13 184 15:58 25.01.2020
211 Clouds 14 1026 68 0 0.45 225 15:39 25.01.2020
212 Clouds 14 1022 53 0 3.58 195 15:20 25.01.2020
213 Clouds 14 1022 53 0 3.58 195 15:20 25.01.2020
214 Clouds 14 1022 52 0 3.58 209 14:42 25.01.2020
215 Clouds 16 997 67 0 1.68 130 14:19 25.01.2020
216 Clouds 15 1027 67 0 1.34 90 13:45 25.01.2020
217 Clouds 14 1027 66 0 1.34 23 13:27 25.01.2020
218 Clouds 14 1020 69 0 3.13 298 12:58 25.01.2020
219 Clouds 15 1024 72 10000 1 340 12:38 25.01.2020
220 Clouds 15 1024 72 10000 1 340 12:19 25.01.2020
221 Clouds 14 1024 72 10000 1 340 11:40 25.01.2020
222 Clouds 14 1025 67 10000 1 340 11:20 25.01.2020
223 Clouds 14 1024 67 10000 1 330 10:56 25.01.2020
224 Clouds 14 1024 67 10000 1 330 10:38 25.01.2020
225 Clouds 13 1024 67 10000 1 0 10:18 25.01.2020
226 Clouds 13 1024 71 10000 1 0 09:40 25.01.2020
227 Clouds 12 1024 71 10000 0.5 0 09:19 25.01.2020
228 Clouds 11 1024 76 10000 1.5 0 08:43 25.01.2020
229 Clear 10 1024 81 10000 1.5 130 07:58 25.01.2020
230 Clear 10 1024 66 10000 1 0 07:36 25.01.2020
231 Clear 10 1024 66 10000 1 0 07:36 25.01.2020
232 Clear 10 1023 76 10000 2.1 130 06:41 25.01.2020
233 Clear 10 1023 76 10000 2.1 130 06:22 25.01.2020
234 Clear 11 1023 71 10000 1.5 140 05:43 25.01.2020
235 Clear 11 1023 76 10000 2.6 150 04:19 25.01.2020
236 Clear 11 1023 71 10000 1 0 03:49 25.01.2020
237 Clear 11 1024 62 10000 2.6 60 02:38 25.01.2020
238 Clear 11 1024 58 10000 1 0 01:57 25.01.2020
239 Clear 11 1024 62 10000 3.1 70 01:23 25.01.2020
240 Clear 11 1025 66 10000 3.6 150 00:41 25.01.2020
241 Clear 11 1025 66 10000 3.6 150 00:22 25.01.2020
242 Clear 11 1025 71 10000 3.6 160 23:42 24.01.2020
243 Clear 12 1025 71 10000 2.6 170 23:24 24.01.2020
244 Clear 11 1025 71 10000 3.1 170 22:47 24.01.2020
245 Clear 12 1025 76 10000 3.6 200 22:28 24.01.2020
246 Clear 11 1025 71 10000 1.5 160 21:59 24.01.2020
247 Clear 11 1025 71 10000 1.5 160 21:40 24.01.2020
248 Clear 11 1024 66 10000 1 0 21:19 24.01.2020
249 Clear 12 1024 72 10000 4.1 270 20:44 24.01.2020
250 Clear 12 1024 62 10000 4.6 240 20:22 24.01.2020
251 Clear 12 1023 76 10000 1 0 19:58 24.01.2020
252 Clear 12 1023 76 10000 1 0 19:58 24.01.2020
253 Clear 12 1023 76 10000 1 0 19:40 24.01.2020
254 Clear 12 1023 76 10000 2.1 320 19:22 24.01.2020
255 Clear 12 1022 71 10000 1 0 18:56 24.01.2020
256 Clear 12 1023 76 10000 2.6 110 18:37 24.01.2020
257 Clear 12 1023 76 10000 2.6 110 18:19 24.01.2020
258 Clear 12 1023 71 10000 1 0 17:42 24.01.2020
259 Clear 12 1023 67 10000 4.1 60 17:21 24.01.2020
260 Clear 12 1023 67 10000 4.1 60 17:21 24.01.2020
261 Clear 13 1024 62 10000 4.1 70 16:55 24.01.2020
262 Clear 13 1024 67 10000 4.6 40 16:36 24.01.2020
263 Clear 14 1024 67 10000 4.6 40 16:18 24.01.2020
264 Clear 14 1024 67 10000 4.6 40 16:18 24.01.2020
265 Clear 14 1024 62 10000 4.1 50 15:40 24.01.2020
266 Clear 14 1024 67 10000 4.6 30 15:20 24.01.2020
267 Clear 14 1024 59 10000 5.7 50 14:42 24.01.2020
268 Clear 14 1024 62 10000 6.2 50 14:23 24.01.2020
269 Clear 14 1025 62 10000 4.6 50 13:57 24.01.2020
270 Clear 14 1025 62 10000 4.6 50 13:39 24.01.2020
271 Clear 14 1025 62 10000 5.1 60 13:19 24.01.2020
272 Clear 14 1025 62 10000 5.1 60 13:19 24.01.2020
273 Clear 14 1026 62 10000 4.6 70 12:41 24.01.2020
274 Clear 14 1026 62 10000 4.6 70 12:19 24.01.2020
275 Clear 14 1026 62 10000 3.1 50 11:43 24.01.2020
276 Clear 13 1026 67 10000 1.5 60 11:19 24.01.2020
277 Clear 13 1027 66 10000 1 290 10:43 24.01.2020
278 Clear 13 1026 71 10000 1.5 230 10:23 24.01.2020
279 Clear 13 1026 71 10000 1.5 230 10:23 24.01.2020
280 Clear 12 1026 76 10000 1.5 200 09:57 24.01.2020
281 Clear 11 1026 81 10000 1.5 180 09:39 24.01.2020
282 Clear 11 1026 81 10000 1.5 180 09:21 24.01.2020
283 Clear 10 1026 81 10000 3.1 160 08:41 24.01.2020
284 Clear 9 1026 81 10000 3.1 160 08:20 24.01.2020
285 Clear 9 1026 81 10000 2.1 190 07:53 24.01.2020
286 Clear 9 1026 76 10000 2.6 180 07:34 24.01.2020
287 Clear 9 1026 76 10000 1.5 120 06:48 24.01.2020
288 Clear 9 1026 81 10000 1.5 170 06:29 24.01.2020
289 Clear 9 1026 81 10000 1.5 170 05:59 24.01.2020
290 Clear 9 1026 76 10000 1.5 160 04:57 24.01.2020
291 Clear 8 1026 76 10000 2.1 180 02:53 24.01.2020
292 Clear 9 1026 76 10000 1.5 210 02:26 24.01.2020
293 Clouds 9 1026 76 10000 1 0 01:46 24.01.2020
294 Clouds 9 1026 76 10000 4.1 220 01:28 24.01.2020
295 Clouds 9 1027 76 10000 3.1 210 00:25 24.01.2020
296 Clouds 9 1027 71 10000 2.6 220 23:49 23.01.2020
297 Clouds 9 1027 71 10000 2.1 190 23:31 23.01.2020
298 Clouds 9 1026 71 10000 2.6 170 22:59 23.01.2020
299 Clouds 9 1026 71 10000 3.6 210 22:38 23.01.2020
300 Clouds 9 1026 71 10000 3.6 210 22:38 23.01.2020
301 Clouds 9 1026 71 10000 3.6 210 22:19 23.01.2020
302 Clouds 9 1026 66 10000 1 0 21:57 23.01.2020
303 Clouds 9 1026 62 10000 2.1 80 21:39 23.01.2020
304 Clouds 9 1026 62 10000 2.1 80 21:20 23.01.2020
305 Clouds 9 1026 66 10000 2.1 90 20:59 23.01.2020
306 Clouds 9 1026 66 10000 0.5 0 20:38 23.01.2020
307 Clouds 10 1026 66 10000 0.5 0 20:20 23.01.2020
308 Clouds 9 1026 71 10000 2.1 150 19:56 23.01.2020
309 Clouds 9 1026 71 10000 2.1 150 19:38 23.01.2020
310 Clouds 10 1026 62 10000 3.1 90 19:19 23.01.2020
311 Clouds 10 1026 62 10000 3.6 90 18:43 23.01.2020
312 Clouds 11 1026 62 10000 4.6 70 18:21 23.01.2020
313 Clouds 11 1026 58 10000 5.1 80 17:59 23.01.2020
314 Clouds 12 1026 58 10000 5.1 80 17:40 23.01.2020
315 Clouds 12 1026 58 10000 5.1 70 17:20 23.01.2020
316 Clouds 12 1026 58 10000 5.1 70 17:20 23.01.2020
317 Clear 12 1027 68 0 2.24 110 16:57 23.01.2020
318 Clear 12 1030 72 0 0.89 135 16:37 23.01.2020
319 Clouds 13 1026 55 10000 5.1 80 16:18 23.01.2020
320 Clouds 13 1026 59 10000 4.6 70 15:56 23.01.2020
321 Clouds 14 1026 51 10000 4.6 60 15:37 23.01.2020
322 Clouds 14 1026 51 10000 4.6 60 15:18 23.01.2020
323 Clouds 14 1026 51 10000 4.6 60 15:18 23.01.2020
324 Clouds 14 1026 55 10000 4.6 70 14:55 23.01.2020
325 Clouds 14 1026 51 10000 4.1 70 14:37 23.01.2020
326 Clouds 14 1026 51 10000 4.1 70 14:19 23.01.2020
327 Clouds 14 1027 55 10000 3.6 50 13:40 23.01.2020
328 Clear 14 1027 54 0 2.68 80 13:20 23.01.2020
329 Clouds 14 1028 51 10000 3.1 60 12:47 23.01.2020
330 Clouds 14 1028 51 10000 3.1 60 12:26 23.01.2020
331 Clouds 14 1028 51 10000 3.1 60 11:59 23.01.2020
332 Clouds 14 1028 51 10000 3.1 60 11:59 23.01.2020
333 Clouds 14 1028 51 10000 3.1 60 11:39 23.01.2020
334 Clouds 13 1028 51 10000 2.1 70 11:20 23.01.2020
335 Clouds 13 1028 51 10000 1 0 10:55 23.01.2020
336 Clouds 13 1028 54 10000 3.1 110 10:36 23.01.2020
337 Clouds 13 1028 54 10000 3.1 110 10:18 23.01.2020
338 Clouds 12 1028 66 10000 1.5 20 09:39 23.01.2020
339 Clouds 12 1028 66 10000 1.5 20 09:20 23.01.2020
340 Clouds 11 1028 62 10000 2.6 140 08:43 23.01.2020
341 Clouds 10 1028 58 10000 3.1 160 08:25 23.01.2020
342 Clear 10 1028 58 10000 2.6 150 07:51 23.01.2020
343 Clouds 10 1028 62 10000 2.1 180 07:27 23.01.2020
344 Clouds 10 1028 62 10000 3.1 150 06:55 23.01.2020
345 Clouds 11 1028 58 10000 3.6 150 06:25 23.01.2020
346 Clouds 10 1028 62 10000 2.1 140 05:59 23.01.2020
347 Clouds 10 1028 71 10000 2.6 230 04:25 23.01.2020
348 Clouds 11 1028 71 10000 2.1 210 02:50 23.01.2020
349 Clouds 10 1029 66 10000 2.6 140 01:51 23.01.2020
350 Clouds 10 1029 71 10000 1 230 00:41 23.01.2020
351 Clouds 10 1029 71 10000 1 230 00:20 23.01.2020
352 Clouds 10 1029 71 10000 1.5 140 23:45 22.01.2020
353 Clouds 10 1029 71 10000 1 0 23:27 22.01.2020
354 Clouds 11 1029 67 10000 1 0 22:43 22.01.2020
355 Clouds 11 1029 71 10000 1 0 22:24 22.01.2020
356 Clouds 11 1029 67 10000 1 170 21:58 22.01.2020
357 Clouds 11 1029 71 10000 1.5 170 21:36 22.01.2020
358 Clouds 11 1029 71 10000 1.5 170 21:18 22.01.2020
359 Clouds 12 1029 71 10000 1.5 200 20:41 22.01.2020
360 Clouds 11 1030 71 10000 1 0 20:23 22.01.2020
361 Clouds 11 1030 71 10000 1.5 70 19:58 22.01.2020
362 Clouds 11 1030 71 10000 1.5 70 19:58 22.01.2020
363 Clouds 12 1030 71 10000 1.5 70 19:40 22.01.2020
364 Clouds 12 1029 71 10000 2.1 70 19:20 22.01.2020
365 Clouds 12 1029 67 10000 1.5 90 18:58 22.01.2020
366 Clouds 12 1030 67 10000 1 0 18:39 22.01.2020
367 Clouds 12 1030 67 10000 1 0 18:20 22.01.2020
368 Clouds 12 1030 72 10000 1 0 17:56 22.01.2020
369 Clouds 12 1030 72 10000 1 0 17:38 22.01.2020
370 Clouds 12 1030 72 10000 2.6 250 17:19 22.01.2020
371 Clouds 13 1030 67 10000 2.6 90 16:44 22.01.2020
372 Clouds 13 1030 67 10000 2.6 90 16:24 22.01.2020
373 Clouds 13 1028 63 10000 3.1 70 15:59 22.01.2020
374 Clouds 13 1028 63 10000 3.1 70 15:41 22.01.2020
375 Clouds 13 1030 63 10000 3.1 60 15:23 22.01.2020
376 Clouds 13 1030 62 10000 2.6 60 14:58 22.01.2020
377 Clouds 13 1031 67 10000 2.6 40 14:37 22.01.2020
378 Clouds 13 1031 67 10000 2.6 40 14:19 22.01.2020
379 Clouds 13 1031 67 10000 3.1 40 13:55 22.01.2020
380 Clouds 13 1032 72 10000 2.1 30 13:36 22.01.2020
381 Clouds 13 1032 72 10000 2.1 30 13:18 22.01.2020
382 Clouds 13 1032 72 10000 1.5 350 12:56 22.01.2020
383 Clouds 13 1033 67 10000 1.5 310 12:37 22.01.2020
384 Clouds 13 1033 67 10000 1.5 310 12:18 22.01.2020
385 Clouds 13 1033 72 10000 1 0 11:56 22.01.2020
386 Clouds 13 1034 67 10000 1.5 260 11:38 22.01.2020
387 Clouds 13 1034 67 10000 1.5 260 11:19 22.01.2020
388 Clouds 13 1034 71 10000 1.5 250 10:44 22.01.2020
389 Clear 12 1034 71 10000 2.1 220 10:21 22.01.2020
390 Clear 12 1034 71 10000 0.5 0 09:45 22.01.2020
391 Clear 11 1034 71 10000 1 0 09:26 22.01.2020
392 Clear 11 1033 71 10000 1 200 08:59 22.01.2020
393 Clear 11 1033 71 10000 1 200 08:40 22.01.2020
394 Clouds 10 1033 76 10000 2.1 150 08:21 22.01.2020
395 Clouds 10 1033 76 10000 2.1 140 07:59 22.01.2020
396 Clouds 9 1033 76 10000 2.1 140 07:40 22.01.2020
397 Clouds 10 1033 76 10000 3.1 80 07:21 22.01.2020
398 Clouds 10 1033 76 10000 3.1 80 07:21 22.01.2020
399 Clouds 9 1033 76 10000 1 0 06:33 22.01.2020
400 Clouds 10 1033 76 10000 1 160 05:42 22.01.2020
401 Clouds 10 1033 76 10000 1 160 05:42 22.01.2020
402 Clouds 10 1033 76 10000 2.1 190 04:24 22.01.2020
403 Clouds 10 1033 71 10000 2.1 190 03:26 22.01.2020
404 Clouds 11 1033 66 10000 2.1 200 02:38 22.01.2020
405 Clear 11 1033 66 10000 1.5 270 00:46 22.01.2020
406 Clear 11 1033 66 10000 1.5 0 00:27 22.01.2020
407 Clouds 11 1033 66 10000 3.6 130 23:55 21.01.2020
408 Clouds 11 1033 54 10000 3.1 240 23:37 21.01.2020
409 Clouds 12 1033 54 10000 3.1 240 23:18 21.01.2020
410 Clouds 12 1033 54 10000 3.1 240 23:18 21.01.2020
411 Clouds 11 1033 54 10000 3.1 240 23:18 21.01.2020
412 Clouds 11 1033 62 10000 2.1 150 22:40 21.01.2020
413 Clouds 11 1033 62 10000 2.1 150 22:20 21.01.2020
414 Clouds 11 1033 62 10000 3.1 170 21:57 21.01.2020
415 Clouds 12 1033 67 10000 0.5 0 21:38 21.01.2020
416 Clouds 12 1033 67 10000 0.5 0 21:20 21.01.2020
417 Clouds 12 1033 67 10000 1.5 180 20:56 21.01.2020
418 Clear 12 1033 58 10000 1 0 20:37 21.01.2020
419 Clouds 12 1033 58 10000 1 0 20:19 21.01.2020
420 Clouds 12 1033 62 10000 1 0 19:56 21.01.2020
421 Clouds 11 1033 62 10000 1 0 19:56 21.01.2020
422 Clouds 12 1032 58 10000 2.1 90 19:38 21.01.2020
423 Clouds 12 1032 58 10000 2.1 90 19:20 21.01.2020
424 Clouds 12 1032 58 10000 3.6 90 18:55 21.01.2020
425 Clouds 12 1036 77 0 4.92 113 18:37 21.01.2020
426 Clouds 12 1032 55 10000 5.1 80 18:18 21.01.2020
427 Clouds 13 1031 55 10000 6.2 80 17:45 21.01.2020
428 Clouds 13 1031 51 10000 5.7 80 17:20 21.01.2020
429 Clouds 13 1031 51 10000 5.7 100 16:59 21.01.2020
430 Clouds 13 1035 73 0 4.47 113 16:37 21.01.2020
431 Clouds 13 1036 72 0 4.47 135 16:19 21.01.2020
432 Clouds 14 1032 48 10000 3.6 130 15:42 21.01.2020
433 Clouds 14 1033 62 0 4.92 110 15:21 21.01.2020
434 Clouds 14 1033 60 0 4.92 116 14:59 21.01.2020
435 Clouds 15 1032 45 10000 4.1 150 14:38 21.01.2020
436 Rain 14 1036 70 0 3.58 180 14:19 21.01.2020
437 Clouds 14 1033 63 10000 3.1 300 13:40 21.01.2020
438 Clouds 14 1033 63 10000 3.1 300 13:19 21.01.2020
439 Clouds 14 1033 72 10000 4.6 300 12:44 21.01.2020
440 Clouds 14 1034 77 10000 3.1 300 12:25 21.01.2020
441 Clouds 14 1034 67 10000 2.6 260 11:57 21.01.2020
442 Clouds 14 1034 67 10000 2.6 260 11:39 21.01.2020
443 Clouds 13 1034 59 10000 2.1 290 11:21 21.01.2020
444 Clouds 14 1034 63 10000 1.5 300 10:55 21.01.2020
445 Clouds 14 1033 48 10000 5.1 130 10:37 21.01.2020
446 Clouds 13 1038 72 0 4.02 225 10:18 21.01.2020
447 Clouds 13 1033 58 10000 5.7 80 09:41 21.01.2020
448 Clouds 13 1033 67 10000 5.7 80 09:22 21.01.2020
449 Clouds 12 1033 76 10000 5.1 80 08:49 21.01.2020
450 Clouds 12 1033 66 10000 4.1 60 08:29 21.01.2020
451 Clouds 11 1033 62 10000 3.1 70 07:59 21.01.2020
452 Clouds 11 1033 67 10000 4.6 60 07:39 21.01.2020
453 Clouds 11 1033 67 10000 4.6 60 07:21 21.01.2020
454 Clouds 11 1036 82 0 2.24 68 06:48 21.01.2020
455 Clouds 11 1032 67 10000 4.6 100 06:26 21.01.2020
456 Clouds 12 1032 58 10000 3.6 110 05:42 21.01.2020
457 Clouds 11 1032 62 10000 3.1 90 04:39 21.01.2020
458 Clouds 12 1032 51 10000 3.6 210 02:56 21.01.2020
459 Clouds 12 1032 54 10000 3.6 0 01:53 21.01.2020
460 Rain 12 1032 54 10000 3.6 0 01:18 21.01.2020
461 Clouds 12 1032 58 10000 1.5 0 00:36 21.01.2020
462 Clouds 12 1032 58 10000 2.1 280 23:58 20.01.2020
463 Clouds 12 1032 58 10000 1.5 90 23:38 20.01.2020
464 Clouds 12 1032 58 10000 1.5 90 23:19 20.01.2020
465 Clouds 12 1032 58 10000 2.6 70 22:56 20.01.2020
466 Clouds 12 1031 58 10000 2.6 100 22:37 20.01.2020
467 Clouds 12 1031 58 10000 2.6 100 22:19 20.01.2020
468 Clouds 12 1031 54 10000 2.1 100 21:57 20.01.2020
469 Clouds 12 1031 58 10000 2.1 80 21:37 20.01.2020
470 Clouds 12 1031 58 10000 2.1 80 21:37 20.01.2020
471 Clouds 12 1031 58 10000 2.1 80 21:18 20.01.2020
472 Clouds 12 1031 54 10000 2.1 60 20:55 20.01.2020
473 Clouds 12 1031 54 10000 1.5 110 20:36 20.01.2020
474 Clouds 12 1031 54 10000 1.5 110 20:18 20.01.2020
475 Clouds 12 1031 54 10000 1.5 110 20:18 20.01.2020
476 Clouds 12 1030 54 10000 1.5 130 19:56 20.01.2020
477 Clouds 12 1030 58 10000 4.1 90 19:37 20.01.2020
478 Clouds 12 1030 58 10000 4.1 90 19:18 20.01.2020
479 Clouds 12 1029 58 10000 3.6 140 18:42 20.01.2020
480 Clouds 12 1029 58 10000 3.6 140 18:21 20.01.2020
481 Clouds 12 1028 55 10000 2.1 190 17:40 20.01.2020
482 Clouds 12 1028 55 10000 2.1 190 17:19 20.01.2020
483 Rain 12 1028 55 10000 3.6 60 16:58 20.01.2020
484 Clouds 13 1028 51 10000 3.6 90 16:37 20.01.2020
485 Clouds 13 1028 51 10000 3.6 90 16:18 20.01.2020
486 Clouds 13 1027 55 10000 6.2 90 15:54 20.01.2020
487 Clouds 13 1027 51 10000 5.7 90 15:36 20.01.2020
488 Clouds 13 1027 51 10000 5.7 90 15:18 20.01.2020
489 Clouds 13 1027 51 10000 5.7 90 14:41 20.01.2020
490 Clouds 13 1027 51 10000 7.7 90 14:22 20.01.2020
491 Clouds 13 1027 45 10000 4.1 100 13:57 20.01.2020
492 Clouds 13 1028 48 10000 5.7 90 13:39 20.01.2020
493 Clouds 13 1028 48 10000 5.7 90 13:20 20.01.2020
494 Clouds 13 1028 48 10000 3.6 80 12:45 20.01.2020
495 Clouds 13 1028 58 10000 2.1 290 12:26 20.01.2020
496 Clouds 13 1028 62 10000 3.1 280 11:57 20.01.2020
497 Clouds 13 1028 58 10000 4.1 260 11:38 20.01.2020
498 Clouds 12 1028 58 10000 4.1 260 11:19 20.01.2020
499 Clouds 13 1027 44 10000 4.6 0 10:47 20.01.2020
500 Clouds 12 1027 47 10000 4.6 70 10:21 20.01.2020
501 Clouds 12 1027 54 10000 2.6 120 09:54 20.01.2020
502 Clouds 12 1027 54 10000 5.7 80 09:36 20.01.2020
503 Clouds 12 1027 54 10000 5.7 80 09:18 20.01.2020
504 Clouds 11 1026 66 10000 3.1 80 08:42 20.01.2020
505 Clouds 11 1026 71 10000 2.1 240 08:24 20.01.2020
506 Clouds 10 1026 66 10000 1 0 07:42 20.01.2020
507 Clouds 10 1026 76 10000 2.1 90 07:23 20.01.2020
508 Clouds 10 1026 76 10000 2.6 150 06:46 20.01.2020
509 Clouds 10 1026 71 10000 1.5 190 06:26 20.01.2020
510 Clouds 10 1025 71 10000 1.5 120 05:42 20.01.2020
511 Clouds 10 1025 76 10000 2.1 30 05:21 20.01.2020
512 Clouds 10 1025 66 10000 2.1 250 04:41 20.01.2020
513 Clouds 10 1024 71 10000 0.5 0 02:55 20.01.2020
514 Clouds 10 1024 71 10000 0.5 0 02:55 20.01.2020
515 Clouds 9 1024 71 10000 1.5 90 01:52 20.01.2020
516 Clouds 9 1024 71 10000 1.5 0 01:26 20.01.2020
517 Clouds 9 1024 71 10000 2.1 220 00:44 20.01.2020
518 Clouds 10 1024 71 10000 2.1 220 00:22 20.01.2020
519 Clouds 10 1024 66 10000 3.6 260 23:39 19.01.2020
520 Clouds 9 1023 62 10000 4.1 80 23:20 19.01.2020
521 Clouds 9 1023 62 10000 5.7 110 22:56 19.01.2020
522 Clouds 10 1023 62 10000 7.2 90 22:38 19.01.2020
523 Clouds 10 1023 62 10000 7.2 90 22:20 19.01.2020
524 Clouds 10 1023 62 10000 6.2 100 21:56 19.01.2020
525 Clouds 10 1023 62 10000 6.2 100 21:56 19.01.2020
526 Clouds 10 1023 66 10000 3.1 100 21:38 19.01.2020
527 Clouds 9 1023 66 10000 3.1 100 21:20 19.01.2020
528 Clouds 10 1023 62 10000 1.5 130 20:57 19.01.2020
529 Clouds 9 1023 62 10000 1.5 130 20:38 19.01.2020
530 Clouds 9 1023 62 10000 2.1 150 20:20 19.01.2020
531 Clouds 9 1023 58 10000 1 0 19:56 19.01.2020
532 Clouds 9 1022 58 10000 1 0 19:38 19.01.2020
533 Clouds 9 1022 58 10000 1 0 19:20 19.01.2020
534 Clouds 9 1022 58 10000 0.5 0 18:56 19.01.2020
535 Clouds 9 1023 64 0 1.34 186 18:37 19.01.2020
536 Clouds 10 1021 58 10000 4.6 70 18:19 19.01.2020
537 Clouds 10 1021 58 10000 4.6 70 17:58 19.01.2020
538 Clouds 10 1021 58 10000 4.6 70 17:58 19.01.2020
539 Clouds 10 1021 58 10000 4.6 70 17:58 19.01.2020
540 Clouds 10 1021 62 10000 5.7 80 17:39 19.01.2020
541 Clouds 11 1021 62 10000 5.7 80 17:20 19.01.2020
542 Clouds 10 1025 77 0 2.68 90 16:59 19.01.2020
543 Clouds 11 1021 62 10000 6.7 70 16:38 19.01.2020
544 Clouds 12 1021 58 10000 6.2 70 16:20 19.01.2020
545 Clouds 12 1020 58 10000 6.2 60 15:58 19.01.2020
546 Clouds 12 1020 58 10000 6.2 60 15:38 19.01.2020
547 Clouds 13 1020 62 10000 6.2 60 15:20 19.01.2020
548 Clouds 13 1020 62 10000 5.7 50 14:57 19.01.2020
549 Clouds 13 1021 62 10000 5.1 70 14:38 19.01.2020
550 Clouds 13 1021 62 10000 5.1 70 14:18 19.01.2020
551 Clouds 13 1021 58 10000 4.6 70 13:57 19.01.2020
552 Clouds 12 1021 62 10000 4.6 60 13:38 19.01.2020
553 Clouds 12 1021 62 10000 4.6 60 13:19 19.01.2020
554 Clouds 13 1021 62 10000 3.6 50 12:55 19.01.2020
555 Clouds 12 1022 62 10000 3.6 30 12:36 19.01.2020
556 Clouds 13 1022 62 10000 3.6 30 12:18 19.01.2020
557 Clouds 12 1022 62 10000 1 0 11:42 19.01.2020
558 Clouds 12 1022 62 10000 1 0 11:20 19.01.2020
559 Clouds 13 1022 67 10000 2.1 240 10:56 19.01.2020
560 Clouds 11 1020 62 10000 1 260 10:38 19.01.2020
561 Clouds 11 1020 62 10000 1 260 10:19 19.01.2020
562 Clouds 11 1022 76 10000 2.1 210 09:55 19.01.2020
563 Clouds 11 1022 76 10000 2.1 210 09:55 19.01.2020
564 Clouds 11 1022 76 10000 2.1 210 09:55 19.01.2020
565 Clouds 11 1022 76 10000 2.1 210 09:55 19.01.2020
566 Clouds 10 1022 76 10000 2.6 180 09:36 19.01.2020
567 Clouds 10 1022 76 10000 2.6 180 09:18 19.01.2020
568 Clouds 8 1022 76 10000 2.1 180 08:44 19.01.2020
569 Clouds 9 1022 76 10000 3.1 190 08:26 19.01.2020
570 Clouds 8 1022 71 10000 1.5 210 07:42 19.01.2020
571 Clouds 8 1022 71 10000 1.5 210 07:22 19.01.2020
572 Clear 9 1022 71 10000 2.6 160 06:54 19.01.2020
573 Clear 9 1022 71 10000 3.6 160 06:21 19.01.2020
574 Clear 9 1023 71 10000 3.6 160 02:47 19.01.2020
575 Clouds 9 1023 71 10000 3.6 160 02:24 19.01.2020
576 Clouds 9 1023 71 10000 4.1 160 01:28 19.01.2020
577 Clouds 9 1023 71 10000 3.1 170 00:54 19.01.2020
578 Clouds 9 1023 71 10000 3.1 170 00:29 19.01.2020
579 Clouds 8 1023 71 10000 3.1 170 23:59 18.01.2020
580 Clouds 8 1023 71 10000 4.1 160 23:41 18.01.2020
581 Clouds 8 1023 71 10000 4.1 160 23:23 18.01.2020
582 Clouds 8 1023 76 10000 3.6 170 22:55 18.01.2020
583 Clouds 8 1024 76 10000 3.6 160 22:37 18.01.2020
584 Clouds 8 1024 76 10000 3.6 160 22:19 18.01.2020
585 Clouds 9 1024 71 10000 4.1 230 21:57 18.01.2020
586 Clouds 9 1024 71 10000 4.1 230 21:38 18.01.2020
587 Clouds 9 1024 67 10000 4.6 260 21:20 18.01.2020
588 Clouds 9 1024 66 10000 2.1 220 20:44 18.01.2020
589 Clouds 9 1024 71 10000 2.6 170 20:21 18.01.2020
590 Clouds 9 1024 71 10000 2.6 170 20:21 18.01.2020
591 Clouds 9 1024 66 10000 2.1 200 19:59 18.01.2020
592 Clouds 10 1024 66 10000 2.1 200 19:41 18.01.2020
593 Clouds 10 1024 67 10000 3.1 290 19:22 18.01.2020
594 Clouds 10 1024 67 10000 4.6 290 18:42 18.01.2020
595 Clouds 10 1024 67 10000 3.6 300 18:22 18.01.2020
596 Clouds 10 1024 62 10000 4.6 290 17:56 18.01.2020
597 Clouds 10 1024 62 10000 5.1 300 17:38 18.01.2020
598 Clouds 11 1024 62 10000 5.1 300 17:19 18.01.2020
599 Clouds 11 1024 67 10000 6.2 300 16:55 18.01.2020
600 Clouds 11 1024 67 10000 6.2 300 16:55 18.01.2020
601 Clouds 11 1024 71 10000 7.2 290 16:36 18.01.2020
602 Clouds 12 1024 71 10000 7.2 290 16:18 18.01.2020
603 Clouds 12 1024 71 10000 7.2 290 16:18 18.01.2020
604 Clouds 12 1024 71 10000 7.7 290 15:41 18.01.2020
605 Clouds 13 1024 71 10000 7.7 290 15:23 18.01.2020
606 Clouds 13 1024 71 10000 7.7 290 14:57 18.01.2020
607 Clouds 13 1024 71 10000 8.2 280 14:39 18.01.2020
608 Clouds 13 1024 71 10000 8.2 280 14:18 18.01.2020
609 Clouds 13 1024 71 10000 8.2 280 13:44 18.01.2020
610 Clouds 13 1025 71 10000 8.7 280 13:26 18.01.2020
611 Clouds 13 1025 71 10000 9.3 290 12:58 18.01.2020
612 Clouds 13 1025 72 10000 7.7 280 12:39 18.01.2020
613 Clouds 14 1025 72 10000 7.7 280 12:20 18.01.2020
614 Clouds 13 1025 62 10000 6.2 200 11:44 18.01.2020
615 Clouds 13 1025 62 10000 6.2 190 11:22 18.01.2020
616 Clouds 12 1025 62 10000 6.7 200 10:57 18.01.2020
617 Clouds 13 1025 62 10000 6.7 200 10:38 18.01.2020
618 Clouds 13 1026 62 10000 5.7 190 10:20 18.01.2020
619 Clouds 12 1026 62 10000 5.7 200 09:46 18.01.2020
620 Clouds 12 1026 62 10000 5.7 200 09:28 18.01.2020
621 Clouds 10 1026 62 10000 4.1 200 08:56 18.01.2020
622 Clouds 9 1026 66 10000 4.6 190 08:38 18.01.2020
623 Clouds 8 1026 66 10000 4.6 190 08:19 18.01.2020
624 Clouds 8 1026 66 10000 3.1 170 07:50 18.01.2020
625 Clouds 8 1026 62 10000 3.6 160 07:31 18.01.2020
626 Clouds 8 1026 71 10000 3.1 160 06:48 18.01.2020
627 Clouds 8 1026 76 10000 3.1 180 05:59 18.01.2020
628 Clouds 8 1026 66 10000 3.1 170 05:24 18.01.2020
629 Clouds 9 1026 61 10000 2.1 160 02:56 18.01.2020
630 Clouds 9 1026 66 10000 1.5 180 01:56 18.01.2020
631 Clouds 10 1027 58 10000 0.5 0 01:35 18.01.2020
632 Clouds 10 1027 50 10000 2.6 330 00:37 18.01.2020
633 Clouds 10 1027 50 10000 2.6 330 00:18 18.01.2020
634 Clouds 10 1027 50 10000 2.6 330 00:18 18.01.2020
635 Clouds 10 1027 50 10000 2.6 330 00:18 18.01.2020
636 Clouds 10 1027 58 10000 3.6 340 23:44 17.01.2020
637 Clouds 10 1027 58 10000 3.6 340 23:20 17.01.2020
638 Clouds 10 1027 58 10000 3.6 350 22:46 17.01.2020
639 Clouds 10 1027 58 10000 3.6 350 22:22 17.01.2020
640 Clouds 10 1027 58 10000 3.6 350 22:22 17.01.2020
641 Clouds 10 1027 58 10000 4.1 340 21:59 17.01.2020
642 Clouds 10 1027 58 10000 3.1 340 21:41 17.01.2020
643 Clouds 10 1027 58 10000 3.1 340 21:22 17.01.2020
644 Clouds 10 1027 58 10000 3.1 340 21:22 17.01.2020
645 Clouds 10 1027 58 10000 2.6 340 20:58 17.01.2020
646 Clouds 10 1027 66 10000 0.5 150 20:39 17.01.2020
647 Clouds 10 1027 66 10000 0.5 150 20:20 17.01.2020
648 Clouds 10 1027 66 10000 1 0 19:55 17.01.2020
649 Clouds 10 1027 62 10000 1.5 190 19:37 17.01.2020
650 Clouds 10 1027 62 10000 1.5 190 19:19 17.01.2020
651 Clouds 11 1027 62 10000 0.5 0 18:56 17.01.2020
652 Clouds 10 1027 58 10000 0.5 130 18:36 17.01.2020
653 Clouds 10 1027 58 10000 0.5 130 18:18 17.01.2020
654 Clouds 10 1026 58 10000 1 100 17:39 17.01.2020
655 Clouds 10 1026 58 10000 1.5 60 17:20 17.01.2020
656 Clouds 11 1026 54 10000 2.1 50 16:44 17.01.2020
657 Clouds 11 1026 54 10000 1.5 40 16:21 17.01.2020
658 Clouds 11 1026 58 10000 2.6 10 15:58 17.01.2020
659 Clouds 11 1026 58 10000 2.6 10 15:58 17.01.2020
660 Clouds 11 1026 58 10000 2.6 20 15:39 17.01.2020
661 Clouds 12 1026 58 10000 2.6 20 15:20 17.01.2020
662 Clouds 12 1027 58 10000 2.1 20 14:43 17.01.2020
663 Clouds 11 1026 58 10000 2.1 10 14:24 17.01.2020
664 Clouds 12 1027 58 10000 2.1 30 13:43 17.01.2020
665 Clouds 12 1027 58 10000 2.6 20 13:23 17.01.2020
666 Clouds 12 1027 54 10000 2.1 350 12:47 17.01.2020
667 Clouds 12 1028 58 10000 2.1 320 12:23 17.01.2020
668 Clouds 12 1028 58 10000 4.1 320 11:43 17.01.2020
669 Clouds 11 1028 58 10000 4.1 320 11:20 17.01.2020
670 Clouds 11 1028 58 10000 3.1 340 10:58 17.01.2020
671 Clouds 11 1028 58 10000 3.1 340 10:40 17.01.2020
672 Clouds 11 1028 62 10000 4.1 340 10:21 17.01.2020
673 Clouds 11 1027 62 10000 2.6 20 09:56 17.01.2020
674 Clouds 11 1027 58 10000 2.6 90 09:37 17.01.2020
675 Clouds 11 1027 58 10000 2.6 90 09:18 17.01.2020
676 Clouds 11 1027 58 10000 2.6 90 08:42 17.01.2020
677 Clouds 9 1027 58 10000 3.1 60 08:23 17.01.2020
678 Clouds 9 1027 58 10000 3.6 60 07:49 17.01.2020
679 Clouds 8 1027 62 10000 4.6 350 07:30 17.01.2020
680 Clouds 9 1027 58 10000 3.6 50 06:56 17.01.2020
681 Clouds 10 1027 62 10000 2.1 80 06:37 17.01.2020
682 Clouds 9 1027 58 10000 3.1 30 05:22 17.01.2020
683 Clouds 9 1028 58 10000 4.1 340 03:38 17.01.2020
684 Clouds 8 1028 68 0 0.45 45 02:43 17.01.2020
685 Clear 8 1031 82 0 0.89 270 01:45 17.01.2020
686 Clear 8 1031 83 0 0.89 315 01:27 17.01.2020
687 Clear 8 1031 82 0 0.89 270 00:43 17.01.2020
688 Clouds 8 1028 62 10000 3.6 80 00:20 17.01.2020
689 Clouds 9 1028 62 10000 3.6 80 23:42 16.01.2020
690 Clouds 9 1028 62 10000 3.6 80 23:24 16.01.2020
691 Clouds 9 1028 66 10000 4.1 70 22:43 16.01.2020
692 Clear 9 1028 66 10000 3.6 70 22:22 16.01.2020
693 Clouds 9 1028 71 10000 4.1 70 21:57 16.01.2020
694 Clouds 9 1028 71 10000 4.1 70 21:39 16.01.2020
695 Clouds 9 1028 71 10000 3.6 70 21:19 16.01.2020
696 Clouds 9 1028 66 10000 3.6 70 20:59 16.01.2020
697 Clouds 9 1028 71 10000 3.6 70 20:40 16.01.2020
698 Clouds 9 1028 71 10000 3.6 70 20:20 16.01.2020
699 Clear 9 1028 66 10000 4.1 70 19:57 16.01.2020
700 Clear 9 1028 66 10000 3.6 80 19:39 16.01.2020
701 Clear 9 1028 66 10000 3.6 80 19:20 16.01.2020
702 Clear 9 1028 66 10000 4.6 80 18:56 16.01.2020
703 Clear 9 1028 71 10000 4.1 70 18:37 16.01.2020
704 Clear 9 1028 71 10000 4.1 70 18:18 16.01.2020
705 Clear 9 1028 71 10000 4.1 70 18:18 16.01.2020
706 Clear 10 1027 66 10000 6.2 70 17:58 16.01.2020
707 Clear 10 1027 66 10000 6.2 70 17:39 16.01.2020
708 Clouds 10 1027 66 10000 6.2 60 17:20 16.01.2020
709 Clear 11 1028 67 0 0.89 34 16:41 16.01.2020
710 Clear 11 1034 69 0 0.45 55 16:21 16.01.2020
711 Clouds 12 1028 67 10000 6.2 50 15:57 16.01.2020
712 Clouds 12 1028 67 10000 6.2 50 15:38 16.01.2020
713 Clouds 12 1028 67 10000 6.7 50 15:20 16.01.2020
714 Clouds 12 1028 62 10000 6.2 50 14:42 16.01.2020
715 Clouds 12 1028 67 10000 6.2 50 14:24 16.01.2020
716 Clouds 12 1028 62 10000 5.7 50 13:55 16.01.2020
717 Clouds 12 1029 67 10000 5.7 50 13:37 16.01.2020
718 Clouds 12 1029 67 10000 5.7 50 13:19 16.01.2020
719 Clear 12 1029 69 0 2.24 327 12:41 16.01.2020
720 Clouds 12 1030 67 10000 4.6 50 12:21 16.01.2020
721 Clouds 12 1030 67 10000 4.6 60 11:43 16.01.2020
722 Clouds 12 1030 67 10000 5.1 60 11:24 16.01.2020
723 Clouds 11 1030 71 10000 1.5 0 10:59 16.01.2020
724 Clouds 11 1030 71 10000 1.5 0 10:38 16.01.2020
725 Clear 11 1030 76 10000 1.5 210 10:20 16.01.2020
726 Clear 11 1029 76 10000 1.5 80 09:54 16.01.2020
727 Clouds 10 1029 87 10000 1 0 09:36 16.01.2020
728 Clouds 10 1029 87 10000 1 0 09:18 16.01.2020
729 Clear 9 1029 87 10000 2.1 150 08:42 16.01.2020
730 Clear 8 1029 93 10000 1.5 160 08:23 16.01.2020
731 Clear 7 1029 81 10000 1 0 07:43 16.01.2020
732 Clear 8 1029 87 10000 1.5 160 07:25 16.01.2020
733 Clear 7 1029 87 10000 1 180 06:56 16.01.2020
734 Clear 7 1028 87 10000 1.5 160 06:37 16.01.2020
735 Clear 7 1028 87 10000 1.5 150 05:56 16.01.2020
736 Clear 7 1028 81 10000 1 150 05:31 16.01.2020
737 Clear 8 1028 81 10000 1.5 190 04:37 16.01.2020
738 Clear 8 1028 81 10000 1.5 190 04:37 16.01.2020
739 Clear 8 1029 81 10000 1.5 150 03:28 16.01.2020
740 Clear 8 1029 81 10000 2.1 120 02:29 16.01.2020
741 Clear 8 1029 76 10000 1.5 140 00:45 16.01.2020
742 Clear 8 1029 81 10000 2.6 150 00:24 16.01.2020
743 Clear 8 1029 81 10000 2.6 150 23:48 15.01.2020
744 Clear 8 1029 87 10000 2.1 130 23:22 15.01.2020
745 Clear 8 1029 81 10000 1.5 100 22:57 15.01.2020
746 Clear 9 1029 81 10000 0.5 0 22:39 15.01.2020
747 Clear 8 1029 81 10000 0.5 0 22:19 15.01.2020
748 Clear 8 1029 76 10000 0.5 0 21:57 15.01.2020
749 Clear 8 1029 76 10000 0.5 0 21:37 15.01.2020
750 Clear 8 1029 71 10000 0.5 0 21:19 15.01.2020
751 Clear 8 1029 76 10000 0.5 0 20:57 15.01.2020
752 Clear 9 1029 71 10000 1 110 20:39 15.01.2020
753 Clear 9 1029 71 10000 1 110 20:20 15.01.2020
754 Clear 9 1029 71 10000 2.6 150 19:55 15.01.2020
755 Clear 9 1028 71 10000 1 0 19:37 15.01.2020
756 Clear 9 1028 71 10000 1 0 19:19 15.01.2020
757 Clear 9 1028 76 10000 1.5 80 18:56 15.01.2020
758 Clear 10 1028 76 10000 1.5 80 18:56 15.01.2020
759 Clear 10 1028 71 10000 2.6 80 18:38 15.01.2020
760 Clear 10 1028 76 10000 1.5 80 18:38 15.01.2020
761 Clear 10 1028 71 10000 2.6 80 18:19 15.01.2020
762 Clear 10 1027 71 10000 4.6 70 17:57 15.01.2020
763 Clear 11 1027 67 10000 5.1 70 17:38 15.01.2020
764 Clouds 11 1027 67 10000 5.1 70 17:19 15.01.2020
765 Clouds 12 1027 67 10000 5.1 70 16:41 15.01.2020
766 Clouds 12 1027 67 10000 5.1 70 16:22 15.01.2020
767 Clouds 13 1027 58 10000 3.6 60 15:58 15.01.2020
768 Clouds 13 1027 71 10000 2.1 30 15:39 15.01.2020
769 Clouds 13 1027 71 10000 2.1 30 15:20 15.01.2020
770 Clouds 13 1027 71 10000 2.1 20 14:43 15.01.2020
771 Clear 13 1027 67 10000 1.5 310 14:20 15.01.2020
772 Clear 13 1027 67 10000 2.1 290 13:55 15.01.2020
773 Clear 13 1028 71 10000 2.6 270 13:37 15.01.2020
774 Clear 13 1028 71 10000 2.6 270 13:18 15.01.2020
775 Clear 13 1028 66 10000 2.1 260 12:41 15.01.2020
776 Clear 13 1028 66 10000 2.1 270 12:20 15.01.2020
777 Clear 12 1028 71 10000 1.5 260 11:58 15.01.2020
778 Clear 13 1028 71 10000 1.5 260 11:38 15.01.2020
779 Clear 12 1029 66 10000 1.5 250 11:19 15.01.2020
780 Clear 12 1028 71 10000 1 250 10:46 15.01.2020
781 Clear 11 1028 71 10000 1 0 10:28 15.01.2020
782 Clear 11 1028 76 10000 1 180 09:54 15.01.2020
783 Clear 10 1028 87 10000 2.1 180 09:36 15.01.2020
784 Clear 9 1028 87 10000 2.1 180 09:18 15.01.2020
785 Clear 9 1028 81 10000 1.5 190 08:41 15.01.2020
786 Clear 8 1027 87 10000 1.5 170 08:23 15.01.2020
787 Clear 8 1027 87 10000 1 130 07:53 15.01.2020
788 Clear 8 1027 87 10000 1 150 07:32 15.01.2020
789 Clear 7 1027 87 10000 1.5 190 06:47 15.01.2020
790 Clear 7 1027 87 10000 2.6 150 06:21 15.01.2020
791 Clear 7 1027 75 10000 1 180 04:45 15.01.2020
792 Clear 8 1027 81 10000 1 140 02:39 15.01.2020
793 Clouds 8 1027 76 10000 1.5 190 01:28 15.01.2020
794 Clouds 8 1027 76 10000 1 0 00:59 15.01.2020
795 Clouds 8 1027 81 10000 1 0 00:36 15.01.2020
796 Clouds 8 1027 81 10000 1 0 00:18 15.01.2020
797 Clouds 8 1027 76 10000 2.6 90 23:45 14.01.2020
798 Clouds 9 1027 81 10000 4.1 80 23:24 14.01.2020
799 Clouds 8 1027 76 10000 3.6 90 22:54 14.01.2020
800 Clouds 8 1027 76 10000 4.1 70 22:36 14.01.2020
801 Clouds 8 1027 76 10000 4.1 70 22:18 14.01.2020
802 Clouds 9 1027 76 10000 4.1 70 21:54 14.01.2020
803 Clouds 9 1027 81 10000 4.1 70 21:36 14.01.2020
804 Clouds 9 1027 81 10000 4.1 70 21:18 14.01.2020
805 Clouds 9 1027 81 10000 4.1 70 21:18 14.01.2020
806 Clouds 9 1027 81 10000 4.1 70 20:42 14.01.2020
807 Clouds 9 1027 81 10000 4.1 70 20:22 14.01.2020
808 Clouds 9 1027 81 10000 4.1 70 19:56 14.01.2020
809 Clouds 9 1026 76 10000 4.1 70 19:38 14.01.2020
810 Clouds 9 1026 76 10000 4.1 70 19:20 14.01.2020
811 Clouds 9 1026 76 10000 4.1 70 18:58 14.01.2020
812 Clouds 10 1026 76 10000 4.1 70 18:39 14.01.2020
813 Clouds 10 1026 71 10000 4.1 60 18:19 14.01.2020
814 Clouds 10 1026 71 10000 4.1 50 17:39 14.01.2020
815 Clouds 11 1026 71 10000 4.1 50 17:19 14.01.2020
816 Clouds 11 1026 67 10000 4.6 50 16:59 14.01.2020
817 Clouds 12 1025 71 10000 5.1 40 16:40 14.01.2020
818 Clouds 12 1025 71 10000 5.1 40 16:21 14.01.2020
819 Clear 12 1025 71 10000 5.1 40 15:55 14.01.2020
820 Clear 12 1025 71 10000 5.1 40 15:37 14.01.2020
821 Clear 13 1025 71 10000 5.1 40 15:18 14.01.2020
822 Clear 13 1025 67 10000 4.6 40 14:43 14.01.2020
823 Clear 13 1025 67 10000 4.6 40 14:20 14.01.2020
824 Clear 13 1025 71 10000 3.6 40 13:43 14.01.2020
825 Clear 13 1025 71 10000 1.5 280 13:20 14.01.2020
826 Clear 13 1026 76 10000 2.1 260 12:59 14.01.2020
827 Clear 13 1026 71 10000 2.1 240 12:40 14.01.2020
828 Clear 13 1026 71 10000 2.1 240 12:20 14.01.2020
829 Clear 12 1026 71 10000 2.1 240 12:20 14.01.2020
830 Clear 12 1026 71 10000 1.5 290 11:43 14.01.2020
831 Clear 12 1026 71 10000 1.5 290 11:23 14.01.2020
832 Clear 12 1026 76 10000 0.5 0 10:58 14.01.2020
833 Clear 11 1026 71 10000 1 0 10:39 14.01.2020
834 Clear 11 1026 71 10000 1 0 10:39 14.01.2020
835 Clear 11 1026 71 10000 1 0 10:20 14.01.2020
836 Clear 11 1026 81 10000 0.5 0 09:57 14.01.2020
837 Clear 10 1026 81 10000 1 0 09:39 14.01.2020
838 Clear 10 1026 81 10000 1 0 09:20 14.01.2020
839 Clear 8 1026 81 10000 2.1 160 08:46 14.01.2020
840 Clear 8 1026 81 10000 1.5 150 08:24 14.01.2020
841 Clear 7 1026 81 10000 1.5 170 07:53 14.01.2020
842 Clear 7 1026 81 10000 1.5 160 07:33 14.01.2020
843 Clear 7 1025 87 10000 1.5 170 06:54 14.01.2020
844 Clear 7 1025 81 10000 2.1 110 06:27 14.01.2020
845 Clear 7 1024 75 10000 1 0 05:27 14.01.2020
846 Clear 7 1024 75 10000 1.5 180 03:52 14.01.2020
847 Clear 8 1024 75 10000 3.1 160 02:43 14.01.2020
848 Clear 8 1024 81 10000 1.5 180 01:53 14.01.2020
849 Clear 8 1024 76 10000 1.5 130 00:51 14.01.2020
850 Clear 8 1025 75 10000 1 90 00:32 14.01.2020
851 Clear 8 1025 75 10000 1 90 00:32 14.01.2020
852 Clear 8 1025 76 10000 1.5 120 23:55 13.01.2020
853 Clear 8 1025 81 10000 2.6 150 23:37 13.01.2020
854 Clear 8 1025 81 10000 2.6 150 23:18 13.01.2020
855 Clear 8 1025 81 10000 2.6 150 23:18 13.01.2020
856 Clear 8 1025 76 10000 1 0 22:42 13.01.2020
857 Clear 8 1025 76 10000 1 0 22:21 13.01.2020
858 Clear 8 1025 76 10000 1 0 22:21 13.01.2020
859 Clear 8 1025 66 10000 1 0 21:57 13.01.2020
860 Clear 8 1025 66 10000 1 0 21:38 13.01.2020
861 Clear 8 1025 66 10000 1 0 21:38 13.01.2020
862 Clear 8 1025 66 10000 1 0 21:38 13.01.2020
863 Clear 8 1024 71 10000 2.1 140 21:19 13.01.2020
864 Clear 8 1024 71 10000 2.1 140 21:19 13.01.2020
865 Clear 8 1024 62 10000 1.5 240 20:58 13.01.2020
866 Clear 9 1024 66 10000 1 0 20:40 13.01.2020
867 Clear 9 1024 66 10000 1 0 20:22 13.01.2020
868 Clear 9 1024 66 10000 2.6 0 19:59 13.01.2020
869 Clear 9 1024 66 10000 3.6 90 19:39 13.01.2020
870 Clear 9 1024 66 10000 3.6 90 19:20 13.01.2020
871 Clear 9 1023 71 10000 5.1 80 18:56 13.01.2020
872 Clear 9 1023 71 10000 5.1 80 18:37 13.01.2020
873 Clear 9 1023 71 10000 5.1 80 18:18 13.01.2020
874 Clear 10 1023 71 10000 4.6 80 17:43 13.01.2020
875 Clear 10 1023 71 10000 4.6 70 17:25 13.01.2020
876 Clouds 11 1023 67 10000 5.7 70 16:57 13.01.2020
877 Clear 11 1023 70 0 1.34 49 16:38 13.01.2020
878 Clear 11 1026 84 0 1.79 90 16:20 13.01.2020
879 Clear 11 1023 68 0 1.79 62 15:44 13.01.2020
880 Clear 11 1027 79 0 2.24 135 15:24 13.01.2020
881 Clear 12 1026 75 0 0.89 113 14:59 13.01.2020
882 Clear 12 1027 73 0 1.34 135 14:40 13.01.2020
883 Clear 12 1027 72 0 1.79 68 14:22 13.01.2020
884 Clear 12 1027 69 0 0.89 135 13:56 13.01.2020
885 Clear 12 1027 69 0 0.89 135 13:56 13.01.2020
886 Clear 12 1023 62 0 2.24 66 13:37 13.01.2020
887 Clear 12 1027 71 0 0.89 180 13:19 13.01.2020
888 Clear 12 1025 66 10000 2.6 250 12:43 13.01.2020
889 Clear 12 1025 66 10000 2.6 250 12:23 13.01.2020
890 Clear 12 1025 66 10000 2.6 250 12:23 13.01.2020
891 Clear 12 1025 66 10000 2.6 250 11:58 13.01.2020
892 Clear 12 1025 66 10000 2.6 250 11:38 13.01.2020
893 Clear 12 1025 66 10000 2.6 250 11:38 13.01.2020
894 Clear 11 1025 66 10000 0.5 0 11:19 13.01.2020
895 Clear 11 1025 71 10000 1 0 10:56 13.01.2020
896 Clear 11 1025 76 10000 1.5 170 10:38 13.01.2020
897 Clear 10 1025 76 10000 1.5 170 10:19 13.01.2020
898 Clear 10 1024 71 10000 0.5 0 09:44 13.01.2020
899 Clear 9 1024 76 10000 1.5 170 09:26 13.01.2020
900 Clear 9 1024 76 10000 2.1 170 08:58 13.01.2020
901 Clear 9 1024 81 10000 3.1 200 08:37 13.01.2020
902 Clear 9 1024 81 10000 3.1 200 08:18 13.01.2020
903 Clear 8 1024 75 10000 2.1 150 07:44 13.01.2020
904 Clear 8 1023 76 10000 2.6 150 07:26 13.01.2020
905 Clear 8 1023 75 10000 1 180 06:39 13.01.2020
906 Clear 8 1023 71 10000 1 0 05:57 13.01.2020
907 Clear 8 1023 76 10000 1.5 170 05:19 13.01.2020
908 Clear 8 1024 71 10000 1 0 03:46 13.01.2020
909 Clear 8 1024 71 10000 1 0 02:51 13.01.2020
910 Clouds 8 1024 71 10000 1 190 02:30 13.01.2020
911 Clouds 9 1024 71 10000 1.5 200 01:33 13.01.2020
912 Clouds 9 1024 66 10000 1.5 210 00:55 13.01.2020
913 Clouds 8 1024 66 10000 2.1 190 00:36 13.01.2020
914 Clouds 8 1024 66 10000 2.1 190 00:18 13.01.2020
915 Clouds 9 1024 62 10000 1 0 23:40 12.01.2020
916 Clouds 9 1024 62 10000 1 0 23:22 12.01.2020
917 Clouds 9 1024 66 10000 3.1 80 22:57 12.01.2020
918 Clouds 9 1024 66 10000 3.1 80 22:39 12.01.2020
919 Clouds 9 1024 66 10000 2.1 150 22:19 12.01.2020
920 Clouds 8 1024 71 10000 3.6 80 21:54 12.01.2020
921 Clouds 8 1024 71 10000 3.6 80 21:54 12.01.2020
922 Clouds 8 1024 66 10000 3.6 70 21:36 12.01.2020
923 Clouds 8 1024 66 10000 3.6 70 21:36 12.01.2020
924 Clouds 8 1024 66 10000 3.6 70 21:18 12.01.2020
925 Clouds 8 1024 66 10000 4.6 80 20:54 12.01.2020
926 Clouds 8 1024 66 10000 5.1 70 20:36 12.01.2020
927 Clouds 8 1024 66 10000 5.1 70 20:18 12.01.2020
928 Clouds 9 1024 71 10000 4.6 70 19:54 12.01.2020
929 Clouds 9 1024 71 10000 4.1 70 19:36 12.01.2020
930 Clouds 9 1024 71 10000 4.1 70 19:18 12.01.2020
931 Clouds 9 1023 71 10000 3.6 70 18:56 12.01.2020
932 Clouds 9 1023 71 10000 3.6 70 18:38 12.01.2020
933 Clouds 10 1023 66 10000 4.1 70 18:19 12.01.2020
934 Clouds 10 1023 71 10000 4.1 80 17:42 12.01.2020
935 Clouds 11 1023 66 10000 4.6 60 17:21 12.01.2020
936 Clouds 11 1023 67 10000 5.1 60 16:58 12.01.2020
937 Clouds 11 1023 67 10000 5.1 60 16:38 12.01.2020
938 Clouds 11 1023 62 10000 4.6 70 16:20 12.01.2020
939 Clouds 12 1023 67 10000 5.1 50 15:55 12.01.2020
940 Clouds 12 1023 67 10000 5.7 40 15:37 12.01.2020
941 Clouds 12 1023 67 10000 5.7 40 15:19 12.01.2020
942 Clouds 13 1023 71 10000 4.1 30 14:42 12.01.2020
943 Clouds 12 1023 71 10000 4.1 30 14:23 12.01.2020
944 Clouds 12 1023 67 10000 2.1 20 13:57 12.01.2020
945 Clouds 12 1024 71 10000 3.6 10 13:39 12.01.2020
946 Clouds 12 1024 71 10000 3.6 10 13:20 12.01.2020
947 Clouds 12 1024 66 10000 2.6 10 12:55 12.01.2020
948 Clouds 13 1024 62 10000 1.5 340 12:37 12.01.2020
949 Clouds 13 1024 62 10000 1.5 340 12:18 12.01.2020
950 Clouds 12 1025 62 10000 1 330 11:41 12.01.2020
951 Clouds 11 1025 58 10000 1 0 11:22 12.01.2020
952 Clouds 12 1025 66 10000 0.5 0 10:56 12.01.2020
953 Clouds 12 1024 66 10000 0.5 0 10:37 12.01.2020
954 Clouds 11 1024 66 10000 0.5 0 10:18 12.01.2020
955 Clouds 9 1024 75 10000 1.5 180 09:42 12.01.2020
956 Clouds 9 1024 75 10000 1.5 180 09:23 12.01.2020
957 Clouds 7 1024 81 10000 1 0 08:48 12.01.2020
958 Clouds 7 1023 70 10000 1.5 160 08:24 12.01.2020
959 Clouds 7 1023 75 10000 2.1 180 07:47 12.01.2020
960 Clouds 7 1023 75 10000 2.1 190 07:26 12.01.2020
961 Clouds 7 1023 75 10000 2.1 190 07:26 12.01.2020
962 Clouds 7 1023 75 10000 2.1 180 06:59 12.01.2020
963 Clouds 7 1023 75 10000 2.1 180 06:59 12.01.2020
964 Clouds 7 1023 75 10000 1 170 06:36 12.01.2020
965 Clouds 7 1023 70 10000 1.5 190 05:52 12.01.2020
966 Clouds 7 1023 75 10000 1.5 200 04:56 12.01.2020
967 Clouds 7 1023 70 10000 1.5 190 03:43 12.01.2020
968 Clouds 8 1023 71 10000 1.5 160 02:46 12.01.2020
969 Clouds 7 1023 81 10000 2.6 170 02:24 12.01.2020
970 Clouds 6 1023 75 10000 2.6 150 01:34 12.01.2020
971 Clouds 8 1023 76 10000 1.5 110 00:46 12.01.2020
972 Clouds 6 1023 75 10000 1.5 150 00:22 12.01.2020
973 Clouds 7 1024 76 10000 2.6 140 23:57 11.01.2020
974 Clouds 7 1024 76 10000 2.6 140 23:39 11.01.2020
975 Clear 7 1024 76 10000 1.5 160 23:18 11.01.2020
976 Clear 7 1023 76 10000 1.5 160 22:56 11.01.2020
977 Clear 7 1023 71 10000 1.5 180 22:37 11.01.2020
978 Clear 7 1023 71 10000 1.5 180 22:19 11.01.2020
979 Clear 7 1023 70 10000 1 140 21:44 11.01.2020
980 Clear 8 1023 71 10000 2.6 120 21:19 11.01.2020
981 Clouds 8 1023 71 10000 2.1 120 20:57 11.01.2020
982 Clear 8 1023 62 10000 1 0 20:39 11.01.2020
983 Clouds 8 1023 62 10000 1 0 20:19 11.01.2020
984 Clouds 8 1023 71 10000 4.6 70 19:56 11.01.2020
985 Clouds 8 1023 66 10000 5.1 80 19:38 11.01.2020
986 Clouds 8 1023 66 10000 5.1 80 19:20 11.01.2020
987 Clouds 8 1023 71 10000 4.1 70 18:55 11.01.2020
988 Clouds 9 1023 62 10000 5.1 60 18:36 11.01.2020
989 Clouds 9 1023 62 10000 5.1 60 18:18 11.01.2020
990 Clouds 9 1023 62 10000 5.1 60 18:18 11.01.2020
991 Clouds 9 1023 62 10000 5.1 60 18:18 11.01.2020
992 Clouds 10 1022 66 10000 6.2 50 17:57 11.01.2020
993 Clouds 10 1022 66 10000 6.2 50 17:39 11.01.2020
994 Clear 11 1022 66 10000 6.2 50 17:18 11.01.2020
995 Clear 11 1022 62 10000 6.2 40 16:43 11.01.2020
996 Clear 12 1022 58 10000 4.6 50 16:24 11.01.2020
997 Clouds 12 1022 58 10000 4.6 40 15:56 11.01.2020
998 Clear 12 1022 62 10000 4.1 30 15:38 11.01.2020
999 Clear 12 1022 62 10000 4.1 30 15:19 11.01.2020
1000 Clouds 12 1022 62 10000 3.6 30 14:46 11.01.2020
1001 Clouds 12 1022 62 10000 4.6 30 14:25 11.01.2020
1002 Clouds 12 1022 62 10000 5.1 10 13:57 11.01.2020
1003 Clouds 12 1022 62 10000 5.1 10 13:38 11.01.2020
1004 Clouds 12 1023 62 10000 3.6 10 13:19 11.01.2020
1005 Clouds 13 1023 62 10000 2.1 360 12:55 11.01.2020
1006 Clouds 13 1024 66 10000 1.5 0 12:36 11.01.2020
1007 Clouds 13 1024 66 10000 1.5 0 12:18 11.01.2020
1008 Clouds 12 1025 71 10000 1.5 250 11:42 11.01.2020
1009 Clouds 12 1025 71 10000 1.5 250 11:23 11.01.2020
1010 Clouds 12 1025 71 10000 1 0 10:46 11.01.2020
1011 Clouds 11 1024 76 10000 1 180 10:25 11.01.2020
1012 Clouds 11 1024 71 10000 1.5 170 09:43 11.01.2020
1013 Clouds 10 1024 71 10000 1.5 170 09:21 11.01.2020
1014 Clouds 9 1024 76 10000 2.1 200 08:57 11.01.2020
1015 Clouds 9 1024 71 10000 1.5 220 08:38 11.01.2020
1016 Clouds 9 1024 71 10000 1.5 220 08:19 11.01.2020
1017 Clouds 8 1024 71 10000 1.5 220 07:42 11.01.2020
1018 Clouds 8 1024 76 10000 2.1 220 07:24 11.01.2020
1019 Clouds 8 1024 76 10000 3.1 220 06:43 11.01.2020
1020 Clouds 8 1023 75 10000 2.1 190 05:29 11.01.2020
1021 Clouds 8 1023 81 10000 2.1 160 04:40 11.01.2020
1022 Clouds 8 1024 81 10000 2.1 220 04:21 11.01.2020
1023 Clouds 8 1024 76 10000 1 0 02:46 11.01.2020
1024 Clouds 8 1024 62 10000 3.6 120 01:47 11.01.2020
1025 Clouds 8 1024 66 10000 1.5 60 01:27 11.01.2020
1026 Clouds 8 1024 71 10000 1 0 00:52 11.01.2020
1027 Clouds 8 1024 66 10000 1 0 00:25 11.01.2020
1028 Clouds 8 1024 71 10000 1 0 23:58 10.01.2020
1029 Clouds 8 1024 66 10000 2.1 70 23:39 10.01.2020
1030 Clouds 8 1024 66 10000 2.1 70 23:20 10.01.2020
1031 Clouds 9 1024 66 10000 2.1 120 22:41 10.01.2020
1032 Clouds 8 1024 58 10000 1 0 22:22 10.01.2020
1033 Clouds 8 1024 58 10000 3.6 110 21:59 10.01.2020
1034 Clouds 8 1024 66 10000 4.6 70 21:41 10.01.2020
1035 Clouds 8 1024 66 10000 4.6 70 21:20 10.01.2020
1036 Clouds 8 1024 62 10000 5.1 90 20:57 10.01.2020
1037 Clouds 8 1024 62 10000 5.1 90 20:38 10.01.2020
1038 Clear 8 1024 66 10000 4.6 70 20:20 10.01.2020
1039 Clear 8 1024 62 10000 5.1 90 19:40 10.01.2020
1040 Clear 8 1024 66 10000 4.6 90 19:21 10.01.2020
1041 Clear 9 1024 62 10000 4.6 90 18:56 10.01.2020
1042 Clear 9 1023 66 10000 4.6 80 18:37 10.01.2020
1043 Clear 9 1023 66 10000 4.6 80 18:18 10.01.2020
1044 Clear 9 1023 58 10000 4.6 70 17:56 10.01.2020
1045 Clear 10 1023 50 10000 5.1 80 17:38 10.01.2020
1046 Clear 10 1023 50 10000 5.1 80 17:38 10.01.2020
1047 Clear 10 1023 50 10000 5.1 80 17:19 10.01.2020
1048 Clear 11 1023 54 10000 7.2 70 16:43 10.01.2020
1049 Clear 11 1023 54 10000 7.2 70 16:22 10.01.2020
1050 Clear 11 1023 58 10000 6.7 60 15:58 10.01.2020
1051 Clear 11 1023 58 10000 6.7 60 15:39 10.01.2020
1052 Clear 12 1023 58 10000 6.7 60 15:20 10.01.2020
1053 Clear 12 1023 58 10000 6.7 60 14:59 10.01.2020
1054 Clear 12 1024 62 10000 6.7 60 14:40 10.01.2020
1055 Clear 12 1024 62 10000 6.7 60 14:19 10.01.2020
1056 Clear 12 1024 62 10000 6.2 50 13:58 10.01.2020
1057 Clear 12 1024 62 10000 6.2 50 13:39 10.01.2020
1058 Clear 12 1024 58 10000 6.2 50 13:21 10.01.2020
1059 Clear 12 1025 58 10000 4.6 60 12:57 10.01.2020
1060 Clear 12 1026 62 10000 1.5 290 12:38 10.01.2020
1061 Clear 12 1026 62 10000 1.5 290 12:18 10.01.2020
1062 Clear 12 1026 66 10000 1 0 11:42 10.01.2020
1063 Clear 12 1026 66 10000 1 0 11:42 10.01.2020
1064 Clear 11 1027 71 10000 1.5 250 11:22 10.01.2020
1065 Clear 11 1027 66 10000 1 0 10:59 10.01.2020
1066 Clear 11 1026 71 10000 1 0 10:39 10.01.2020
1067 Clear 11 1026 71 10000 1 0 10:21 10.01.2020
1068 Clear 10 1026 81 10000 1.5 160 09:56 10.01.2020
1069 Clear 9 1026 76 10000 1 140 09:37 10.01.2020
1070 Clear 8 1026 76 10000 1 140 09:19 10.01.2020
1071 Clear 8 1026 76 10000 1 140 09:19 10.01.2020
1072 Clear 8 1026 70 10000 1.5 160 08:40 10.01.2020
1073 Clear 8 1026 75 10000 1.5 190 08:22 10.01.2020
1074 Clear 7 1027 81 10000 1.5 180 07:44 10.01.2020
1075 Clear 8 1027 75 10000 1.5 190 07:23 10.01.2020
1076 Clear 7 1026 75 10000 1.5 140 06:45 10.01.2020
1077 Clear 7 1026 81 10000 1.5 130 06:25 10.01.2020
1078 Clear 8 1026 75 10000 2.1 140 05:46 10.01.2020
1079 Clear 8 1027 81 10000 2.1 150 03:35 10.01.2020
1080 Clear 8 1027 81 10000 2.1 170 02:59 10.01.2020
1081 Clear 8 1027 70 10000 0.5 80 02:39 10.01.2020
1082 Clear 8 1027 75 10000 3.1 140 01:38 10.01.2020
1083 Clear 8 1027 75 10000 3.1 140 01:19 10.01.2020
1084 Clear 9 1028 71 10000 2.1 190 00:39 10.01.2020
1085 Clear 8 1028 75 10000 2.6 180 23:58 09.01.2020
1086 Clear 8 1028 75 10000 2.6 180 23:38 09.01.2020
1087 Clear 9 1028 75 10000 2.1 190 23:20 09.01.2020
1088 Clear 8 1028 70 10000 2.1 170 22:57 09.01.2020
1089 Clear 8 1028 70 10000 2.1 170 22:38 09.01.2020
1090 Clear 8 1028 75 10000 2.1 170 22:19 09.01.2020
1091 Clear 8 1028 70 10000 2.1 170 21:57 09.01.2020
1092 Clear 8 1028 71 10000 1 0 21:37 09.01.2020
1093 Clear 8 1028 71 10000 1 0 21:37 09.01.2020
1094 Clear 8 1028 71 10000 1 0 21:37 09.01.2020
1095 Clear 8 1028 71 10000 1 0 21:37 09.01.2020
1096 Clear 8 1028 71 10000 1 0 21:19 09.01.2020
1097 Clear 9 1028 71 10000 1 0 20:56 09.01.2020
1098 Clear 8 1028 71 10000 1 0 20:38 09.01.2020
1099 Clear 8 1028 71 10000 1.5 120 20:19 09.01.2020
1100 Clear 8 1028 71 10000 1.5 120 20:19 09.01.2020
1101 Clear 8 1028 71 10000 1.5 120 19:56 09.01.2020
1102 Clear 9 1028 66 10000 1.5 100 19:37 09.01.2020
1103 Clear 9 1028 71 10000 2.1 110 19:19 09.01.2020
1104 Clear 9 1028 71 10000 2.1 110 18:55 09.01.2020
1105 Clear 9 1028 76 10000 3.6 70 18:36 09.01.2020
1106 Clear 9 1028 66 10000 4.1 70 18:18 09.01.2020
1107 Clear 10 1028 66 10000 3.6 60 17:41 09.01.2020
1108 Clear 11 1028 62 10000 3.6 60 17:18 09.01.2020
1109 Clear 11 1028 62 10000 3.1 50 16:48 09.01.2020
1110 Clear 12 1027 58 10000 2.6 20 16:24 09.01.2020
1111 Clear 12 1027 58 10000 2.6 20 15:59 09.01.2020
1112 Clear 13 1027 58 10000 2.1 20 15:40 09.01.2020
1113 Clear 13 1028 58 10000 1.5 360 15:19 09.01.2020
1114 Clear 13 1028 62 10000 1.5 340 14:42 09.01.2020
1115 Clear 13 1028 58 10000 1.5 290 14:22 09.01.2020
1116 Clear 13 1028 58 10000 1.5 290 13:57 09.01.2020
1117 Clear 13 1028 58 10000 2.1 280 13:39 09.01.2020
1118 Clear 13 1028 54 10000 2.1 260 13:20 09.01.2020
1119 Clear 13 1028 54 10000 2.1 260 12:59 09.01.2020
1120 Clear 13 1028 50 10000 2.6 250 12:40 09.01.2020
1121 Clear 13 1029 50 10000 2.6 250 12:20 09.01.2020
1122 Clear 13 1029 50 10000 2.6 250 11:57 09.01.2020
1123 Clear 12 1029 54 10000 2.6 250 11:38 09.01.2020
1124 Clear 12 1030 62 10000 1.5 240 11:20 09.01.2020
1125 Clear 12 1030 62 10000 1 0 10:43 09.01.2020
1126 Clear 12 1030 62 10000 1 0 10:22 09.01.2020
1127 Clear 11 1029 66 10000 1 220 09:58 09.01.2020
1128 Clear 11 1029 71 10000 1.5 170 09:38 09.01.2020
1129 Clear 10 1029 75 10000 2.6 210 09:19 09.01.2020
1130 Clear 10 1029 75 10000 2.6 210 08:55 09.01.2020
1131 Clear 9 1029 70 10000 1 110 08:37 09.01.2020
1132 Clear 8 1028 70 10000 1 0 08:19 09.01.2020
1133 Clear 7 1028 81 10000 0.5 0 07:42 09.01.2020
1134 Clear 8 1028 75 10000 1.5 130 07:23 09.01.2020
1135 Clear 7 1028 75 10000 1.5 180 06:38 09.01.2020
1136 Clear 8 1027 70 10000 2.1 160 06:20 09.01.2020
1137 Clear 8 1028 75 10000 2.1 150 05:48 09.01.2020
1138 Clear 8 1028 75 10000 1.5 160 04:43 09.01.2020
1139 Clear 8 1028 70 10000 1 0 03:31 09.01.2020
1140 Clear 8 1028 70 10000 0.5 0 02:53 09.01.2020
1141 Clear 8 1028 70 10000 0.5 0 02:24 09.01.2020
1142 Clear 8 1028 66 10000 1.5 160 01:39 09.01.2020
1143 Clear 9 1028 61 10000 1 0 00:43 09.01.2020
1144 Clear 9 1028 66 10000 2.1 180 00:21 09.01.2020
1145 Clear 9 1028 66 10000 2.1 180 00:21 09.01.2020
1146 Clear 9 1028 61 10000 1.5 150 23:42 08.01.2020
1147 Clear 9 1028 61 10000 1.5 150 23:24 08.01.2020
1148 Clear 9 1028 66 10000 1.5 90 22:59 08.01.2020
1149 Clear 9 1028 66 10000 1.5 90 22:39 08.01.2020
1150 Clear 9 1028 70 10000 2.1 120 22:20 08.01.2020
1151 Clear 9 1028 70 10000 2.1 120 21:57 08.01.2020
1152 Clear 9 1028 66 10000 2.1 160 21:38 08.01.2020
1153 Clear 9 1028 66 10000 2.6 150 21:19 08.01.2020
1154 Clear 9 1028 66 10000 2.6 150 20:58 08.01.2020
1155 Clear 9 1027 71 10000 2.1 140 20:38 08.01.2020
1156 Clouds 9 1027 62 10000 2.1 110 20:20 08.01.2020
1157 Clouds 10 1027 66 10000 1.5 90 19:56 08.01.2020
1158 Clouds 10 1027 66 10000 1.5 90 19:56 08.01.2020
1159 Clouds 9 1027 66 10000 1.5 90 19:37 08.01.2020
1160 Clouds 9 1027 66 10000 1.5 90 19:37 08.01.2020
1161 Clouds 9 1027 62 10000 1 0 19:18 08.01.2020
1162 Clouds 10 1026 62 10000 1 0 18:55 08.01.2020
1163 Clouds 10 1026 62 10000 1 0 18:37 08.01.2020
1164 Clouds 10 1026 62 10000 2.1 150 18:18 08.01.2020
1165 Clouds 11 1026 58 10000 4.6 80 17:47 08.01.2020
1166 Clouds 11 1026 58 10000 4.6 80 17:24 08.01.2020
1167 Clouds 11 1026 58 10000 4.6 80 17:24 08.01.2020
1168 Clouds 11 1025 62 10000 3.6 70 16:57 08.01.2020
1169 Clouds 11 1025 58 10000 4.1 70 16:39 08.01.2020
1170 Clouds 12 1025 58 10000 4.6 70 16:19 08.01.2020
1171 Clouds 12 1025 58 10000 4.6 70 16:19 08.01.2020
1172 Clouds 12 1025 58 10000 4.6 70 15:58 08.01.2020
1173 Clouds 12 1025 54 10000 4.1 60 15:39 08.01.2020
1174 Clouds 12 1025 58 10000 1.5 0 15:19 08.01.2020
1175 Clouds 12 1025 67 10000 2.6 360 14:55 08.01.2020
1176 Clouds 12 1025 67 10000 2.6 360 14:37 08.01.2020
1177 Clouds 12 1025 62 10000 1.5 360 14:19 08.01.2020
1178 Clouds 12 1025 62 10000 1.5 270 13:39 08.01.2020
1179 Clouds 12 1025 66 10000 2.1 240 13:18 08.01.2020
1180 Clouds 12 1025 66 10000 2.1 240 12:41 08.01.2020
1181 Clouds 12 1025 66 10000 3.1 230 12:19 08.01.2020
1182 Clouds 12 1025 66 10000 4.6 220 11:55 08.01.2020
1183 Clouds 12 1025 66 10000 3.1 230 11:55 08.01.2020
1184 Clouds 11 1025 66 10000 4.6 220 11:37 08.01.2020
1185 Clouds 11 1025 71 10000 3.6 220 11:18 08.01.2020
1186 Clouds 10 1025 76 10000 1.5 240 10:42 08.01.2020
1187 Clouds 10 1025 76 10000 1.5 240 10:22 08.01.2020
1188 Clouds 10 1024 81 10000 1.5 230 09:59 08.01.2020
1189 Clouds 11 1024 81 10000 2.1 200 09:41 08.01.2020
1190 Clouds 9 1024 71 10000 1 60 09:19 08.01.2020
1191 Clouds 9 1023 81 10000 1.5 80 08:43 08.01.2020
1192 Clouds 8 1023 81 10000 1.5 80 08:24 08.01.2020
1193 Clouds 9 1023 81 10000 1.5 120 07:59 08.01.2020
1194 Clouds 9 1023 81 10000 1.5 130 07:41 08.01.2020
1195 Clouds 9 1023 81 10000 1.5 130 07:23 08.01.2020
1196 Clouds 9 1023 81 10000 2.1 170 06:44 08.01.2020
1197 Clouds 9 1023 81 10000 3.1 220 05:59 08.01.2020
1198 Clouds 9 1023 81 10000 2.1 150 05:28 08.01.2020
1199 Clouds 9 1023 81 10000 2.6 150 04:46 08.01.2020
1200 Clouds 9 1024 81 10000 2.1 170 03:32 08.01.2020
1201 Clouds 9 999 85 0 1.34 204 02:44 08.01.2020
1202 Clouds 9 999 84 0 1.45 224 02:19 08.01.2020
1203 Clouds 9 1024 76 10000 2.6 160 01:40 08.01.2020
1204 Clouds 9 1024 76 10000 2.6 160 00:54 08.01.2020
1205 Clouds 9 1024 76 10000 2.6 160 00:26 08.01.2020
1206 Clouds 9 1024 76 10000 3.1 150 23:47 07.01.2020
1207 Clouds 9 1024 76 10000 3.6 150 23:22 07.01.2020
1208 Clouds 9 1024 76 10000 3.6 150 22:58 07.01.2020
1209 Clouds 9 1025 76 10000 2.1 150 22:39 07.01.2020
1210 Clouds 9 1025 71 10000 1 0 22:19 07.01.2020
1211 Clouds 9 1025 66 10000 2.1 0 21:54 07.01.2020
1212 Clouds 9 1025 66 10000 2.1 0 21:36 07.01.2020
1213 Clouds 9 1025 71 10000 0.5 0 21:18 07.01.2020
1214 Clouds 9 1025 76 10000 2.6 150 20:41 07.01.2020
1215 Clouds 9 1025 71 10000 2.1 150 20:23 07.01.2020
1216 Clouds 9 1025 71 10000 2.1 150 19:59 07.01.2020
1217 Clouds 9 1025 71 10000 1.5 170 19:38 07.01.2020
1218 Clouds 9 1025 71 10000 0.5 0 19:19 07.01.2020
1219 Clouds 9 1025 71 10000 0.5 0 19:19 07.01.2020
1220 Clouds 10 1025 66 10000 2.6 310 18:57 07.01.2020
1221 Clouds 10 1025 66 10000 2.6 310 18:38 07.01.2020
1222 Clouds 10 1025 62 10000 3.1 330 18:18 07.01.2020
1223 Clouds 10 1025 62 10000 3.1 330 17:57 07.01.2020
1224 Clouds 11 1025 58 10000 3.6 330 17:37 07.01.2020
1225 Clouds 11 1025 58 10000 3.6 340 17:19 07.01.2020
1226 Clouds 11 1025 58 10000 3.6 340 16:55 07.01.2020
1227 Clouds 11 1025 58 10000 3.6 340 16:37 07.01.2020
1228 Clouds 12 1025 62 10000 4.6 340 16:18 07.01.2020
1229 Clouds 12 1025 62 10000 4.6 340 15:43 07.01.2020
1230 Clouds 12 1025 62 10000 4.6 340 15:24 07.01.2020
1231 Clouds 12 1025 62 10000 4.6 340 15:24 07.01.2020
1232 Clouds 12 1025 62 10000 4.6 340 15:24 07.01.2020
1233 Clouds 12 1025 62 10000 4.6 340 14:59 07.01.2020
1234 Clouds 12 1024 62 10000 4.1 340 14:41 07.01.2020
1235 Clouds 12 1025 58 10000 2.1 250 14:22 07.01.2020
1236 Clouds 12 1025 58 10000 2.1 250 14:22 07.01.2020
1237 Clouds 12 1025 58 10000 2.1 250 13:55 07.01.2020
1238 Clouds 12 1025 58 10000 1.5 240 13:37 07.01.2020
1239 Clouds 12 1025 58 10000 1 0 13:18 07.01.2020
1240 Clouds 12 1025 58 10000 1 0 12:40 07.01.2020
1241 Clouds 12 1026 54 10000 0.5 0 12:19 07.01.2020
1242 Clouds 12 1026 58 10000 2.1 200 11:42 07.01.2020
1243 Clouds 11 1026 58 10000 2.6 190 11:23 07.01.2020
1244 Clouds 11 1026 58 10000 2.6 190 10:58 07.01.2020
1245 Clouds 10 1026 54 10000 2.1 170 10:39 07.01.2020
1246 Clouds 10 1026 58 10000 2.6 170 10:21 07.01.2020
1247 Clouds 10 1026 58 10000 2.6 170 09:56 07.01.2020
1248 Clouds 10 1026 62 10000 1.5 180 09:37 07.01.2020
1249 Clouds 9 1026 66 10000 2.6 140 09:19 07.01.2020
1250 Clouds 8 1026 65 10000 2.1 160 08:41 07.01.2020
1251 Clear 7 1026 61 10000 1 0 08:20 07.01.2020
1252 Clear 7 1025 50 10000 2.6 320 07:49 07.01.2020
1253 Clear 7 1025 50 10000 2.6 320 07:49 07.01.2020
1254 Clear 7 1025 57 10000 1.5 90 07:25 07.01.2020
1255 Clear 7 1026 57 10000 1.5 70 06:52 07.01.2020
1256 Clear 7 1026 57 10000 1.5 70 06:32 07.01.2020
1257 Clear 7 1025 57 10000 2.1 70 05:42 07.01.2020
1258 Clear 8 1026 53 10000 3.6 40 03:52 07.01.2020
1259 Clear 8 1026 53 10000 3.6 40 03:25 07.01.2020
1260 Clear 8 1026 50 10000 6.7 30 02:20 07.01.2020
1261 Clear 8 1025 57 10000 5.7 40 01:40 07.01.2020
1262 Clear 8 1026 57 10000 4.6 50 01:18 07.01.2020
1263 Clear 8 1026 50 10000 5.1 50 00:21 07.01.2020
1264 Clear 8 1026 50 10000 5.1 50 23:58 06.01.2020
1265 Clear 8 1026 50 10000 6.7 40 23:39 06.01.2020
1266 Clear 8 1026 57 10000 6.7 40 23:21 06.01.2020
1267 Clear 8 1026 57 10000 6.7 40 22:56 06.01.2020
1268 Clear 8 1026 50 10000 6.7 40 22:37 06.01.2020
1269 Clear 8 1026 67 10000 6.7 60 22:19 06.01.2020
1270 Clear 8 1026 67 10000 6.7 60 21:54 06.01.2020
1271 Clouds 8 1026 67 10000 6.7 60 21:36 06.01.2020
1272 Clouds 8 1026 67 10000 6.7 60 21:36 06.01.2020
1273 Clear 8 1025 57 10000 7.2 50 21:18 06.01.2020
1274 Clear 8 1025 57 10000 7.2 50 20:54 06.01.2020
1275 Clouds 8 1025 57 10000 8.2 50 20:54 06.01.2020
1276 Clouds 8 1025 57 10000 8.2 50 20:36 06.01.2020
1277 Clouds 8 1025 53 10000 8.2 50 20:18 06.01.2020
1278 Clouds 8 1025 53 10000 8.2 50 19:55 06.01.2020
1279 Clouds 8 1025 53 10000 7.7 40 19:36 06.01.2020
1280 Clouds 7 1025 53 10000 8.7 60 19:18 06.01.2020
1281 Clouds 8 1025 64 10000 6.7 60 18:43 06.01.2020
1282 Clouds 8 1024 57 10000 9.3 40 18:20 06.01.2020
1283 Clouds 8 1025 53 10000 8.7 50 17:39 06.01.2020
1284 Clouds 7 1025 65 10000 7.2 60 17:20 06.01.2020
1285 Clouds 7 1025 65 10000 7.2 60 16:57 06.01.2020
1286 Clouds 8 1024 65 10000 9.8 50 16:38 06.01.2020
1287 Clouds 9 1025 50 10000 8.2 50 16:19 06.01.2020
1288 Clouds 10 1024 50 10000 9.3 50 15:43 06.01.2020
1289 Clouds 10 1025 65 10000 8.2 50 15:22 06.01.2020
1290 Clouds 10 1025 65 10000 8.2 50 14:59 06.01.2020
1291 Clouds 10 1024 65 10000 8.7 50 14:41 06.01.2020
1292 Clear 10 1024 59 10000 8.7 50 14:22 06.01.2020
1293 Clear 9 1024 46 10000 9.3 50 13:59 06.01.2020
1294 Clear 9 1024 46 10000 9.3 50 13:38 06.01.2020
1295 Clear 9 1024 46 10000 10.8 40 13:20 06.01.2020
1296 Clear 9 1024 46 10000 10.8 40 12:55 06.01.2020
1297 Clear 9 1025 61 10000 10.8 40 12:37 06.01.2020
1298 Clear 10 1025 40 10000 9.3 50 12:18 06.01.2020
1299 Clear 9 1025 40 10000 10.3 50 11:41 06.01.2020
1300 Clear 9 1025 58 10000 10.8 50 11:23 06.01.2020
1301 Clear 9 1025 40 10000 12.9 50 10:59 06.01.2020
1302 Clear 9 1025 40 10000 12.9 50 10:40 06.01.2020
1303 Clear 9 1026 40 10000 11.3 50 10:20 06.01.2020
1304 Clear 9 1025 58 10000 12.9 40 09:39 06.01.2020
1305 Clear 9 1025 40 10000 13.4 40 09:20 06.01.2020
1306 Clear 8 1025 46 10000 11.8 40 08:52 06.01.2020
1307 Clear 8 1025 46 10000 11.8 40 08:34 06.01.2020
1308 Clear 8 1025 40 10000 12.9 40 07:57 06.01.2020
1309 Clear 8 1025 34 10000 12.9 50 07:36 06.01.2020
1310 Clear 8 1024 37 10000 14.9 40 06:47 06.01.2020
1311 Clear 8 1024 37 10000 14.9 40 06:27 06.01.2020
1312 Clear 8 1024 51 10000 15.4 40 05:48 06.01.2020
1313 Clear 8 1024 34 10000 13.9 50 04:55 06.01.2020
1314 Clear 8 1024 49 10000 15.4 40 04:21 06.01.2020
1315 Clear 10 1024 40 10000 15.4 40 03:25 06.01.2020
1316 Clear 9 1024 34 10000 15.9 50 02:25 06.01.2020
1317 Clear 9 1024 45 10000 15.9 40 01:46 06.01.2020
1318 Clear 9 1024 44 10000 15.9 40 01:28 06.01.2020
1319 Clear 9 1024 44 10000 15.4 50 00:44 06.01.2020
1320 Clear 10 1024 44 10000 15.4 50 00:24 06.01.2020
1321 Clear 10 1025 47 10000 15.4 40 23:43 05.01.2020
1322 Clear 10 1025 47 10000 15.4 40 23:23 05.01.2020
1323 Clear 10 1025 44 10000 15.4 40 22:58 05.01.2020
1324 Clear 10 1025 44 10000 15.4 40 22:39 05.01.2020
1325 Clear 10 1025 47 10000 13.4 50 22:20 05.01.2020
1326 Clear 10 1025 47 10000 13.4 50 21:56 05.01.2020
1327 Clear 10 1025 47 10000 13.4 40 21:38 05.01.2020
1328 Clear 11 1025 44 10000 13.4 50 21:20 05.01.2020
1329 Clear 11 1025 44 10000 13.4 50 21:20 05.01.2020
1330 Clear 11 1025 44 10000 13.4 50 20:56 05.01.2020
1331 Clear 11 1025 50 10000 13.4 40 20:38 05.01.2020
1332 Clouds 11 1025 41 10000 11.8 50 20:19 05.01.2020
1333 Clouds 11 1025 41 10000 11.8 50 19:57 05.01.2020
1334 Clouds 11 1024 41 10000 12.3 50 19:38 05.01.2020
1335 Clouds 11 1024 41 10000 12.3 50 19:19 05.01.2020
1336 Clouds 11 1024 41 10000 12.3 50 18:55 05.01.2020
1337 Clouds 11 1024 41 10000 11.3 60 18:37 05.01.2020
1338 Clouds 11 1024 41 10000 11.3 60 18:37 05.01.2020
1339 Clouds 11 1023 35 10000 11.3 60 18:18 05.01.2020
1340 Clouds 11 1023 35 10000 11.3 60 17:57 05.01.2020
1341 Clouds 11 1023 44 10000 11.3 50 17:38 05.01.2020
1342 Clouds 11 1023 50 10000 11.3 50 17:19 05.01.2020
1343 Clouds 11 1023 50 10000 11.3 50 16:55 05.01.2020
1344 Clouds 12 1022 47 10000 10.8 50 16:37 05.01.2020
1345 Clouds 12 1022 47 10000 11.3 50 16:19 05.01.2020
1346 Clouds 12 1022 58 10000 10.8 40 15:37 05.01.2020
1347 Clouds 12 1022 62 10000 9.8 50 15:18 05.01.2020
1348 Clouds 13 1022 62 10000 9.8 50 14:55 05.01.2020
1349 Clouds 13 1022 67 10000 9.3 40 14:37 05.01.2020
1350 Clouds 13 1022 67 10000 9.3 40 14:18 05.01.2020
1351 Clouds 13 1021 67 10000 9.8 40 13:40 05.01.2020
1352 Clouds 13 1022 72 10000 9.8 30 13:21 05.01.2020
1353 Clouds 13 1022 72 10000 9.3 30 12:58 05.01.2020
1354 Clouds 13 1022 72 10000 9.3 30 12:39 05.01.2020
1355 Clouds 13 1022 72 10000 9.3 30 12:39 05.01.2020
1356 Clouds 13 1022 72 10000 10.3 20 12:21 05.01.2020
1357 Clouds 13 1022 72 10000 10.3 20 11:59 05.01.2020
1358 Clouds 13 1022 77 10000 9.8 10 11:40 05.01.2020
1359 Clouds 13 1022 77 10000 9.8 10 11:40 05.01.2020
1360 Clouds 12 1022 72 10000 9.3 20 11:19 05.01.2020
1361 Clouds 12 1022 72 10000 9.3 20 11:19 05.01.2020
1362 Clouds 12 1022 72 10000 9.3 20 10:56 05.01.2020
1363 Clouds 12 1023 77 10000 7.7 20 10:37 05.01.2020
1364 Clouds 12 1023 77 10000 7.7 20 10:37 05.01.2020
1365 Clouds 12 1023 77 10000 7.7 20 10:37 05.01.2020
1366 Clouds 12 1023 77 10000 7.7 20 10:37 05.01.2020
1367 Clouds 12 1023 77 10000 7.7 20 10:37 05.01.2020
1368 Clouds 13 1022 77 10000 7.7 360 10:18 05.01.2020
1369 Clouds 12 1022 72 10000 6.7 360 09:41 05.01.2020
1370 Clouds 12 1022 72 10000 6.7 360 09:21 05.01.2020
1371 Clouds 11 1022 77 10000 8.2 10 08:49 05.01.2020
1372 Clouds 11 1022 77 10000 8.2 10 08:30 05.01.2020
1373 Clouds 11 1022 72 10000 7.7 360 07:56 05.01.2020
1374 Clouds 11 1022 72 10000 6.2 350 07:37 05.01.2020
1375 Clouds 11 1021 72 10000 5.1 340 07:18 05.01.2020
1376 Clouds 11 1021 76 10000 7.7 350 05:59 05.01.2020
1377 Clouds 11 1021 67 10000 5.1 310 05:32 05.01.2020
1378 Clouds 11 1021 76 10000 6.2 320 04:43 05.01.2020
1379 Clouds 11 1021 71 10000 5.1 310 04:18 05.01.2020
1380 Clouds 11 1021 71 10000 5.1 310 04:18 05.01.2020
1381 Clouds 11 1022 76 10000 4.6 320 02:46 05.01.2020
1382 Clouds 11 1022 76 10000 4.6 320 02:24 05.01.2020
1383 Clouds 11 1022 76 10000 4.6 280 01:48 05.01.2020
1384 Clouds 10 1022 76 10000 4.6 280 01:18 05.01.2020
1385 Clouds 10 1022 76 10000 5.1 280 00:41 05.01.2020
1386 Clouds 10 1022 76 10000 4.6 280 00:23 05.01.2020
1387 Clouds 11 1022 76 10000 4.6 280 23:59 04.01.2020
1388 Clouds 10 1022 76 10000 4.6 290 23:40 04.01.2020
1389 Clouds 11 1022 76 10000 4.6 280 23:19 04.01.2020
1390 Clouds 11 1022 76 10000 2.1 240 22:40 04.01.2020
1391 Clouds 11 1023 76 10000 2.1 180 22:22 04.01.2020
1392 Clouds 11 1023 76 10000 2.1 180 21:58 04.01.2020
1393 Clouds 11 1023 76 10000 2.1 160 21:39 04.01.2020
1394 Clouds 11 1023 76 10000 2.1 180 21:20 04.01.2020
1395 Clouds 11 1023 76 10000 2.1 180 20:59 04.01.2020
1396 Clouds 11 1023 76 10000 2.1 190 20:40 04.01.2020
1397 Clouds 11 1023 76 10000 2.1 190 20:21 04.01.2020
1398 Clouds 11 1023 71 10000 1.5 190 19:57 04.01.2020
1399 Clouds 11 1023 71 10000 1.5 190 19:57 04.01.2020
1400 Clouds 11 1023 71 10000 1.5 210 19:38 04.01.2020
1401 Clouds 12 1023 71 10000 2.6 250 19:20 04.01.2020
1402 Clouds 12 1023 71 10000 2.6 250 18:55 04.01.2020
1403 Clouds 12 1023 72 10000 3.1 260 18:36 04.01.2020
1404 Clouds 12 1023 72 10000 3.1 280 18:18 04.01.2020
1405 Clouds 12 1023 72 10000 2.6 280 17:41 04.01.2020
1406 Clouds 12 1023 72 10000 2.6 280 17:41 04.01.2020
1407 Clouds 12 1023 67 10000 3.1 270 17:23 04.01.2020
1408 Clouds 12 1023 67 10000 3.1 270 16:58 04.01.2020
1409 Clouds 13 1023 62 10000 4.1 280 16:39 04.01.2020
1410 Clouds 13 1023 67 10000 4.1 270 16:21 04.01.2020
1411 Clouds 13 1023 67 10000 4.1 270 15:54 04.01.2020
1412 Clouds 13 1023 62 10000 4.1 280 15:36 04.01.2020
1413 Clouds 13 1023 62 10000 4.6 270 15:18 04.01.2020
1414 Clouds 13 1024 62 10000 5.1 260 14:42 04.01.2020
1415 Clouds 13 1024 58 10000 2.6 250 14:20 04.01.2020
1416 Clouds 13 1024 58 10000 2.6 250 13:59 04.01.2020
1417 Clouds 13 1024 58 10000 2.6 250 13:59 04.01.2020
1418 Clouds 13 1024 58 10000 3.1 290 13:38 04.01.2020
1419 Clouds 13 1024 58 10000 3.1 290 13:38 04.01.2020
1420 Clouds 12 1025 67 10000 3.6 300 13:19 04.01.2020
1421 Clouds 13 1025 67 10000 3.6 300 12:57 04.01.2020
1422 Clouds 13 1025 71 10000 4.6 310 12:39 04.01.2020
1423 Clouds 13 1025 67 10000 4.6 310 12:18 04.01.2020
1424 Clouds 13 1025 67 10000 4.6 310 11:56 04.01.2020
1425 Clouds 13 1026 71 10000 4.1 310 11:37 04.01.2020
1426 Clouds 13 1026 71 10000 4.1 320 11:18 04.01.2020
1427 Clouds 11 1026 67 10000 2.1 10 10:40 04.01.2020
1428 Clouds 11 1026 71 10000 2.6 340 10:21 04.01.2020
1429 Clouds 11 1026 76 10000 5.1 300 09:47 04.01.2020
1430 Clouds 11 1026 76 10000 5.1 300 09:26 04.01.2020
1431 Clouds 10 1026 76 10000 4.1 310 08:49 04.01.2020
1432 Clouds 10 1026 76 10000 4.1 310 08:29 04.01.2020
1433 Clouds 10 1026 71 10000 4.1 300 07:57 04.01.2020
1434 Clouds 10 1026 71 10000 3.6 300 07:39 04.01.2020
1435 Clouds 10 1026 66 10000 1.5 0 06:44 04.01.2020
1436 Clouds 10 1026 71 10000 2.1 150 05:59 04.01.2020
1437 Clouds 10 1026 58 10000 2.6 270 04:52 04.01.2020
1438 Clouds 10 1026 62 10000 2.1 310 04:31 04.01.2020
1439 Clouds 11 1027 62 10000 2.1 310 03:30 04.01.2020
1440 Clouds 11 1027 62 10000 2.1 310 02:52 04.01.2020
1441 Clouds 10 1027 67 10000 4.6 300 02:18 04.01.2020
1442 Clouds 10 1027 62 10000 1 0 01:51 04.01.2020
1443 Clouds 10 1027 62 10000 1 0 01:30 04.01.2020
1444 Clouds 10 1028 62 10000 1.5 320 00:29 04.01.2020
1445 Clouds 10 1028 62 10000 2.6 340 23:59 03.01.2020
1446 Clouds 10 1028 62 10000 2.6 350 23:37 03.01.2020
1447 Clouds 10 1028 58 10000 2.1 300 23:19 03.01.2020
1448 Clouds 10 1028 67 10000 3.6 320 22:41 03.01.2020
1449 Clouds 10 1028 62 10000 4.1 330 22:19 03.01.2020
1450 Clouds 11 1028 62 10000 4.1 330 21:58 03.01.2020
1451 Clouds 10 1028 67 10000 3.1 330 21:38 03.01.2020
1452 Clouds 10 1028 62 10000 1.5 30 21:19 03.01.2020
1453 Clouds 10 1028 62 10000 1.5 30 21:19 03.01.2020
1454 Clouds 10 1028 62 10000 2.6 350 20:56 03.01.2020
1455 Clouds 11 1028 62 10000 2.6 350 20:38 03.01.2020
1456 Clouds 10 1028 62 10000 3.1 350 20:18 03.01.2020
1457 Clouds 11 1028 67 10000 2.6 350 19:55 03.01.2020
1458 Clouds 11 1028 67 10000 2.6 350 19:37 03.01.2020
1459 Clouds 10 1028 67 10000 2.6 360 19:18 03.01.2020
1460 Clouds 10 1028 67 10000 3.6 350 18:40 03.01.2020
1461 Clouds 10 1028 62 10000 2.1 40 18:21 03.01.2020
1462 Clouds 10 1028 67 10000 2.6 350 17:55 03.01.2020
1463 Clouds 11 1028 67 10000 2.6 350 17:36 03.01.2020
1464 Clouds 11 1028 67 10000 3.1 350 17:18 03.01.2020
1465 Clouds 11 1028 67 10000 3.6 350 16:42 03.01.2020
1466 Clouds 11 1028 71 10000 3.6 350 16:22 03.01.2020
1467 Clouds 12 1028 67 10000 1.5 0 15:43 03.01.2020
1468 Clouds 12 1028 71 10000 0.5 0 15:19 03.01.2020
1469 Clouds 12 1028 71 10000 0.5 0 14:57 03.01.2020
1470 Clouds 13 1028 67 10000 0.5 0 14:37 03.01.2020
1471 Clouds 13 1028 62 10000 1 0 14:19 03.01.2020
1472 Clouds 12 1029 62 10000 1 0 13:43 03.01.2020
1473 Clouds 12 1029 67 10000 1 0 13:23 03.01.2020
1474 Clouds 13 1029 67 10000 1 0 12:58 03.01.2020
1475 Clouds 13 1029 71 10000 1 0 12:38 03.01.2020
1476 Clouds 13 1030 71 10000 1.5 240 12:20 03.01.2020
1477 Clouds 12 1030 71 10000 1.5 260 11:44 03.01.2020
1478 Clear 12 1030 67 10000 0.5 0 11:20 03.01.2020
1479 Clear 11 1030 71 10000 1 0 10:44 03.01.2020
1480 Clear 11 1030 71 10000 1 0 10:25 03.01.2020
1481 Clear 11 1030 71 10000 1 0 10:25 03.01.2020
1482 Clear 11 1030 76 10000 1.5 170 09:58 03.01.2020
1483 Clouds 11 1030 81 10000 2.1 170 09:39 03.01.2020
1484 Clear 9 1030 87 10000 2.1 170 09:21 03.01.2020
1485 Clear 9 1029 87 10000 2.1 180 08:56 03.01.2020
1486 Clear 9 1029 87 10000 2.1 180 08:37 03.01.2020
1487 Clear 9 1029 81 10000 1.5 180 08:19 03.01.2020
1488 Clear 7 1029 87 10000 2.6 180 07:39 03.01.2020
1489 Clear 7 1029 87 10000 0.5 0 07:18 03.01.2020
1490 Clouds 8 1028 87 10000 1 0 06:47 03.01.2020
1491 Clouds 8 1028 87 10000 1 0 06:28 03.01.2020
1492 Clouds 8 1028 81 10000 1.5 140 05:30 03.01.2020
1493 Clear 8 1029 76 10000 1.5 80 04:19 03.01.2020
1494 Clear 9 1029 71 10000 2.6 70 02:56 03.01.2020
1495 Clear 9 1029 71 10000 2.6 70 02:56 03.01.2020
1496 Clear 9 1029 71 10000 2.6 70 02:28 03.01.2020
1497 Clear 9 1029 71 10000 2.6 90 01:39 03.01.2020
1498 Clear 9 1030 71 10000 3.1 80 00:49 03.01.2020
1499 Clear 9 1030 71 10000 3.1 80 00:29 03.01.2020
1500 Clouds 9 1030 71 10000 3.1 80 23:55 02.01.2020
1501 Clouds 9 1030 71 10000 3.1 80 23:37 02.01.2020
1502 Clouds 9 1030 76 10000 3.1 80 23:18 02.01.2020
1503 Clouds 8 1030 81 10000 2.6 80 22:44 02.01.2020
1504 Clouds 9 1030 76 10000 3.1 70 22:21 02.01.2020
1505 Clouds 9 1030 76 10000 3.1 70 22:21 02.01.2020
1506 Clouds 9 1030 76 10000 3.1 70 21:57 02.01.2020
1507 Clouds 9 1030 71 10000 3.1 70 21:39 02.01.2020
1508 Clouds 10 1030 76 10000 3.1 60 21:21 02.01.2020
1509 Clouds 10 1030 76 10000 3.1 60 20:57 02.01.2020
1510 Clouds 10 1030 76 10000 3.1 80 20:39 02.01.2020
1511 Rain 10 1030 76 10000 3.1 40 20:20 02.01.2020
1512 Rain 10 1030 76 10000 3.1 40 19:55 02.01.2020
1513 Rain 10 1030 81 10000 3.1 60 19:37 02.01.2020
1514 Rain 10 1030 81 10000 3.1 60 19:37 02.01.2020
1515 Clouds 10 1030 76 10000 3.6 50 19:19 02.01.2020
1516 Clouds 10 1030 76 10000 3.6 50 18:56 02.01.2020
1517 Clouds 10 1029 76 10000 3.6 50 18:38 02.01.2020
1518 Clouds 11 1029 76 10000 3.1 40 18:20 02.01.2020
1519 Clouds 11 1029 76 10000 3.1 40 17:56 02.01.2020
1520 Clouds 11 1029 76 10000 2.6 60 17:36 02.01.2020
1521 Clouds 11 1029 76 10000 2.6 40 17:18 02.01.2020
1522 Clouds 11 1029 76 10000 2.6 40 16:56 02.01.2020
1523 Clouds 12 1029 72 10000 2.6 30 16:38 02.01.2020
1524 Clouds 12 1029 72 10000 2.6 30 16:19 02.01.2020
1525 Clouds 12 1029 72 10000 3.6 350 15:44 02.01.2020
1526 Clouds 12 1029 77 10000 3.6 360 15:24 02.01.2020
1527 Clouds 13 1029 77 10000 4.1 350 14:58 02.01.2020
1528 Clouds 13 1029 77 10000 4.1 350 14:38 02.01.2020
1529 Clouds 13 1029 77 10000 4.1 350 14:20 02.01.2020
1530 Clouds 13 1029 77 10000 4.1 350 13:58 02.01.2020
1531 Clouds 13 1029 72 10000 3.6 350 13:39 02.01.2020
1532 Clouds 13 1029 72 10000 0.5 0 13:18 02.01.2020
1533 Clouds 13 1030 67 10000 1.5 300 12:42 02.01.2020
1534 Clouds 13 1030 67 10000 0.5 0 12:21 02.01.2020
1535 Clouds 13 1030 67 10000 0.5 0 11:42 02.01.2020
1536 Clouds 12 1030 71 10000 1.5 240 11:21 02.01.2020
1537 Clouds 12 1030 76 10000 1 0 10:46 02.01.2020
1538 Rain 12 1030 76 10000 1 0 10:28 02.01.2020
1539 Rain 11 1030 71 10000 2.1 190 09:57 02.01.2020
1540 Rain 11 1030 76 10000 2.1 190 09:35 02.01.2020
1541 Clouds 9 1029 81 10000 2.1 190 08:59 02.01.2020
1542 Clouds 8 1029 81 10000 2.1 190 08:39 02.01.2020
1543 Clouds 9 1029 76 10000 2.1 100 08:19 02.01.2020
1544 Clouds 9 1029 71 10000 2.1 80 07:47 02.01.2020
1545 Clouds 9 1029 71 10000 2.1 80 07:26 02.01.2020
1546 Clear 9 1028 76 10000 3.1 70 06:41 02.01.2020
1547 Clear 8 1028 76 10000 3.1 80 05:40 02.01.2020
1548 Clear 8 1028 76 10000 3.6 80 04:35 02.01.2020
1549 Clear 8 1004 96 0 1.06 325 03:29 02.01.2020
1550 Clear 8 1029 76 10000 4.1 80 02:21 02.01.2020
1551 Clear 8 1004 96 0 1.47 327 01:53 02.01.2020
1552 Clear 8 1029 81 10000 3.6 70 01:25 02.01.2020
1553 Clear 8 1004 93 0 1.33 306 00:38 02.01.2020
1554 Clear 8 1029 76 10000 3.1 80 00:20 02.01.2020
1555 Clear 8 1004 93 0 1.33 306 23:42 01.01.2020
1556 Clear 8 1004 92 0 1.04 321 23:21 01.01.2020
1557 Clear 8 1004 92 0 1.04 321 23:21 01.01.2020
1558 Clear 8 1004 91 0 1.04 321 22:39 01.01.2020
1559 Clear 8 1004 91 0 1.04 321 22:39 01.01.2020
1560 Clear 8 1004 91 0 1.04 321 22:39 01.01.2020
1561 Clear 8 1032 87 0 2.24 315 22:20 01.01.2020
1562 Clear 8 1004 90 0 1.04 321 22:20 01.01.2020
1563 Clear 8 1004 89 0 1.04 321 21:58 01.01.2020
1564 Clear 8 1029 71 10000 1.5 60 21:39 01.01.2020
1565 Clouds 9 1029 66 10000 2.1 70 21:20 01.01.2020
1566 Clouds 9 1029 66 10000 2.1 70 21:20 01.01.2020
1567 Clouds 9 1029 66 10000 2.1 70 20:57 01.01.2020
1568 Clouds 9 1029 71 10000 2.1 100 20:38 01.01.2020
1569 Clear 8 1004 84 0 1.55 316 20:20 01.01.2020
1570 Clear 8 1004 83 0 1.55 316 19:57 01.01.2020
1571 Clouds 8 1028 71 10000 3.1 60 19:38 01.01.2020
1572 Clouds 8 1028 71 10000 2.6 70 19:20 01.01.2020
1573 Clouds 9 1028 71 10000 2.1 70 18:57 01.01.2020
1574 Clouds 10 1028 71 10000 2.1 70 18:37 01.01.2020
1575 Clear 9 1028 66 10000 2.6 80 18:19 01.01.2020
1576 Clear 9 1028 66 10000 2.6 80 17:57 01.01.2020
1577 Clouds 10 1028 62 10000 3.6 40 17:39 01.01.2020
1578 Clouds 10 1028 62 10000 3.1 30 17:19 01.01.2020
1579 Clouds 10 1028 62 10000 3.1 30 16:57 01.01.2020
1580 Clouds 10 1028 62 10000 3.1 40 16:37 01.01.2020
1581 Clouds 11 1028 58 10000 4.1 20 16:19 01.01.2020
1582 Clouds 11 1028 58 10000 4.1 20 16:19 01.01.2020
1583 Clouds 11 1028 58 10000 4.1 20 15:54 01.01.2020
1584 Clouds 12 1028 58 10000 4.1 60 15:36 01.01.2020
1585 Clouds 12 1028 58 10000 4.6 40 15:18 01.01.2020
1586 Clouds 12 1028 58 10000 4.1 30 14:41 01.01.2020
1587 Clouds 12 1028 54 10000 3.6 360 14:23 01.01.2020
1588 Clouds 12 1028 54 10000 3.6 360 13:57 01.01.2020
1589 Clouds 12 1028 58 10000 3.6 10 13:38 01.01.2020
1590 Clouds 12 1028 54 10000 2.1 20 13:19 01.01.2020
1591 Clouds 12 1028 54 10000 2.1 20 12:57 01.01.2020
1592 Clouds 12 1028 54 10000 2.1 20 12:39 01.01.2020
1593 Clouds 12 1029 58 10000 2.6 10 12:19 01.01.2020
1594 Clouds 12 1029 58 10000 2.6 10 11:56 01.01.2020
1595 Clouds 12 1029 58 10000 2.6 10 11:56 01.01.2020
1596 Clouds 11 1029 58 10000 2.1 20 11:37 01.01.2020
1597 Clouds 11 1029 58 10000 3.1 20 11:18 01.01.2020
1598 Clouds 11 1029 58 10000 3.1 20 10:54 01.01.2020
1599 Clouds 10 1029 62 10000 2.6 20 10:36 01.01.2020
1600 Clouds 10 1029 62 10000 1.5 360 10:18 01.01.2020
1601 Clouds 10 1029 62 10000 1.5 50 09:38 01.01.2020
1602 Clouds 9 1029 71 10000 1.5 100 09:19 01.01.2020
1603 Clouds 9 1029 71 10000 1.5 100 09:19 01.01.2020
1604 Clouds 9 1029 71 10000 1.5 100 08:56 01.01.2020
1605 Clouds 9 1028 66 10000 1.5 110 08:37 01.01.2020
1606 Clouds 9 1028 66 10000 1.5 110 08:37 01.01.2020
1607 Clouds 8 1028 66 10000 1 0 08:19 01.01.2020
1608 Clouds 8 1028 58 10000 2.6 330 07:55 01.01.2020
1609 Clouds 8 1028 66 10000 1 0 07:55 01.01.2020
1610 Clouds 8 1028 58 10000 2.6 330 07:37 01.01.2020
1611 Clouds 8 1028 58 10000 2.6 330 07:37 01.01.2020
1612 Clouds 8 1028 54 10000 3.6 360 06:45 01.01.2020
1613 Clouds 8 1028 54 10000 3.6 350 06:22 01.01.2020
1614 Clouds 8 1028 54 10000 4.6 340 05:45 01.01.2020
1615 Clouds 8 1028 58 10000 4.6 350 03:47 01.01.2020
1616 Clouds 7 1003 81 0 1.67 325 03:24 01.01.2020
1617 Clouds 7 1004 81 0 1.67 325 02:59 01.01.2020
1618 Clouds 7 1004 81 0 1.67 325 02:40 01.01.2020
1619 Clear 7 1004 80 0 0.81 310 02:21 01.01.2020
1620 Clear 7 1004 81 0 0.81 310 01:39 01.01.2020
1621 Clear 7 1004 81 0 0.81 310 01:39 01.01.2020
1622 Clear 6 1004 81 0 0.72 313 01:21 01.01.2020
1623 Clear 7 1004 80 0 0.72 313 00:44 01.01.2020
1624 Clear 7 1004 80 0 0.72 313 00:44 01.01.2020
1625 Clear 6 1004 79 0 0.72 313 00:26 01.01.2020
1626 Clouds 7 1029 57 10000 3.6 50 23:43 31.12.2019
1627 Clouds 7 1029 57 10000 3.6 50 23:24 31.12.2019
1628 Clouds 7 1029 57 10000 3.6 50 22:59 31.12.2019
1629 Clouds 7 1029 57 10000 4.1 50 22:39 31.12.2019
1630 Clouds 7 1030 57 10000 4.6 50 22:20 31.12.2019
1631 Clouds 7 1030 57 10000 4.6 50 21:59 31.12.2019
1632 Clouds 7 1030 58 10000 5.7 30 21:41 31.12.2019
1633 Clouds 7 1030 58 10000 5.1 30 21:23 31.12.2019
1634 Clouds 8 1030 58 10000 5.1 30 20:57 31.12.2019
1635 Clouds 8 1030 58 10000 5.1 30 20:37 31.12.2019
1636 Clouds 7 1030 58 10000 5.1 30 20:37 31.12.2019
1637 Clouds 7 1030 57 10000 2.6 60 20:19 31.12.2019
1638 Clouds 8 1030 57 10000 2.6 60 19:55 31.12.2019
1639 Clouds 8 1029 62 10000 3.6 40 19:37 31.12.2019
1640 Clouds 8 1030 54 10000 4.1 30 19:18 31.12.2019
1641 Clouds 8 1030 54 10000 4.1 30 18:54 31.12.2019
1642 Clouds 8 1030 54 10000 4.1 30 18:54 31.12.2019
1643 Clouds 8 1029 58 10000 5.1 30 18:36 31.12.2019
1644 Clouds 8 1029 62 10000 5.1 30 18:18 31.12.2019
1645 Clouds 8 1029 62 10000 5.1 30 17:55 31.12.2019
1646 Clouds 8 1029 58 10000 5.1 30 17:36 31.12.2019
1647 Clouds 8 1029 58 10000 5.1 30 17:36 31.12.2019
1648 Clouds 8 1029 58 10000 4.1 50 17:18 31.12.2019
1649 Clouds 9 1029 58 10000 4.1 50 16:55 31.12.2019
1650 Clouds 9 1029 62 10000 4.1 50 16:36 31.12.2019
1651 Clouds 9 1029 54 10000 4.6 30 16:18 31.12.2019
1652 Clouds 10 1029 54 10000 4.6 30 15:55 31.12.2019
1653 Clouds 10 1029 54 10000 4.6 30 15:55 31.12.2019
1654 Clouds 10 1029 54 10000 4.6 30 15:55 31.12.2019
1655 Clouds 10 1029 54 10000 5.1 30 15:37 31.12.2019
1656 Clouds 10 1029 54 10000 5.1 30 15:19 31.12.2019
1657 Clouds 11 1029 54 10000 5.1 30 14:55 31.12.2019
1658 Clouds 10 1029 58 10000 5.7 30 14:37 31.12.2019
1659 Clouds 10 1029 58 10000 6.2 30 14:18 31.12.2019
1660 Clouds 11 1029 58 10000 6.2 30 13:54 31.12.2019
1661 Clouds 11 1029 62 10000 7.2 30 13:36 31.12.2019
1662 Clouds 11 1029 54 10000 6.2 40 13:18 31.12.2019
1663 Clouds 11 1029 54 10000 6.2 40 12:54 31.12.2019
1664 Clouds 10 1029 54 10000 4.1 50 12:36 31.12.2019
1665 Clouds 10 1029 54 10000 4.1 50 12:36 31.12.2019
1666 Clouds 10 1029 54 10000 3.1 40 12:18 31.12.2019
1667 Clouds 10 1030 54 10000 3.1 50 11:54 31.12.2019
1668 Clouds 10 1030 54 10000 3.1 50 11:36 31.12.2019
1669 Clouds 10 1030 54 10000 2.6 70 11:18 31.12.2019
1670 Clear 9 1030 54 10000 2.6 70 10:54 31.12.2019
1671 Clear 9 1030 54 10000 2.6 70 10:36 31.12.2019
1672 Clear 9 1029 54 10000 2.1 70 10:18 31.12.2019
1673 Clear 8 1029 54 10000 2.1 70 09:54 31.12.2019
1674 Clear 8 1029 57 10000 1 0 09:36 31.12.2019
1675 Clear 7 1029 61 10000 2.1 60 09:18 31.12.2019
1676 Clear 6 1028 57 10000 2.1 70 08:42 31.12.2019
1677 Clouds 6 1028 61 10000 3.6 80 08:21 31.12.2019
1678 Clouds 6 1028 85 10000 5.1 70 07:44 31.12.2019
1679 Clouds 5 1028 85 10000 2.6 110 07:22 31.12.2019
1680 Clouds 6 1027 57 10000 4.6 90 06:51 31.12.2019
1681 Clouds 5 1027 57 10000 4.6 90 06:23 31.12.2019
1682 Clouds 6 1027 57 10000 5.7 90 04:54 31.12.2019
1683 Clouds 6 1027 53 10000 5.1 90 04:24 31.12.2019
1684 Clouds 5 1027 84 10000 6.2 90 02:57 31.12.2019
1685 Clouds 6 1027 83 10000 5.1 90 02:21 31.12.2019
1686 Clouds 7 1026 53 10000 7.2 90 01:50 31.12.2019
1687 Clouds 6 1026 57 10000 7.2 100 01:31 31.12.2019
1688 Clouds 6 1026 85 10000 6.2 90 00:49 31.12.2019
1689 Clouds 6 1026 53 10000 6.7 80 00:25 31.12.2019
1690 Clouds 5 1026 53 10000 6.7 80 23:58 30.12.2019
1691 Clouds 6 1026 61 10000 10.8 60 23:40 30.12.2019
1692 Clouds 6 1025 53 10000 11.3 70 23:22 30.12.2019
1693 Clouds 6 1025 53 10000 11.3 70 22:59 30.12.2019
1694 Clouds 6 1025 83 10000 11.3 70 22:41 30.12.2019
1695 Clouds 5 1025 83 10000 11.3 70 22:41 30.12.2019
1696 Clouds 6 1025 83 10000 10.8 70 22:21 30.12.2019
1697 Clouds 6 1025 83 10000 10.8 70 21:57 30.12.2019
1698 Clouds 6 1025 83 10000 10.8 70 21:57 30.12.2019
1699 Clouds 6 1025 83 10000 10.3 70 21:39 30.12.2019
1700 Clouds 6 1025 53 10000 9.8 60 21:20 30.12.2019
1701 Clouds 6 1025 53 10000 9.8 60 20:59 30.12.2019
1702 Clouds 6 1025 53 10000 10.3 70 20:40 30.12.2019
1703 Clouds 6 1025 46 10000 10.3 70 20:20 30.12.2019
1704 Clouds 6 1025 46 10000 10.3 70 19:59 30.12.2019
1705 Rain 6 1024 86 10000 9.8 70 19:39 30.12.2019
1706 Rain 6 1024 53 10000 9.8 60 19:19 30.12.2019
1707 Clouds 6 1024 53 10000 9.8 60 18:59 30.12.2019
1708 Thunderstorm 6 1024 86 9000 8.7 70 18:41 30.12.2019
1709 Clouds 6 1024 70 10000 4.1 60 18:20 30.12.2019
1710 Clouds 6 1024 70 10000 4.1 60 17:57 30.12.2019
1711 Clouds 5 1025 65 9000 6.7 80 17:39 30.12.2019
1712 Thunderstorm 5 1025 70 8000 6.7 80 17:19 30.12.2019
1713 Thunderstorm 5 1025 70 8000 6.7 80 16:58 30.12.2019
1714 Rain 5 1024 75 10000 12.3 80 16:37 30.12.2019
1715 Clouds 5 1024 70 10000 9.8 90 16:19 30.12.2019
1716 Rain 6 1024 66 9000 15.4 40 15:56 30.12.2019
1717 Rain 6 1024 66 9000 15.4 40 15:37 30.12.2019
1718 Rain 5 1024 53 10000 12.3 50 15:18 30.12.2019
1719 Rain 5 1000 81 0 4.79 55 14:43 30.12.2019
1720 Rain 5 1000 75 0 0.89 24 14:20 30.12.2019
1721 Rain 6 1026 73 0 4.92 135 13:58 30.12.2019
1722 Clouds 7 1024 58 10000 10.8 30 13:40 30.12.2019
1723 Clouds 7 1024 58 10000 10.8 30 13:40 30.12.2019
1724 Clouds 7 1024 58 10000 10.8 30 13:21 30.12.2019
1725 Rain 7 1024 62 10000 11.8 40 12:56 30.12.2019
1726 Rain 7 1025 61 10000 16.5 30 12:37 30.12.2019
1727 Clouds 8 1025 62 10000 13.4 40 12:18 30.12.2019
1728 Rain 7 1000 79 0 7.58 29 11:45 30.12.2019
1729 Rain 7 1001 76 0 8.31 31 11:20 30.12.2019
1730 Clouds 8 1025 58 10000 11.3 40 10:58 30.12.2019
1731 Clouds 8 1025 54 10000 10.3 40 10:40 30.12.2019
1732 Clouds 8 1025 58 10000 11.8 30 10:19 30.12.2019
1733 Rain 7 1025 66 10000 11.8 30 09:42 30.12.2019
1734 Drizzle 7 1025 57 10000 11.8 50 09:20 30.12.2019
1735 Drizzle 7 1025 57 10000 11.8 50 08:56 30.12.2019
1736 Clouds 7 1024 71 10000 13.9 30 08:38 30.12.2019
1737 Clouds 7 1024 57 10000 11.3 40 08:18 30.12.2019
1738 Clouds 7 1024 57 10000 11.3 50 07:42 30.12.2019
1739 Clouds 6 1024 66 10000 7.7 90 06:59 30.12.2019
1740 Clouds 6 1024 66 10000 7.7 90 06:29 30.12.2019
1741 Rain 5 1024 75 10000 7.7 100 04:29 30.12.2019
1742 Clouds 5 1024 66 10000 11.3 60 03:42 30.12.2019
1743 Clouds 6 1024 57 10000 8.2 60 02:41 30.12.2019
1744 Clouds 5 1024 66 10000 8.7 60 02:21 30.12.2019
1745 Clouds 5 1024 76 10000 7.7 70 01:27 30.12.2019
1746 Rain 5 1024 75 10000 4.1 50 00:51 30.12.2019
1747 Rain 5 1024 75 10000 4.1 50 00:28 30.12.2019
1748 Rain 5 1024 70 10000 10.8 70 23:40 29.12.2019
1749 Drizzle 5 1024 71 10000 14.4 40 23:22 29.12.2019
1750 Rain 6 1024 71 10000 10.3 10 22:57 29.12.2019
1751 Rain 6 1024 71 10000 10.3 10 22:38 29.12.2019
1752 Drizzle 6 1024 61 10000 7.7 10 22:20 29.12.2019
1753 Rain 6 1024 71 9000 11.8 40 21:55 29.12.2019
1754 Rain 6 1024 71 9000 11.8 40 21:36 29.12.2019
1755 Rain 5 1026 91 0 1.34 270 21:18 29.12.2019
1756 Clouds 6 1024 66 10000 9.3 20 20:55 29.12.2019
1757 Clouds 6 1024 66 10000 9.3 20 20:55 29.12.2019
1758 Clouds 6 1024 66 10000 9.3 10 20:37 29.12.2019
1759 Rain 7 1024 62 10000 9.8 20 20:18 29.12.2019
1760 Rain 7 1024 62 10000 9.8 20 19:55 29.12.2019
1761 Rain 7 1025 62 10000 9.3 10 19:37 29.12.2019
1762 Rain 7 1025 62 10000 9.3 10 19:37 29.12.2019
1763 Rain 7 1024 57 10000 8.7 360 19:18 29.12.2019
1764 Clouds 7 1024 57 10000 8.7 30 18:54 29.12.2019
1765 Clouds 7 1024 57 10000 8.7 30 18:36 29.12.2019
1766 Clouds 7 1024 71 10000 10.3 40 18:18 29.12.2019
1767 Clouds 7 1024 71 10000 10.3 40 17:54 29.12.2019
1768 Clouds 7 1024 62 10000 9.3 20 17:36 29.12.2019
1769 Clouds 7 1024 58 10000 8.2 20 17:18 29.12.2019
1770 Clouds 7 1024 58 10000 8.2 20 16:54 29.12.2019
1771 Clouds 7 1025 62 10000 8.2 20 16:36 29.12.2019
1772 Rain 7 1025 62 10000 10.3 30 16:18 29.12.2019
1773 Rain 7 1025 62 10000 10.3 30 15:54 29.12.2019
1774 Rain 8 1025 62 10000 8.7 20 15:36 29.12.2019
1775 Drizzle 8 1025 66 10000 8.7 360 15:18 29.12.2019
1776 Clouds 8 1025 66 10000 12.3 30 14:46 29.12.2019
1777 Clouds 9 1025 57 10000 8.2 20 14:19 29.12.2019
1778 Clouds 8 1025 57 10000 8.2 20 13:59 29.12.2019
1779 Clouds 8 1026 62 10000 9.3 40 13:40 29.12.2019
1780 Clouds 8 1026 62 10000 12.3 30 13:22 29.12.2019
1781 Clouds 8 1026 62 10000 9.3 40 13:22 29.12.2019
1782 Clouds 8 1026 62 10000 12.3 30 12:58 29.12.2019
1783 Clouds 9 1026 62 10000 9.3 10 12:39 29.12.2019
1784 Clouds 9 1026 54 10000 9.8 40 12:21 29.12.2019
1785 Clouds 9 1027 54 10000 9.8 30 11:43 29.12.2019
1786 Clouds 8 1027 54 10000 9.8 30 11:23 29.12.2019
1787 Clouds 8 1027 57 10000 9.8 40 10:59 29.12.2019
1788 Clouds 8 1027 54 10000 10.3 30 10:40 29.12.2019
1789 Rain 7 1029 68 0 3.58 135 10:18 29.12.2019
1790 Clouds 8 1026 53 10000 10.8 40 09:47 29.12.2019
1791 Clouds 9 1026 50 10000 9.8 60 09:28 29.12.2019
1792 Clouds 9 1026 53 10000 10.8 40 09:28 29.12.2019
1793 Clouds 8 1026 50 10000 9.8 60 08:59 29.12.2019
1794 Clouds 8 1026 53 10000 8.2 60 08:40 29.12.2019
1795 Clouds 8 1026 53 10000 8.2 60 08:40 29.12.2019
1796 Clouds 7 1025 53 10000 9.8 60 08:21 29.12.2019
1797 Clouds 7 1025 79 10000 10.3 50 07:45 29.12.2019
1798 Clouds 7 1025 53 10000 10.3 60 07:26 29.12.2019
1799 Clouds 7 1025 53 10000 11.3 50 06:42 29.12.2019
1800 Clouds 7 1025 57 10000 11.3 40 06:19 29.12.2019
1801 Clouds 7 1025 50 10000 12.3 50 05:44 29.12.2019
1802 Clouds 7 1025 74 10000 11.8 50 04:33 29.12.2019
1803 Clouds 7 1025 74 10000 11.3 50 03:36 29.12.2019
1804 Clouds 7 1025 74 10000 11.3 50 02:36 29.12.2019
1805 Clouds 7 1025 50 10000 13.4 40 02:18 29.12.2019
1806 Clouds 7 1024 50 10000 11.8 50 01:29 29.12.2019
1807 Clouds 7 1025 50 10000 10.8 50 00:47 29.12.2019
1808 Clouds 7 1025 50 10000 10.8 50 00:25 29.12.2019
1809 Clouds 7 1025 53 10000 11.3 50 23:56 28.12.2019
1810 Clouds 7 1025 50 10000 10.3 50 23:37 28.12.2019
1811 Clouds 7 1025 54 10000 11.3 40 23:18 28.12.2019
1812 Clouds 7 1025 54 10000 11.3 40 23:18 28.12.2019
1813 Clouds 7 1025 54 10000 11.3 40 23:18 28.12.2019
1814 Clouds 7 1025 54 10000 11.3 40 23:18 28.12.2019
1815 Clouds 7 1025 54 10000 11.3 40 23:18 28.12.2019
1816 Clouds 8 1025 50 10000 10.3 50 22:38 28.12.2019
1817 Clouds 8 1024 46 10000 12.9 40 22:19 28.12.2019
1818 Clouds 8 1024 46 10000 12.9 40 21:57 28.12.2019
1819 Clouds 8 1024 50 10000 11.8 50 21:38 28.12.2019
1820 Clouds 8 1024 50 10000 12.3 40 21:19 28.12.2019
1821 Clouds 8 1024 50 10000 12.3 40 20:55 28.12.2019
1822 Clouds 8 1024 50 10000 12.3 40 20:55 28.12.2019
1823 Clouds 8 1024 50 10000 11.3 50 20:36 28.12.2019
1824 Clouds 8 1023 50 10000 10.3 50 20:18 28.12.2019
1825 Clouds 8 1023 50 10000 10.8 60 19:54 28.12.2019
1826 Clouds 8 1023 50 10000 10.8 60 19:36 28.12.2019
1827 Clouds 8 1023 50 10000 10.3 50 19:18 28.12.2019
1828 Drizzle 9 1023 58 10000 9.8 50 18:43 28.12.2019
1829 Clouds 9 1023 54 10000 10.3 50 18:20 28.12.2019
1830 Clouds 9 1023 54 10000 10.3 50 17:59 28.12.2019
1831 Clouds 10 1023 54 10000 9.8 50 17:41 28.12.2019
1832 Clouds 9 1023 50 10000 9.8 40 17:21 28.12.2019
1833 Clouds 10 1023 50 10000 9.8 40 16:54 28.12.2019
1834 Clouds 10 1023 54 10000 8.7 50 16:36 28.12.2019
1835 Clouds 10 1023 50 10000 9.8 50 16:18 28.12.2019
1836 Clouds 11 1022 54 10000 10.8 50 15:41 28.12.2019
1837 Clouds 11 1022 54 10000 10.3 40 15:21 28.12.2019
1838 Clouds 12 1022 50 10000 11.3 40 14:48 28.12.2019
1839 Clouds 11 1022 50 10000 11.3 40 14:26 28.12.2019
1840 Rain 11 1022 58 10000 9.8 50 13:58 28.12.2019
1841 Clouds 11 1022 54 10000 9.8 50 13:39 28.12.2019
1842 Clouds 11 1022 62 10000 9.8 50 13:20 28.12.2019
1843 Clouds 11 1022 62 10000 9.8 50 12:57 28.12.2019
1844 Clouds 12 1022 62 10000 8.7 40 12:39 28.12.2019
1845 Clouds 12 1022 71 10000 4.1 60 12:20 28.12.2019
1846 Clouds 12 1023 71 10000 3.6 60 11:40 28.12.2019
1847 Clouds 11 1023 76 10000 3.6 60 11:21 28.12.2019
1848 Clouds 11 1023 76 10000 3.6 60 10:56 28.12.2019
1849 Clouds 11 1023 82 10000 5.7 60 10:37 28.12.2019
1850 Rain 11 1023 87 10000 4.1 90 10:18 28.12.2019
1851 Rain 11 1023 76 10000 7.2 50 09:45 28.12.2019
1852 Clouds 11 1022 71 10000 1 0 09:24 28.12.2019
1853 Clouds 11 1022 71 10000 1 0 08:58 28.12.2019
1854 Clouds 10 1022 71 10000 2.1 80 08:40 28.12.2019
1855 Clouds 9 1022 76 10000 2.6 70 08:22 28.12.2019
1856 Clouds 9 1021 71 10000 2.6 80 07:43 28.12.2019
1857 Clear 9 1021 71 10000 3.1 90 07:21 28.12.2019
1858 Clear 8 1021 76 10000 2.6 80 05:45 28.12.2019
1859 Clear 9 1022 76 10000 2.6 90 03:48 28.12.2019
1860 Clouds 9 1022 76 10000 3.1 80 02:50 28.12.2019
1861 Clouds 9 1021 76 10000 2.6 90 02:20 28.12.2019
1862 Clouds 9 1021 76 10000 2.6 90 01:54 28.12.2019
1863 Clouds 9 1021 76 10000 2.6 100 01:22 28.12.2019
1864 Clouds 9 1021 71 10000 2.6 90 00:44 28.12.2019
1865 Clouds 10 1021 71 10000 2.6 90 00:26 28.12.2019
1866 Clouds 10 1021 71 10000 3.1 80 23:57 27.12.2019
1867 Clouds 10 1021 71 10000 3.1 80 23:37 27.12.2019
1868 Clouds 10 1021 71 10000 4.1 50 23:18 27.12.2019
1869 Clouds 10 1021 62 10000 3.6 20 22:55 27.12.2019
1870 Clouds 10 996 86 0 0.7 224 22:37 27.12.2019
1871 Clouds 10 996 85 0 0.7 224 22:19 27.12.2019
1872 Clouds 10 1021 62 10000 2.6 20 21:41 27.12.2019
1873 Clouds 11 1021 62 10000 2.6 30 21:23 27.12.2019
1874 Clouds 11 1021 71 10000 1 130 20:44 27.12.2019
1875 Clouds 11 1021 71 10000 1 130 20:26 27.12.2019
1876 Clouds 11 1021 71 10000 1.5 140 19:59 27.12.2019
1877 Clouds 11 1021 71 10000 1.5 140 19:40 27.12.2019
1878 Clouds 11 1021 71 10000 0.5 0 19:19 27.12.2019
1879 Clouds 11 1020 67 10000 1 0 18:56 27.12.2019
1880 Clouds 11 1020 67 10000 1 0 18:37 27.12.2019
1881 Clouds 11 1020 62 10000 2.1 330 18:18 27.12.2019
1882 Clouds 12 1020 62 10000 2.1 330 17:55 27.12.2019
1883 Clouds 12 1020 62 10000 2.1 320 17:37 27.12.2019
1884 Clouds 12 1020 67 10000 2.6 320 17:18 27.12.2019
1885 Clouds 12 1020 67 10000 3.1 330 16:41 27.12.2019
1886 Clouds 12 1020 67 10000 3.1 330 16:23 27.12.2019
1887 Clouds 13 1020 67 10000 3.6 310 15:58 27.12.2019
1888 Clouds 14 1020 67 10000 3.1 310 15:37 27.12.2019
1889 Clouds 14 1020 67 10000 3.1 310 15:37 27.12.2019
1890 Clouds 14 1020 67 10000 3.1 310 15:37 27.12.2019
1891 Clouds 13 1020 72 10000 3.6 300 15:19 27.12.2019
1892 Clouds 13 1020 72 10000 3.6 300 14:56 27.12.2019
1893 Clouds 14 1020 67 10000 3.6 300 14:38 27.12.2019
1894 Clouds 14 1020 67 10000 3.6 290 14:19 27.12.2019
1895 Clouds 13 1021 72 10000 4.6 300 13:47 27.12.2019
1896 Clouds 14 1021 72 10000 4.6 300 13:24 27.12.2019
1897 Clouds 14 1021 72 10000 2.1 250 12:56 27.12.2019
1898 Clouds 14 1021 67 10000 2.1 240 12:37 27.12.2019
1899 Clouds 14 1021 67 10000 2.1 230 12:18 27.12.2019
1900 Clouds 14 1021 67 10000 1.5 220 11:42 27.12.2019
1901 Clouds 13 1022 67 10000 3.1 230 11:20 27.12.2019
1902 Clouds 13 1022 67 10000 2.6 230 10:47 27.12.2019
1903 Clouds 12 1022 67 10000 1.5 190 10:24 27.12.2019
1904 Clouds 12 1022 67 10000 1.5 190 09:59 27.12.2019
1905 Clouds 12 1022 71 10000 1.5 170 09:39 27.12.2019
1906 Clouds 11 1021 82 10000 2.6 210 09:21 27.12.2019
1907 Clouds 11 1021 82 10000 2.6 210 08:54 27.12.2019
1908 Clouds 11 1021 82 10000 2.6 190 08:34 27.12.2019
1909 Clouds 10 1021 82 10000 1.5 230 07:49 27.12.2019
1910 Clouds 10 1021 82 10000 1.5 230 07:28 27.12.2019
1911 Clouds 10 1021 82 10000 3.1 220 06:36 27.12.2019
1912 Clouds 10 1021 81 10000 1.5 170 04:58 27.12.2019
1913 Clouds 10 1021 81 10000 2.6 190 02:53 27.12.2019
1914 Clear 10 1021 81 10000 2.6 170 01:59 27.12.2019
1915 Clear 10 1021 81 10000 2.6 210 01:24 27.12.2019
1916 Clear 10 1021 81 10000 2.6 210 00:58 27.12.2019
1917 Clear 10 1021 81 10000 2.6 190 00:40 27.12.2019
1918 Clear 10 1021 71 10000 1 180 00:21 27.12.2019
1919 Clear 10 1021 81 10000 2.1 180 23:41 26.12.2019
1920 Clear 10 1021 87 10000 1.5 160 23:22 26.12.2019
1921 Clear 10 1021 81 10000 1 180 22:45 26.12.2019
1922 Clear 9 1021 81 10000 1 180 22:23 26.12.2019
1923 Clear 11 1021 81 10000 1.5 160 21:59 26.12.2019
1924 Clear 10 1021 76 10000 1 0 21:38 26.12.2019
1925 Clear 10 1021 76 10000 2.1 130 21:20 26.12.2019
1926 Clear 10 1021 76 10000 3.6 70 20:46 26.12.2019
1927 Clear 11 1021 76 10000 4.1 70 20:23 26.12.2019
1928 Clear 11 1021 76 10000 4.1 70 19:59 26.12.2019
1929 Clear 11 1021 81 10000 3.6 100 19:40 26.12.2019
1930 Clear 11 1021 87 10000 2.1 90 19:21 26.12.2019
1931 Clear 11 1021 87 10000 2.1 90 18:58 26.12.2019
1932 Clouds 12 1021 82 10000 2.6 100 18:39 26.12.2019
1933 Clouds 12 1021 76 10000 3.6 70 18:19 26.12.2019
1934 Clouds 12 1021 76 10000 3.6 70 17:55 26.12.2019
1935 Clouds 12 1020 76 10000 4.1 70 17:37 26.12.2019
1936 Clouds 13 1020 77 10000 3.1 50 17:18 26.12.2019
1937 Clouds 13 1020 72 10000 4.1 40 16:41 26.12.2019
1938 Clouds 14 1020 72 10000 4.1 40 16:22 26.12.2019
1939 Clouds 14 1020 72 10000 5.1 40 15:56 26.12.2019
1940 Clouds 15 1020 72 10000 5.1 40 15:37 26.12.2019
1941 Clouds 14 1020 72 10000 5.1 40 15:18 26.12.2019
1942 Clear 15 1019 72 10000 5.1 40 14:40 26.12.2019
1943 Clear 15 1019 72 10000 5.1 40 14:21 26.12.2019
1944 Clear 15 1019 72 10000 5.1 40 13:43 26.12.2019
1945 Clouds 15 1019 72 10000 4.6 40 13:21 26.12.2019
1946 Clouds 15 1019 72 10000 4.6 40 12:58 26.12.2019
1947 Clouds 15 1019 72 10000 4.6 40 12:58 26.12.2019
1948 Clouds 15 1019 72 10000 4.6 40 12:39 26.12.2019
1949 Clouds 15 1020 72 10000 4.1 40 12:20 26.12.2019
1950 Clouds 15 1020 72 10000 4.1 40 11:57 26.12.2019
1951 Clouds 15 1020 67 10000 4.1 60 11:39 26.12.2019
1952 Clouds 14 1020 67 10000 4.6 60 11:20 26.12.2019
1953 Clouds 14 1020 72 10000 4.1 60 10:49 26.12.2019
1954 Clouds 14 1019 77 10000 4.1 60 10:19 26.12.2019
1955 Clouds 14 1019 77 10000 4.1 60 10:19 26.12.2019
1956 Clouds 13 1019 77 10000 4.1 60 09:53 26.12.2019
1957 Clouds 13 1019 77 10000 4.1 60 09:32 26.12.2019
1958 Clouds 12 1019 82 10000 4.1 60 08:55 26.12.2019
1959 Clouds 13 1018 82 10000 3.6 60 08:37 26.12.2019
1960 Clouds 12 1018 82 10000 1.5 0 08:18 26.12.2019
1961 Clouds 11 1018 82 9000 1.5 0 07:31 26.12.2019
1962 Clouds 12 1017 82 10000 1.5 230 06:54 26.12.2019
1963 Clouds 12 1017 82 10000 1.5 230 06:54 26.12.2019
1964 Clouds 12 1017 82 10000 1.5 170 06:32 26.12.2019
1965 Clouds 12 1017 82 10000 2.6 210 05:46 26.12.2019
1966 Clouds 12 1016 82 10000 3.1 220 04:59 26.12.2019
1967 Clouds 12 1016 82 10000 3.1 230 04:32 26.12.2019
1968 Clouds 12 1017 72 10000 4.6 210 03:19 26.12.2019
1969 Clouds 12 1017 72 10000 4.1 200 02:40 26.12.2019
1970 Clear 12 1017 71 10000 5.1 210 02:19 26.12.2019
1971 Clear 12 1017 67 10000 4.1 200 01:41 26.12.2019
1972 Clear 12 1016 62 10000 5.7 190 01:22 26.12.2019
1973 Clear 12 1017 67 10000 4.6 210 00:41 26.12.2019
1974 Clear 12 1017 62 10000 4.1 170 00:22 26.12.2019
1975 Clear 12 1017 62 10000 4.1 180 23:42 25.12.2019
1976 Clear 12 1017 66 10000 3.6 180 23:21 25.12.2019
1977 Clear 12 1017 66 10000 3.6 180 22:59 25.12.2019
1978 Clear 12 1017 67 10000 3.6 170 22:40 25.12.2019
1979 Clear 11 1017 76 10000 4.1 180 22:22 25.12.2019
1980 Clear 11 1017 76 10000 4.1 180 21:59 25.12.2019
1981 Clear 12 1017 82 10000 3.1 180 21:40 25.12.2019
1982 Clear 12 1017 81 10000 4.1 190 21:21 25.12.2019
1983 Clear 13 1017 82 9000 3.1 190 20:57 25.12.2019
1984 Clear 12 1017 82 9000 3.1 190 20:39 25.12.2019
1985 Clear 13 1017 82 9000 5.1 250 20:18 25.12.2019
1986 Clear 13 1017 82 9000 5.1 250 19:44 25.12.2019
1987 Clear 13 1017 82 9000 5.1 250 19:25 25.12.2019
1988 Clear 13 1017 82 9000 6.2 250 18:59 25.12.2019
1989 Clear 13 1017 82 9000 5.1 260 18:39 25.12.2019
1990 Clear 13 1017 82 10000 5.1 260 18:20 25.12.2019
1991 Clear 14 1017 82 10000 5.1 260 17:43 25.12.2019
1992 Clear 13 1017 87 10000 6.2 260 17:21 25.12.2019
1993 Clear 14 1017 87 10000 6.2 260 16:59 25.12.2019
1994 Clouds 14 1017 87 9000 6.7 260 16:39 25.12.2019
1995 Clouds 14 1017 87 9000 6.7 260 16:39 25.12.2019
1996 Clouds 14 1017 87 9000 5.7 260 16:19 25.12.2019
1997 Clouds 15 1017 87 9000 5.7 260 15:57 25.12.2019
1998 Clouds 15 1017 87 9000 5.1 270 15:39 25.12.2019
1999 Clouds 15 1017 87 10000 5.7 280 15:20 25.12.2019
2000 Clouds 16 1017 87 10000 5.7 280 14:58 25.12.2019
2001 Clouds 16 1017 87 10000 5.1 270 14:39 25.12.2019
2002 Clouds 16 1016 82 10000 5.7 250 14:21 25.12.2019
2003 Clouds 16 1016 82 10000 5.7 250 13:55 25.12.2019
2004 Clouds 16 1017 82 10000 5.7 260 13:36 25.12.2019
2005 Clouds 16 1018 82 10000 5.7 270 13:18 25.12.2019
2006 Clouds 16 1018 82 10000 5.1 260 12:39 25.12.2019
2007 Clouds 15 1019 82 10000 6.2 260 12:20 25.12.2019
2008 Clouds 16 1019 82 10000 6.2 260 11:54 25.12.2019
2009 Clouds 16 1019 87 10000 5.7 250 11:36 25.12.2019
2010 Clouds 16 1019 87 10000 5.7 250 11:18 25.12.2019
2011 Clouds 15 1019 87 10000 6.2 260 10:38 25.12.2019
2012 Clouds 16 1019 87 10000 3.1 240 10:19 25.12.2019
2013 Clouds 15 1019 87 10000 3.6 230 09:49 25.12.2019
2014 Clouds 15 1019 87 10000 3.6 230 09:30 25.12.2019
2015 Clouds 14 1018 87 10000 2.6 190 08:47 25.12.2019
2016 Clouds 13 1018 87 10000 2.6 190 08:29 25.12.2019
2017 Clouds 13 1018 87 10000 5.1 230 07:50 25.12.2019
2018 Clouds 13 1018 87 10000 5.1 230 07:31 25.12.2019
2019 Clouds 13 1018 87 10000 5.1 230 06:50 25.12.2019
2020 Clouds 13 1018 87 10000 5.1 230 06:22 25.12.2019
2021 Clouds 13 1017 87 10000 5.7 270 05:18 25.12.2019
2022 Clouds 13 1018 87 10000 6.7 280 04:39 25.12.2019
2023 Clouds 13 1018 87 10000 6.7 270 04:20 25.12.2019
2024 Clouds 13 1018 87 10000 6.7 280 03:41 25.12.2019
2025 Clouds 14 1018 87 10000 8.7 270 02:51 25.12.2019
2026 Clear 13 1018 87 10000 7.7 270 02:20 25.12.2019
2027 Clear 13 1018 87 10000 7.2 250 01:25 25.12.2019
2028 Clouds 13 1019 82 10000 7.2 250 00:52 25.12.2019
2029 Clouds 13 1019 82 10000 7.2 250 00:29 25.12.2019
2030 Clouds 13 1019 77 10000 4.1 220 23:56 24.12.2019
2031 Clouds 12 1019 82 10000 4.6 210 23:38 24.12.2019
2032 Clouds 12 1020 77 10000 5.1 200 23:20 24.12.2019
2033 Clouds 12 1020 77 10000 5.1 220 22:40 24.12.2019
2034 Clouds 13 1020 72 10000 4.6 210 22:21 24.12.2019
2035 Clouds 12 1020 72 10000 4.1 200 21:43 24.12.2019
2036 Clouds 12 1020 72 10000 4.1 200 21:23 24.12.2019
2037 Clouds 12 1020 72 10000 4.1 200 21:23 24.12.2019
2038 Clouds 12 1020 71 10000 4.1 190 20:55 24.12.2019
2039 Clouds 12 1020 71 10000 5.7 200 20:36 24.12.2019
2040 Clouds 12 1020 77 10000 6.2 240 20:18 24.12.2019
2041 Clouds 12 1020 72 10000 6.7 260 19:43 24.12.2019
2042 Clouds 12 1021 63 10000 5.7 270 19:20 24.12.2019
2043 Clouds 12 1020 67 10000 5.7 270 18:43 24.12.2019
2044 Clouds 12 1020 67 10000 5.7 270 18:24 24.12.2019
2045 Clouds 12 1020 67 10000 5.7 290 17:59 24.12.2019
2046 Clouds 12 1020 67 10000 5.7 290 17:38 24.12.2019
2047 Clouds 12 1020 67 10000 5.7 290 17:20 24.12.2019
2048 Clouds 13 1020 67 10000 5.7 290 16:55 24.12.2019
2049 Clouds 13 1021 72 10000 5.7 290 16:37 24.12.2019
2050 Clouds 13 1021 72 10000 6.7 290 16:19 24.12.2019
2051 Clouds 14 1021 72 10000 6.7 290 15:55 24.12.2019
2052 Clouds 14 1020 67 10000 6.2 300 15:36 24.12.2019
2053 Clouds 14 1020 72 10000 5.7 300 15:18 24.12.2019
2054 Clouds 14 1020 72 10000 5.7 290 14:55 24.12.2019
2055 Clouds 15 1020 72 10000 5.7 290 14:36 24.12.2019
2056 Clouds 15 1020 67 10000 6.2 300 14:18 24.12.2019
2057 Clouds 14 1020 67 10000 6.2 300 13:55 24.12.2019
2058 Clouds 14 1021 67 10000 6.7 300 13:37 24.12.2019
2059 Clouds 14 1021 67 10000 6.2 300 13:18 24.12.2019
2060 Clouds 14 1021 67 10000 6.2 300 12:55 24.12.2019
2061 Clouds 14 1021 67 10000 5.7 290 12:36 24.12.2019
2062 Clouds 14 1021 72 10000 6.2 300 12:18 24.12.2019
2063 Clouds 14 1021 72 10000 6.2 300 11:54 24.12.2019
2064 Clouds 14 1021 72 10000 6.2 300 11:36 24.12.2019
2065 Clouds 14 1021 72 10000 6.2 300 11:36 24.12.2019
2066 Clouds 14 1021 72 10000 6.7 310 11:18 24.12.2019
2067 Clouds 14 1021 72 10000 6.7 310 10:55 24.12.2019
2068 Clouds 14 1021 72 10000 7.2 310 10:36 24.12.2019
2069 Clouds 13 1021 72 10000 7.2 310 10:18 24.12.2019
2070 Clouds 13 1021 72 10000 8.2 300 09:54 24.12.2019
2071 Clouds 13 1021 72 10000 8.2 300 09:36 24.12.2019
2072 Clouds 13 1020 72 10000 8.2 310 09:18 24.12.2019
2073 Clouds 12 1020 72 10000 8.2 310 08:42 24.12.2019
2074 Clouds 12 1019 72 10000 8.2 310 08:20 24.12.2019
2075 Clouds 12 1019 72 10000 8.2 310 07:45 24.12.2019
2076 Clouds 12 1019 72 10000 8.2 310 07:25 24.12.2019
2077 Clouds 12 1019 72 10000 7.7 310 06:57 24.12.2019
2078 Clouds 12 1019 72 10000 7.7 310 06:38 24.12.2019
2079 Clouds 12 1018 77 10000 7.7 310 06:18 24.12.2019
2080 Clouds 13 1018 77 10000 8.2 320 05:20 24.12.2019
2081 Clouds 13 1018 72 10000 7.7 320 04:44 24.12.2019
2082 Clouds 13 1018 72 10000 9.8 320 03:50 24.12.2019
2083 Clouds 14 1017 72 10000 9.8 320 02:59 24.12.2019
2084 Clouds 13 1017 67 10000 10.3 320 02:21 24.12.2019
2085 Clouds 13 1017 72 10000 9.8 310 01:50 24.12.2019
2086 Rain 13 1017 72 10000 11.3 310 01:21 24.12.2019
2087 Rain 12 1017 67 10000 12.3 320 00:45 24.12.2019
2088 Rain 12 1017 67 10000 12.3 320 00:23 24.12.2019
2089 Rain 13 1017 67 10000 12.3 320 23:56 23.12.2019
2090 Rain 13 1017 67 10000 12.3 320 23:56 23.12.2019
2091 Rain 13 1016 63 10000 12.9 310 23:37 23.12.2019
2092 Rain 13 1016 63 10000 12.3 310 23:19 23.12.2019
2093 Rain 13 1016 63 10000 13.4 310 22:56 23.12.2019
2094 Rain 12 1016 63 10000 13.4 310 22:36 23.12.2019
2095 Rain 13 1015 59 10000 13.9 310 22:18 23.12.2019
2096 Rain 12 1015 59 10000 13.9 310 21:55 23.12.2019
2097 Rain 12 1015 63 10000 13.9 310 21:36 23.12.2019
2098 Rain 12 1015 63 10000 13.9 310 21:36 23.12.2019
2099 Rain 13 1015 59 10000 13.9 310 21:18 23.12.2019
2100 Rain 13 1015 59 10000 13.9 310 20:56 23.12.2019
2101 Clouds 13 1015 59 10000 12.9 310 20:38 23.12.2019
2102 Rain 13 1015 59 10000 15.9 310 20:18 23.12.2019
2103 Rain 12 1014 59 10000 14.9 310 19:55 23.12.2019
2104 Rain 12 1014 59 10000 14.9 310 19:55 23.12.2019
2105 Clouds 12 1014 59 10000 14.9 310 19:37 23.12.2019
2106 Rain 12 1014 59 10000 14.9 310 19:19 23.12.2019
2107 Rain 12 1014 59 10000 14.9 310 18:55 23.12.2019
2108 Rain 12 1014 63 10000 13.9 300 18:37 23.12.2019
2109 Rain 12 1013 63 10000 14.9 310 18:19 23.12.2019
2110 Rain 12 1013 63 10000 13.4 310 17:55 23.12.2019
2111 Rain 12 1013 63 10000 13.4 310 17:37 23.12.2019
2112 Rain 12 1012 63 10000 13.4 300 17:18 23.12.2019
2113 Rain 13 1012 63 10000 12.9 300 16:42 23.12.2019
2114 Rain 13 1012 63 10000 13.9 300 16:19 23.12.2019
2115 Clouds 14 1012 63 10000 13.9 300 15:59 23.12.2019
2116 Rain 13 1012 72 10000 11.8 290 15:38 23.12.2019
2117 Rain 13 1012 72 10000 11.8 300 15:20 23.12.2019
2118 Rain 13 1012 72 10000 11.8 300 14:59 23.12.2019
2119 Rain 13 1011 67 9000 12.9 290 14:41 23.12.2019
2120 Rain 13 1011 67 9000 13.4 290 14:22 23.12.2019
2121 Rain 13 1011 67 9000 13.4 290 13:58 23.12.2019
2122 Rain 13 1011 67 9000 13.4 290 13:40 23.12.2019
2123 Rain 13 1011 67 10000 12.9 290 13:22 23.12.2019
2124 Rain 13 1011 67 10000 12.9 290 12:57 23.12.2019
2125 Rain 13 1012 67 10000 13.4 290 12:39 23.12.2019
2126 Rain 13 1011 59 10000 14.9 300 12:19 23.12.2019
2127 Rain 14 1012 63 10000 13.9 300 11:44 23.12.2019
2128 Rain 14 1012 63 10000 13.9 300 11:26 23.12.2019
2129 Rain 14 1011 63 10000 14.9 300 10:59 23.12.2019
2130 Clouds 14 1011 63 10000 14.4 300 10:40 23.12.2019
2131 Rain 14 1011 63 10000 14.4 300 10:21 23.12.2019
2132 Clouds 14 1011 67 10000 13.9 290 09:59 23.12.2019
2133 Rain 13 1010 63 10000 15.4 290 09:40 23.12.2019
2134 Rain 13 1010 59 10000 15.9 290 09:21 23.12.2019
2135 Rain 13 1010 59 10000 15.9 290 08:58 23.12.2019
2136 Rain 13 1009 63 10000 15.9 290 08:40 23.12.2019
2137 Rain 13 1009 67 10000 14.4 290 08:22 23.12.2019
2138 Rain 14 1008 63 10000 15.9 280 07:47 23.12.2019
2139 Rain 14 1007 67 10000 15.4 270 07:20 23.12.2019
2140 Clouds 14 1007 67 10000 14.9 270 06:53 23.12.2019
2141 Rain 14 1007 67 10000 14.9 270 06:53 23.12.2019
2142 Rain 15 1007 67 10000 14.9 270 06:26 23.12.2019
2143 Rain 14 1006 77 10000 14.4 270 05:53 23.12.2019
2144 Rain 14 1006 77 10000 14.4 270 05:29 23.12.2019
2145 Rain 15 1007 72 9000 15.9 270 04:31 23.12.2019
2146 Rain 15 1007 72 10000 7.7 250 03:24 23.12.2019
2147 Rain 15 1008 72 10000 8.7 250 02:41 23.12.2019
2148 Clouds 15 1008 67 10000 9.3 270 02:19 23.12.2019
2149 Clouds 14 1008 67 10000 11.8 270 01:42 23.12.2019
2150 Clouds 14 1008 67 10000 11.8 270 01:23 23.12.2019
2151 Clouds 14 1008 72 10000 10.8 250 00:43 23.12.2019
2152 Clouds 14 1008 72 10000 10.8 250 00:23 23.12.2019
2153 Clouds 14 1009 77 10000 10.8 260 23:40 22.12.2019
2154 Clouds 14 1009 77 10000 10.8 260 23:21 22.12.2019
2155 Rain 14 1009 77 10000 12.9 260 22:58 22.12.2019
2156 Rain 14 1009 77 10000 12.9 260 22:58 22.12.2019
2157 Rain 14 1009 72 10000 12.3 260 22:40 22.12.2019
2158 Rain 14 1009 67 10000 13.4 260 22:21 22.12.2019
2159 Clouds 14 1009 67 10000 13.4 260 21:58 22.12.2019
2160 Clouds 14 1009 67 10000 13.4 260 21:58 22.12.2019
2161 Clouds 14 1008 67 10000 13.4 260 21:40 22.12.2019
2162 Rain 14 1008 67 10000 13.4 260 21:21 22.12.2019
2163 Rain 14 1008 72 10000 15.9 260 20:58 22.12.2019
2164 Rain 15 1008 67 10000 15.9 260 20:39 22.12.2019
2165 Rain 14 1007 63 10000 16.5 260 20:19 22.12.2019
2166 Rain 14 1007 63 10000 16.5 260 20:19 22.12.2019
2167 Rain 14 1007 63 10000 16.5 260 19:57 22.12.2019
2168 Rain 14 1006 67 10000 14.4 260 19:38 22.12.2019
2169 Rain 14 1006 63 10000 14.4 280 19:19 22.12.2019
2170 Rain 14 1007 63 10000 12.9 270 18:42 22.12.2019
2171 Rain 14 1006 67 10000 14.9 270 18:23 22.12.2019
2172 Clouds 14 1006 67 10000 14.9 270 17:56 22.12.2019
2173 Clouds 14 1006 72 9000 13.9 270 17:38 22.12.2019
2174 Clouds 14 1006 72 9000 13.4 260 17:19 22.12.2019
2175 Clouds 14 1006 72 9000 13.4 260 16:57 22.12.2019
2176 Clouds 14 1005 72 9000 13.4 260 16:38 22.12.2019
2177 Clouds 15 1005 77 9000 13.9 270 16:20 22.12.2019
2178 Clouds 15 1005 77 9000 13.9 270 15:56 22.12.2019
2179 Clouds 16 1004 72 9000 15.9 260 15:38 22.12.2019
2180 Clouds 16 1004 72 10000 16.5 260 15:19 22.12.2019
2181 Clouds 16 1004 72 10000 16.5 260 14:55 22.12.2019
2182 Clouds 16 1004 72 10000 16.5 260 14:36 22.12.2019
2183 Rain 16 1004 72 10000 14.4 250 14:18 22.12.2019
2184 Rain 15 1004 72 10000 14.4 250 13:55 22.12.2019
2185 Rain 15 1004 68 10000 14.9 260 13:36 22.12.2019
2186 Rain 15 1004 68 9000 13.4 250 13:18 22.12.2019
2187 Rain 15 1004 68 9000 13.4 250 13:18 22.12.2019
2188 Rain 15 1004 68 9000 13.4 250 13:18 22.12.2019
2189 Rain 16 1005 68 10000 12.9 250 12:55 22.12.2019
2190 Rain 16 1005 68 10000 12.9 250 12:37 22.12.2019
2191 Rain 15 1005 68 8000 13.4 260 12:18 22.12.2019
2192 Rain 15 1005 68 8000 13.4 260 12:18 22.12.2019
2193 Clouds 15 1005 68 8000 13.4 260 11:55 22.12.2019
2194 Clouds 15 1005 72 9000 13.9 260 11:36 22.12.2019
2195 Clouds 15 1005 72 10000 12.3 250 11:18 22.12.2019
2196 Rain 15 1005 72 10000 12.3 250 10:54 22.12.2019
2197 Rain 15 1006 77 8000 13.4 260 10:36 22.12.2019
2198 Rain 15 1005 77 8000 15.9 260 10:18 22.12.2019
2199 Clouds 15 1005 77 8000 15.9 260 09:56 22.12.2019
2200 Rain 15 1005 77 8000 14.4 260 09:37 22.12.2019
2201 Rain 15 1005 77 10000 15.4 260 09:19 22.12.2019
2202 Rain 16 1004 68 10000 15.9 260 08:39 22.12.2019
2203 Rain 16 1004 68 10000 15.4 250 08:21 22.12.2019
2204 Clouds 16 1004 68 10000 11.8 220 07:40 22.12.2019
2205 Rain 16 1004 68 10000 10.8 190 07:21 22.12.2019
2206 Rain 15 1004 77 10000 11.3 190 06:41 22.12.2019
2207 Rain 16 1005 63 9000 10.8 190 05:56 22.12.2019
2208 Rain 16 1005 63 9000 10.8 190 05:24 22.12.2019
2209 Rain 16 1005 63 9000 10.8 190 04:31 22.12.2019
2210 Clouds 16 1006 63 10000 10.8 190 03:58 22.12.2019
2211 Clouds 16 1006 52 10000 12.9 190 02:43 22.12.2019
2212 Clouds 16 1008 68 10000 8.2 210 01:54 22.12.2019
2213 Clouds 17 1008 68 10000 8.2 210 01:31 22.12.2019
2214 Clouds 16 1009 68 10000 9.8 220 00:48 22.12.2019
2215 Clouds 16 1009 68 10000 9.8 220 00:26 22.12.2019
2216 Clouds 16 1009 68 10000 12.3 220 23:57 21.12.2019
2217 Clouds 16 1009 72 10000 14.4 230 23:38 21.12.2019
2218 Clouds 16 1009 77 10000 12.9 230 23:19 21.12.2019
2219 Clouds 16 1010 77 10000 11.8 230 22:45 21.12.2019
2220 Clouds 16 1010 77 10000 12.3 230 22:20 21.12.2019
2221 Clouds 16 1010 77 10000 12.3 230 21:58 21.12.2019
2222 Clouds 16 1010 77 10000 11.8 220 21:38 21.12.2019
2223 Clouds 16 1010 77 10000 10.8 220 21:20 21.12.2019
2224 Clouds 16 1010 77 10000 10.8 220 20:59 21.12.2019
2225 Clouds 16 1010 82 10000 10.8 220 20:40 21.12.2019
2226 Clouds 15 1010 82 10000 10.8 220 20:22 21.12.2019
2227 Clouds 15 1009 77 10000 11.3 210 19:58 21.12.2019
2228 Clouds 15 1009 77 10000 11.8 210 19:40 21.12.2019
2229 Clouds 15 1009 77 10000 11.8 210 19:40 21.12.2019
2230 Clouds 15 1009 72 10000 10.8 200 19:19 21.12.2019
2231 Clouds 15 1009 72 10000 10.8 200 19:19 21.12.2019
2232 Rain 16 1009 72 10000 10.8 200 18:55 21.12.2019
2233 Rain 15 1009 68 10000 12.9 210 18:37 21.12.2019
2234 Clouds 15 1009 68 10000 11.8 190 18:19 21.12.2019
2235 Clouds 15 1009 68 10000 11.8 190 17:55 21.12.2019
2236 Rain 15 1009 68 10000 11.8 200 17:36 21.12.2019
2237 Rain 15 1009 63 10000 10.8 200 17:18 21.12.2019
2238 Rain 15 1008 63 10000 12.3 200 16:41 21.12.2019
2239 Rain 15 1008 63 10000 12.3 200 16:41 21.12.2019
2240 Clouds 15 1008 68 10000 10.8 180 16:19 21.12.2019
2241 Rain 15 1008 68 10000 10.8 180 15:57 21.12.2019
2242 Rain 15 1009 72 10000 8.7 190 15:38 21.12.2019
2243 Rain 15 1009 72 10000 8.7 190 15:38 21.12.2019
2244 Rain 15 1008 72 10000 10.8 190 15:19 21.12.2019
2245 Clouds 15 1008 72 10000 10.8 190 14:57 21.12.2019
2246 Rain 15 983 68 0 0.89 203 14:38 21.12.2019
2247 Clouds 15 1009 72 10000 12.3 190 14:19 21.12.2019
2248 Rain 15 1009 72 10000 12.3 190 13:56 21.12.2019
2249 Rain 14 1009 72 10000 11.3 200 13:37 21.12.2019
2250 Rain 14 1009 72 10000 9.8 190 13:18 21.12.2019
2251 Rain 15 1009 72 10000 9.8 190 12:55 21.12.2019
2252 Rain 15 1010 77 10000 10.3 190 12:37 21.12.2019
2253 Rain 15 1010 72 8000 10.3 190 12:18 21.12.2019
2254 Rain 15 1011 72 9000 9.8 200 11:43 21.12.2019
2255 Rain 15 1011 72 9000 9.8 200 11:25 21.12.2019
2256 Rain 15 1011 63 8000 10.3 190 10:56 21.12.2019
2257 Rain 15 1011 63 10000 10.8 210 10:38 21.12.2019
2258 Clouds 15 1010 59 10000 13.9 200 10:19 21.12.2019
2259 Clouds 15 1010 59 10000 11.8 210 09:43 21.12.2019
2260 Clouds 15 1010 59 10000 11.8 210 09:22 21.12.2019
2261 Clouds 15 1010 59 10000 9.8 210 08:59 21.12.2019
2262 Clouds 15 1010 59 10000 11.8 210 08:39 21.12.2019
2263 Clouds 14 1010 63 10000 11.8 210 08:21 21.12.2019
2264 Clouds 14 1010 59 10000 11.8 210 07:44 21.12.2019
2265 Clouds 15 1009 59 10000 12.9 200 07:22 21.12.2019
2266 Clouds 14 1009 59 10000 11.3 210 06:45 21.12.2019
2267 Clouds 14 1009 59 10000 10.8 210 06:26 21.12.2019
2268 Clouds 14 1009 59 10000 13.9 200 05:51 21.12.2019
2269 Clouds 15 1010 59 10000 12.9 200 04:58 21.12.2019
2270 Clouds 15 1010 55 10000 10.8 210 03:59 21.12.2019
2271 Clouds 14 1011 51 10000 13.4 200 03:18 21.12.2019
2272 Clouds 14 1012 55 10000 11.3 180 02:18 21.12.2019
2273 Clouds 14 1012 55 10000 12.3 190 01:38 21.12.2019
2274 Clouds 15 1012 55 10000 13.4 190 01:20 21.12.2019
2275 Clouds 15 1012 55 10000 12.3 190 00:37 21.12.2019
2276 Clouds 15 1012 52 10000 12.9 200 00:18 21.12.2019
2277 Clouds 15 1013 48 10000 12.9 190 23:38 20.12.2019
2278 Clouds 15 1013 48 10000 13.4 190 23:19 20.12.2019
2279 Clouds 14 1013 52 10000 10.8 190 22:43 20.12.2019
2280 Clouds 15 1013 52 10000 10.8 190 22:21 20.12.2019
2281 Clouds 15 1013 52 10000 10.8 190 21:59 20.12.2019
2282 Clouds 15 1013 59 10000 10.8 200 21:40 20.12.2019
2283 Clouds 15 1013 59 10000 8.7 200 21:20 20.12.2019
2284 Clouds 15 1013 59 10000 8.7 200 21:20 20.12.2019
2285 Clouds 15 1013 59 10000 8.7 200 20:55 20.12.2019
2286 Clouds 15 1013 52 10000 10.8 190 20:36 20.12.2019
2287 Clear 14 1013 52 10000 10.3 190 20:18 20.12.2019
2288 Rain 14 1013 48 10000 11.3 200 19:41 20.12.2019
2289 Rain 15 1013 45 10000 11.3 200 19:20 20.12.2019
2290 Rain 15 1013 45 10000 11.3 200 18:58 20.12.2019
2291 Rain 15 1013 39 10000 9.8 190 18:38 20.12.2019
2292 Clear 15 1013 42 10000 9.8 190 18:20 20.12.2019
2293 Clear 15 1013 42 10000 9.8 190 17:54 20.12.2019
2294 Clear 15 1013 45 10000 12.9 190 17:36 20.12.2019
2295 Clear 15 1013 45 10000 12.9 190 17:18 20.12.2019
2296 Clear 15 1013 45 10000 12.9 190 17:18 20.12.2019
2297 Clear 15 1014 45 10000 8.7 190 16:40 20.12.2019
2298 Clear 15 1014 45 10000 8.7 190 16:20 20.12.2019
2299 Clear 16 1014 48 10000 12.3 200 15:57 20.12.2019
2300 Clear 16 1014 45 10000 9.3 200 15:39 20.12.2019
2301 Clear 16 1014 45 10000 9.3 200 15:20 20.12.2019
2302 Clear 17 1014 45 10000 8.7 190 14:59 20.12.2019
2303 Clear 16 1015 49 10000 8.7 190 14:40 20.12.2019
2304 Clouds 16 1015 49 10000 8.7 190 14:22 20.12.2019
2305 Clouds 17 1015 49 10000 9.3 190 13:55 20.12.2019
2306 Clouds 17 1016 52 10000 10.8 200 13:36 20.12.2019
2307 Clouds 17 1016 52 10000 10.8 200 13:18 20.12.2019
2308 Clouds 17 1016 55 10000 7.7 190 12:42 20.12.2019
2309 Clouds 17 1017 55 10000 10.3 200 12:20 20.12.2019
2310 Clouds 17 1018 55 10000 7.7 200 11:59 20.12.2019
2311 Clouds 16 1018 55 10000 7.7 200 11:40 20.12.2019
2312 Clouds 16 1018 59 10000 6.2 200 11:21 20.12.2019
2313 Clouds 15 1019 63 10000 7.7 190 10:59 20.12.2019
2314 Clouds 15 1019 63 10000 7.2 210 10:41 20.12.2019
2315 Clouds 15 1019 63 10000 7.2 210 10:21 20.12.2019
2316 Clouds 15 1018 63 10000 7.2 200 09:58 20.12.2019
2317 Clouds 15 1018 63 10000 7.2 200 09:40 20.12.2019
2318 Clouds 15 1018 67 10000 7.2 190 09:20 20.12.2019
2319 Clouds 14 1019 77 10000 5.7 190 08:44 20.12.2019
2320 Clouds 13 1019 77 10000 6.7 190 08:26 20.12.2019
2321 Clouds 14 1019 77 10000 6.7 190 07:59 20.12.2019
2322 Clouds 13 1019 77 10000 6.7 190 07:41 20.12.2019
2323 Clouds 13 1019 77 10000 7.2 200 07:20 20.12.2019
2324 Clouds 13 1018 77 10000 6.2 190 06:52 20.12.2019
2325 Clouds 13 1018 77 10000 6.2 200 06:33 20.12.2019
2326 Clouds 13 1018 82 10000 6.2 190 05:56 20.12.2019
2327 Clouds 13 1019 82 10000 5.1 200 05:37 20.12.2019
2328 Clouds 13 1019 82 10000 5.1 200 05:37 20.12.2019
2329 Clouds 13 1019 77 10000 5.7 210 04:34 20.12.2019
2330 Clouds 14 1019 82 10000 7.2 230 03:31 20.12.2019
2331 Clouds 14 1019 77 10000 6.2 230 02:45 20.12.2019
2332 Clouds 14 1018 82 10000 9.3 270 01:54 20.12.2019
2333 Clouds 14 1019 82 10000 9.8 270 01:34 20.12.2019
2334 Clouds 14 1019 87 10000 7.7 230 00:49 20.12.2019
2335 Clouds 14 1018 82 10000 9.8 220 00:30 20.12.2019
2336 Rain 14 1018 87 10000 8.7 210 23:57 19.12.2019
2337 Rain 14 1018 87 8000 7.2 200 23:38 19.12.2019
2338 Rain 14 1018 87 8000 7.2 200 23:19 19.12.2019
2339 Clouds 14 1018 77 9000 8.2 200 22:38 19.12.2019
2340 Clouds 14 1018 77 9000 8.2 200 22:20 19.12.2019
2341 Rain 14 1018 82 8000 7.2 180 21:56 19.12.2019
2342 Rain 14 1018 87 8000 7.7 190 21:38 19.12.2019
2343 Rain 14 1018 87 8000 7.7 190 21:19 19.12.2019
2344 Clouds 14 1017 77 10000 8.7 190 20:56 19.12.2019
2345 Clouds 14 1017 77 9000 9.3 190 20:37 19.12.2019
2346 Clouds 14 1017 77 9000 9.3 190 20:37 19.12.2019
2347 Clouds 14 1017 77 9000 9.3 190 20:18 19.12.2019
2348 Clouds 14 1017 77 9000 9.3 190 20:18 19.12.2019
2349 Clouds 14 1017 77 9000 8.7 200 19:57 19.12.2019
2350 Rain 13 1017 72 8000 5.7 190 19:39 19.12.2019
2351 Rain 14 1017 72 8000 5.7 190 19:19 19.12.2019
2352 Clouds 13 1017 72 7000 7.2 200 18:55 19.12.2019
2353 Clouds 13 1017 67 7000 5.1 190 18:37 19.12.2019
2354 Mist 13 1017 67 5000 6.7 190 18:18 19.12.2019
2355 Mist 13 1017 67 5000 6.7 190 17:54 19.12.2019
2356 Clouds 13 1017 59 8000 6.7 200 17:36 19.12.2019
2357 Clouds 14 1017 59 8000 6.7 200 17:18 19.12.2019
2358 Clouds 14 1017 63 9000 5.7 200 16:54 19.12.2019
2359 Clouds 14 1017 63 8000 6.2 210 16:36 19.12.2019
2360 Clouds 14 1017 63 8000 6.2 210 16:18 19.12.2019
2361 Clouds 14 1016 67 8000 2.1 240 15:54 19.12.2019
2362 Clouds 15 1016 67 10000 1 0 15:36 19.12.2019
2363 Clouds 15 1016 67 10000 1 0 15:18 19.12.2019
2364 Clouds 15 1017 77 9000 3.1 280 14:42 19.12.2019
2365 Clouds 16 1017 67 9000 1.5 350 14:20 19.12.2019
2366 Clouds 16 1016 67 9000 2.1 330 13:58 19.12.2019
2367 Clouds 16 1016 67 9000 2.6 30 13:38 19.12.2019
2368 Rain 15 1016 67 9000 2.6 30 13:19 19.12.2019
2369 Rain 16 1017 59 8000 1 350 12:57 19.12.2019
2370 Rain 16 1017 59 8000 0.5 0 12:38 19.12.2019
2371 Clouds 16 1017 59 8000 0.5 0 12:19 19.12.2019
2372 Clouds 16 1017 59 8000 0.5 0 12:19 19.12.2019
2373 Clouds 16 1017 59 8000 0.5 0 12:19 19.12.2019
2374 Clouds 16 1018 63 7000 1.5 220 11:58 19.12.2019
2375 Clouds 16 1018 72 7000 2.1 270 11:39 19.12.2019
2376 Clouds 16 1018 72 7000 2.1 270 11:18 19.12.2019
2377 Clouds 16 1018 72 7000 2.1 270 11:18 19.12.2019
2378 Clouds 16 1017 72 8000 2.1 30 10:56 19.12.2019
2379 Clouds 15 1017 67 8000 0.5 0 10:37 19.12.2019
2380 Clouds 15 1017 67 8000 1.5 180 10:19 19.12.2019
2381 Clouds 15 1017 67 8000 1.5 180 09:40 19.12.2019
2382 Clouds 15 1017 67 8000 1.5 180 09:40 19.12.2019
2383 Clouds 14 1017 67 8000 2.6 190 09:21 19.12.2019
2384 Clouds 13 1017 71 8000 1 170 08:58 19.12.2019
2385 Clouds 13 1017 67 8000 1.5 160 08:40 19.12.2019
2386 Clear 13 1017 67 8000 1.5 160 08:19 19.12.2019
2387 Clear 13 1017 72 10000 2.1 240 07:57 19.12.2019
2388 Clear 12 1016 63 10000 2.1 220 07:38 19.12.2019
2389 Clear 13 1016 63 10000 2.1 220 07:19 19.12.2019
2390 Clouds 13 1016 55 10000 1.5 0 06:50 19.12.2019
2391 Clouds 13 1016 55 10000 2.6 180 06:50 19.12.2019
2392 Clouds 13 1016 55 10000 2.6 180 06:29 19.12.2019
2393 Clouds 13 1016 59 10000 2.6 180 05:55 19.12.2019
2394 Clear 13 1020 68 0 0.89 270 05:36 19.12.2019
2395 Clouds 13 1016 59 10000 2.6 0 04:52 19.12.2019
2396 Clouds 14 1016 55 10000 3.1 170 03:23 19.12.2019
2397 Clouds 14 1016 59 10000 6.2 170 02:23 19.12.2019
2398 Rain 15 1015 59 10000 6.7 180 01:23 19.12.2019
2399 Clouds 15 1015 55 10000 2.1 150 00:43 19.12.2019
2400 Clouds 15 1015 55 10000 4.6 180 00:24 19.12.2019
2401 Clouds 15 1015 52 10000 5.7 160 23:57 18.12.2019
2402 Clouds 15 1015 52 10000 6.7 130 23:38 18.12.2019
2403 Clouds 15 1015 52 10000 6.7 130 23:18 18.12.2019
2404 Rain 15 1015 37 10000 13.9 140 22:55 18.12.2019
2405 Clouds 15 1015 45 10000 11.8 140 22:37 18.12.2019
2406 Clouds 15 1015 45 10000 11.8 140 22:19 18.12.2019
2407 Clouds 15 1014 45 10000 10.8 150 21:56 18.12.2019
2408 Clouds 16 1015 45 10000 6.7 170 21:38 18.12.2019
2409 Clouds 16 1015 45 10000 6.7 170 21:19 18.12.2019
2410 Clouds 15 1015 52 10000 2.6 100 20:55 18.12.2019
2411 Clouds 15 1015 48 10000 5.7 110 20:37 18.12.2019
2412 Clouds 15 1015 48 10000 5.7 110 20:19 18.12.2019
2413 Clouds 15 1016 48 10000 4.6 130 19:55 18.12.2019
2414 Clouds 15 1016 48 10000 5.1 150 19:37 18.12.2019
2415 Clouds 15 1016 48 10000 5.1 150 19:18 18.12.2019
2416 Clouds 15 1016 48 10000 5.1 150 19:18 18.12.2019
2417 Clouds 16 1015 48 10000 6.7 120 18:44 18.12.2019
2418 Clouds 16 1016 48 10000 7.7 120 18:25 18.12.2019
2419 Clouds 16 1015 42 10000 8.7 130 17:57 18.12.2019
2420 Clouds 16 1015 42 10000 8.7 130 17:39 18.12.2019
2421 Clouds 16 1015 42 10000 8.7 130 17:19 18.12.2019
2422 Clouds 16 1015 42 9000 8.2 120 16:56 18.12.2019
2423 Clouds 16 1015 42 9000 8.2 120 16:38 18.12.2019
2424 Clouds 16 1016 42 9000 8.2 120 16:20 18.12.2019
2425 Clouds 16 1016 42 9000 8.2 120 15:55 18.12.2019
2426 Clouds 17 1015 42 10000 6.7 140 15:37 18.12.2019
2427 Clouds 17 1015 45 10000 7.2 110 15:18 18.12.2019
2428 Clouds 17 1016 43 10000 5.7 110 14:42 18.12.2019
2429 Clouds 17 1016 43 10000 5.7 110 14:42 18.12.2019
2430 Clouds 17 1016 43 10000 5.7 110 14:22 18.12.2019
2431 Clouds 17 1016 46 10000 5.7 110 13:57 18.12.2019
2432 Clouds 17 1016 46 10000 5.1 120 13:38 18.12.2019
2433 Clouds 17 1017 49 10000 3.1 130 13:20 18.12.2019
2434 Clouds 17 1017 49 10000 3.1 130 12:57 18.12.2019
2435 Clouds 17 1017 52 10000 2.6 100 12:38 18.12.2019
2436 Clouds 17 1017 52 10000 5.1 70 12:19 18.12.2019
2437 Clouds 18 1018 52 10000 6.2 90 11:56 18.12.2019
2438 Clouds 17 1018 52 10000 6.2 90 11:38 18.12.2019
2439 Clouds 17 1018 59 10000 2.6 0 11:19 18.12.2019
2440 Clouds 17 1017 59 10000 3.6 80 10:55 18.12.2019
2441 Clouds 16 1017 59 10000 3.6 80 10:37 18.12.2019
2442 Clouds 17 1017 55 10000 2.6 110 10:19 18.12.2019
2443 Clouds 17 1017 59 10000 4.1 70 09:50 18.12.2019
2444 Clouds 17 1017 59 10000 4.1 70 09:50 18.12.2019
2445 Clouds 17 1017 55 10000 3.6 70 09:18 18.12.2019
2446 Clouds 16 1017 52 10000 3.1 90 08:41 18.12.2019
2447 Clouds 15 1017 52 10000 2.6 120 08:22 18.12.2019
2448 Clouds 15 1017 55 10000 3.1 110 07:45 18.12.2019
2449 Clouds 15 1017 55 10000 3.1 110 07:24 18.12.2019
2450 Clouds 15 1017 59 10000 4.1 90 06:57 18.12.2019
2451 Clouds 15 1017 59 10000 3.6 80 06:28 18.12.2019
2452 Clouds 15 1017 63 10000 2.1 90 05:57 18.12.2019
2453 Clouds 15 1017 72 10000 3.6 70 05:22 18.12.2019
2454 Clouds 15 1018 63 10000 0.5 0 03:31 18.12.2019
2455 Clouds 14 1018 67 10000 0.5 0 02:38 18.12.2019
2456 Clouds 15 1018 67 10000 2.1 140 02:20 18.12.2019
2457 Clouds 14 1018 67 10000 1 0 01:42 18.12.2019
2458 Clouds 14 1018 67 10000 0.5 0 01:23 18.12.2019
2459 Clouds 15 1018 63 10000 0.5 0 00:42 18.12.2019
2460 Clouds 15 1018 63 10000 1 0 00:23 18.12.2019
2461 Clouds 15 1018 63 10000 1 0 23:57 17.12.2019
2462 Clouds 15 1018 67 10000 2.1 70 23:39 17.12.2019
2463 Clouds 15 1018 59 10000 1 0 23:20 17.12.2019
2464 Clouds 15 1018 59 10000 1 0 22:56 17.12.2019
2465 Clouds 15 1018 59 10000 1 0 22:38 17.12.2019
2466 Clouds 15 1018 55 10000 1 0 22:19 17.12.2019
2467 Clouds 15 1018 55 10000 1 0 21:56 17.12.2019
2468 Clouds 15 1018 55 10000 1 0 21:56 17.12.2019
2469 Clouds 15 1018 55 10000 1 0 21:38 17.12.2019
2470 Clouds 15 1018 63 10000 1.5 150 21:19 17.12.2019
2471 Clouds 15 1018 63 10000 1.5 150 20:57 17.12.2019
2472 Clouds 15 1018 59 10000 2.1 150 20:38 17.12.2019
2473 Clouds 15 1019 63 10000 1.5 210 20:18 17.12.2019
2474 Clouds 15 1019 63 10000 1.5 210 19:56 17.12.2019
2475 Clouds 15 1018 59 10000 2.6 130 19:38 17.12.2019
2476 Clouds 15 1018 67 10000 1 0 19:18 17.12.2019
2477 Clouds 15 1018 72 10000 1.5 140 18:55 17.12.2019
2478 Clouds 15 1018 72 10000 1.5 140 18:37 17.12.2019
2479 Clouds 15 1018 77 10000 2.6 80 18:19 17.12.2019
2480 Clouds 15 1017 72 10000 3.1 20 17:42 17.12.2019
2481 Clouds 15 1017 72 10000 3.1 20 17:42 17.12.2019
2482 Clouds 15 1017 72 10000 3.1 20 17:42 17.12.2019
2483 Clouds 15 1017 77 10000 3.6 70 17:21 17.12.2019
2484 Clouds 15 1017 72 10000 2.6 90 16:57 17.12.2019
2485 Clouds 16 1017 72 10000 2.6 90 16:38 17.12.2019
2486 Clouds 16 1017 77 10000 3.1 20 16:19 17.12.2019
2487 Clouds 16 1017 77 10000 3.1 20 15:59 17.12.2019
2488 Clouds 16 1017 63 10000 4.1 80 15:38 17.12.2019
2489 Clouds 16 1017 59 10000 2.1 70 15:19 17.12.2019
2490 Clouds 16 1017 59 10000 2.1 70 14:56 17.12.2019
2491 Clouds 16 1017 63 10000 2.6 40 14:38 17.12.2019
2492 Clouds 16 1017 63 10000 2.6 50 14:19 17.12.2019
2493 Clouds 16 1017 63 10000 2.6 50 13:56 17.12.2019
2494 Clouds 16 1018 72 10000 3.6 60 13:38 17.12.2019
2495 Clouds 16 1018 72 10000 1.5 20 13:19 17.12.2019
2496 Clouds 16 1018 72 10000 1.5 20 12:58 17.12.2019
2497 Clouds 17 1018 72 10000 3.1 40 12:38 17.12.2019
2498 Clouds 17 1018 72 10000 3.1 40 12:38 17.12.2019
2499 Clouds 17 1018 68 10000 2.1 60 12:18 17.12.2019
2500 Clouds 16 1019 63 10000 3.1 40 11:56 17.12.2019
2501 Clouds 17 1019 63 10000 3.1 40 11:36 17.12.2019
2502 Clouds 17 1019 63 10000 3.1 40 11:36 17.12.2019
2503 Clouds 17 1019 72 10000 3.6 40 11:18 17.12.2019
2504 Clouds 16 1019 72 10000 3.6 40 10:57 17.12.2019
2505 Clouds 16 1019 59 10000 2.6 50 10:38 17.12.2019
2506 Clouds 15 1019 72 10000 4.1 50 10:19 17.12.2019
2507 Clouds 15 1019 67 10000 2.6 70 09:43 17.12.2019
2508 Clouds 15 1019 59 10000 2.6 180 09:22 17.12.2019
2509 Clouds 15 1019 59 10000 2.6 180 08:59 17.12.2019
2510 Clouds 14 1019 66 10000 1 0 08:40 17.12.2019
2511 Clear 13 1019 66 10000 1 0 08:22 17.12.2019
2512 Clear 13 1019 66 10000 1 0 08:22 17.12.2019
2513 Clear 13 1019 66 10000 1 0 07:59 17.12.2019
2514 Clear 13 1019 62 10000 0.5 0 07:41 17.12.2019
2515 Clear 12 1018 71 10000 2.6 140 07:22 17.12.2019
2516 Clear 12 1018 66 10000 1.5 130 06:42 17.12.2019
2517 Clear 12 1018 58 10000 3.6 200 06:24 17.12.2019
2518 Clear 12 1018 58 10000 3.6 200 06:24 17.12.2019
2519 Clear 12 1018 58 10000 2.1 150 05:41 17.12.2019
2520 Clear 13 1018 62 10000 5.1 200 04:53 17.12.2019
2521 Clear 13 1018 67 10000 5.7 220 03:55 17.12.2019
2522 Clear 13 1018 67 10000 8.7 230 02:26 17.12.2019
2523 Clear 13 1018 63 10000 7.2 230 01:22 17.12.2019
2524 Clear 13 994 78 0 4.84 179 00:47 17.12.2019
2525 Clear 13 994 77 0 4.84 179 00:22 17.12.2019
2526 Clear 13 994 75 0 4.84 179 23:58 16.12.2019
2527 Clear 14 994 74 0 4.84 179 23:40 16.12.2019
2528 Clear 14 995 73 0 4.55 181 23:18 16.12.2019
2529 Clear 14 995 73 0 4.55 181 22:54 16.12.2019
2530 Clear 14 1024 34 0 2.24 225 22:36 16.12.2019
2531 Clear 14 995 70 0 4.55 181 22:18 16.12.2019
2532 Clear 14 995 68 0 4.55 181 21:54 16.12.2019
2533 Clear 14 995 67 0 4.55 181 21:36 16.12.2019
2534 Clear 14 995 66 0 4.55 181 21:18 16.12.2019
2535 Clear 14 995 65 0 4.55 181 20:55 16.12.2019
2536 Clear 14 995 65 0 4.55 181 20:37 16.12.2019
2537 Clear 14 1024 48 0 0.89 315 20:18 16.12.2019
2538 Clear 14 1024 52 0 0.89 0 19:54 16.12.2019
2539 Clear 14 995 62 0 4.17 183 19:36 16.12.2019
2540 Clear 15 995 61 0 4.17 183 19:18 16.12.2019
2541 Clear 15 1024 54 0 0.89 315 18:54 16.12.2019
2542 Clear 15 995 59 0 4.17 183 18:36 16.12.2019
2543 Clear 16 1019 37 10000 5.7 160 18:18 16.12.2019
2544 Clear 16 1019 37 10000 6.2 170 17:55 16.12.2019
2545 Clear 16 1019 37 10000 6.2 170 17:36 16.12.2019
2546 Clear 16 1019 37 10000 6.2 170 17:18 16.12.2019
2547 Clear 16 1019 40 10000 5.7 160 16:54 16.12.2019
2548 Clear 17 1019 40 10000 5.7 160 16:36 16.12.2019
2549 Clear 17 1019 40 10000 5.1 170 16:18 16.12.2019
2550 Clear 17 1019 40 10000 5.1 170 15:54 16.12.2019
2551 Clear 18 1019 40 10000 4.6 170 15:36 16.12.2019
2552 Clear 17 1019 40 10000 5.7 170 15:18 16.12.2019
2553 Clear 18 1019 40 10000 7.2 180 14:54 16.12.2019
2554 Clear 18 1019 40 10000 7.2 180 14:36 16.12.2019
2555 Clear 18 1019 43 10000 7.2 180 14:18 16.12.2019
2556 Clear 18 1020 43 10000 6.2 190 13:38 16.12.2019
2557 Clear 18 1020 43 10000 5.1 180 13:20 16.12.2019
2558 Clear 18 1020 43 10000 5.1 180 12:58 16.12.2019
2559 Clear 18 1020 43 10000 7.7 180 12:40 16.12.2019
2560 Clear 18 1020 43 10000 6.2 180 12:20 16.12.2019
2561 Clear 18 1020 43 10000 6.2 180 11:59 16.12.2019
2562 Clear 18 1021 40 10000 6.7 180 11:41 16.12.2019
2563 Clear 17 1021 40 10000 4.6 180 11:21 16.12.2019
2564 Clear 17 1021 40 10000 4.6 180 10:58 16.12.2019
2565 Clear 16 1021 72 10000 2.1 0 10:40 16.12.2019
2566 Clear 16 1021 72 10000 2.1 0 10:40 16.12.2019
2567 Clear 16 1021 72 10000 2.1 0 10:40 16.12.2019
2568 Clear 16 1021 77 10000 3.1 30 10:20 16.12.2019
2569 Clear 15 1021 77 10000 3.1 40 09:46 16.12.2019
2570 Clear 15 1021 77 10000 3.1 40 09:28 16.12.2019
2571 Clear 14 1021 67 10000 3.1 50 08:58 16.12.2019
2572 Clear 14 1020 72 10000 2.6 0 08:38 16.12.2019
2573 Clouds 13 1021 72 10000 2.1 50 08:19 16.12.2019
2574 Clouds 14 1020 59 10000 3.6 0 07:49 16.12.2019
2575 Clouds 13 996 93 0 4.19 189 07:30 16.12.2019
2576 Clouds 13 1020 72 10000 2.1 0 06:46 16.12.2019
2577 Clouds 12 1020 82 10000 2.6 50 06:26 16.12.2019
2578 Clouds 13 1020 82 10000 2.1 0 05:56 16.12.2019
2579 Clouds 12 1020 82 10000 2.1 0 05:35 16.12.2019
2580 Clouds 12 1020 87 10000 1.5 60 04:33 16.12.2019
2581 Clouds 13 1021 82 10000 2.1 0 02:49 16.12.2019
2582 Clouds 12 1020 87 10000 1 0 01:45 16.12.2019
2583 Clouds 12 1020 87 10000 2.1 70 00:55 16.12.2019
2584 Clouds 12 1020 87 10000 2.1 70 00:36 16.12.2019
2585 Clouds 13 1020 77 10000 1 0 00:18 16.12.2019
2586 Clouds 13 1020 72 10000 1.5 0 23:40 15.12.2019
2587 Clouds 13 1020 76 10000 0.5 0 23:22 15.12.2019
2588 Clouds 13 1020 76 10000 0.5 0 22:56 15.12.2019
2589 Clouds 13 1020 82 10000 1.5 140 22:38 15.12.2019
2590 Clouds 13 1020 87 10000 0.5 0 22:19 15.12.2019
2591 Clouds 12 1020 87 10000 0.5 0 21:57 15.12.2019
2592 Clouds 12 1020 87 10000 2.1 180 21:38 15.12.2019
2593 Clouds 12 1020 87 10000 2.1 180 21:38 15.12.2019
2594 Clouds 13 1020 87 10000 0.5 0 21:19 15.12.2019
2595 Clouds 13 1020 87 10000 0.5 0 21:19 15.12.2019
2596 Clouds 13 1020 87 10000 0.5 0 20:57 15.12.2019
2597 Clouds 13 1020 82 10000 1 60 20:38 15.12.2019
2598 Clouds 13 1020 87 10000 1 0 20:20 15.12.2019
2599 Clouds 13 1020 87 10000 1 0 19:58 15.12.2019
2600 Clouds 13 1020 87 10000 0.5 0 19:39 15.12.2019
2601 Clouds 13 1020 87 10000 2.6 80 19:19 15.12.2019
2602 Clouds 13 1020 87 10000 2.6 90 18:57 15.12.2019
2603 Clouds 13 1020 87 10000 2.6 90 18:38 15.12.2019
2604 Clouds 13 1020 87 10000 2.6 90 18:18 15.12.2019
2605 Clouds 13 1020 87 10000 3.1 80 17:56 15.12.2019
2606 Clouds 13 1020 87 10000 3.1 80 17:56 15.12.2019
2607 Clouds 13 1020 87 10000 3.1 80 17:37 15.12.2019
2608 Clouds 13 1020 87 10000 3.1 80 17:37 15.12.2019
2609 Clouds 14 1020 87 10000 2.1 70 17:19 15.12.2019
2610 Clouds 14 1019 87 10000 1.5 50 16:57 15.12.2019
2611 Clouds 15 1019 87 10000 1.5 50 16:39 15.12.2019
2612 Clouds 15 1019 82 10000 2.1 10 16:20 15.12.2019
2613 Clouds 16 1019 82 10000 2.1 10 15:55 15.12.2019
2614 Clouds 16 1019 82 10000 2.1 10 15:55 15.12.2019
2615 Clouds 16 1019 88 10000 3.1 40 15:37 15.12.2019
2616 Clouds 16 1019 77 10000 3.1 40 15:18 15.12.2019
2617 Clouds 16 1019 77 10000 3.1 40 14:55 15.12.2019
2618 Clouds 16 1019 72 10000 1.5 40 14:36 15.12.2019
2619 Clouds 16 1019 77 10000 1 350 14:18 15.12.2019
2620 Clouds 17 1019 72 10000 2.1 30 13:55 15.12.2019
2621 Clouds 17 1019 72 10000 2.1 30 13:37 15.12.2019
2622 Clouds 17 1019 77 10000 1.5 320 13:18 15.12.2019
2623 Clouds 17 1019 77 10000 3.1 250 12:56 15.12.2019
2624 Clouds 17 1019 77 10000 3.1 250 12:38 15.12.2019
2625 Clouds 17 1019 77 10000 4.6 240 12:20 15.12.2019
2626 Clouds 16 1020 77 10000 5.7 230 11:39 15.12.2019
2627 Clouds 16 1020 82 10000 5.1 240 11:20 15.12.2019
2628 Clouds 16 1020 82 10000 5.1 240 11:20 15.12.2019
2629 Clouds 16 1020 82 10000 5.1 240 10:58 15.12.2019
2630 Clouds 15 1019 87 10000 3.6 240 10:40 15.12.2019
2631 Clouds 15 995 87 0 1.46 191 10:20 15.12.2019
2632 Clouds 15 1019 82 10000 3.1 220 09:59 15.12.2019
2633 Clouds 14 1019 82 10000 3.1 220 09:38 15.12.2019
2634 Clouds 14 1019 77 10000 3.6 210 09:20 15.12.2019
2635 Clouds 13 1019 77 10000 3.6 210 08:55 15.12.2019
2636 Clouds 13 1019 82 10000 4.1 190 08:37 15.12.2019
2637 Clouds 13 1019 82 10000 4.1 190 08:37 15.12.2019
2638 Clouds 12 1018 87 10000 4.6 210 08:19 15.12.2019
2639 Clouds 12 1019 87 10000 3.6 180 07:53 15.12.2019
2640 Clouds 12 1019 87 10000 3.6 180 07:32 15.12.2019
2641 Clouds 12 1018 87 10000 3.1 190 06:30 15.12.2019
2642 Clouds 13 1018 82 10000 3.6 190 05:51 15.12.2019
2643 Clouds 13 1017 82 10000 2.6 200 05:25 15.12.2019
2644 Clouds 13 1017 82 10000 3.1 190 04:24 15.12.2019
2645 Clouds 13 1017 87 10000 3.6 230 03:22 15.12.2019
2646 Clouds 13 1017 82 10000 2.1 210 02:32 15.12.2019
2647 Clouds 13 1016 77 10000 3.1 210 01:43 15.12.2019
2648 Clouds 13 1016 82 10000 3.1 190 01:20 15.12.2019
2649 Clouds 13 1016 82 9000 2.6 220 00:53 15.12.2019
2650 Clouds 13 1016 82 9000 2.6 220 00:34 15.12.2019
2651 Clouds 13 1016 87 9000 3.6 210 23:58 14.12.2019
2652 Clouds 13 1016 87 10000 3.6 200 23:38 14.12.2019
2653 Clouds 13 1016 87 10000 4.1 200 23:18 14.12.2019
2654 Clouds 13 1015 87 10000 3.6 220 22:56 14.12.2019
2655 Clouds 13 1015 87 10000 3.6 220 22:37 14.12.2019
2656 Clouds 13 1015 87 10000 4.1 210 22:19 14.12.2019
2657 Clouds 13 1015 87 10000 4.1 210 21:55 14.12.2019
2658 Clouds 14 1015 87 10000 3.6 190 21:37 14.12.2019
2659 Clouds 14 1015 93 10000 3.1 240 21:18 14.12.2019
2660 Clouds 14 1015 88 10000 5.7 270 20:43 14.12.2019
2661 Clouds 14 1014 88 10000 4.6 270 20:21 14.12.2019
2662 Clouds 14 1014 88 10000 4.6 270 19:59 14.12.2019
2663 Clouds 14 1014 82 10000 4.6 240 19:40 14.12.2019
2664 Clouds 14 1014 82 10000 6.2 260 19:21 14.12.2019
2665 Clouds 14 1014 88 10000 4.1 240 18:57 14.12.2019
2666 Clouds 14 1014 88 10000 4.1 240 18:39 14.12.2019
2667 Clouds 14 1013 82 10000 4.6 250 18:21 14.12.2019
2668 Clouds 14 1013 82 10000 4.6 250 17:58 14.12.2019
2669 Clouds 14 1013 88 10000 4.1 240 17:40 14.12.2019
2670 Clouds 14 1012 82 10000 3.1 230 17:21 14.12.2019
2671 Clouds 14 1012 82 10000 3.6 230 16:41 14.12.2019
2672 Clouds 14 1012 82 9000 4.6 240 16:19 14.12.2019
2673 Clouds 14 1012 82 9000 4.6 240 15:56 14.12.2019
2674 Clouds 14 1011 82 9000 7.2 260 15:38 14.12.2019
2675 Rain 15 1010 82 10000 7.2 260 15:19 14.12.2019
2676 Rain 15 1010 82 10000 7.2 260 14:56 14.12.2019
2677 Rain 14 1010 82 10000 7.2 270 14:37 14.12.2019
2678 Rain 15 1010 82 10000 4.6 270 14:18 14.12.2019
2679 Rain 14 1009 82 9000 4.6 260 13:44 14.12.2019
2680 Rain 14 1009 77 10000 4.6 280 13:19 14.12.2019
2681 Rain 14 1009 77 10000 4.6 280 12:58 14.12.2019
2682 Rain 14 1009 77 10000 5.7 300 12:39 14.12.2019
2683 Rain 14 1009 82 9000 5.1 290 12:20 14.12.2019
2684 Rain 14 1009 82 9000 5.1 290 11:58 14.12.2019
2685 Rain 14 1008 82 8000 5.7 290 11:39 14.12.2019
2686 Rain 14 1008 82 8000 7.2 300 11:19 14.12.2019
2687 Rain 14 1007 77 8000 7.2 340 10:56 14.12.2019
2688 Rain 14 1007 77 8000 7.2 340 10:38 14.12.2019
2689 Rain 14 1007 77 9000 8.2 320 10:20 14.12.2019
2690 Rain 14 1006 72 9000 9.3 320 09:43 14.12.2019
2691 Rain 13 1005 77 9000 7.7 320 09:23 14.12.2019
2692 Rain 14 1005 77 9000 7.7 320 08:59 14.12.2019
2693 Rain 14 1005 77 9000 7.7 320 08:59 14.12.2019
2694 Rain 13 1005 72 9000 11.3 320 08:40 14.12.2019
2695 Rain 13 1004 67 8000 12.3 320 08:19 14.12.2019
2696 Rain 13 1004 67 8000 9.8 320 07:41 14.12.2019
2697 Clouds 13 1003 72 10000 8.7 330 07:22 14.12.2019
2698 Clouds 14 1002 82 10000 8.7 310 06:55 14.12.2019
2699 Clouds 13 1002 82 10000 8.7 310 06:36 14.12.2019
2700 Clouds 14 1001 72 10000 10.3 320 05:56 14.12.2019
2701 Clouds 14 1001 72 10000 10.3 320 05:56 14.12.2019
2702 Rain 14 1000 67 10000 10.8 310 04:35 14.12.2019
2703 Rain 12 999 59 10000 12.9 300 02:25 14.12.2019
2704 Rain 11 999 72 7000 17.5 290 01:46 14.12.2019
2705 Rain 11 973 99 0 1.34 340 01:28 14.12.2019
2706 Rain 11 1000 78 0 12.06 289 00:44 14.12.2019
2707 Rain 12 998 71 0 12.06 289 00:26 14.12.2019
2708 Rain 13 997 63 10000 16.5 280 23:44 13.12.2019
2709 Rain 14 997 67 10000 17 270 23:22 13.12.2019
2710 Rain 14 997 67 10000 17 270 23:00 13.12.2019
2711 Rain 14 997 67 10000 18 270 22:40 13.12.2019
2712 Rain 14 996 72 10000 16.5 260 22:19 13.12.2019
2713 Rain 14 996 72 10000 16.5 260 21:55 13.12.2019
2714 Rain 14 997 72 10000 15.4 260 21:37 13.12.2019
2715 Clouds 14 997 82 10000 13.9 260 21:19 13.12.2019
2716 Rain 14 997 82 10000 14.4 260 20:40 13.12.2019
2717 Rain 14 998 77 10000 15.4 260 20:21 13.12.2019
2718 Rain 14 998 77 10000 15.4 260 19:59 13.12.2019
2719 Rain 14 998 77 10000 15.4 260 19:40 13.12.2019
2720 Rain 14 998 77 10000 13.9 260 19:22 13.12.2019
2721 Rain 14 998 82 10000 14.4 250 18:58 13.12.2019
2722 Rain 14 998 77 10000 13.9 260 18:40 13.12.2019
2723 Rain 14 998 77 10000 13.9 260 18:19 13.12.2019
2724 Drizzle 14 999 77 10000 11.8 250 17:43 13.12.2019
2725 Drizzle 14 999 77 10000 11.8 250 17:20 13.12.2019
2726 Rain 13 999 77 8000 13.4 250 16:59 13.12.2019
2727 Rain 13 1000 77 8000 12.9 250 16:39 13.12.2019
2728 Rain 13 1000 77 8000 12.9 250 16:20 13.12.2019
2729 Rain 13 1000 82 8000 11.3 250 15:58 13.12.2019
2730 Rain 13 1000 77 7000 11.8 260 15:37 13.12.2019
2731 Rain 12 1000 77 7000 11.8 260 15:18 13.12.2019
2732 Rain 12 1000 82 10000 7.7 220 14:41 13.12.2019
2733 Rain 12 1000 82 10000 10.3 220 14:21 13.12.2019
2734 Rain 12 1001 87 5000 9.3 220 13:57 13.12.2019
2735 Rain 12 1001 82 10000 8.2 200 13:38 13.12.2019
2736 Rain 12 1001 82 10000 8.2 200 13:19 13.12.2019
2737 Rain 11 1002 82 10000 8.7 190 12:42 13.12.2019
2738 Rain 11 1003 82 10000 8.7 210 12:20 13.12.2019
2739 Rain 11 1003 82 10000 8.7 210 11:57 13.12.2019
2740 Rain 11 1003 87 10000 8.2 190 11:39 13.12.2019
2741 Rain 11 1003 87 10000 8.2 190 11:21 13.12.2019
2742 Rain 11 1004 82 10000 7.2 200 10:43 13.12.2019
2743 Rain 11 1004 82 10000 7.2 200 10:23 13.12.2019
2744 Rain 11 1004 82 10000 8.7 210 09:59 13.12.2019
2745 Clouds 11 1004 82 10000 7.7 200 09:39 13.12.2019
2746 Clouds 11 1004 82 10000 7.7 200 09:19 13.12.2019
2747 Rain 11 1005 82 10000 8.7 210 08:41 13.12.2019
2748 Rain 10 1004 76 10000 6.2 210 08:23 13.12.2019
2749 Rain 10 1005 76 10000 6.7 200 07:46 13.12.2019
2750 Rain 10 1005 76 10000 5.1 200 07:23 13.12.2019
2751 Rain 10 1005 82 7000 5.7 210 06:55 13.12.2019
2752 Clouds 10 1005 76 10000 6.7 200 06:29 13.12.2019
2753 Clouds 10 1005 76 10000 5.7 190 05:47 13.12.2019
2754 Clouds 10 1005 71 10000 5.7 200 05:28 13.12.2019
2755 Rain 10 1006 72 10000 8.7 250 04:46 13.12.2019
2756 Rain 9 1006 81 7000 7.2 210 03:47 13.12.2019
2757 Clouds 10 1007 67 10000 5.7 210 02:34 13.12.2019
2758 Clouds 10 1007 67 10000 8.7 260 01:48 13.12.2019
2759 Clouds 10 1008 62 10000 9.3 270 00:57 13.12.2019
2760 Clouds 10 1008 62 10000 10.3 270 00:37 13.12.2019
2761 Clouds 10 1008 67 10000 10.3 280 23:59 12.12.2019
2762 Clouds 11 1008 62 10000 10.8 280 23:40 12.12.2019
2763 Clouds 11 1008 62 10000 10.8 280 23:22 12.12.2019
2764 Clouds 11 1008 62 10000 10.8 280 22:56 12.12.2019
2765 Clouds 11 1008 58 10000 11.3 280 22:37 12.12.2019
2766 Clouds 11 1008 58 10000 11.3 280 22:19 12.12.2019
2767 Clouds 11 1008 67 10000 11.3 270 21:55 12.12.2019
2768 Rain 10 983 67 0 1.79 340 21:37 12.12.2019
2769 Rain 10 983 67 0 0.89 327 21:18 12.12.2019
2770 Rain 10 983 66 0 0.45 355 20:56 12.12.2019
2771 Rain 10 983 69 0 1.34 349 20:38 12.12.2019
2772 Rain 10 983 72 0 0.89 3 20:20 12.12.2019
2773 Rain 10 983 69 0 0.89 304 19:43 12.12.2019
2774 Drizzle 11 1008 63 10000 11.8 280 19:23 12.12.2019
2775 Rain 11 1008 62 10000 11.8 270 18:58 12.12.2019
2776 Rain 11 1008 62 10000 11.8 270 18:40 12.12.2019
2777 Clouds 11 1008 67 10000 10.8 270 18:21 12.12.2019
2778 Clouds 11 1008 67 10000 10.8 270 18:21 12.12.2019
2779 Clouds 11 1008 67 10000 10.8 270 18:21 12.12.2019
2780 Clouds 10 1008 67 10000 11.3 270 17:59 12.12.2019
2781 Clouds 10 1009 62 10000 11.8 260 17:40 12.12.2019
2782 Clouds 10 1009 62 10000 11.8 260 17:21 12.12.2019
2783 Rain 10 1009 67 10000 10.8 310 16:59 12.12.2019
2784 Rain 10 1009 67 10000 10.8 310 16:41 12.12.2019
2785 Clouds 11 1008 62 10000 10.8 270 16:21 12.12.2019
2786 Clouds 11 1008 62 10000 10.3 290 15:58 12.12.2019
2787 Clouds 11 1008 62 10000 10.3 290 15:40 12.12.2019
2788 Clouds 11 1009 58 10000 10.8 290 15:19 12.12.2019
2789 Clouds 11 1009 62 10000 10.8 280 14:56 12.12.2019
2790 Clouds 11 1009 62 10000 10.8 280 14:56 12.12.2019
2791 Clouds 11 1009 58 10000 11.3 280 14:36 12.12.2019
2792 Clouds 11 1009 58 10000 11.3 280 14:18 12.12.2019
2793 Clouds 12 1009 62 10000 10.8 280 13:54 12.12.2019
2794 Clouds 11 1009 67 10000 6.2 270 13:36 12.12.2019
2795 Clouds 11 1009 67 10000 6.2 270 13:18 12.12.2019
2796 Clouds 12 1009 62 10000 10.3 290 12:41 12.12.2019
2797 Clouds 11 1009 62 10000 10.3 290 12:22 12.12.2019
2798 Clouds 11 1010 58 10000 10.3 300 11:59 12.12.2019
2799 Clouds 11 1010 58 10000 10.3 300 11:40 12.12.2019
2800 Rain 10 984 99 0 2.21 220 11:21 12.12.2019
2801 Rain 9 984 99 0 2.21 220 10:58 12.12.2019
2802 Rain 9 984 99 0 2.21 220 10:40 12.12.2019
2803 Rain 9 1010 76 7000 7.7 300 10:22 12.12.2019
2804 Rain 9 1009 81 6000 4.1 210 09:56 12.12.2019
2805 Rain 9 1009 81 2000 8.7 260 09:38 12.12.2019
2806 Rain 9 1009 81 2000 8.7 260 09:19 12.12.2019
2807 Rain 9 1008 71 7000 7.7 210 08:47 12.12.2019
2808 Clouds 9 1008 62 10000 6.7 200 08:28 12.12.2019
2809 Clouds 9 1008 62 10000 5.1 200 07:55 12.12.2019
2810 Clouds 9 1008 62 10000 3.6 180 07:36 12.12.2019
2811 Clouds 10 1008 62 10000 3.6 180 07:18 12.12.2019
2812 Clouds 9 1008 58 10000 4.6 210 06:41 12.12.2019
2813 Clouds 9 1008 58 10000 4.6 210 06:21 12.12.2019
2814 Clouds 8 1008 62 10000 4.6 200 05:28 12.12.2019
2815 Clouds 8 1008 66 10000 5.7 200 04:46 12.12.2019
2816 Clouds 9 1010 54 10000 6.2 290 02:42 12.12.2019
2817 Clouds 9 1010 50 10000 6.2 300 02:24 12.12.2019
2818 Clouds 9 1010 58 10000 5.1 300 01:59 12.12.2019
2819 Clouds 9 1011 54 10000 5.7 280 01:36 12.12.2019
2820 Clouds 9 1011 58 10000 6.2 290 00:49 12.12.2019
2821 Clouds 9 1011 54 10000 6.2 300 00:22 12.12.2019
2822 Clouds 9 1011 54 10000 7.7 290 23:58 11.12.2019
2823 Clouds 9 1011 54 10000 8.2 300 23:37 11.12.2019
2824 Clouds 9 1011 54 10000 8.2 300 23:18 11.12.2019
2825 Clouds 9 1011 58 10000 6.7 300 22:56 11.12.2019
2826 Clouds 9 1011 54 10000 7.2 320 22:38 11.12.2019
2827 Clouds 9 1011 54 10000 7.2 320 22:18 11.12.2019
2828 Clouds 9 1012 58 10000 7.7 310 21:54 11.12.2019
2829 Clouds 9 1012 58 10000 5.1 330 21:36 11.12.2019
2830 Clouds 10 1012 58 10000 5.1 330 21:18 11.12.2019
2831 Clouds 10 1012 62 10000 6.2 330 20:55 11.12.2019
2832 Clouds 10 1012 58 10000 7.2 320 20:36 11.12.2019
2833 Clouds 9 1012 58 10000 7.2 320 20:18 11.12.2019
2834 Clouds 9 1012 58 10000 8.2 330 19:42 11.12.2019
2835 Clouds 9 1012 58 10000 8.2 330 19:23 11.12.2019
2836 Clouds 10 1012 58 10000 8.2 330 19:23 11.12.2019
2837 Clouds 10 1012 58 10000 8.7 310 18:59 11.12.2019
2838 Clouds 10 1012 58 10000 8.7 310 18:40 11.12.2019
2839 Clouds 10 1011 62 10000 9.3 310 18:20 11.12.2019
2840 Clouds 10 1011 67 10000 9.3 310 17:56 11.12.2019
2841 Clouds 10 1011 67 10000 8.7 320 17:38 11.12.2019
2842 Clouds 10 1011 67 10000 8.7 320 17:18 11.12.2019
2843 Clouds 10 1011 62 10000 9.3 320 16:56 11.12.2019
2844 Clouds 10 1010 62 10000 8.7 330 16:37 11.12.2019
2845 Clouds 11 1010 62 10000 8.7 330 16:19 11.12.2019
2846 Clouds 11 1010 67 10000 9.3 320 15:57 11.12.2019
2847 Clouds 11 1010 67 10000 9.3 330 15:37 11.12.2019
2848 Clouds 11 1010 67 10000 9.3 330 15:19 11.12.2019
2849 Clouds 11 1010 67 10000 8.7 330 14:55 11.12.2019
2850 Clouds 11 1010 72 10000 8.2 330 14:37 11.12.2019
2851 Clouds 12 1010 72 10000 8.2 330 14:18 11.12.2019
2852 Clouds 12 1010 72 10000 9.3 330 13:44 11.12.2019
2853 Clouds 12 1010 72 10000 9.3 330 13:23 11.12.2019
2854 Clouds 12 1011 62 10000 5.7 350 12:59 11.12.2019
2855 Rain 12 1011 62 10000 5.7 10 12:39 11.12.2019
2856 Rain 12 1011 62 10000 5.7 10 12:21 11.12.2019
2857 Rain 12 1011 62 10000 5.7 10 11:58 11.12.2019
2858 Clouds 12 1011 62 10000 5.1 10 11:39 11.12.2019
2859 Clouds 13 1011 62 10000 5.1 10 11:19 11.12.2019
2860 Clouds 12 1011 58 10000 6.7 20 10:59 11.12.2019
2861 Clouds 12 1011 62 10000 8.7 10 10:39 11.12.2019
2862 Clouds 12 1011 62 10000 8.7 10 10:21 11.12.2019
2863 Clouds 12 1011 62 10000 9.3 360 09:56 11.12.2019
2864 Clouds 12 1011 67 10000 9.8 10 09:38 11.12.2019
2865 Clouds 11 1011 67 10000 9.8 10 09:19 11.12.2019
2866 Clouds 11 1011 67 10000 8.7 10 08:55 11.12.2019
2867 Clouds 11 1010 67 10000 8.7 20 08:36 11.12.2019
2868 Clouds 11 1010 67 10000 8.7 20 08:18 11.12.2019
2869 Clouds 10 1010 67 10000 9.8 20 07:43 11.12.2019
2870 Clouds 10 1010 67 10000 9.8 20 07:23 11.12.2019
2871 Rain 10 1009 71 9000 9.8 60 06:46 11.12.2019
2872 Clouds 10 1009 67 10000 10.3 40 06:25 11.12.2019
2873 Clouds 10 1009 67 10000 11.3 30 05:55 11.12.2019
2874 Clouds 10 1009 67 10000 11.3 40 05:35 11.12.2019
2875 Rain 9 985 91 0 1.34 349 04:51 11.12.2019
2876 Rain 9 985 91 0 1.34 349 04:51 11.12.2019
2877 Clouds 9 1010 81 10000 3.6 40 03:29 11.12.2019
2878 Rain 9 1009 81 10000 3.6 30 02:35 11.12.2019
2879 Rain 9 1009 82 10000 9.8 40 01:22 11.12.2019
2880 Rain 9 1013 95 0 0.89 225 00:43 11.12.2019
2881 Clouds 10 1009 76 10000 5.1 80 00:19 11.12.2019
2882 Rain 9 1012 89 0 1.34 270 23:45 10.12.2019
2883 Rain 9 984 99 0 1.84 318 23:26 10.12.2019
2884 Rain 9 984 99 0 1.69 309 22:57 10.12.2019
2885 Rain 10 984 97 0 1.69 309 22:39 10.12.2019
2886 Rain 10 984 96 0 1.69 309 22:20 10.12.2019
2887 Rain 9 984 93 0 1.69 309 21:54 10.12.2019
2888 Rain 9 1012 85 0 1.69 309 21:36 10.12.2019
2889 Rain 9 984 94 0 1.69 309 21:18 10.12.2019
2890 Clouds 9 1008 71 10000 3.1 60 20:55 10.12.2019
2891 Clouds 9 1008 76 10000 3.6 70 20:36 10.12.2019
2892 Clouds 9 1008 76 10000 3.6 70 20:18 10.12.2019
2893 Clouds 9 1008 76 10000 1 0 19:44 10.12.2019
2894 Clouds 9 1008 81 10000 2.1 140 19:26 10.12.2019
2895 Clouds 9 1008 87 10000 1.5 160 18:59 10.12.2019
2896 Clouds 9 1008 87 10000 1.5 160 18:39 10.12.2019
2897 Rain 9 1008 76 10000 1.5 120 18:20 10.12.2019
2898 Rain 9 1007 76 10000 1.5 140 17:55 10.12.2019
2899 Rain 9 1007 81 10000 1.5 70 17:37 10.12.2019
2900 Clouds 10 1007 81 10000 1.5 70 17:19 10.12.2019
2901 Clouds 10 1006 67 10000 2.1 70 16:43 10.12.2019
2902 Clouds 11 1006 67 10000 2.1 70 16:20 10.12.2019
2903 Clouds 11 1006 67 10000 2.1 70 16:20 10.12.2019
2904 Clouds 11 1006 67 10000 1 0 15:55 10.12.2019
2905 Clouds 11 1006 67 10000 2.6 90 15:37 10.12.2019
2906 Clouds 11 1006 67 10000 2.6 90 15:18 10.12.2019
2907 Clouds 11 1006 67 10000 2.6 90 15:18 10.12.2019
2908 Clouds 11 1006 67 10000 2.6 90 15:18 10.12.2019
2909 Clouds 11 1006 76 10000 2.1 150 14:55 10.12.2019
2910 Clouds 11 1006 71 10000 2.6 200 14:37 10.12.2019
2911 Clouds 12 1006 71 10000 2.6 200 14:19 10.12.2019
2912 Clouds 11 1007 71 10000 2.6 180 13:56 10.12.2019
2913 Clouds 12 1007 71 10000 3.6 190 13:37 10.12.2019
2914 Clouds 12 1007 71 10000 3.6 190 13:18 10.12.2019
2915 Clouds 12 1007 62 10000 2.1 130 12:40 10.12.2019
2916 Rain 11 1008 71 6000 3.1 20 12:22 10.12.2019
2917 Clouds 11 1008 62 10000 3.1 260 11:42 10.12.2019
2918 Clouds 11 1008 67 10000 6.2 280 11:24 10.12.2019
2919 Clouds 11 1009 76 10000 1 0 10:57 10.12.2019
2920 Clouds 11 1009 76 10000 1 0 10:38 10.12.2019
2921 Clouds 11 1008 66 10000 3.1 320 10:20 10.12.2019
2922 Clouds 11 1008 71 9000 6.2 290 09:56 10.12.2019
2923 Rain 11 1008 81 10000 3.6 170 09:38 10.12.2019
2924 Rain 11 1008 81 10000 3.6 170 09:19 10.12.2019
2925 Rain 9 984 98 0 1.79 243 08:55 10.12.2019
2926 Clouds 9 1008 71 10000 2.1 170 08:37 10.12.2019
2927 Rain 9 1008 71 10000 2.1 170 08:18 10.12.2019
2928 Rain 9 1008 58 7000 11.3 290 07:44 10.12.2019
2929 Rain 9 1008 71 10000 2.6 160 07:25 10.12.2019
2930 Rain 9 1008 81 10000 5.1 150 06:48 10.12.2019
2931 Rain 9 1008 82 10000 9.3 250 06:22 10.12.2019
2932 Rain 9 984 99 0 2.67 217 05:55 10.12.2019
2933 Rain 10 1009 72 10000 9.3 280 04:56 10.12.2019
2934 Rain 10 1009 77 10000 9.8 250 03:40 10.12.2019
2935 Rain 11 1010 67 10000 10.3 260 02:47 10.12.2019
2936 Clouds 11 1010 72 10000 12.3 260 01:50 10.12.2019
2937 Clouds 11 1010 72 10000 11.8 260 01:25 10.12.2019
2938 Clouds 11 1011 67 10000 11.3 260 00:43 10.12.2019
2939 Clouds 12 1011 72 10000 4.6 220 00:24 10.12.2019
2940 Clouds 12 1011 76 10000 5.7 210 23:43 09.12.2019
2941 Clouds 12 1011 76 10000 5.7 210 23:24 09.12.2019
2942 Clouds 11 1011 72 10000 5.1 200 22:58 09.12.2019
2943 Clouds 11 1011 72 10000 5.1 200 22:58 09.12.2019
2944 Clouds 12 1012 72 10000 5.1 210 22:40 09.12.2019
2945 Clouds 11 1012 72 10000 5.1 210 22:21 09.12.2019
2946 Clouds 11 1012 77 10000 5.1 240 21:57 09.12.2019
2947 Clouds 12 1013 77 10000 6.2 270 21:39 09.12.2019
2948 Clouds 12 1013 77 10000 6.2 270 21:19 09.12.2019
2949 Clouds 12 1013 82 10000 4.1 200 20:57 09.12.2019
2950 Clouds 12 1013 82 10000 3.6 200 20:39 09.12.2019
2951 Clouds 12 1013 82 10000 4.1 200 20:39 09.12.2019
2952 Clouds 12 1013 82 10000 3.6 200 20:20 09.12.2019
2953 Clouds 12 1013 82 10000 3.6 200 20:20 09.12.2019
2954 Clouds 12 1013 77 10000 5.7 250 19:56 09.12.2019
2955 Clouds 12 1013 82 10000 6.7 260 19:38 09.12.2019
2956 Clouds 12 1013 82 10000 6.7 260 19:20 09.12.2019
2957 Clouds 12 1012 77 10000 6.2 260 18:58 09.12.2019
2958 Clouds 12 1012 82 10000 5.7 270 18:39 09.12.2019
2959 Clouds 12 1012 82 10000 5.7 270 18:20 09.12.2019
2960 Clouds 12 1012 77 10000 6.2 270 17:59 09.12.2019
2961 Clouds 12 1012 77 10000 6.2 270 17:40 09.12.2019
2962 Clouds 12 1013 77 10000 5.1 270 17:21 09.12.2019
2963 Clouds 13 1013 72 10000 5.1 280 16:56 09.12.2019
2964 Clouds 13 1013 72 10000 6.2 290 16:38 09.12.2019
2965 Clouds 13 1013 72 10000 6.2 290 16:20 09.12.2019
2966 Clouds 13 1013 72 10000 6.2 280 15:56 09.12.2019
2967 Clouds 13 1013 72 10000 6.2 280 15:56 09.12.2019
2968 Clouds 13 1013 77 10000 5.7 280 15:37 09.12.2019
2969 Clouds 14 1013 77 10000 5.7 280 15:19 09.12.2019
2970 Clouds 14 1013 82 10000 6.2 280 14:58 09.12.2019
2971 Clouds 14 1013 77 10000 5.7 290 14:39 09.12.2019
2972 Clouds 14 1013 77 10000 5.7 290 14:18 09.12.2019
2973 Rain 14 1013 77 10000 6.7 290 13:55 09.12.2019
2974 Rain 14 1014 72 10000 4.1 230 13:36 09.12.2019
2975 Rain 14 1014 72 10000 4.1 230 13:18 09.12.2019
2976 Clouds 15 1014 67 10000 3.6 230 12:54 09.12.2019
2977 Clouds 14 1014 67 10000 4.1 220 12:36 09.12.2019
2978 Clouds 14 1015 63 10000 3.1 210 12:18 09.12.2019
2979 Clouds 14 1015 63 10000 3.1 210 11:40 09.12.2019
2980 Clouds 13 1015 72 10000 2.1 210 11:21 09.12.2019
2981 Clouds 13 1015 76 10000 2.6 200 10:57 09.12.2019
2982 Drizzle 13 1016 76 10000 3.6 150 10:38 09.12.2019
2983 Drizzle 12 1016 76 10000 3.6 150 10:19 09.12.2019
2984 Drizzle 12 1016 76 10000 3.6 150 10:19 09.12.2019
2985 Rain 11 1016 87 10000 3.1 180 09:44 09.12.2019
2986 Rain 11 1016 82 10000 4.6 200 09:24 09.12.2019
2987 Rain 11 1016 76 10000 5.1 210 08:57 09.12.2019
2988 Rain 11 1016 76 10000 5.1 210 08:38 09.12.2019
2989 Drizzle 11 1016 87 10000 3.6 210 08:20 09.12.2019
2990 Drizzle 11 1015 87 10000 3.1 210 07:49 09.12.2019
2991 Drizzle 11 1015 71 10000 1.5 220 07:30 09.12.2019
2992 Drizzle 11 1015 76 10000 2.1 170 06:55 09.12.2019
2993 Rain 11 1016 82 10000 2.1 180 06:30 09.12.2019
2994 Rain 12 1016 87 10000 2.1 150 05:42 09.12.2019
2995 Rain 12 1016 87 10000 2.1 150 05:20 09.12.2019
2996 Rain 11 1016 77 10000 0.5 120 04:27 09.12.2019
2997 Rain 11 1016 77 10000 0.5 120 04:27 09.12.2019
2998 Clouds 12 1017 71 10000 2.1 190 02:28 09.12.2019
2999 Clouds 12 1017 67 10000 3.6 160 01:46 09.12.2019
3000 Clouds 12 1018 71 10000 2.6 210 00:57 09.12.2019
3001 Clouds 12 1018 66 10000 1.5 170 00:33 09.12.2019
3002 Clouds 12 1018 62 10000 2.1 180 23:55 08.12.2019
3003 Clouds 12 1018 62 10000 2.1 180 23:55 08.12.2019
3004 Clouds 13 1018 76 10000 3.6 210 23:37 08.12.2019
3005 Clouds 12 1018 76 10000 3.6 210 23:18 08.12.2019
3006 Clouds 12 1018 82 10000 3.6 230 22:56 08.12.2019
3007 Clouds 12 1018 62 10000 2.1 190 22:38 08.12.2019
3008 Clouds 12 1018 62 10000 2.1 190 22:38 08.12.2019
3009 Clouds 12 1018 62 10000 2.1 190 22:18 08.12.2019
3010 Clouds 12 1018 71 10000 2.6 180 21:55 08.12.2019
3011 Clouds 12 1019 81 10000 3.1 200 21:37 08.12.2019
3012 Clouds 12 1019 76 10000 2.1 190 21:19 08.12.2019
3013 Clouds 12 1019 76 10000 2.1 190 20:55 08.12.2019
3014 Clear 12 1019 67 10000 1 210 20:37 08.12.2019
3015 Clouds 12 1019 67 10000 1 210 20:18 08.12.2019
3016 Clouds 12 1019 76 10000 2.6 170 19:55 08.12.2019
3017 Clouds 12 1019 82 10000 1.5 0 19:36 08.12.2019
3018 Clouds 12 1019 82 10000 1.5 0 19:18 08.12.2019
3019 Clouds 12 1019 76 10000 1.5 170 18:54 08.12.2019
3020 Clouds 12 1019 72 10000 1 0 18:36 08.12.2019
3021 Clouds 12 1019 72 10000 1 0 18:18 08.12.2019
3022 Clouds 12 1019 82 10000 2.1 100 17:54 08.12.2019
3023 Clouds 13 1019 77 10000 2.1 80 17:36 08.12.2019
3024 Clouds 13 1019 77 10000 2.1 80 17:18 08.12.2019
3025 Clouds 14 1020 77 10000 2.6 70 16:55 08.12.2019
3026 Clouds 15 1019 72 10000 4.6 60 16:37 08.12.2019
3027 Clouds 15 1019 72 10000 4.6 60 16:18 08.12.2019
3028 Clouds 16 1020 67 10000 5.1 50 15:37 08.12.2019
3029 Clouds 16 1020 67 10000 5.1 50 15:18 08.12.2019
3030 Clouds 16 1019 67 10000 5.7 50 14:57 08.12.2019
3031 Clouds 15 1019 77 10000 5.7 60 14:37 08.12.2019
3032 Clouds 15 1019 77 10000 5.7 60 14:19 08.12.2019
3033 Clouds 16 1020 77 10000 4.1 40 13:42 08.12.2019
3034 Clouds 15 1021 72 10000 1.5 10 13:23 08.12.2019
3035 Clouds 15 1022 72 10000 1 10 12:59 08.12.2019
3036 Clouds 15 1022 72 10000 1.5 360 12:41 08.12.2019
3037 Clouds 15 1022 72 10000 1 10 12:41 08.12.2019
3038 Clouds 16 1022 72 10000 1.5 360 12:22 08.12.2019
3039 Clouds 16 1022 67 10000 1.5 40 11:59 08.12.2019
3040 Clouds 16 1022 67 10000 1.5 20 11:38 08.12.2019
3041 Clouds 16 1022 67 10000 1.5 20 11:19 08.12.2019
3042 Clouds 16 1022 67 10000 1 250 10:57 08.12.2019
3043 Clouds 15 1022 67 10000 1 0 10:38 08.12.2019
3044 Clouds 15 1022 67 10000 1 0 10:38 08.12.2019
3045 Clouds 15 1022 67 10000 1 0 10:19 08.12.2019
3046 Clouds 15 1022 76 10000 2.1 210 09:55 08.12.2019
3047 Clouds 14 1022 71 10000 0.5 0 09:37 08.12.2019
3048 Clouds 14 1022 71 10000 0.5 0 09:19 08.12.2019
3049 Clouds 14 1022 71 10000 0.5 0 09:19 08.12.2019
3050 Clouds 13 1022 66 10000 1.5 100 08:57 08.12.2019
3051 Clouds 13 1022 71 10000 1.5 170 08:36 08.12.2019
3052 Clouds 12 1022 71 10000 1.5 170 08:18 08.12.2019
3053 Clouds 11 1022 76 10000 2.6 190 07:41 08.12.2019
3054 Clouds 11 1022 76 10000 2.6 190 07:19 08.12.2019
3055 Clouds 11 1021 66 10000 1.5 210 06:43 08.12.2019
3056 Clouds 11 1021 76 10000 1.5 210 06:21 08.12.2019
3057 Clouds 11 1021 76 10000 1.5 190 05:30 08.12.2019
3058 Clouds 11 1021 76 10000 2.1 180 04:58 08.12.2019
3059 Clouds 11 1021 71 10000 2.1 190 03:47 08.12.2019
3060 Clouds 11 1022 71 10000 1 210 03:20 08.12.2019
3061 Clouds 12 1021 71 10000 2.1 200 02:28 08.12.2019
3062 Clouds 12 1021 66 10000 1.5 180 01:48 08.12.2019
3063 Clouds 12 1022 76 10000 2.6 230 00:59 08.12.2019
3064 Clouds 12 1022 76 10000 2.6 230 00:39 08.12.2019
3065 Clouds 12 1022 76 10000 2.6 230 00:39 08.12.2019
3066 Clouds 12 1022 58 10000 1 150 00:19 08.12.2019
3067 Clouds 12 1022 58 10000 1 150 00:19 08.12.2019
3068 Clouds 12 1022 67 10000 1.5 200 23:40 07.12.2019
3069 Clouds 12 1022 67 10000 1.5 200 23:20 07.12.2019
3070 Clouds 12 1022 62 10000 2.6 170 22:56 07.12.2019
3071 Clouds 12 1022 67 10000 2.1 190 22:38 07.12.2019
3072 Clouds 12 1022 67 10000 2.1 190 22:20 07.12.2019
3073 Clouds 12 1022 71 10000 2.6 180 21:56 07.12.2019
3074 Clouds 12 1022 67 10000 2.6 170 21:38 07.12.2019
3075 Clouds 12 1022 67 10000 2.6 170 21:38 07.12.2019
3076 Clouds 12 1022 67 10000 2.6 170 21:19 07.12.2019
3077 Clouds 12 1022 82 10000 3.6 210 20:56 07.12.2019
3078 Clouds 12 1022 77 10000 2.6 190 20:36 07.12.2019
3079 Clouds 12 1022 77 10000 2.6 190 20:18 07.12.2019
3080 Clouds 12 1022 77 10000 3.1 180 19:56 07.12.2019
3081 Clouds 12 1022 82 10000 2.6 190 19:37 07.12.2019
3082 Clouds 12 1022 82 10000 2.6 190 19:19 07.12.2019
3083 Clouds 13 1022 82 10000 2.1 110 18:44 07.12.2019
3084 Clouds 13 1022 77 10000 1.5 80 18:19 07.12.2019
3085 -273 0 0 0 0 0 17:58 07.12.2019
3086 Clouds 13 1021 72 10000 1 110 17:40 07.12.2019
3087 Clouds 14 1021 72 10000 1 0 17:21 07.12.2019
3088 Clouds 14 1021 67 10000 1.5 60 16:56 07.12.2019
3089 Clouds 15 1021 68 10000 1.5 60 16:38 07.12.2019
3090 Clouds 15 1021 68 10000 1.5 60 16:19 07.12.2019
3091 Clouds 16 1020 68 10000 1 0 15:56 07.12.2019
3092 Clouds 16 1020 63 10000 1.5 20 15:38 07.12.2019
3093 Clouds 17 1020 63 10000 1.5 20 15:18 07.12.2019
3094 Clouds 17 1021 72 10000 1.5 20 14:42 07.12.2019
3095 Clouds 17 1021 59 10000 1 0 14:19 07.12.2019
3096 Clouds 18 1021 60 10000 2.6 220 13:55 07.12.2019
3097 Clouds 17 1021 59 10000 4.1 210 13:37 07.12.2019
3098 Clear 17 1021 59 10000 4.1 210 13:18 07.12.2019
3099 Clear 17 997 65 0 1.25 272 12:41 07.12.2019
3100 Clear 17 1022 55 10000 5.7 210 12:22 07.12.2019
3101 Clear 17 1022 52 10000 5.1 210 11:58 07.12.2019
3102 Clear 17 1022 52 10000 5.1 210 11:40 07.12.2019
3103 Clear 17 1023 55 10000 4.6 210 11:22 07.12.2019
3104 Clear 16 1023 67 10000 1 0 10:39 07.12.2019
3105 Clear 15 1022 59 10000 1.5 130 10:20 07.12.2019
3106 Clear 15 1022 59 10000 1.5 130 09:58 07.12.2019
3107 Clear 15 1022 59 10000 2.6 180 09:38 07.12.2019
3108 Clear 14 1022 59 10000 2.6 180 09:19 07.12.2019
3109 Clear 14 1022 71 10000 2.6 190 08:43 07.12.2019
3110 Clear 13 1022 76 10000 1.5 190 08:21 07.12.2019
3111 Clear 12 1022 67 10000 2.1 100 07:47 07.12.2019
3112 Clear 13 1022 62 10000 2.6 120 07:27 07.12.2019
3113 Clear 12 1022 62 10000 3.6 190 06:51 07.12.2019
3114 Clear 12 1022 62 10000 3.6 180 06:25 07.12.2019
3115 Clear 13 1022 62 10000 3.6 190 05:44 07.12.2019
3116 Clear 12 1022 62 10000 3.6 180 04:41 07.12.2019
3117 Clear 13 1022 71 10000 1 0 03:48 07.12.2019
3118 Clouds 12 1022 54 10000 2.1 170 02:22 07.12.2019
3119 Clouds 12 1022 66 10000 2.6 180 01:37 07.12.2019
3120 Clouds 12 1022 66 10000 2.6 180 01:18 07.12.2019
3121 Clouds 12 1023 62 10000 2.6 180 00:21 07.12.2019
3122 Clouds 12 1023 62 10000 3.1 180 23:57 06.12.2019
3123 Clouds 12 1023 62 10000 3.1 180 23:39 06.12.2019
3124 Clouds 12 1023 71 10000 2.6 170 23:39 06.12.2019
3125 Clouds 12 1023 71 10000 2.6 170 23:19 06.12.2019
3126 Clouds 12 1023 76 10000 3.1 170 22:39 06.12.2019
3127 Clouds 12 1023 76 10000 3.1 170 22:21 06.12.2019
3128 Clouds 12 1023 82 10000 2.6 180 21:59 06.12.2019
3129 Clouds 11 1023 82 10000 2.6 180 21:40 06.12.2019
3130 Clouds 11 1023 76 10000 2.6 180 21:20 06.12.2019
3131 Clouds 11 1023 87 10000 2.6 190 20:47 06.12.2019
3132 Clouds 12 1023 87 10000 3.1 150 20:27 06.12.2019
3133 Clouds 12 1023 87 10000 2.6 160 19:59 06.12.2019
3134 Clouds 12 1023 87 10000 2.6 160 19:41 06.12.2019
3135 Clouds 12 1023 93 10000 3.1 150 19:22 06.12.2019
3136 Clouds 12 1023 87 10000 2.1 160 18:59 06.12.2019
3137 Clouds 13 1023 87 10000 2.1 160 18:40 06.12.2019
3138 Clouds 13 1023 82 10000 1.5 190 18:21 06.12.2019
3139 Clouds 13 1023 82 10000 1.5 190 18:21 06.12.2019
3140 Clouds 13 1022 82 10000 2.1 280 17:58 06.12.2019
3141 Clouds 13 1022 82 10000 2.1 280 17:40 06.12.2019
3142 Clouds 14 1022 82 10000 3.1 300 17:21 06.12.2019
3143 Clouds 14 1022 82 10000 2.6 300 16:57 06.12.2019
3144 Clouds 15 1022 82 10000 2.6 290 16:37 06.12.2019
3145 Clouds 15 1022 82 10000 2.6 290 16:19 06.12.2019
3146 Clouds 16 1022 82 10000 3.1 290 15:41 06.12.2019
3147 Clouds 15 1022 82 10000 3.6 280 15:22 06.12.2019
3148 Clouds 16 1022 77 10000 2.1 280 14:58 06.12.2019
3149 Clouds 16 1022 77 10000 2.1 280 14:40 06.12.2019
3150 Clouds 16 1022 77 10000 2.1 280 14:19 06.12.2019
3151 Clouds 16 1023 82 10000 3.1 280 13:46 06.12.2019
3152 Clouds 16 1023 82 10000 3.6 270 13:26 06.12.2019
3153 Clouds 16 1023 77 10000 4.6 250 12:57 06.12.2019
3154 Clouds 16 1023 77 10000 3.1 250 12:39 06.12.2019
3155 Clouds 16 1023 77 10000 3.1 250 12:20 06.12.2019
3156 Clouds 16 1023 77 10000 3.1 250 11:42 06.12.2019
3157 Clouds 16 1024 82 10000 3.6 240 11:23 06.12.2019
3158 Clouds 15 1024 77 10000 3.6 240 10:56 06.12.2019
3159 Clouds 15 1024 77 10000 3.6 240 10:38 06.12.2019
3160 Clouds 15 1024 77 10000 4.1 240 10:20 06.12.2019
3161 Clouds 15 1023 82 10000 2.6 220 09:55 06.12.2019
3162 Clouds 14 1023 87 10000 3.1 200 09:36 06.12.2019
3163 Clouds 15 1023 87 10000 3.1 200 09:18 06.12.2019
3164 Clouds 13 1023 87 10000 4.1 210 08:42 06.12.2019
3165 Clouds 13 1023 87 10000 3.6 210 08:24 06.12.2019
3166 Clouds 13 1022 87 10000 3.6 230 07:42 06.12.2019
3167 Clouds 12 1022 87 10000 3.1 210 07:22 06.12.2019
3168 Clouds 12 1022 82 10000 2.1 210 06:48 06.12.2019
3169 Clouds 12 1022 93 10000 2.1 120 06:25 06.12.2019
3170 Clouds 12 1022 82 10000 1 0 05:49 06.12.2019
3171 Clouds 12 1022 93 10000 1.5 200 03:50 06.12.2019
3172 Clouds 12 1022 93 10000 1.5 160 01:46 06.12.2019
3173 Clouds 12 1022 93 10000 0.5 0 00:57 06.12.2019
3174 Clouds 12 1022 93 10000 1 160 00:24 06.12.2019
3175 Clouds 13 1022 87 10000 2.1 150 23:56 05.12.2019
3176 Clouds 13 1022 93 10000 2.1 130 23:21 05.12.2019
3177 Clouds 13 1022 87 10000 1 140 22:59 05.12.2019
3178 Clouds 13 1022 87 10000 1 140 22:39 05.12.2019
3179 Clouds 13 1022 93 10000 1.5 170 22:20 05.12.2019
3180 Clouds 13 1022 93 10000 1.5 170 22:20 05.12.2019
3181 Clouds 13 1022 87 10000 1 150 21:58 05.12.2019
3182 Clouds 13 1022 87 10000 1 150 21:40 05.12.2019
3183 Clouds 13 1022 93 10000 1 110 21:22 05.12.2019
3184 Clouds 13 1022 93 10000 0.5 0 20:58 05.12.2019
3185 Clouds 13 1022 93 10000 0.5 0 20:40 05.12.2019
3186 Rain 14 1022 93 10000 1 160 20:19 05.12.2019
3187 Rain 14 1022 93 10000 1 160 20:19 05.12.2019
3188 Rain 14 1022 87 10000 0.5 190 19:43 05.12.2019
3189 Rain 14 1022 87 9000 1 0 19:25 05.12.2019
3190 Rain 14 1022 87 9000 1 0 18:59 05.12.2019
3191 Rain 14 1021 87 10000 5.1 210 18:39 05.12.2019
3192 Rain 14 1021 77 10000 3.1 110 18:21 05.12.2019
3193 Rain 15 1021 77 10000 3.1 110 17:59 05.12.2019
3194 Rain 15 1020 77 10000 5.1 70 17:38 05.12.2019
3195 Rain 15 1020 72 10000 5.1 70 17:19 05.12.2019
3196 Rain 15 1020 72 10000 5.1 70 16:55 05.12.2019
3197 Clouds 15 1020 82 10000 5.1 60 16:37 05.12.2019
3198 Clouds 15 1020 82 10000 4.6 50 16:18 05.12.2019
3199 Clouds 16 1020 82 10000 4.6 50 15:55 05.12.2019
3200 Clouds 16 1020 88 10000 2.6 30 15:37 05.12.2019
3201 Clouds 16 1020 77 10000 3.1 40 15:18 05.12.2019
3202 Clouds 16 1020 77 10000 2.6 30 14:54 05.12.2019
3203 Clouds 16 1020 77 10000 2.6 30 14:36 05.12.2019
3204 Clouds 17 1020 77 10000 2.6 20 14:18 05.12.2019
3205 Clouds 17 1020 72 10000 1 0 13:55 05.12.2019
3206 Clouds 17 1020 72 10000 1 0 13:36 05.12.2019
3207 Clouds 17 1020 72 10000 1.5 260 13:18 05.12.2019
3208 Clouds 17 1020 63 10000 2.6 230 12:42 05.12.2019
3209 Clouds 17 1020 63 10000 2.6 230 12:23 05.12.2019
3210 Clouds 17 1020 68 10000 1.5 270 11:56 05.12.2019
3211 Clouds 17 1020 63 10000 1 0 11:38 05.12.2019
3212 Clouds 16 1020 72 10000 2.1 200 11:20 05.12.2019
3213 Clouds 16 1020 72 10000 2.6 190 10:56 05.12.2019
3214 Clouds 16 1020 72 10000 2.6 190 10:38 05.12.2019
3215 Clouds 16 1019 72 10000 3.6 0 10:18 05.12.2019
3216 Clouds 16 1019 77 10000 2.1 0 09:45 05.12.2019
3217 Clouds 17 1019 72 10000 1 0 09:21 05.12.2019
3218 Clouds 16 1018 82 10000 1.5 280 08:58 05.12.2019
3219 Clouds 15 1018 82 10000 1.5 280 08:38 05.12.2019
3220 Clouds 14 1018 77 10000 1 0 08:19 05.12.2019
3221 Clouds 14 1018 77 10000 1 0 08:19 05.12.2019
3222 Clouds 14 1018 77 10000 1 0 08:19 05.12.2019
3223 Clouds 13 1018 77 10000 2.1 140 07:50 05.12.2019
3224 Clouds 13 1018 77 10000 2.1 140 07:32 05.12.2019
3225 Clouds 13 1017 82 10000 1 0 06:57 05.12.2019
3226 Clouds 14 1017 82 10000 1 320 06:38 05.12.2019
3227 Clouds 15 1016 77 10000 2.1 190 06:19 05.12.2019
3228 Clouds 14 1016 72 10000 2.1 170 05:47 05.12.2019
3229 Clouds 14 1016 77 10000 2.1 180 05:22 05.12.2019
3230 Clouds 14 1015 72 10000 5.1 260 03:59 05.12.2019
3231 Clouds 14 1015 72 10000 5.1 260 03:59 05.12.2019
3232 Drizzle 15 1013 52 10000 6.2 170 02:43 05.12.2019
3233 Drizzle 14 1013 52 10000 6.2 170 02:24 05.12.2019
3234 Clouds 14 1015 87 10000 2.1 150 01:52 05.12.2019
3235 Clouds 14 1015 87 10000 2.1 150 01:24 05.12.2019
3236 Clouds 14 1015 77 10000 3.6 320 00:50 05.12.2019
3237 Clouds 14 1015 77 10000 3.6 320 00:31 05.12.2019
3238 Drizzle 14 1014 77 10000 2.1 60 23:57 04.12.2019
3239 Drizzle 14 1014 77 10000 2.1 60 23:39 04.12.2019
3240 Clouds 14 1014 87 10000 3.1 80 23:20 04.12.2019
3241 Clouds 15 1014 87 10000 3.1 80 22:55 04.12.2019
3242 Clouds 15 1014 82 10000 2.1 60 22:36 04.12.2019
3243 Clouds 15 1014 82 10000 4.6 340 22:18 04.12.2019
3244 Clouds 15 1014 82 10000 4.6 340 21:54 04.12.2019
3245 Clouds 15 1014 82 10000 7.7 300 21:36 04.12.2019
3246 Rain 16 1012 87 10000 6.7 50 21:18 04.12.2019
3247 Rain 16 1013 87 10000 2.1 40 20:54 04.12.2019
3248 Rain 16 1013 87 10000 2.1 40 20:36 04.12.2019
3249 Clouds 15 1013 82 10000 2.6 180 20:18 04.12.2019
3250 Clouds 15 1013 82 10000 2.1 120 19:39 04.12.2019
3251 Clouds 15 1012 82 10000 3.6 140 19:21 04.12.2019
3252 Clouds 14 1012 82 10000 3.6 140 18:57 04.12.2019
3253 Clouds 14 1012 82 10000 3.6 20 18:39 04.12.2019
3254 Clouds 14 1017 83 0 0.89 0 18:20 04.12.2019
3255 Clouds 15 1013 77 10000 4.6 270 17:40 04.12.2019
3256 Clouds 16 1013 77 10000 4.6 270 17:22 04.12.2019
3257 Clouds 16 1013 77 10000 4.6 270 16:59 04.12.2019
3258 Clouds 16 1013 77 10000 4.6 270 16:59 04.12.2019
3259 Clouds 16 1013 77 10000 4.6 270 16:40 04.12.2019
3260 Clouds 16 1013 77 10000 4.6 270 16:40 04.12.2019
3261 Clouds 16 1013 77 10000 4.6 270 16:40 04.12.2019
3262 Clouds 16 1012 68 10000 5.7 200 16:20 04.12.2019
3263 Clouds 16 1012 68 10000 5.7 200 15:56 04.12.2019
3264 Clouds 16 1012 77 10000 4.6 210 15:38 04.12.2019
3265 Clouds 16 1011 82 10000 4.1 230 15:19 04.12.2019
3266 Clouds 16 1011 68 10000 6.7 80 14:54 04.12.2019
3267 Clouds 17 1011 68 10000 6.7 80 14:36 04.12.2019
3268 Clear 18 1011 72 10000 8.2 70 14:18 04.12.2019
3269 Clear 18 1012 63 10000 1.5 0 13:38 04.12.2019
3270 Clear 18 1012 77 10000 2.1 320 13:20 04.12.2019
3271 Clear 18 1012 77 10000 2.1 320 13:20 04.12.2019
3272 Clear 18 1013 77 10000 1.5 240 12:45 04.12.2019
3273 Clear 18 1013 77 10000 1.5 240 12:25 04.12.2019
3274 Clear 18 1013 82 10000 1.5 270 11:59 04.12.2019
3275 Clear 18 1013 77 10000 3.6 230 11:41 04.12.2019
3276 Clear 18 1014 82 10000 3.6 220 11:22 04.12.2019
3277 Clear 17 1014 82 10000 3.6 220 10:44 04.12.2019
3278 Clear 17 1014 82 10000 3.6 220 10:24 04.12.2019
3279 Clear 17 1014 77 10000 2.1 70 09:58 04.12.2019
3280 Clear 16 1014 82 10000 3.1 60 09:39 04.12.2019
3281 Clear 15 1014 87 10000 2.1 60 09:21 04.12.2019
3282 Clear 14 1014 82 10000 1 130 08:43 04.12.2019
3283 Clear 13 1014 82 10000 1 130 08:24 04.12.2019
3284 Clear 13 1014 87 10000 1.5 190 07:51 04.12.2019
3285 Clear 13 1014 87 10000 1.5 190 07:31 04.12.2019
3286 Clear 13 1014 87 10000 1.5 180 06:57 04.12.2019
3287 Clear 13 1014 87 10000 1 0 06:31 04.12.2019
3288 Clear 13 1014 87 10000 3.1 90 05:43 04.12.2019
3289 Clear 13 1014 82 10000 0.5 0 04:34 04.12.2019
3290 Clear 13 1014 93 10000 2.1 170 03:47 04.12.2019
3291 Clear 13 1014 87 10000 1.5 200 01:34 04.12.2019
3292 Clear 13 1015 93 10000 1.5 190 00:47 04.12.2019
3293 Clear 13 1015 93 10000 1 170 00:21 04.12.2019
3294 Clear 13 1015 82 10000 1 0 23:43 03.12.2019
3295 Clear 13 1015 82 10000 1 0 23:43 03.12.2019
3296 Clear 13 1015 87 10000 0.5 130 23:20 03.12.2019
3297 Clear 13 1015 87 10000 0.5 130 22:59 03.12.2019
3298 Clear 13 1015 87 10000 0.5 100 22:39 03.12.2019
3299 Clear 13 1015 87 10000 1 0 22:18 03.12.2019
3300 Clear 14 1015 87 10000 1 0 21:57 03.12.2019
3301 Clear 14 1014 87 10000 0.5 0 21:37 03.12.2019
3302 Clear 14 1014 87 10000 1.5 80 21:18 03.12.2019
3303 Clear 14 1014 87 10000 0.5 0 20:54 03.12.2019
3304 Clear 14 1014 87 10000 0.5 0 20:36 03.12.2019
3305 Clear 14 1014 87 10000 1 0 20:18 03.12.2019
3306 Clear 14 1014 93 10000 1 180 19:54 03.12.2019
3307 Clear 14 1014 93 10000 1 180 19:36 03.12.2019
3308 Clear 14 1013 82 10000 0.5 0 19:18 03.12.2019
3309 Clear 14 1013 82 10000 0.5 0 18:54 03.12.2019
3310 Clear 14 1013 87 10000 1 0 18:36 03.12.2019
3311 Clear 14 1013 82 10000 1 0 18:18 03.12.2019
3312 Clear 15 1013 77 10000 1.5 230 17:39 03.12.2019
3313 Clear 15 1013 77 10000 3.6 100 17:18 03.12.2019
3314 Clear 17 1012 77 10000 4.6 70 16:58 03.12.2019
3315 Clear 17 1012 77 10000 4.6 70 16:39 03.12.2019
3316 Clear 17 1012 82 10000 5.7 70 16:21 03.12.2019
3317 Clear 17 1012 82 10000 5.7 70 15:58 03.12.2019
3318 Clear 17 1012 82 10000 6.7 60 15:38 03.12.2019
3319 Clear 17 1012 77 10000 6.2 70 15:19 03.12.2019
3320 Clear 18 1012 68 10000 5.7 70 14:44 03.12.2019
3321 Clear 18 1012 72 10000 5.1 70 14:21 03.12.2019
3322 Clear 18 1012 72 10000 5.1 70 13:59 03.12.2019
3323 Clear 18 1013 72 10000 5.1 70 13:38 03.12.2019
3324 Clouds 19 1013 68 10000 5.1 60 13:19 03.12.2019
3325 Clouds 19 1013 68 10000 5.1 70 12:57 03.12.2019
3326 Clouds 19 1013 68 10000 5.1 70 12:37 03.12.2019
3327 Clouds 19 1014 68 10000 3.1 50 12:18 03.12.2019
3328 Clouds 18 1014 68 10000 3.1 50 11:55 03.12.2019
3329 Clouds 18 1014 77 10000 3.6 40 11:37 03.12.2019
3330 Clouds 18 1014 68 10000 4.6 50 11:18 03.12.2019
3331 Clouds 18 1014 68 10000 3.6 50 10:43 03.12.2019
3332 Clouds 17 1014 72 10000 1.5 90 10:21 03.12.2019
3333 Clouds 17 1014 72 10000 1.5 90 09:58 03.12.2019
3334 Clouds 17 1014 77 10000 1 170 09:40 03.12.2019
3335 Clouds 16 1015 77 10000 1 0 09:21 03.12.2019
3336 Clouds 16 1015 77 10000 1 0 09:21 03.12.2019
3337 Clouds 16 1015 77 10000 1 0 08:55 03.12.2019
3338 Clouds 16 1014 76 10000 0.5 0 08:37 03.12.2019
3339 Clear 14 1014 81 10000 2.6 120 08:18 03.12.2019
3340 Clear 13 1014 81 10000 3.1 120 07:49 03.12.2019
3341 Clear 13 1014 76 10000 2.6 170 07:24 03.12.2019
3342 Clear 13 1013 81 10000 2.1 210 06:23 03.12.2019
3343 Clear 13 1013 81 10000 2.1 210 05:59 03.12.2019
3344 Clear 13 1013 76 10000 1.5 170 04:55 03.12.2019
3345 Clear 13 1014 76 10000 2.1 180 03:40 03.12.2019
3346 Clear 14 1014 71 10000 2.1 180 03:20 03.12.2019
3347 Clear 14 1014 71 10000 2.1 170 02:49 03.12.2019
3348 Clear 14 1014 71 10000 2.1 170 02:31 03.12.2019
3349 Clouds 14 1014 76 10000 2.1 110 01:53 03.12.2019
3350 Clouds 14 1014 82 10000 2.1 130 01:34 03.12.2019
3351 Clouds 13 1014 82 10000 2.6 90 00:57 03.12.2019
3352 Clouds 14 1015 82 10000 3.6 70 00:39 03.12.2019
3353 Clouds 14 1015 82 10000 3.1 60 00:20 03.12.2019
3354 Clouds 14 1015 76 10000 2.1 140 23:43 02.12.2019
3355 Clouds 14 1015 72 10000 1 0 23:20 02.12.2019
3356 Clouds 14 1015 72 10000 1 0 23:20 02.12.2019
3357 Clouds 14 1015 77 10000 2.6 140 22:43 02.12.2019
3358 Clouds 14 1015 77 10000 2.6 140 22:23 02.12.2019
3359 Clouds 14 1015 82 10000 2.1 150 21:59 02.12.2019
3360 Clouds 14 1015 82 10000 2.1 150 21:59 02.12.2019
3361 Clouds 15 1015 77 10000 2.6 150 21:38 02.12.2019
3362 Clouds 14 1015 82 10000 2.1 130 21:19 02.12.2019
3363 Clouds 14 1015 82 10000 2.1 130 20:57 02.12.2019
3364 Clouds 15 1015 77 10000 0.5 0 20:38 02.12.2019
3365 Clear 15 1014 82 10000 2.1 90 20:20 02.12.2019
3366 Clouds 15 1014 82 10000 2.1 90 19:56 02.12.2019
3367 Clouds 15 1014 82 10000 2.1 100 19:38 02.12.2019
3368 Clouds 15 1014 77 10000 1 0 19:19 02.12.2019
3369 Clouds 15 1014 77 10000 1 0 18:46 02.12.2019
3370 Clouds 15 1014 77 10000 1.5 130 18:21 02.12.2019
3371 Clouds 15 1014 77 10000 1.5 130 17:59 02.12.2019
3372 Clouds 16 1014 72 10000 1 0 17:40 02.12.2019
3373 Clouds 16 1014 77 10000 1 0 17:20 02.12.2019
3374 Clouds 16 1014 82 10000 1.5 70 16:54 02.12.2019
3375 Clouds 16 1014 82 10000 1.5 70 16:36 02.12.2019
3376 Clouds 17 1014 82 10000 2.1 10 16:18 02.12.2019
3377 Clouds 17 1014 82 10000 3.6 30 15:55 02.12.2019
3378 Clouds 17 1014 82 10000 3.6 30 15:37 02.12.2019
3379 Clouds 18 1014 68 10000 3.6 40 15:18 02.12.2019
3380 Clouds 18 1014 60 10000 4.6 50 14:39 02.12.2019
3381 Clouds 18 1014 72 10000 4.6 40 14:20 02.12.2019
3382 Clouds 18 1014 72 10000 4.6 40 13:58 02.12.2019
3383 Clouds 18 1015 59 10000 3.6 50 13:39 02.12.2019
3384 Clouds 18 1015 68 10000 3.1 30 13:20 02.12.2019
3385 Clouds 18 1015 68 10000 3.1 30 13:20 02.12.2019
3386 Clouds 18 1016 72 10000 2.6 30 12:58 02.12.2019
3387 Clouds 18 1016 72 10000 2.6 30 12:40 02.12.2019
3388 Clouds 18 1016 68 10000 3.1 10 12:20 02.12.2019
3389 Clouds 18 1016 68 10000 3.1 10 11:56 02.12.2019
3390 Clouds 18 1016 68 10000 4.1 30 11:37 02.12.2019
3391 Clouds 17 1016 55 10000 4.6 60 11:18 02.12.2019
3392 Clouds 17 1016 55 10000 4.6 60 10:55 02.12.2019
3393 Clouds 17 1016 55 10000 3.6 70 10:37 02.12.2019
3394 Clouds 17 1016 52 10000 3.6 80 10:18 02.12.2019
3395 Clouds 16 1016 63 10000 3.6 80 09:41 02.12.2019
3396 Clouds 15 1016 63 10000 4.6 70 09:19 02.12.2019
3397 Clouds 15 1016 59 10000 3.6 0 08:57 02.12.2019
3398 Clouds 15 1016 59 10000 3.6 0 08:38 02.12.2019
3399 Clouds 14 1016 67 10000 4.6 110 08:20 02.12.2019
3400 Clouds 13 1016 71 10000 3.1 60 07:44 02.12.2019
3401 Clouds 14 1016 67 10000 2.1 80 07:21 02.12.2019
3402 Clouds 13 1016 67 10000 2.1 80 06:56 02.12.2019
3403 Clouds 13 1016 71 10000 1.5 0 06:37 02.12.2019
3404 Clouds 12 1016 76 10000 1.5 80 05:32 02.12.2019
3405 Clouds 12 1016 71 10000 2.6 140 04:26 02.12.2019
3406 Clouds 12 1017 76 10000 2.1 90 02:53 02.12.2019
3407 Clouds 12 1017 76 10000 2.1 90 02:27 02.12.2019
3408 Clouds 12 1017 76 10000 1.5 180 01:26 02.12.2019
3409 Clouds 12 1018 71 10000 0.5 0 00:58 02.12.2019
3410 Clouds 12 1018 71 10000 1.5 120 00:25 02.12.2019
3411 Clouds 12 1018 71 10000 2.6 140 23:55 01.12.2019
3412 Clouds 12 1018 71 10000 2.6 140 23:37 01.12.2019
3413 Clouds 12 1019 76 10000 2.1 150 23:19 01.12.2019
3414 Clouds 12 1019 76 10000 2.1 150 22:55 01.12.2019
3415 Clouds 12 1019 71 10000 1.5 180 22:36 01.12.2019
3416 Clouds 12 1018 62 10000 1 0 22:18 01.12.2019
3417 Clouds 12 1018 62 10000 1 0 22:18 01.12.2019
3418 Clouds 12 1019 76 10000 1.5 130 21:54 01.12.2019
3419 Clouds 12 1019 76 10000 1.5 130 21:54 01.12.2019
3420 Clouds 11 1019 76 10000 1.5 130 21:36 01.12.2019
3421 Clouds 12 1019 76 10000 1 0 21:18 01.12.2019
3422 Clouds 12 1019 76 10000 1 0 20:54 01.12.2019
3423 Clouds 12 1019 71 10000 3.6 80 20:36 01.12.2019
3424 Clouds 12 1019 71 10000 3.6 80 20:36 01.12.2019
3425 Clouds 12 1019 76 10000 3.6 70 20:18 01.12.2019
3426 Clouds 12 1019 76 10000 3.1 90 19:40 01.12.2019
3427 Clouds 13 1019 76 10000 3.1 90 19:22 01.12.2019
3428 Clouds 13 1019 72 10000 1.5 100 18:58 01.12.2019
3429 Clouds 13 1019 72 10000 1.5 100 18:58 01.12.2019
3430 Clouds 13 1019 76 10000 1.5 90 18:39 01.12.2019
3431 Clouds 13 1019 72 10000 1 0 18:20 01.12.2019
3432 Clouds 13 1019 72 10000 1 0 18:00 01.12.2019
3433 Clouds 13 1019 72 10000 1.5 110 17:41 01.12.2019
3434 Clouds 13 1019 72 10000 2.1 60 17:23 01.12.2019
3435 Clouds 13 1019 72 10000 2.1 60 16:59 01.12.2019
3436 Clouds 13 1019 72 10000 3.1 70 16:41 01.12.2019
3437 Clouds 14 1019 63 10000 4.1 70 16:22 01.12.2019
3438 Clouds 14 1019 63 10000 4.1 70 15:51 01.12.2019
3439 Clouds 15 1019 63 10000 4.1 70 15:32 01.12.2019
3440 Clouds 15 1019 63 10000 4.1 70 15:32 01.12.2019
3441 Clouds 15 1019 55 10000 1.5 0 14:54 01.12.2019
3442 Clouds 15 1019 55 10000 1.5 0 14:36 01.12.2019
3443 Clear 15 1019 59 10000 3.1 30 14:18 01.12.2019
3444 Clear 15 1020 67 10000 3.1 20 13:40 01.12.2019
3445 Clear 15 1020 59 10000 2.1 360 13:20 01.12.2019
3446 Clear 15 1020 63 10000 2.6 250 12:44 01.12.2019
3447 Clear 16 1021 63 10000 3.6 250 11:59 01.12.2019
3448 Clear 16 1021 59 10000 2.1 250 11:40 01.12.2019
3449 Clear 15 1021 59 10000 1.5 10 11:22 01.12.2019
3450 Clear 15 1021 67 10000 1 0 10:44 01.12.2019
3451 Clear 14 1021 72 10000 2.1 240 10:22 01.12.2019
3452 Clear 14 1021 72 10000 2.1 240 09:59 01.12.2019
3453 Clear 14 1021 76 10000 2.6 230 09:40 01.12.2019
3454 Clear 12 1021 76 10000 1 0 09:20 01.12.2019
3455 Clear 11 1021 76 10000 2.1 190 08:48 01.12.2019
3456 Clear 11 1020 81 10000 2.6 190 08:20 01.12.2019
3457 Clear 10 1020 81 10000 2.1 140 07:52 01.12.2019
3458 Clear 10 1020 81 10000 2.1 140 07:31 01.12.2019
3459 Clear 10 1021 81 10000 1.5 190 06:57 01.12.2019
3460 Clear 10 1020 76 10000 1 140 06:35 01.12.2019
3461 Clear 10 1020 81 10000 2.1 190 05:49 01.12.2019
3462 Clear 10 1021 76 10000 2.6 190 04:52 01.12.2019
3463 Clear 9 1021 81 10000 1.5 180 03:31 01.12.2019
3464 Clear 10 1021 76 10000 2.6 180 02:37 01.12.2019
3465 Clouds 10 1021 81 10000 2.1 190 02:18 01.12.2019
3466 Clouds 10 1021 81 10000 2.6 130 01:52 01.12.2019
3467 Clouds 10 1021 76 10000 1.5 100 01:25 01.12.2019
3468 Clouds 10 1021 76 10000 2.1 90 00:42 01.12.2019
3469 Clouds 10 1021 76 10000 1.5 40 00:24 01.12.2019
3470 Clouds 11 1021 71 10000 1 0 23:43 30.11.2019
3471 Clouds 11 1021 71 10000 1 0 23:24 30.11.2019
3472 Clear 11 996 85 0 1.13 194 22:56 30.11.2019
3473 Clear 11 1024 89 0 1.34 270 22:38 30.11.2019
3474 Clear 11 996 84 0 1.13 194 22:19 30.11.2019
3475 Clouds 11 1021 72 10000 3.1 360 21:43 30.11.2019
3476 Clouds 11 1021 72 10000 3.1 360 21:24 30.11.2019
3477 Clear 11 996 82 0 1.13 194 20:56 30.11.2019
3478 Clouds 12 1021 63 10000 3.6 360 20:38 30.11.2019
3479 Clouds 12 1021 63 10000 3.6 360 20:38 30.11.2019
3480 Clouds 12 1021 63 10000 4.1 10 20:19 30.11.2019
3481 Clouds 11 1024 85 0 0.89 315 19:55 30.11.2019
3482 Clouds 11 996 79 0 0.78 219 19:37 30.11.2019
3483 Clouds 12 1020 63 10000 2.1 350 19:19 30.11.2019
3484 Clouds 13 1020 63 10000 2.1 350 18:56 30.11.2019
3485 Clouds 13 1020 63 10000 3.1 350 18:37 30.11.2019
3486 Clouds 13 1020 63 10000 2.6 360 18:19 30.11.2019
3487 Clouds 13 1020 63 10000 2.6 360 17:57 30.11.2019
3488 Clouds 13 1020 59 10000 2.6 320 17:38 30.11.2019
3489 Clouds 13 1019 59 10000 2.6 340 17:19 30.11.2019
3490 Clouds 14 1019 67 10000 3.1 350 16:56 30.11.2019
3491 Clouds 13 1019 59 10000 2.6 340 16:56 30.11.2019
3492 Clouds 14 1019 67 10000 3.1 350 16:38 30.11.2019
3493 Clouds 15 1019 67 10000 2.6 360 16:19 30.11.2019
3494 Clouds 15 1019 67 10000 3.1 320 15:42 30.11.2019
3495 Clouds 15 1019 67 10000 3.1 320 15:42 30.11.2019
3496 Clouds 16 1019 68 10000 3.1 300 15:19 30.11.2019
3497 Clouds 16 1019 68 10000 3.1 300 14:57 30.11.2019
3498 Clouds 16 1019 72 10000 3.1 300 14:38 30.11.2019
3499 Clouds 16 1019 77 10000 4.1 310 14:19 30.11.2019
3500 Clouds 16 1019 77 10000 4.1 310 13:57 30.11.2019
3501 Clouds 16 1019 63 10000 3.1 300 13:37 30.11.2019
3502 Clouds 16 1019 67 10000 3.1 290 13:19 30.11.2019
3503 Clouds 16 1019 67 10000 3.1 290 13:19 30.11.2019
3504 Clouds 16 1019 68 10000 2.6 300 12:47 30.11.2019
3505 Clouds 16 1020 72 10000 3.1 290 12:28 30.11.2019
3506 Clouds 16 1020 72 10000 3.1 290 11:57 30.11.2019
3507 Clouds 16 1020 72 10000 3.1 290 11:57 30.11.2019
3508 Clouds 16 1020 68 10000 3.1 300 11:38 30.11.2019
3509 Clouds 16 1020 67 10000 2.6 320 11:18 30.11.2019
3510 Clouds 16 1019 77 10000 2.6 260 10:44 30.11.2019
3511 Clouds 15 1019 77 10000 3.1 280 10:21 30.11.2019
3512 Clouds 15 1019 77 10000 3.6 270 09:50 30.11.2019
3513 Clouds 15 1019 77 10000 3.6 270 09:30 30.11.2019
3514 Clouds 14 1019 72 10000 4.6 270 08:56 30.11.2019
3515 Clouds 15 1019 72 10000 3.6 260 08:56 30.11.2019
3516 Clouds 14 1019 72 10000 4.6 270 08:38 30.11.2019
3517 Clouds 14 1018 72 10000 4.1 250 08:18 30.11.2019
3518 Clouds 14 1018 72 10000 6.2 270 07:42 30.11.2019
3519 Clouds 14 1018 72 10000 6.2 270 07:23 30.11.2019
3520 Clouds 14 1018 77 10000 7.2 260 06:45 30.11.2019
3521 Clear 13 1018 82 10000 3.6 190 06:27 30.11.2019
3522 Clear 14 1017 82 10000 4.1 190 04:59 30.11.2019
3523 Clouds 14 1017 77 10000 5.1 200 03:38 30.11.2019
3524 Clouds 14 1018 77 10000 5.7 210 02:25 30.11.2019
3525 Clouds 14 1017 72 10000 6.7 200 01:50 30.11.2019
3526 Clouds 14 1017 72 10000 6.7 200 01:24 30.11.2019
3527 Clouds 14 1018 72 10000 6.2 210 00:44 30.11.2019
3528 Clouds 14 1018 72 10000 6.7 210 00:21 30.11.2019
3529 Clouds 14 1018 72 10000 7.2 220 23:44 29.11.2019
3530 Clouds 14 1018 72 10000 7.2 220 23:25 29.11.2019
3531 Clouds 14 1018 72 10000 7.2 220 23:25 29.11.2019
3532 Clouds 14 1017 72 10000 9.3 220 22:49 29.11.2019
3533 Clouds 14 1017 72 10000 8.2 220 22:27 29.11.2019
3534 Clouds 14 1017 72 10000 8.2 220 21:58 29.11.2019
3535 Clouds 14 1017 72 10000 8.2 220 21:40 29.11.2019
3536 Clouds 14 1017 72 10000 8.2 220 21:22 29.11.2019
3537 Clouds 14 1018 72 10000 8.2 220 20:56 29.11.2019
3538 Clouds 14 1018 72 10000 7.2 210 20:36 29.11.2019
3539 Clouds 14 1018 72 10000 8.2 220 20:18 29.11.2019
3540 Clouds 14 1018 72 10000 8.2 220 19:54 29.11.2019
3541 Clouds 14 1018 72 10000 7.7 220 19:36 29.11.2019
3542 Clouds 14 1017 77 10000 8.2 230 19:18 29.11.2019
3543 Clouds 15 1017 77 10000 8.7 230 18:41 29.11.2019
3544 Clouds 15 1017 77 10000 8.7 230 18:41 29.11.2019
3545 Clouds 15 1017 77 10000 8.7 230 18:23 29.11.2019
3546 Clouds 15 1017 72 10000 9.3 240 17:56 29.11.2019
3547 Clouds 15 1017 72 10000 9.3 240 17:38 29.11.2019
3548 Clouds 15 1017 77 10000 8.7 230 17:19 29.11.2019
3549 Clear 15 1017 68 10000 8.7 230 16:42 29.11.2019
3550 Clouds 16 1017 68 10000 9.3 230 16:21 29.11.2019
3551 Clouds 16 1017 68 10000 9.3 230 15:56 29.11.2019
3552 Clouds 16 1017 68 10000 9.3 240 15:37 29.11.2019
3553 Clouds 17 1017 68 10000 8.2 230 15:19 29.11.2019
3554 Clouds 17 1017 72 10000 8.2 240 14:40 29.11.2019
3555 Clouds 17 1018 72 10000 7.2 230 14:21 29.11.2019
3556 Clouds 17 1018 72 10000 7.2 230 13:56 29.11.2019
3557 Clouds 17 1018 72 10000 8.2 230 13:37 29.11.2019
3558 Clouds 17 1018 72 10000 5.7 230 13:19 29.11.2019
3559 Clouds 17 1018 72 10000 6.2 230 12:42 29.11.2019
3560 Clouds 17 1018 72 10000 6.2 230 12:24 29.11.2019
3561 Clouds 17 1018 63 10000 7.7 210 11:56 29.11.2019
3562 Clouds 16 1018 63 10000 7.2 210 11:38 29.11.2019
3563 Clouds 16 1018 63 10000 7.2 200 11:18 29.11.2019
3564 Clouds 16 1018 63 10000 7.2 200 10:57 29.11.2019
3565 Clouds 16 1018 72 10000 7.2 200 10:38 29.11.2019
3566 Clouds 16 1018 67 10000 6.7 200 10:20 29.11.2019
3567 Clouds 15 1018 67 10000 6.7 200 09:57 29.11.2019
3568 Clouds 15 1018 67 10000 6.7 200 09:38 29.11.2019
3569 Clouds 15 1018 67 10000 5.1 200 09:19 29.11.2019
3570 Clouds 14 1018 67 10000 5.1 200 08:54 29.11.2019
3571 Clouds 15 1017 72 10000 5.7 200 08:36 29.11.2019
3572 Clouds 14 1017 72 10000 5.1 210 08:18 29.11.2019
3573 Clouds 14 1017 77 10000 5.1 200 07:41 29.11.2019
3574 Clouds 13 1017 77 10000 5.1 210 07:22 29.11.2019
3575 Clouds 13 1017 77 10000 4.6 210 06:46 29.11.2019
3576 Clouds 13 1017 72 10000 5.1 210 06:23 29.11.2019
3577 Clouds 13 1016 77 10000 6.2 240 05:32 29.11.2019
3578 Clouds 13 1016 77 10000 6.2 240 05:32 29.11.2019
3579 Clouds 13 1016 72 10000 5.1 210 04:45 29.11.2019
3580 Clouds 14 1017 77 10000 6.2 230 03:23 29.11.2019
3581 -273 0 0 0 0 0 02:53 29.11.2019
3582 Clouds 14 1016 82 10000 7.2 250 02:21 29.11.2019
3583 Clouds 14 1016 82 10000 7.2 250 01:27 29.11.2019
3584 Clouds 15 1016 82 10000 8.2 250 00:51 29.11.2019
3585 Clouds 15 1016 82 10000 8.7 260 00:22 29.11.2019
3586 Clouds 15 1016 82 10000 8.7 260 23:58 28.11.2019
3587 Clouds 15 1016 82 10000 9.3 260 23:39 28.11.2019
3588 Clouds 14 1016 82 10000 10.3 260 23:20 28.11.2019
3589 Clouds 14 1016 82 10000 10.3 260 23:20 28.11.2019
3590 Clouds 14 1016 82 10000 10.3 260 23:20 28.11.2019
3591 Clouds 14 1016 82 10000 10.3 260 22:55 28.11.2019
3592 Clouds 14 1016 77 10000 8.2 250 22:36 28.11.2019
3593 Clouds 14 1016 72 10000 7.2 250 22:18 28.11.2019
3594 Clouds 14 1015 77 10000 6.7 240 21:42 28.11.2019
3595 Clouds 14 1015 82 10000 8.7 250 21:21 28.11.2019
3596 Clouds 14 1015 82 10000 8.7 250 20:59 28.11.2019
3597 Clouds 14 1015 82 10000 7.2 240 20:40 28.11.2019
3598 Clouds 14 1015 77 10000 8.7 250 20:21 28.11.2019
3599 Clouds 14 1015 77 10000 8.7 250 20:21 28.11.2019
3600 Clouds 15 1015 77 10000 8.7 250 19:57 28.11.2019
3601 Clouds 14 1015 72 10000 8.7 240 19:38 28.11.2019
3602 Clouds 15 1014 72 10000 8.7 250 19:19 28.11.2019
3603 Clouds 15 1014 72 10000 8.7 250 19:19 28.11.2019
3604 Clouds 15 1014 72 10000 8.7 250 18:57 28.11.2019
3605 Clouds 15 1014 72 10000 8.7 250 18:39 28.11.2019
3606 Clouds 15 1014 72 10000 10.3 250 18:18 28.11.2019
3607 Clouds 15 1013 72 10000 10.3 260 17:56 28.11.2019
3608 Clouds 15 1013 72 10000 10.3 260 17:38 28.11.2019
3609 Clouds 15 1013 77 10000 11.3 260 17:20 28.11.2019
3610 Clouds 16 1013 77 10000 10.8 260 16:40 28.11.2019
3611 Rain 16 1013 77 10000 10.8 260 16:19 28.11.2019
3612 Rain 16 1013 77 10000 10.8 260 15:58 28.11.2019
3613 Rain 16 1013 82 10000 9.3 260 15:39 28.11.2019
3614 Clouds 17 1013 77 10000 7.7 220 15:19 28.11.2019
3615 Clouds 17 1013 77 10000 7.7 220 14:58 28.11.2019
3616 Clouds 17 1013 77 10000 7.7 220 14:58 28.11.2019
3617 Clouds 17 1013 72 10000 10.8 230 14:39 28.11.2019
3618 Clouds 17 1013 72 10000 10.8 230 14:19 28.11.2019
3619 Clouds 17 1013 77 10000 7.7 210 13:43 28.11.2019
3620 -273 0 0 0 0 0 13:24 28.11.2019
3621 Clouds 16 1013 77 10000 7.7 210 12:57 28.11.2019
3622 Clouds 16 1013 77 10000 7.2 210 12:38 28.11.2019
3623 Drizzle 16 1013 77 10000 6.2 200 12:20 28.11.2019
3624 Drizzle 16 1013 77 10000 6.2 200 11:56 28.11.2019
3625 Clouds 16 1014 77 10000 6.7 200 11:37 28.11.2019
3626 Clouds 16 1014 77 10000 8.2 210 11:19 28.11.2019
3627 Clouds 16 1014 77 10000 8.2 210 11:19 28.11.2019
3628 Clouds 16 1014 77 10000 7.2 200 10:42 28.11.2019
3629 Drizzle 16 1014 82 10000 7.2 200 10:22 28.11.2019
3630 Drizzle 16 1014 82 10000 7.2 200 09:56 28.11.2019
3631 Drizzle 16 1014 82 10000 7.2 200 09:56 28.11.2019
3632 Clouds 16 1014 77 10000 6.2 210 09:38 28.11.2019
3633 Clouds 16 1013 72 10000 6.7 190 09:20 28.11.2019
3634 Clouds 16 1013 72 10000 5.7 180 08:44 28.11.2019
3635 Clouds 15 1013 72 10000 5.7 180 08:22 28.11.2019
3636 Clouds 15 1013 72 10000 8.2 200 07:58 28.11.2019
3637 Clouds 15 1013 72 10000 7.7 210 07:39 28.11.2019
3638 Clouds 16 1012 72 10000 8.2 210 07:21 28.11.2019
3639 Clouds 16 1012 72 10000 8.2 210 06:41 28.11.2019
3640 Clouds 15 1012 77 10000 6.2 210 05:56 28.11.2019
3641 Clouds 15 1012 77 10000 6.2 210 05:56 28.11.2019
3642 Clouds 14 1012 77 10000 7.7 210 05:38 28.11.2019
3643 Clouds 15 1012 77 10000 6.7 220 04:51 28.11.2019
3644 Clear 15 1012 77 10000 6.7 210 02:32 28.11.2019
3645 Clouds 15 1012 77 10000 8.2 200 01:28 28.11.2019
3646 Clouds 15 1012 72 10000 10.8 210 00:42 28.11.2019
3647 Rain 15 1012 72 10000 10.8 210 00:20 28.11.2019
3648 Clear 15 1012 68 10000 9.3 190 23:39 27.11.2019
3649 Clear 15 1012 68 10000 8.7 190 23:21 27.11.2019
3650 Clear 15 1012 68 10000 8.7 190 22:58 27.11.2019
3651 Clear 15 1012 63 10000 7.7 190 22:38 27.11.2019
3652 Clear 15 1012 68 10000 9.3 190 22:19 27.11.2019
3653 Clear 15 1012 68 10000 9.3 190 21:56 27.11.2019
3654 Clouds 15 1012 67 10000 8.7 190 21:37 27.11.2019
3655 Clouds 15 1012 72 10000 8.7 200 21:19 27.11.2019
3656 Clouds 15 1012 72 10000 8.7 200 21:19 27.11.2019
3657 Clouds 15 1012 72 10000 8.7 200 20:57 27.11.2019
3658 Clouds 15 1012 67 10000 9.3 190 20:38 27.11.2019
3659 Clouds 15 1012 72 10000 9.8 190 20:19 27.11.2019
3660 Clouds 15 1012 72 10000 9.8 190 19:57 27.11.2019
3661 Clouds 15 1012 72 10000 9.3 190 19:38 27.11.2019
3662 Clouds 15 1012 72 10000 9.8 190 19:19 27.11.2019
3663 Clouds 15 1012 72 10000 9.8 190 18:58 27.11.2019
3664 Clouds 14 1012 72 10000 7.7 200 18:37 27.11.2019
3665 Clouds 14 1011 67 10000 7.2 190 18:19 27.11.2019
3666 Clouds 15 1012 67 10000 6.2 190 17:56 27.11.2019
3667 Clouds 14 1012 67 10000 6.2 190 17:37 27.11.2019
3668 Clouds 14 1012 67 10000 6.2 190 17:37 27.11.2019
3669 Clouds 15 1012 67 10000 6.7 200 17:19 27.11.2019
3670 -273 0 0 0 0 0 16:56 27.11.2019
3671 Clouds 15 1012 67 10000 6.7 200 16:55 27.11.2019
3672 Clouds 15 1012 63 10000 8.2 200 16:36 27.11.2019
3673 Clouds 15 1012 63 10000 8.2 190 16:18 27.11.2019
3674 Clouds 16 1012 63 10000 8.2 190 15:55 27.11.2019
3675 Clouds 16 1012 63 10000 7.7 210 15:37 27.11.2019
3676 Clouds 16 1012 63 10000 7.2 220 15:18 27.11.2019
3677 Clouds 17 1012 59 10000 7.2 210 14:42 27.11.2019
3678 Clouds 16 1012 59 10000 7.7 210 14:24 27.11.2019
3679 Clouds 17 1012 59 10000 7.7 210 13:59 27.11.2019
3680 Clouds 17 1012 63 10000 6.7 200 13:40 27.11.2019
3681 Clouds 17 1012 63 10000 7.2 200 13:19 27.11.2019
3682 Clouds 17 1012 63 10000 7.2 200 13:19 27.11.2019
3683 Clouds 17 1012 63 10000 6.7 210 12:59 27.11.2019
3684 Clouds 17 1012 63 10000 6.7 210 12:40 27.11.2019
3685 Clouds 16 1013 63 10000 6.7 190 12:20 27.11.2019
3686 Clouds 16 1013 68 10000 6.2 200 11:54 27.11.2019
3687 Clouds 16 1013 68 10000 6.2 200 11:54 27.11.2019
3688 Clouds 16 1013 68 10000 6.2 200 11:36 27.11.2019
3689 Clear 15 1014 68 10000 6.7 200 11:18 27.11.2019
3690 Clear 15 1014 72 10000 6.7 200 10:42 27.11.2019
3691 Clear 15 1014 72 10000 6.7 200 10:42 27.11.2019
3692 Clear 15 1014 72 10000 6.7 200 10:23 27.11.2019
3693 Clouds 15 1014 72 10000 6.7 200 09:49 27.11.2019
3694 Clouds 14 1014 77 10000 7.2 200 09:26 27.11.2019
3695 Clouds 14 1014 77 10000 7.2 200 08:59 27.11.2019
3696 Clouds 13 1014 77 10000 6.2 200 08:41 27.11.2019
3697 Clouds 13 1013 82 10000 5.7 200 08:22 27.11.2019
3698 Clouds 13 1013 82 10000 5.7 200 08:22 27.11.2019
3699 Clouds 13 1013 77 10000 6.7 190 07:47 27.11.2019
3700 Clouds 12 1013 72 10000 6.7 190 07:28 27.11.2019
3701 Clouds 12 1013 72 10000 7.2 190 06:53 27.11.2019
3702 Clouds 12 1013 72 10000 7.2 190 06:35 27.11.2019
3703 Clear 12 1013 82 10000 4.1 180 05:45 27.11.2019
3704 Clear 12 1013 82 10000 4.1 180 05:45 27.11.2019
3705 Clear 12 1013 82 10000 4.6 180 05:19 27.11.2019
3706 Clear 12 1013 82 10000 4.1 180 04:47 27.11.2019
3707 Clear 12 1013 82 10000 4.1 180 04:29 27.11.2019
3708 Clear 12 1013 77 10000 4.1 180 03:39 27.11.2019
3709 Clear 12 1013 77 10000 5.1 190 03:19 27.11.2019
3710 Clouds 12 1013 82 10000 3.6 180 02:20 27.11.2019
3711 Clouds 12 1014 82 10000 4.1 190 00:47 27.11.2019
3712 Clouds 12 1014 82 10000 5.1 200 00:29 27.11.2019
3713 Clouds 12 1014 87 10000 3.6 180 23:54 26.11.2019
3714 Clouds 12 1014 87 10000 3.6 180 23:36 26.11.2019
3715 Clouds 13 1014 82 10000 3.6 210 23:18 26.11.2019
3716 Clouds 13 1014 82 10000 2.6 190 22:39 26.11.2019
3717 Clouds 12 1014 87 10000 3.1 170 22:19 26.11.2019
3718 Clouds 12 1014 87 10000 3.1 170 21:59 26.11.2019
3719 Clouds 12 1014 93 10000 3.1 180 21:38 26.11.2019
3720 Clouds 12 1014 87 10000 4.1 200 21:20 26.11.2019
3721 Clouds 13 1014 87 10000 4.1 200 20:57 26.11.2019
3722 Clouds 13 1014 82 10000 3.6 250 20:37 26.11.2019
3723 Clouds 13 1014 82 10000 3.6 250 20:37 26.11.2019
3724 Clouds 13 1014 87 10000 2.1 200 20:19 26.11.2019
3725 Clouds 13 1014 87 10000 2.1 200 19:55 26.11.2019
3726 Clouds 13 1014 87 10000 2.1 200 19:55 26.11.2019
3727 Clouds 14 1013 87 10000 2.1 170 19:37 26.11.2019
3728 Clouds 14 1013 87 10000 2.1 170 19:19 26.11.2019
3729 Clouds 14 1013 87 10000 2.1 170 18:57 26.11.2019
3730 Clouds 14 1013 87 10000 2.1 170 18:39 26.11.2019
3731 Clouds 14 1013 93 10000 2.6 170 18:20 26.11.2019
3732 Clouds 14 1013 93 10000 2.6 170 18:20 26.11.2019
3733 Clouds 14 1013 82 10000 1.5 260 17:57 26.11.2019
3734 Clouds 14 1013 82 10000 1.5 260 17:38 26.11.2019
3735 Clouds 15 1013 88 10000 2.1 260 17:20 26.11.2019
3736 Clouds 15 1012 82 10000 0.5 0 16:56 26.11.2019
3737 Clouds 15 1012 82 10000 0.5 0 16:37 26.11.2019
3738 Clouds 15 1012 82 10000 1 280 16:18 26.11.2019
3739 Clouds 15 1012 82 10000 1 280 16:18 26.11.2019
3740 Clouds 16 1012 82 10000 1 280 15:58 26.11.2019
3741 Clouds 16 1012 82 10000 2.6 310 15:37 26.11.2019
3742 Clouds 16 1012 82 10000 4.1 310 15:19 26.11.2019
3743 Clouds 15 1011 82 10000 4.6 310 14:47 26.11.2019
3744 Clouds 16 1011 82 10000 5.1 320 14:25 26.11.2019
3745 Clouds 16 1011 82 10000 5.1 320 13:56 26.11.2019
3746 Clouds 16 1011 82 10000 5.7 330 13:38 26.11.2019
3747 Clouds 16 1011 82 10000 6.7 320 13:18 26.11.2019
3748 -273 0 0 0 0 0 12:38 26.11.2019
3749 Clouds 17 1011 82 10000 5.7 330 12:20 26.11.2019
3750 Clouds 16 1011 82 10000 5.1 320 11:58 26.11.2019
3751 Clouds 16 1011 82 10000 5.1 320 11:38 26.11.2019
3752 Clouds 16 1011 82 10000 5.1 330 11:19 26.11.2019
3753 Clouds 16 1011 82 10000 4.6 330 10:57 26.11.2019
3754 Clouds 16 1011 82 10000 4.6 330 10:39 26.11.2019
3755 Clouds 16 1011 82 10000 4.6 350 10:20 26.11.2019
3756 Clouds 16 1010 82 10000 4.6 350 09:55 26.11.2019
3757 Clouds 16 1010 82 10000 4.6 350 09:37 26.11.2019
3758 Clouds 15 1010 82 10000 4.1 360 09:18 26.11.2019
3759 Clouds 14 1009 82 10000 4.6 20 08:43 26.11.2019
3760 Clouds 14 1009 88 10000 6.2 30 08:22 26.11.2019
3761 Clouds 14 1008 82 10000 6.7 30 07:44 26.11.2019
3762 Clouds 13 1008 88 10000 6.2 20 07:25 26.11.2019
3763 Clouds 13 1008 88 10000 6.2 20 06:55 26.11.2019
3764 Clouds 14 1008 82 10000 7.2 20 06:23 26.11.2019
3765 Clouds 13 1008 82 10000 6.7 20 05:41 26.11.2019
3766 Clouds 13 1007 82 10000 5.1 350 03:59 26.11.2019
3767 Clouds 13 1007 77 10000 6.2 360 02:26 26.11.2019
3768 Clouds 13 1006 77 10000 5.1 20 01:32 26.11.2019
3769 Clouds 12 1006 87 10000 2.1 200 00:50 26.11.2019
3770 Clouds 12 1006 87 10000 2.6 190 00:25 26.11.2019
3771 Clouds 12 1006 93 9000 2.6 180 23:40 25.11.2019
3772 Drizzle 12 1006 87 8000 2.6 200 23:21 25.11.2019
3773 Drizzle 12 1006 87 8000 2.6 200 22:58 25.11.2019
3774 Clouds 11 1006 87 10000 2.6 200 22:38 25.11.2019
3775 Clouds 11 1006 87 10000 2.6 180 22:18 25.11.2019
3776 Clouds 11 1006 87 10000 2.6 180 21:58 25.11.2019
3777 Clouds 11 1005 87 10000 3.1 200 21:39 25.11.2019
3778 Clouds 12 1005 93 10000 3.1 210 21:20 25.11.2019
3779 Clouds 12 1005 93 10000 3.1 210 20:56 25.11.2019
3780 Clouds 12 1005 87 10000 3.6 200 20:38 25.11.2019
3781 Clouds 12 1005 87 10000 3.1 190 20:19 25.11.2019
3782 Clouds 12 1005 87 10000 3.6 180 19:56 25.11.2019
3783 Clouds 12 1005 87 10000 3.6 180 19:56 25.11.2019
3784 Clouds 12 1005 87 10000 3.6 180 19:37 25.11.2019
3785 Clouds 12 1004 87 10000 3.6 190 19:18 25.11.2019
3786 Clouds 12 1004 87 10000 3.6 190 18:56 25.11.2019
3787 Clouds 12 1004 87 10000 3.6 190 18:38 25.11.2019
3788 Clouds 12 1004 87 10000 3.1 160 18:20 25.11.2019
3789 Clouds 12 1004 82 10000 4.6 200 17:57 25.11.2019
3790 Clouds 12 1004 82 10000 4.6 200 17:38 25.11.2019
3791 Clouds 12 1004 82 10000 2.1 190 17:19 25.11.2019
3792 Clouds 13 1004 82 10000 3.1 190 16:56 25.11.2019
3793 Clouds 13 1004 82 10000 3.1 190 16:37 25.11.2019
3794 Clouds 13 1003 82 10000 3.1 180 16:19 25.11.2019
3795 Clouds 13 1003 82 10000 3.1 180 15:42 25.11.2019
3796 Clouds 14 1003 87 10000 5.1 200 15:21 25.11.2019
3797 Clouds 14 1003 87 10000 5.1 200 14:59 25.11.2019
3798 Rain 14 1004 87 9000 5.7 240 14:40 25.11.2019
3799 Rain 14 1004 77 9000 6.7 250 14:22 25.11.2019
3800 Rain 14 1004 77 9000 6.7 250 13:55 25.11.2019
3801 Rain 14 1004 77 10000 4.1 290 13:36 25.11.2019
3802 Rain 13 1004 77 9000 1.5 250 13:18 25.11.2019
3803 Clouds 14 1004 77 10000 4.6 320 12:41 25.11.2019
3804 Rain 14 1004 87 8000 6.7 330 12:22 25.11.2019
3805 Rain 14 1004 87 8000 6.7 330 11:59 25.11.2019
3806 Rain 14 1004 87 9000 4.6 300 11:40 25.11.2019
3807 Clouds 14 1005 82 10000 6.2 260 11:20 25.11.2019
3808 Rain 14 1005 77 8000 6.2 260 10:46 25.11.2019
3809 Rain 14 1005 77 8000 6.2 260 10:28 25.11.2019
3810 Clouds 14 1004 82 9000 4.6 260 09:59 25.11.2019
3811 Clouds 13 1004 87 9000 3.6 220 09:41 25.11.2019
3812 Clouds 13 1004 87 10000 2.6 210 09:23 25.11.2019
3813 Clouds 13 1004 77 9000 6.7 270 08:42 25.11.2019
3814 Clouds 13 1004 77 9000 6.7 270 08:23 25.11.2019
3815 Rain 13 1004 77 9000 8.7 250 07:47 25.11.2019
3816 Rain 13 1004 77 9000 8.7 250 07:28 25.11.2019
3817 Rain 13 1003 82 10000 9.3 280 06:58 25.11.2019
3818 Clouds 12 1003 82 10000 12.3 280 06:23 25.11.2019
3819 Rain 13 1003 82 10000 10.3 260 05:50 25.11.2019
3820 Clouds 13 1003 77 10000 12.3 260 05:31 25.11.2019
3821 Clouds 13 1003 77 10000 11.8 260 04:48 25.11.2019
3822 Clouds 13 1003 77 10000 13.9 270 02:36 25.11.2019
3823 Clouds 13 1003 82 10000 12.9 270 01:43 25.11.2019
3824 Clouds 13 1003 77 10000 13.4 260 01:24 25.11.2019
3825 Clouds 13 1003 77 10000 13.4 270 00:42 25.11.2019
3826 Clouds 13 1004 72 10000 12.9 270 00:20 25.11.2019
3827 Rain 13 1004 82 10000 11.3 260 23:44 24.11.2019
3828 Clouds 13 1004 82 10000 12.3 270 23:20 24.11.2019
3829 Clouds 13 1004 82 10000 12.3 270 22:57 24.11.2019
3830 Clouds 13 1004 77 10000 11.8 260 22:39 24.11.2019
3831 Clouds 13 1004 77 10000 12.3 260 22:19 24.11.2019
3832 Clouds 13 1004 77 10000 12.3 260 21:57 24.11.2019
3833 Rain 13 1003 82 6000 11.8 270 21:38 24.11.2019
3834 Rain 13 1002 77 10000 11.8 260 21:20 24.11.2019
3835 Rain 13 1002 77 10000 11.8 260 20:56 24.11.2019
3836 Clouds 13 1003 77 8000 11.8 260 20:37 24.11.2019
3837 Rain 13 1003 82 9000 10.8 270 20:18 24.11.2019
3838 Rain 13 1003 82 9000 10.8 270 19:56 24.11.2019
3839 Rain 13 1003 82 9000 10.8 270 19:56 24.11.2019
3840 Clouds 13 1003 72 10000 10.8 260 19:38 24.11.2019
3841 Clouds 13 1003 72 10000 10.8 260 19:19 24.11.2019
3842 Clouds 13 1003 72 10000 10.8 260 18:56 24.11.2019
3843 Clouds 13 1002 72 10000 11.3 260 18:36 24.11.2019
3844 Rain 13 1002 82 9000 8.2 250 18:18 24.11.2019
3845 Rain 13 1002 82 7000 11.3 270 17:55 24.11.2019
3846 Rain 12 1002 82 7000 11.3 270 17:37 24.11.2019
3847 Rain 12 1002 82 7000 11.3 270 17:37 24.11.2019
3848 Rain 13 1002 72 9000 10.3 270 17:19 24.11.2019
3849 Rain 13 1002 82 8000 11.3 270 16:56 24.11.2019
3850 Rain 13 1002 82 8000 11.3 270 16:38 24.11.2019
3851 Rain 13 1002 77 10000 6.2 220 16:19 24.11.2019
3852 Rain 14 1002 72 9000 4.6 220 15:43 24.11.2019
3853 Clouds 13 1001 82 10000 5.1 190 15:25 24.11.2019
3854 Clouds 13 1001 82 10000 5.1 190 14:57 24.11.2019
3855 Rain 13 1001 77 10000 4.6 210 14:38 24.11.2019
3856 Clouds 14 1001 77 10000 5.7 190 14:18 24.11.2019
3857 Clouds 13 1002 82 10000 5.7 200 13:41 24.11.2019
3858 Clouds 14 1001 87 10000 5.7 210 13:22 24.11.2019
3859 Clouds 14 1001 87 10000 5.7 210 12:59 24.11.2019
3860 Clouds 13 1002 87 10000 5.7 210 12:40 24.11.2019
3861 Clouds 13 1002 82 10000 5.7 210 12:18 24.11.2019
3862 Clouds 13 1002 82 10000 5.7 200 11:56 24.11.2019
3863 Clouds 13 1002 82 10000 5.7 200 11:36 24.11.2019
3864 Rain 13 1002 77 10000 5.1 200 11:18 24.11.2019
3865 Rain 13 1002 77 10000 5.1 200 11:18 24.11.2019
3866 Clouds 13 1002 77 10000 5.7 190 10:46 24.11.2019
3867 Clouds 12 1002 77 10000 5.7 190 10:28 24.11.2019
3868 Clouds 12 1002 77 10000 5.7 190 10:28 24.11.2019
3869 Clouds 13 1002 82 10000 5.7 200 09:55 24.11.2019
3870 Clouds 12 1002 82 10000 5.7 200 09:37 24.11.2019
3871 Clouds 12 1002 82 10000 2.6 190 09:18 24.11.2019
3872 Clouds 12 1002 87 10000 3.1 200 08:44 24.11.2019
3873 Rain 12 1002 87 9000 3.1 200 08:22 24.11.2019
3874 Rain 12 1002 87 8000 4.1 170 07:57 24.11.2019
3875 Rain 12 1002 87 8000 4.1 170 07:37 24.11.2019
3876 Rain 12 1002 87 10000 6.2 200 07:19 24.11.2019
3877 Rain 12 1002 82 10000 4.6 190 06:20 24.11.2019
3878 Rain 12 1003 72 10000 6.2 180 04:48 24.11.2019
3879 Clouds 13 1003 67 10000 7.7 210 03:37 24.11.2019
3880 Rain 13 1005 82 10000 6.7 190 02:22 24.11.2019
3881 Clouds 14 1005 77 10000 13.4 250 01:40 24.11.2019
3882 Clouds 15 1003 42 10000 7.2 200 01:21 24.11.2019
3883 Clouds 15 1004 42 10000 8.2 190 00:47 24.11.2019
3884 Rain 15 1004 55 10000 6.7 200 00:24 24.11.2019
3885 Rain 16 1005 72 10000 6.7 210 23:46 23.11.2019
3886 Rain 16 1005 72 10000 3.6 180 23:23 23.11.2019
3887 Rain 16 1005 72 10000 3.6 180 22:59 23.11.2019
3888 Rain 17 1005 72 10000 4.1 200 22:40 23.11.2019
3889 Clouds 17 1005 68 10000 4.6 190 22:22 23.11.2019
3890 Clouds 17 1005 68 10000 4.6 190 22:22 23.11.2019
3891 Clouds 17 1005 68 10000 4.6 190 21:59 23.11.2019
3892 Clouds 17 1006 68 10000 4.6 200 21:41 23.11.2019
3893 Clouds 16 1006 68 10000 7.2 190 21:22 23.11.2019
3894 Clouds 17 1006 68 10000 7.2 190 21:22 23.11.2019
3895 Clouds 17 1006 68 10000 7.2 190 20:58 23.11.2019
3896 Rain 16 1006 68 10000 6.7 180 20:37 23.11.2019
3897 Rain 16 1006 68 10000 6.7 180 20:37 23.11.2019
3898 Clouds 17 1006 63 10000 4.6 190 20:18 23.11.2019
3899 Clouds 17 1006 63 10000 4.6 190 20:18 23.11.2019
3900 Clouds 17 1006 60 10000 6.2 190 19:55 23.11.2019
3901 Clouds 17 1006 60 10000 6.2 190 19:36 23.11.2019
3902 Clouds 17 1006 60 10000 5.7 180 19:18 23.11.2019
3903 Clouds 17 1006 60 10000 4.6 190 18:40 23.11.2019
3904 Clouds 17 1006 56 10000 6.7 180 18:21 23.11.2019
3905 Clouds 17 1006 56 10000 6.7 180 17:58 23.11.2019
3906 Clouds 17 1006 56 10000 8.2 180 17:40 23.11.2019
3907 Clouds 18 1005 49 10000 9.3 190 17:20 23.11.2019
3908 Clouds 18 1006 52 10000 9.8 180 16:56 23.11.2019
3909 Clouds 18 1006 52 10000 9.8 180 16:38 23.11.2019
3910 Clouds 18 1006 49 10000 9.3 180 16:20 23.11.2019
3911 Clouds 18 1006 49 10000 9.3 180 15:57 23.11.2019
3912 Clouds 18 1006 49 10000 9.8 180 15:38 23.11.2019
3913 Clouds 18 1006 49 10000 10.8 190 15:18 23.11.2019
3914 Clouds 18 1006 46 10000 12.3 190 14:46 23.11.2019
3915 Clouds 18 1006 46 10000 12.3 190 14:23 23.11.2019
3916 Clouds 18 1006 46 10000 11.3 180 13:59 23.11.2019
3917 Clouds 18 1007 49 10000 11.3 180 13:41 23.11.2019
3918 Clouds 18 1007 49 10000 8.7 190 13:19 23.11.2019
3919 Clouds 18 1007 49 10000 8.7 190 12:55 23.11.2019
3920 Clouds 18 1007 46 10000 10.8 180 12:37 23.11.2019
3921 Clouds 18 1008 49 10000 8.2 180 12:18 23.11.2019
3922 Clouds 18 1008 46 10000 10.8 190 11:41 23.11.2019
3923 Clear 18 1008 46 10000 11.8 190 11:18 23.11.2019
3924 Clear 18 1009 45 10000 8.2 190 10:43 23.11.2019
3925 Clear 17 1009 49 10000 8.7 180 10:21 23.11.2019
3926 Clear 17 1009 45 10000 8.2 180 09:41 23.11.2019
3927 Clear 16 1009 42 10000 8.2 180 09:20 23.11.2019
3928 Clear 16 1009 39 10000 8.2 180 08:42 23.11.2019
3929 Clouds 16 1009 42 10000 8.7 170 08:19 23.11.2019
3930 Clouds 15 1009 42 10000 8.2 180 07:52 23.11.2019
3931 Clouds 15 1009 42 10000 8.2 180 07:34 23.11.2019
3932 Clouds 14 1009 39 10000 8.2 190 06:45 23.11.2019
3933 Clouds 15 1009 39 10000 9.3 180 06:19 23.11.2019
3934 Clouds 15 1010 42 10000 9.8 180 05:48 23.11.2019
3935 Clouds 14 1010 48 10000 9.8 180 05:28 23.11.2019
3936 Clouds 15 1010 45 10000 10.3 180 04:47 23.11.2019
3937 Clouds 15 1010 45 10000 10.3 180 04:26 23.11.2019
3938 Clouds 14 1011 42 10000 8.2 180 02:40 23.11.2019
3939 Clouds 15 1012 42 10000 7.2 170 01:42 23.11.2019
3940 Clouds 15 1012 45 10000 7.7 170 01:21 23.11.2019
3941 Rain 15 1012 48 10000 7.7 170 00:39 23.11.2019
3942 Rain 15 1012 39 10000 7.7 180 00:18 23.11.2019
3943 Rain 15 1012 39 10000 7.7 180 23:42 22.11.2019
3944 Clouds 15 1013 42 10000 6.7 190 23:20 22.11.2019
3945 Clouds 15 1013 42 10000 6.7 190 22:57 22.11.2019
3946 Clouds 15 1013 42 10000 6.7 190 22:38 22.11.2019
3947 Clouds 14 1013 45 10000 4.6 200 22:20 22.11.2019
3948 Clouds 14 1013 45 10000 4.6 200 21:58 22.11.2019
3949 Clouds 14 1013 72 10000 1.5 0 21:39 22.11.2019
3950 Clouds 14 1013 67 10000 2.1 30 21:19 22.11.2019
3951 Clouds 14 1013 63 10000 4.1 70 20:43 22.11.2019
3952 Clouds 14 1013 63 10000 4.1 70 20:22 22.11.2019
3953 Clouds 14 1013 51 10000 3.6 70 19:56 22.11.2019
3954 Clouds 14 1013 59 10000 1 0 19:37 22.11.2019
3955 Clouds 14 1013 67 10000 2.6 230 19:19 22.11.2019
3956 Clouds 14 1013 67 10000 3.1 210 18:39 22.11.2019
3957 Clouds 15 1013 63 10000 2.6 230 18:21 22.11.2019
3958 Clouds 15 1013 63 10000 2.6 230 18:21 22.11.2019
3959 Clouds 15 1013 63 10000 2.6 230 17:57 22.11.2019
3960 Clouds 16 1013 55 10000 1 0 17:39 22.11.2019
3961 Clouds 15 1013 63 10000 1 0 17:20 22.11.2019
3962 Clouds 16 1013 63 10000 1.5 50 16:42 22.11.2019
3963 Clouds 17 1013 63 10000 1.5 50 16:23 22.11.2019
3964 Clouds 17 1013 63 10000 2.6 40 15:44 22.11.2019
3965 Clouds 17 1013 45 10000 2.1 200 15:24 22.11.2019
3966 Clouds 17 1013 45 10000 2.1 200 14:56 22.11.2019
3967 Clouds 17 1013 45 10000 4.1 210 14:38 22.11.2019
3968 Clouds 17 1013 42 10000 4.1 200 14:19 22.11.2019
3969 Clouds 17 1013 42 10000 4.1 200 13:57 22.11.2019
3970 Clouds 17 1013 49 10000 4.6 210 13:37 22.11.2019
3971 Clouds 17 1013 49 10000 4.1 210 13:18 22.11.2019
3972 Clouds 17 1013 49 10000 4.1 210 12:55 22.11.2019
3973 Clouds 17 1013 49 10000 4.1 210 12:55 22.11.2019
3974 Clouds 17 1014 45 10000 4.1 200 12:36 22.11.2019
3975 Clouds 17 1014 45 10000 4.6 210 12:18 22.11.2019
3976 Clouds 17 1015 48 10000 3.6 190 11:40 22.11.2019
3977 Clouds 17 1015 48 10000 4.6 210 11:22 22.11.2019
3978 Clouds 17 1015 48 10000 4.6 210 10:59 22.11.2019
3979 Clouds 16 1015 42 10000 5.7 200 10:40 22.11.2019
3980 Clouds 16 1015 42 10000 5.7 200 10:40 22.11.2019
3981 Clouds 16 1015 42 10000 5.7 200 10:22 22.11.2019
3982 Clouds 16 1015 42 10000 5.7 200 09:56 22.11.2019
3983 Clouds 15 1015 48 10000 5.1 210 09:37 22.11.2019
3984 Clouds 14 1015 51 10000 5.7 210 09:19 22.11.2019
3985 Clouds 13 1014 59 10000 4.6 210 08:46 22.11.2019
3986 Clouds 13 1014 59 10000 4.6 210 08:27 22.11.2019
3987 Clouds 13 1014 59 10000 4.6 210 08:27 22.11.2019
3988 Clouds 13 1014 67 10000 5.1 220 07:46 22.11.2019
3989 Clouds 12 1014 59 10000 5.1 210 07:23 22.11.2019
3990 Clouds 12 1014 59 10000 5.1 200 06:57 22.11.2019
3991 Clouds 12 1014 59 10000 5.1 200 06:37 22.11.2019
3992 Clouds 12 1014 59 10000 5.1 200 05:54 22.11.2019
3993 Clouds 12 1013 55 10000 5.7 190 04:51 22.11.2019
3994 Clouds 12 1014 55 10000 4.1 190 02:55 22.11.2019
3995 Clouds 12 1014 55 10000 4.1 190 02:32 22.11.2019
3996 Clouds 12 1014 59 10000 5.1 190 01:45 22.11.2019
3997 Clouds 12 1014 59 10000 4.6 180 01:20 22.11.2019
3998 Clouds 12 1014 59 10000 6.7 190 00:53 22.11.2019
3999 Clouds 13 1014 63 10000 6.2 190 00:24 22.11.2019
4000 Clouds 12 1014 63 10000 5.7 200 23:49 21.11.2019
4001 Clouds 12 1014 63 10000 5.7 200 23:31 21.11.2019
4002 Clouds 12 1014 63 10000 5.7 190 22:59 21.11.2019
4003 Clouds 12 1014 63 10000 6.2 190 22:40 21.11.2019
4004 Clouds 12 1014 63 10000 5.7 190 22:22 21.11.2019
4005 Clouds 12 1014 63 10000 5.7 190 21:57 21.11.2019
4006 Clouds 12 1014 63 10000 6.7 200 21:38 21.11.2019
4007 Clouds 12 1014 63 10000 7.7 200 21:19 21.11.2019
4008 Clouds 12 1014 63 10000 7.7 200 20:58 21.11.2019
4009 Clouds 13 1013 63 10000 6.7 190 20:39 21.11.2019
4010 Clouds 13 1013 63 10000 6.2 200 20:19 21.11.2019
4011 Clouds 13 1013 63 10000 6.2 200 20:19 21.11.2019
4012 Clouds 13 1013 63 10000 6.2 200 19:59 21.11.2019
4013 Clouds 13 1013 59 10000 5.7 200 19:41 21.11.2019
4014 Clouds 13 1013 63 10000 5.1 210 19:22 21.11.2019
4015 Clouds 13 1013 63 10000 5.1 210 18:57 21.11.2019
4016 Clouds 13 1013 63 10000 6.7 200 18:38 21.11.2019
4017 Clouds 12 1013 55 10000 7.2 190 18:19 21.11.2019
4018 Clouds 13 1013 55 10000 7.2 190 17:57 21.11.2019
4019 Clouds 13 1013 55 10000 4.6 200 17:38 21.11.2019
4020 Clouds 13 1013 51 10000 5.7 200 17:19 21.11.2019
4021 Clouds 13 1013 51 10000 5.7 200 17:19 21.11.2019
4022 Clouds 14 1012 51 10000 6.7 210 16:42 21.11.2019
4023 Clouds 14 1012 48 10000 6.7 200 16:22 21.11.2019
4024 Clouds 15 1012 48 10000 6.7 200 15:58 21.11.2019
4025 Clouds 15 1012 52 10000 7.2 210 15:40 21.11.2019
4026 Clouds 15 1012 52 10000 7.7 200 15:20 21.11.2019
4027 Clouds 16 1012 52 10000 7.7 200 14:56 21.11.2019
4028 Clouds 15 1012 55 10000 6.7 200 14:37 21.11.2019
4029 Clouds 15 1012 52 10000 6.2 180 14:18 21.11.2019
4030 Clouds 15 1012 55 10000 8.7 200 13:40 21.11.2019
4031 Clouds 16 1013 55 10000 8.7 200 13:20 21.11.2019
4032 Clouds 15 1013 55 10000 8.7 200 12:59 21.11.2019
4033 Clouds 15 1013 55 10000 9.8 210 12:39 21.11.2019
4034 Clouds 15 1013 55 10000 7.7 200 12:20 21.11.2019
4035 Clouds 14 1013 55 10000 6.7 190 11:41 21.11.2019
4036 Clouds 14 1014 52 10000 7.7 180 11:23 21.11.2019
4037 Clouds 14 1014 52 10000 7.7 180 10:59 21.11.2019
4038 Clouds 13 1014 51 10000 5.7 180 10:41 21.11.2019
4039 Clouds 13 1014 51 10000 5.7 180 10:23 21.11.2019
4040 Clouds 13 1014 51 10000 5.7 180 10:23 21.11.2019
4041 Clouds 14 1014 51 10000 5.7 180 09:57 21.11.2019
4042 Clouds 14 1014 51 10000 5.7 180 09:57 21.11.2019
4043 Clouds 14 1014 51 10000 5.1 190 09:39 21.11.2019
4044 Clouds 13 1014 55 10000 6.7 170 09:20 21.11.2019
4045 Clouds 12 1014 58 10000 6.7 170 08:42 21.11.2019
4046 Clouds 11 1014 58 10000 7.2 170 08:21 21.11.2019
4047 Clouds 11 1014 58 10000 6.7 180 07:43 21.11.2019
4048 Clouds 11 1014 54 10000 5.7 170 07:19 21.11.2019
4049 Clouds 11 1014 54 10000 5.7 170 06:58 21.11.2019
4050 Clouds 11 1014 54 10000 5.1 160 06:34 21.11.2019
4051 Clouds 10 1014 62 10000 3.1 170 05:39 21.11.2019
4052 Clear 10 1015 67 10000 4.1 160 03:34 21.11.2019
4053 Clear 10 1015 66 10000 3.1 170 02:42 21.11.2019
4054 Clear 10 1015 66 10000 3.1 170 02:23 21.11.2019
4055 Clouds 10 1016 76 10000 3.1 200 01:45 21.11.2019
4056 Clouds 10 1016 66 10000 2.6 180 01:19 21.11.2019
4057 Clear 10 1016 58 10000 2.1 160 00:38 21.11.2019
4058 Clear 10 1016 66 10000 2.6 180 00:18 21.11.2019
4059 Clear 9 1016 58 10000 2.1 190 23:42 20.11.2019
4060 Clear 10 1016 71 10000 2.6 160 23:21 20.11.2019
4061 Clear 10 1016 71 10000 2.6 160 22:57 20.11.2019
4062 Clear 9 1016 71 10000 3.1 160 22:37 20.11.2019
4063 Clear 9 1016 71 10000 3.6 160 22:19 20.11.2019
4064 Clear 10 1016 71 10000 3.6 160 21:57 20.11.2019
4065 Clear 10 1016 71 10000 3.6 160 21:38 20.11.2019
4066 Clear 10 1016 71 10000 3.6 150 21:19 20.11.2019
4067 Clear 10 1016 71 10000 3.6 150 20:56 20.11.2019
4068 Clear 10 1016 71 10000 3.6 150 20:56 20.11.2019
4069 Clear 10 1016 71 10000 3.6 150 20:38 20.11.2019
4070 Clear 10 1016 71 10000 3.6 150 20:19 20.11.2019
4071 Clear 10 1016 71 10000 3.6 150 19:56 20.11.2019
4072 Clear 10 1016 71 10000 3.6 150 19:36 20.11.2019
4073 Clear 10 1016 76 10000 3.6 150 19:18 20.11.2019
4074 Clear 10 1016 76 10000 3.6 150 18:58 20.11.2019
4075 Clear 10 1016 71 10000 3.1 150 18:38 20.11.2019
4076 Clear 11 1016 71 10000 2.6 150 18:20 20.11.2019
4077 Clear 11 1016 71 10000 2.6 150 17:55 20.11.2019
4078 Clear 11 1016 59 10000 2.1 260 17:37 20.11.2019
4079 Clear 12 1016 59 10000 3.1 280 17:19 20.11.2019
4080 Clear 13 1016 63 10000 3.1 280 16:43 20.11.2019
4081 Clear 14 1016 63 10000 3.6 280 16:20 20.11.2019
4082 Clear 14 1016 63 10000 3.6 280 15:58 20.11.2019
4083 Clear 15 1016 63 10000 4.1 270 15:40 20.11.2019
4084 Clouds 15 1016 63 10000 4.6 260 15:20 20.11.2019
4085 Clouds 14 1016 63 10000 4.6 260 14:58 20.11.2019
4086 Clouds 15 1016 63 10000 5.1 260 14:39 20.11.2019
4087 Clouds 15 1016 63 10000 5.7 260 14:21 20.11.2019
4088 Clouds 15 1016 63 10000 5.7 270 13:57 20.11.2019
4089 Clouds 15 1016 63 10000 5.7 270 13:38 20.11.2019
4090 Clouds 15 1016 63 10000 7.2 260 13:19 20.11.2019
4091 Clouds 14 1016 63 10000 7.2 270 12:43 20.11.2019
4092 Clouds 14 1016 63 10000 7.2 270 12:43 20.11.2019
4093 Clouds 14 1016 63 10000 7.2 270 12:24 20.11.2019
4094 Clouds 14 1017 63 10000 7.2 260 11:58 20.11.2019
4095 Clouds 14 1017 63 10000 7.2 260 11:38 20.11.2019
4096 Clouds 14 1017 59 10000 8.7 270 11:20 20.11.2019
4097 Clouds 14 1017 59 10000 8.7 270 10:55 20.11.2019
4098 Clouds 14 1016 67 10000 8.2 260 10:37 20.11.2019
4099 Clouds 13 1016 67 10000 8.2 260 10:18 20.11.2019
4100 Clouds 13 1016 67 10000 8.2 270 09:43 20.11.2019
4101 Clouds 12 1016 71 10000 4.6 210 09:21 20.11.2019
4102 Clouds 12 1016 71 10000 4.6 210 08:56 20.11.2019
4103 Clouds 12 1016 71 10000 4.6 210 08:56 20.11.2019
4104 Clouds 11 1015 76 10000 3.6 200 08:37 20.11.2019
4105 Rain 11 1015 67 10000 6.2 200 08:18 20.11.2019
4106 Clouds 10 1014 67 10000 5.7 200 07:42 20.11.2019
4107 Clouds 10 1014 67 10000 5.7 200 07:24 20.11.2019
4108 Clouds 10 1014 67 10000 7.2 250 06:47 20.11.2019
4109 Clouds 10 1014 63 10000 9.3 260 06:21 20.11.2019
4110 Clouds 11 1014 63 10000 9.3 260 04:52 20.11.2019
4111 Clouds 11 1014 67 10000 6.7 230 03:30 20.11.2019
4112 Clouds 11 1013 67 10000 6.2 270 02:21 20.11.2019
4113 Clouds 11 1013 87 10000 3.6 180 01:32 20.11.2019
4114 Rain 11 1013 71 10000 6.2 210 00:41 20.11.2019
4115 Clouds 11 1013 71 10000 4.6 200 23:55 19.11.2019
4116 Clouds 11 1013 71 10000 5.1 190 23:26 19.11.2019
4117 Clouds 11 1013 71 10000 3.6 200 22:58 19.11.2019
4118 Clouds 11 1013 71 10000 4.6 190 22:40 19.11.2019
4119 Clouds 12 1013 72 10000 5.7 210 22:19 19.11.2019
4120 Clouds 11 1013 72 10000 5.1 210 21:56 19.11.2019
4121 Clouds 11 1013 72 10000 5.1 210 21:37 19.11.2019
4122 Clouds 11 1013 71 10000 4.6 210 21:19 19.11.2019
4123 Clouds 11 1013 71 10000 5.1 210 20:56 19.11.2019
4124 Clouds 11 1013 71 10000 5.1 210 20:38 19.11.2019
4125 Clouds 11 1013 71 10000 5.1 210 20:38 19.11.2019
4126 Clouds 11 1013 62 10000 4.1 200 20:19 19.11.2019
4127 Clouds 11 1013 62 10000 4.1 200 19:56 19.11.2019
4128 Clouds 11 1012 58 10000 3.6 180 19:38 19.11.2019
4129 Clouds 11 1012 62 10000 3.1 180 19:19 19.11.2019
4130 Clouds 11 1012 62 10000 4.1 180 18:55 19.11.2019
4131 Clouds 11 1012 62 10000 4.1 180 18:36 19.11.2019
4132 Clouds 11 1012 67 10000 3.1 160 18:18 19.11.2019
4133 Clouds 11 1012 62 10000 3.1 160 17:55 19.11.2019
4134 Clouds 11 1012 62 10000 3.1 160 17:36 19.11.2019
4135 Clouds 12 1013 63 10000 2.6 200 17:18 19.11.2019
4136 Clouds 12 1013 63 10000 2.1 210 16:42 19.11.2019
4137 Clouds 12 1012 63 10000 1 0 16:22 19.11.2019
4138 Clouds 13 1012 63 10000 1 0 15:56 19.11.2019
4139 Clouds 13 1013 67 10000 1 0 15:38 19.11.2019
4140 Clouds 13 1013 67 10000 1 0 15:38 19.11.2019
4141 Clouds 13 1013 77 10000 3.6 100 15:20 19.11.2019
4142 Rain 12 1013 72 10000 2.1 60 14:55 19.11.2019
4143 Rain 12 1013 72 10000 2.1 60 14:37 19.11.2019
4144 Rain 12 1013 72 10000 2.1 60 14:37 19.11.2019
4145 Rain 12 1013 72 10000 1 0 14:19 19.11.2019
4146 Rain 12 1013 72 8000 4.1 190 13:40 19.11.2019
4147 Clouds 12 1013 67 10000 2.1 90 13:19 19.11.2019
4148 Clouds 12 1013 67 10000 2.1 90 12:41 19.11.2019
4149 Clouds 12 1014 67 10000 2.6 90 12:22 19.11.2019
4150 Clouds 12 1014 67 10000 2.6 90 11:58 19.11.2019
4151 Clouds 13 1014 59 10000 2.6 110 11:38 19.11.2019
4152 Clouds 14 1014 59 10000 3.6 160 11:19 19.11.2019
4153 Clouds 13 1014 55 10000 2.1 180 10:48 19.11.2019
4154 Rain 14 1014 59 10000 2.1 190 10:23 19.11.2019
4155 Rain 14 1014 59 10000 2.1 190 09:58 19.11.2019
4156 Rain 14 1014 59 10000 2.6 200 09:40 19.11.2019
4157 Clouds 14 1014 59 10000 3.1 190 09:19 19.11.2019
4158 Clouds 14 1014 59 10000 3.1 180 08:41 19.11.2019
4159 Clouds 14 1014 59 10000 3.1 180 08:23 19.11.2019
4160 Clouds 14 1014 55 10000 4.6 0 07:58 19.11.2019
4161 Clouds 13 1014 55 10000 4.6 0 07:39 19.11.2019
4162 Clouds 13 1014 63 10000 5.7 180 07:20 19.11.2019
4163 Rain 13 1014 77 10000 5.7 190 06:50 19.11.2019
4164 Rain 13 1014 77 10000 5.7 190 06:30 19.11.2019
4165 Clouds 13 1014 59 10000 7.2 200 05:39 19.11.2019
4166 Clouds 14 1014 63 10000 5.7 200 04:22 19.11.2019
4167 Clouds 14 1014 63 10000 5.1 200 03:32 19.11.2019
4168 Clouds 14 1014 59 10000 7.2 210 02:56 19.11.2019
4169 Clouds 14 1014 59 10000 9.3 200 02:31 19.11.2019
4170 Clouds 14 1013 51 10000 8.7 190 01:40 19.11.2019
4171 Clouds 14 1013 51 10000 9.8 180 00:22 19.11.2019
4172 Clouds 14 1013 51 10000 9.8 180 23:57 18.11.2019
4173 Clouds 14 1014 55 10000 10.3 180 23:37 18.11.2019
4174 Clouds 14 1013 55 10000 11.3 180 23:18 18.11.2019
4175 Clouds 14 1014 55 10000 10.3 180 22:42 18.11.2019
4176 Clouds 14 1014 59 10000 8.2 190 22:23 18.11.2019
4177 Clouds 14 1014 55 10000 10.3 180 22:23 18.11.2019
4178 Clouds 14 1014 59 10000 8.7 190 21:56 18.11.2019
4179 Clouds 14 1014 59 10000 8.7 190 21:37 18.11.2019
4180 Clouds 14 1014 59 10000 8.2 200 21:19 18.11.2019
4181 Clouds 14 1014 59 10000 4.6 200 20:56 18.11.2019
4182 Clouds 14 1014 59 10000 4.6 200 20:38 18.11.2019
4183 Clouds 14 1014 59 10000 7.2 190 20:18 18.11.2019
4184 Clouds 14 1014 59 10000 7.2 190 19:55 18.11.2019
4185 Clouds 14 1014 59 10000 8.7 190 19:36 18.11.2019
4186 Clouds 14 1014 67 10000 7.2 190 19:18 18.11.2019
4187 Clouds 14 1014 67 10000 7.2 190 18:54 18.11.2019
4188 Clouds 14 1015 63 10000 5.1 180 18:54 18.11.2019
4189 Clouds 14 1015 63 10000 5.1 180 18:36 18.11.2019
4190 Clouds 14 1015 67 10000 4.1 180 18:18 18.11.2019
4191 Clouds 14 1015 67 10000 4.6 180 17:39 18.11.2019
4192 Clouds 14 1015 59 10000 5.7 180 17:20 18.11.2019
4193 Clouds 14 1015 55 10000 7.2 190 16:55 18.11.2019
4194 Clouds 14 1015 55 10000 7.2 190 16:36 18.11.2019
4195 Clouds 14 1015 55 10000 4.6 180 16:18 18.11.2019
4196 Clouds 15 1015 52 10000 4.6 170 15:55 18.11.2019
4197 Clouds 15 1015 52 10000 4.6 170 15:36 18.11.2019
4198 Clouds 15 1015 52 10000 5.1 180 15:18 18.11.2019
4199 Clouds 15 1015 48 10000 5.7 190 14:41 18.11.2019
4200 Clouds 15 1015 48 10000 5.7 190 14:23 18.11.2019
4201 Clouds 15 1015 42 10000 5.1 160 13:55 18.11.2019
4202 Clouds 15 1015 42 10000 5.1 160 13:54 18.11.2019
4203 Clouds 15 1015 39 10000 5.1 190 13:36 18.11.2019
4204 Clouds 15 1015 42 10000 4.6 180 13:18 18.11.2019
4205 Clouds 15 1016 48 10000 4.6 190 12:38 18.11.2019
4206 Clouds 15 1016 48 10000 5.1 180 12:19 18.11.2019
4207 Clouds 16 1016 52 10000 5.7 180 11:44 18.11.2019
4208 Clouds 15 1016 59 10000 6.7 190 11:26 18.11.2019
4209 Clouds 15 1016 59 10000 6.7 190 10:58 18.11.2019
4210 Clouds 14 1016 55 10000 6.7 180 10:39 18.11.2019
4211 Clouds 14 1017 63 10000 6.7 180 10:20 18.11.2019
4212 Clouds 14 1017 63 10000 6.7 190 09:55 18.11.2019
4213 Clouds 14 1017 63 10000 6.7 190 09:37 18.11.2019
4214 Clouds 13 1016 63 10000 5.1 200 09:18 18.11.2019
4215 Clouds 12 1016 67 10000 5.1 180 08:44 18.11.2019
4216 Clouds 12 1016 67 10000 4.1 180 08:21 18.11.2019
4217 Clouds 11 1016 67 10000 4.6 190 07:48 18.11.2019
4218 Clouds 11 1016 67 10000 4.6 190 07:29 18.11.2019
4219 Clear 11 1016 71 10000 3.6 180 06:56 18.11.2019
4220 Clear 11 1016 71 10000 4.1 160 06:37 18.11.2019
4221 Clear 10 1015 76 10000 4.1 180 06:18 18.11.2019
4222 Clear 10 1015 71 10000 4.6 180 04:58 18.11.2019
4223 Clouds 10 1015 71 10000 3.6 180 02:59 18.11.2019
4224 Clouds 10 1015 76 10000 5.7 170 01:31 18.11.2019
4225 Clouds 10 1015 76 10000 4.1 180 00:35 18.11.2019
4226 Clouds 11 1014 71 10000 5.1 200 23:45 17.11.2019
4227 Clouds 11 1014 71 10000 5.1 200 23:25 17.11.2019
4228 Clouds 11 1014 71 10000 6.2 200 22:59 17.11.2019
4229 Clouds 11 1014 71 10000 5.7 200 22:41 17.11.2019
4230 Rain 11 1014 76 10000 5.1 190 22:23 17.11.2019
4231 Rain 11 1014 76 10000 5.1 190 21:59 17.11.2019
4232 Rain 11 1014 76 10000 4.6 190 21:41 17.11.2019
4233 Rain 11 1014 76 10000 4.6 170 21:19 17.11.2019
4234 Rain 11 1014 76 10000 4.6 170 21:19 17.11.2019
4235 Rain 11 1014 76 10000 4.6 170 20:57 17.11.2019
4236 Clouds 11 1013 67 10000 10.3 220 20:38 17.11.2019
4237 Clouds 12 1013 59 10000 7.7 260 20:19 17.11.2019
4238 Clouds 12 1013 59 10000 7.7 260 19:56 17.11.2019
4239 Clouds 12 1013 59 10000 8.7 260 19:38 17.11.2019
4240 Clouds 12 1013 59 10000 10.3 260 19:20 17.11.2019
4241 Clouds 12 1012 63 10000 9.3 270 18:56 17.11.2019
4242 Clouds 12 1012 63 10000 9.3 270 18:38 17.11.2019
4243 Clouds 12 1012 63 10000 9.3 270 18:19 17.11.2019
4244 Clouds 12 1012 63 10000 9.3 270 17:57 17.11.2019
4245 Clouds 12 1012 67 10000 9.3 270 17:39 17.11.2019
4246 Rain 12 1011 67 10000 11.3 280 17:20 17.11.2019
4247 Rain 12 1011 67 10000 11.3 280 16:58 17.11.2019
4248 Rain 13 1011 72 10000 12.3 270 16:40 17.11.2019
4249 Clouds 13 1010 63 10000 10.3 270 16:21 17.11.2019
4250 Clouds 13 1010 63 10000 10.3 270 15:55 17.11.2019
4251 Clouds 13 1010 67 10000 10.3 270 15:37 17.11.2019
4252 Clouds 13 1009 67 10000 8.2 270 15:18 17.11.2019
4253 Clouds 13 1009 67 10000 8.2 270 14:55 17.11.2019
4254 Rain 13 1009 72 10000 6.2 230 14:37 17.11.2019
4255 Rain 13 1009 72 10000 6.2 230 14:37 17.11.2019
4256 Clouds 14 1009 67 10000 7.2 240 14:19 17.11.2019
4257 Clouds 14 1009 67 10000 7.2 240 13:55 17.11.2019
4258 Rain 14 1009 72 10000 10.3 250 13:37 17.11.2019
4259 Clouds 14 1009 63 10000 6.2 190 13:18 17.11.2019
4260 Clouds 14 1009 63 10000 7.7 210 12:42 17.11.2019
4261 Clouds 14 1009 67 10000 7.2 200 12:22 17.11.2019
4262 Clouds 13 1009 67 10000 7.2 200 11:57 17.11.2019
4263 Clouds 13 1009 67 10000 6.2 200 11:38 17.11.2019
4264 Clouds 13 1009 72 10000 7.7 200 11:20 17.11.2019
4265 Clouds 13 1009 72 10000 7.7 200 11:20 17.11.2019
4266 Clouds 13 1009 76 10000 8.2 200 10:44 17.11.2019
4267 Clouds 13 1009 76 10000 7.7 200 10:23 17.11.2019
4268 Rain 13 1009 76 10000 7.7 200 09:57 17.11.2019
4269 Rain 13 1008 76 10000 7.7 190 09:39 17.11.2019
4270 Rain 13 1008 76 10000 9.3 200 09:20 17.11.2019
4271 Drizzle 13 1007 67 10000 10.3 220 08:40 17.11.2019
4272 Clouds 13 1006 72 10000 8.7 210 08:20 17.11.2019
4273 Clouds 14 1006 77 10000 7.2 210 07:47 17.11.2019
4274 Clouds 14 1006 77 10000 7.2 200 07:24 17.11.2019
4275 Clouds 14 1005 77 10000 6.7 210 06:57 17.11.2019
4276 Clouds 14 1005 77 10000 6.7 210 06:33 17.11.2019
4277 Clouds 15 1005 77 10000 10.8 240 05:54 17.11.2019
4278 Clouds 16 1004 82 10000 7.7 250 04:24 17.11.2019
4279 Clouds 16 1004 88 10000 9.8 280 03:47 17.11.2019
4280 Rain 16 1004 88 10000 9.8 280 03:29 17.11.2019
4281 Clouds 18 1002 53 10000 11.8 180 02:28 17.11.2019
4282 Clear 17 1002 53 10000 11.3 170 01:37 17.11.2019
4283 Clear 17 1002 49 10000 11.3 170 00:54 17.11.2019
4284 Clear 17 979 68 0 5.28 161 00:22 17.11.2019
4285 Clear 17 1008 64 0 4.92 270 00:22 17.11.2019
4286 Clear 17 979 66 0 5.28 161 23:46 16.11.2019
4287 Clear 17 1001 31 10000 11.8 160 23:20 16.11.2019
4288 Clear 17 1002 35 10000 8.2 160 22:59 16.11.2019
4289 Clear 17 1002 35 10000 8.2 160 22:40 16.11.2019
4290 Clear 17 1002 35 10000 8.2 160 22:40 16.11.2019
4291 Clear 18 1002 33 10000 10.3 170 22:19 16.11.2019
4292 Clear 18 1002 31 10000 10.8 160 21:56 16.11.2019
4293 Clear 18 1002 31 10000 10.8 160 21:37 16.11.2019
4294 Clear 18 1002 31 10000 10.8 160 21:19 16.11.2019
4295 Clear 17 1002 28 10000 9.8 170 20:41 16.11.2019
4296 Clear 17 1002 25 10000 12.3 160 20:21 16.11.2019
4297 Clear 17 1003 25 10000 9.3 170 19:58 16.11.2019
4298 Clear 17 1002 25 10000 12.3 160 19:58 16.11.2019
4299 Clear 18 1003 25 10000 9.3 170 19:40 16.11.2019
4300 Clear 18 1003 27 10000 10.3 160 19:21 16.11.2019
4301 Clear 18 1003 31 10000 7.7 160 18:47 16.11.2019
4302 Clear 18 1003 35 10000 7.7 160 18:29 16.11.2019
4303 Clear 19 1003 33 10000 8.7 160 17:57 16.11.2019
4304 Clear 19 1003 33 10000 8.7 160 17:38 16.11.2019
4305 Clear 19 1004 35 10000 8.2 170 17:19 16.11.2019
4306 Clear 19 1004 35 10000 8.2 170 16:48 16.11.2019
4307 Clear 19 1004 35 10000 8.2 170 16:30 16.11.2019
4308 Clear 20 1004 33 10000 7.7 180 15:59 16.11.2019
4309 Clear 20 1005 31 10000 8.2 170 15:39 16.11.2019
4310 Clear 20 1005 33 10000 7.7 180 15:20 16.11.2019
4311 Clear 21 1005 33 10000 7.2 170 14:57 16.11.2019
4312 Clear 21 1005 33 10000 7.2 170 14:57 16.11.2019
4313 Clear 21 1005 33 10000 7.2 170 14:39 16.11.2019
4314 Clouds 21 1005 33 10000 7.7 180 14:20 16.11.2019
4315 Clouds 21 1006 31 10000 7.7 180 13:55 16.11.2019
4316 Clouds 21 1006 31 10000 7.7 180 13:37 16.11.2019
4317 Clouds 21 1006 31 10000 8.2 170 13:18 16.11.2019
4318 Clouds 21 1007 29 10000 8.7 170 12:43 16.11.2019
4319 Clouds 21 1007 31 10000 8.2 170 12:23 16.11.2019
4320 Clouds 21 1007 31 10000 8.2 170 11:57 16.11.2019
4321 Clouds 21 1008 33 10000 8.2 160 11:38 16.11.2019
4322 Clouds 21 1008 33 10000 8.2 160 11:38 16.11.2019
4323 Clouds 20 1008 33 10000 9.3 170 11:20 16.11.2019
4324 Clouds 20 1008 33 10000 9.3 170 10:55 16.11.2019
4325 Clouds 20 1009 38 10000 8.2 170 10:37 16.11.2019
4326 Clouds 19 1009 43 9000 6.7 170 10:18 16.11.2019
4327 Clouds 19 1009 43 9000 6.2 160 09:40 16.11.2019
4328 Clouds 19 1010 43 9000 5.1 160 09:20 16.11.2019
4329 Clouds 19 1010 46 10000 5.7 160 08:56 16.11.2019
4330 Clouds 19 1010 46 10000 5.7 160 08:36 16.11.2019
4331 Clouds 18 1010 49 10000 5.1 170 08:18 16.11.2019
4332 Clouds 18 1009 49 10000 6.7 170 07:40 16.11.2019
4333 Clouds 18 1009 49 10000 7.2 170 07:18 16.11.2019
4334 Clouds 18 1009 46 10000 7.7 180 06:43 16.11.2019
4335 Clouds 18 1008 43 10000 8.2 180 06:20 16.11.2019
4336 Clouds 18 1008 43 10000 9.3 180 04:45 16.11.2019
4337 Clouds 18 1009 43 10000 8.7 180 03:26 16.11.2019
4338 Clouds 17 1009 46 10000 8.7 180 02:37 16.11.2019
4339 Clouds 18 1009 40 10000 9.3 180 01:41 16.11.2019
4340 Clouds 18 1009 40 10000 9.3 180 01:41 16.11.2019
4341 Clouds 18 1009 40 10000 9.3 190 00:56 16.11.2019
4342 Clouds 18 1009 46 10000 8.7 190 00:36 16.11.2019
4343 Clouds 18 1009 43 10000 10.8 190 00:18 16.11.2019
4344 Clouds 18 1009 49 10000 10.8 190 23:39 15.11.2019
4345 Clouds 18 1009 52 10000 8.2 200 23:20 15.11.2019
4346 Rain 18 1009 56 10000 8.7 200 22:42 15.11.2019
4347 Rain 18 1009 46 10000 8.7 190 22:20 15.11.2019
4348 Clouds 18 1009 46 10000 8.7 190 21:59 15.11.2019
4349 Clouds 18 1008 40 10000 9.3 190 21:40 15.11.2019
4350 Clouds 18 1008 49 10000 9.8 190 21:20 15.11.2019
4351 Clouds 18 1008 49 10000 9.8 190 20:57 15.11.2019
4352 Clouds 18 1008 46 10000 10.8 190 20:39 15.11.2019
4353 Clouds 18 1008 46 10000 10.8 190 20:39 15.11.2019
4354 Clouds 18 1008 49 10000 8.7 180 20:21 15.11.2019
4355 Clouds 18 1008 49 10000 8.7 180 19:58 15.11.2019
4356 Clouds 18 1008 49 10000 10.3 180 19:39 15.11.2019
4357 Rain 18 1007 46 10000 9.3 200 19:20 15.11.2019
4358 Rain 18 1007 46 10000 9.3 200 18:58 15.11.2019
4359 Clouds 18 1007 37 10000 10.3 190 18:39 15.11.2019
4360 Clouds 18 1006 37 10000 10.8 180 18:21 15.11.2019
4361 Clouds 18 1006 40 10000 11.3 180 17:42 15.11.2019
4362 Clouds 18 1006 40 10000 11.3 180 17:24 15.11.2019
4363 Clear 18 1005 43 10000 12.9 170 16:56 15.11.2019
4364 Clear 18 1005 43 10000 12.9 170 16:37 15.11.2019
4365 Clear 18 1005 40 10000 12.9 170 16:19 15.11.2019
4366 Clear 19 1005 35 10000 11.8 180 15:39 15.11.2019
4367 Clear 19 1005 35 10000 11.8 180 15:20 15.11.2019
4368 Clear 19 1005 35 10000 12.3 180 14:57 15.11.2019
4369 Clear 19 1005 35 10000 12.3 180 14:38 15.11.2019
4370 Clouds 19 1005 40 10000 11.8 190 14:19 15.11.2019
4371 Clouds 19 1005 40 10000 11.8 190 13:58 15.11.2019
4372 Clouds 19 1005 43 10000 12.3 180 13:39 15.11.2019
4373 Clouds 19 1005 43 10000 11.3 180 13:21 15.11.2019
4374 Clouds 19 1005 43 10000 11.3 180 12:58 15.11.2019
4375 Clouds 19 1006 46 10000 11.8 190 12:40 15.11.2019
4376 Clouds 19 1006 46 10000 10.8 190 12:20 15.11.2019
4377 Clouds 19 1006 46 10000 10.8 190 11:58 15.11.2019
4378 Clouds 18 1007 49 10000 10.8 190 11:38 15.11.2019
4379 Clouds 18 1007 49 10000 10.8 190 11:20 15.11.2019
4380 Clouds 18 1007 49 10000 10.8 190 10:56 15.11.2019
4381 Clouds 18 1007 52 10000 8.2 180 10:38 15.11.2019
4382 Clouds 18 1008 52 10000 9.3 180 10:18 15.11.2019
4383 Clouds 17 1007 52 10000 10.3 170 09:41 15.11.2019
4384 Clouds 17 1007 59 10000 10.3 180 09:20 15.11.2019
4385 Clouds 18 1007 55 10000 10.3 180 08:44 15.11.2019
4386 Clouds 17 1007 55 10000 10.3 180 08:44 15.11.2019
4387 Clouds 16 1007 55 10000 11.3 180 08:23 15.11.2019
4388 Clouds 15 1007 55 10000 11.3 180 07:49 15.11.2019
4389 Clouds 15 1007 55 10000 11.3 180 07:28 15.11.2019
4390 Clouds 15 1007 59 10000 8.2 200 06:52 15.11.2019
4391 Clouds 15 1007 59 10000 8.2 200 06:32 15.11.2019
4392 Clouds 15 1006 55 10000 12.9 190 05:49 15.11.2019
4393 Clouds 15 1006 55 10000 12.9 190 05:27 15.11.2019
4394 Clouds 14 1007 59 10000 10.8 180 03:58 15.11.2019
4395 Clouds 14 1007 59 10000 10.8 180 03:25 15.11.2019
4396 Clouds 14 1008 59 10000 10.8 180 02:23 15.11.2019
4397 Clouds 13 1008 55 10000 8.7 180 01:36 15.11.2019
4398 Clouds 14 1008 55 10000 9.8 180 01:36 15.11.2019
4399 Clouds 13 1008 55 10000 8.7 180 01:18 15.11.2019
4400 Clouds 13 1008 55 10000 8.2 180 00:34 15.11.2019
4401 Clouds 13 1008 51 10000 6.7 180 23:57 14.11.2019
4402 Clouds 13 1008 51 10000 6.7 180 23:38 14.11.2019
4403 Clouds 13 1009 59 10000 6.7 180 23:19 14.11.2019
4404 Clouds 13 1009 72 10000 7.2 190 22:40 14.11.2019
4405 Clouds 13 1009 72 10000 7.2 190 22:40 14.11.2019
4406 Clouds 12 1009 77 10000 6.2 200 22:21 14.11.2019
4407 Clouds 12 1009 77 10000 6.2 200 21:57 14.11.2019
4408 Clouds 12 1009 77 10000 7.2 200 21:39 14.11.2019
4409 Clouds 12 1009 72 10000 6.7 200 21:21 14.11.2019
4410 Clouds 13 1009 77 10000 5.1 190 20:42 14.11.2019
4411 Clouds 13 1009 77 10000 5.1 190 20:24 14.11.2019
4412 Clouds 13 1009 77 10000 5.1 200 19:59 14.11.2019
4413 Clouds 13 1009 77 10000 5.1 200 19:59 14.11.2019
4414 Clouds 13 1008 77 10000 5.1 200 19:41 14.11.2019
4415 Clouds 13 1008 77 10000 3.6 210 19:19 14.11.2019
4416 Clouds 13 1008 72 10000 3.6 240 18:56 14.11.2019
4417 Clouds 14 1008 72 10000 3.6 240 18:38 14.11.2019
4418 Clouds 14 1008 72 10000 4.6 270 18:20 14.11.2019
4419 Clouds 14 1007 72 10000 4.1 270 17:56 14.11.2019
4420 Clouds 14 1007 77 10000 4.6 280 17:37 14.11.2019
4421 Clouds 14 1007 77 10000 4.6 280 17:19 14.11.2019
4422 Clouds 14 1007 77 10000 6.2 290 16:57 14.11.2019
4423 Clouds 14 1007 77 10000 6.2 290 16:37 14.11.2019
4424 Clouds 14 1007 77 10000 6.2 290 16:37 14.11.2019
4425 Clouds 14 1007 72 10000 3.6 0 16:18 14.11.2019
4426 Clouds 15 1007 72 10000 3.6 0 15:56 14.11.2019
4427 Clouds 15 1006 63 10000 1.5 30 15:56 14.11.2019
4428 Clouds 14 1006 63 10000 1.5 30 15:38 14.11.2019
4429 Clouds 15 1006 55 10000 2.6 60 15:19 14.11.2019
4430 Clouds 14 1007 59 10000 2.6 80 14:44 14.11.2019
4431 Clouds 15 1007 59 10000 1.5 0 14:22 14.11.2019
4432 Clouds 14 1007 59 10000 1.5 0 13:57 14.11.2019
4433 Clouds 15 1007 55 10000 3.1 0 13:38 14.11.2019
4434 Clouds 15 1007 56 10000 4.1 200 13:19 14.11.2019
4435 Clouds 15 1007 55 10000 4.1 180 12:56 14.11.2019
4436 Clouds 14 1007 55 10000 4.1 180 12:37 14.11.2019
4437 Clouds 15 1007 55 10000 4.6 180 12:18 14.11.2019
4438 Clouds 14 1007 59 10000 3.1 170 11:39 14.11.2019
4439 Clouds 15 1007 59 10000 4.6 160 11:20 14.11.2019
4440 Clouds 15 1007 59 10000 4.6 160 11:20 14.11.2019
4441 Clouds 15 1007 59 10000 4.6 160 11:20 14.11.2019
4442 Clouds 15 1007 59 10000 4.6 160 10:58 14.11.2019
4443 Clouds 14 1007 59 10000 3.1 180 10:40 14.11.2019
4444 Clouds 14 1007 59 10000 4.1 200 10:20 14.11.2019
4445 Clouds 14 1007 59 10000 4.1 200 09:56 14.11.2019
4446 Clouds 13 1007 59 10000 3.1 180 09:38 14.11.2019
4447 Clouds 17 1007 55 10000 5.1 180 09:19 14.11.2019
4448 Clouds 17 1007 55 10000 5.1 180 08:47 14.11.2019
4449 Clouds 17 1007 55 10000 5.1 180 08:25 14.11.2019
4450 Clouds 17 1007 59 10000 5.1 180 07:57 14.11.2019
4451 Clouds 17 1006 59 10000 4.6 190 07:37 14.11.2019
4452 Clouds 17 1006 59 10000 6.2 190 07:19 14.11.2019
4453 Clouds 17 1006 59 10000 7.2 190 06:42 14.11.2019
4454 Clouds 17 1006 55 10000 5.7 180 06:18 14.11.2019
4455 Clouds 17 1006 59 10000 6.7 200 04:42 14.11.2019
4456 Clouds 17 1006 63 10000 7.7 190 04:23 14.11.2019
4457 Clouds 17 1006 63 10000 8.7 200 02:47 14.11.2019
4458 Clouds 17 1006 63 10000 8.7 200 02:25 14.11.2019
4459 Clouds 17 1007 63 10000 9.8 200 01:33 14.11.2019
4460 Rain 17 1008 63 10000 7.2 190 00:53 14.11.2019
4461 Rain 17 1008 63 10000 7.2 190 00:30 14.11.2019
4462 Clouds 17 1008 63 10000 7.2 200 23:42 13.11.2019
4463 Clouds 17 1008 59 10000 7.7 190 23:22 13.11.2019
4464 Clouds 17 1008 59 10000 7.7 190 22:57 13.11.2019
4465 Clouds 13 1008 63 10000 7.2 200 22:39 13.11.2019
4466 Clouds 13 1009 72 10000 7.2 190 22:21 13.11.2019
4467 Clouds 12 1009 72 10000 5.1 190 21:56 13.11.2019
4468 Clouds 13 1009 72 10000 5.1 190 21:38 13.11.2019
4469 Clouds 13 1009 72 10000 4.1 190 21:19 13.11.2019
4470 Clouds 13 1009 72 10000 4.1 190 20:57 13.11.2019
4471 Clouds 13 1009 72 10000 5.1 200 20:37 13.11.2019
4472 Clouds 13 1009 72 10000 5.1 200 20:37 13.11.2019
4473 Clouds 13 1009 72 10000 5.1 200 20:37 13.11.2019
4474 Rain 13 1009 72 10000 5.7 190 20:19 13.11.2019
4475 Rain 13 1009 72 10000 5.7 190 19:56 13.11.2019
4476 Rain 13 1009 72 9000 6.7 200 19:37 13.11.2019
4477 Clouds 13 1009 67 10000 4.1 200 19:18 13.11.2019
4478 Clouds 12 1008 63 10000 4.1 200 18:54 13.11.2019
4479 Clouds 12 1008 63 10000 4.1 200 18:54 13.11.2019
4480 Clouds 13 1008 63 10000 4.1 200 18:36 13.11.2019
4481 Clouds 13 1008 63 10000 6.7 240 18:18 13.11.2019
4482 Clouds 13 1008 63 10000 6.7 240 18:18 13.11.2019
4483 Clouds 13 1008 63 10000 6.7 240 18:18 13.11.2019
4484 Clouds 14 1008 68 10000 5.7 240 17:54 13.11.2019
4485 Clouds 14 1008 68 10000 5.7 240 17:36 13.11.2019
4486 Clouds 14 1008 63 10000 6.2 260 17:18 13.11.2019
4487 Clouds 14 1007 59 10000 8.2 250 16:40 13.11.2019
4488 Clouds 15 1007 59 10000 7.2 260 16:22 13.11.2019
4489 Clouds 15 1007 59 10000 7.2 260 15:59 13.11.2019
4490 Clouds 15 1007 63 10000 7.2 250 15:41 13.11.2019
4491 Clouds 15 1007 55 10000 7.7 260 15:23 13.11.2019
4492 Clouds 15 1007 55 10000 7.7 260 14:59 13.11.2019
4493 Clouds 15 1007 63 10000 9.3 250 14:39 13.11.2019
4494 Clouds 15 1007 59 10000 9.8 260 14:20 13.11.2019
4495 Rain 16 1007 63 10000 10.3 260 13:38 13.11.2019
4496 Rain 16 1007 68 10000 9.8 270 13:19 13.11.2019
4497 Clouds 16 1007 68 10000 9.8 270 12:58 13.11.2019
4498 Rain 16 1007 59 10000 10.3 270 12:40 13.11.2019
4499 Rain 16 1006 63 10000 10.8 260 12:21 13.11.2019
4500 Clouds 15 1006 63 10000 10.8 260 11:55 13.11.2019
4501 Clouds 15 1006 63 10000 11.3 260 11:36 13.11.2019
4502 Clouds 15 1006 59 10000 11.3 280 11:18 13.11.2019
4503 Clouds 15 1006 59 10000 11.3 280 10:54 13.11.2019
4504 Clouds 14 1006 59 10000 11.8 270 10:36 13.11.2019
4505 Clouds 14 1005 59 10000 11.3 270 10:18 13.11.2019
4506 Clouds 14 1005 59 10000 10.3 270 09:40 13.11.2019
4507 Clouds 14 1005 59 10000 10.3 270 09:40 13.11.2019
4508 Clouds 14 1004 63 10000 10.3 270 09:20 13.11.2019
4509 Clouds 14 1004 63 10000 10.3 270 09:20 13.11.2019
4510 Clouds 13 1003 59 10000 12.3 270 08:41 13.11.2019
4511 Rain 14 1003 59 9000 11.8 270 08:22 13.11.2019
4512 Rain 13 1003 59 9000 11.8 270 07:57 13.11.2019
4513 -273 0 0 0 0 0 07:38 13.11.2019
4514 Rain 13 1002 63 10000 12.3 270 07:18 13.11.2019
4515 Clouds 13 1001 63 10000 12.3 270 06:41 13.11.2019
4516 Rain 13 1001 72 10000 13.4 260 06:18 13.11.2019
4517 Rain 13 1000 68 10000 12.9 260 05:47 13.11.2019
4518 Rain 13 1000 68 10000 14.4 260 04:59 13.11.2019
4519 Rain 13 998 82 8000 15.4 270 03:56 13.11.2019
4520 Rain 14 996 82 7000 14.9 260 01:51 13.11.2019
4521 Rain 14 995 93 8000 13.4 260 01:27 13.11.2019
4522 Clouds 14 994 72 10000 13.9 260 00:43 13.11.2019
4523 Rain 14 993 82 10000 12.9 280 23:56 12.11.2019
4524 Rain 14 993 82 10000 12.9 280 23:37 12.11.2019
4525 Rain 14 991 77 10000 17.5 260 23:18 12.11.2019
4526 Rain 14 990 87 10000 13.4 230 22:42 12.11.2019
4527 Rain 13 990 87 8000 9.3 190 22:18 12.11.2019
4528 Rain 13 990 87 8000 9.3 190 21:56 12.11.2019
4529 Rain 13 990 87 4000 8.2 190 21:38 12.11.2019
4530 Rain 13 990 82 10000 6.7 190 21:19 12.11.2019
4531 Rain 13 990 82 10000 6.7 190 20:55 12.11.2019
4532 Clouds 12 990 93 10000 4.1 190 20:36 12.11.2019
4533 Rain 12 990 93 8000 2.6 110 20:18 12.11.2019
4534 Rain 12 990 93 8000 2.6 110 19:55 12.11.2019
4535 Rain 12 990 87 5000 4.6 10 19:37 12.11.2019
4536 Rain 12 989 77 8000 1.5 20 19:18 12.11.2019
4537 Rain 13 989 72 10000 2.1 0 18:55 12.11.2019
4538 Rain 13 989 72 10000 2.1 0 18:55 12.11.2019
4539 Rain 13 989 72 10000 2.1 0 18:36 12.11.2019
4540 Rain 13 989 72 10000 4.6 190 18:18 12.11.2019
4541 Rain 12 989 72 10000 4.6 190 17:55 12.11.2019
4542 Rain 13 989 76 10000 6.7 210 17:36 12.11.2019
4543 Rain 13 989 76 10000 6.7 210 17:36 12.11.2019
4544 Rain 13 989 76 10000 6.7 210 17:36 12.11.2019
4545 Rain 13 989 76 10000 9.3 190 17:18 12.11.2019
4546 Rain 13 989 72 9000 10.3 190 16:43 12.11.2019
4547 Rain 12 988 63 10000 7.2 180 16:24 12.11.2019
4548 Rain 12 988 63 10000 7.2 180 15:57 12.11.2019
4549 Clouds 13 988 63 10000 7.7 180 15:37 12.11.2019
4550 Clouds 13 988 63 10000 8.7 180 15:18 12.11.2019
4551 Clouds 12 989 55 10000 7.7 180 14:42 12.11.2019
4552 Clouds 12 989 51 10000 5.1 190 14:20 12.11.2019
4553 Clouds 12 989 51 10000 5.1 190 13:58 12.11.2019
4554 Clouds 12 989 48 10000 3.1 160 13:40 12.11.2019
4555 Clouds 12 990 48 10000 7.2 170 13:20 12.11.2019
4556 Clouds 12 990 48 10000 7.2 170 12:59 12.11.2019
4557 Clouds 12 990 55 10000 5.7 180 12:39 12.11.2019
4558 Clouds 12 991 55 10000 9.3 180 12:18 12.11.2019
4559 Clouds 12 991 51 10000 9.8 190 11:54 12.11.2019
4560 Clouds 12 991 51 10000 9.8 190 11:36 12.11.2019
4561 Clouds 12 991 48 10000 8.7 170 11:18 12.11.2019
4562 Rain 12 992 59 10000 7.2 180 10:55 12.11.2019
4563 Clouds 12 992 59 10000 7.2 180 10:36 12.11.2019
4564 Clouds 12 992 59 10000 7.2 180 10:36 12.11.2019
4565 Clouds 12 992 62 10000 8.7 170 10:18 12.11.2019
4566 Clouds 12 992 67 10000 9.3 210 09:39 12.11.2019
4567 Clouds 12 992 67 10000 6.7 200 09:19 12.11.2019
4568 Drizzle 13 992 77 10000 5.7 170 08:49 12.11.2019
4569 Drizzle 13 992 77 10000 5.7 170 08:29 12.11.2019
4570 Clouds 12 992 87 10000 3.1 210 07:42 12.11.2019
4571 Clouds 13 992 87 10000 3.1 210 07:24 12.11.2019
4572 Clouds 13 992 87 10000 4.1 320 06:53 12.11.2019
4573 Drizzle 12 993 87 10000 2.1 40 06:26 12.11.2019
4574 Clouds 12 994 93 10000 3.1 190 05:54 12.11.2019
4575 Clouds 12 994 93 10000 2.1 190 04:56 12.11.2019
4576 Clouds 12 994 87 10000 3.1 150 04:35 12.11.2019
4577 Rain 12 997 87 10000 4.1 90 02:39 12.11.2019
4578 Clouds 13 998 82 10000 1.5 140 01:27 12.11.2019
4579 Clouds 13 998 77 10000 1.5 140 00:57 12.11.2019
4580 Rain 12 1002 95 0 0.45 270 00:39 12.11.2019
4581 Clouds 13 1000 77 10000 3.1 200 23:56 11.11.2019
4582 Clouds 13 1000 77 10000 3.1 200 23:38 11.11.2019
4583 Clouds 12 1000 82 10000 2.6 160 23:19 11.11.2019
4584 Clouds 13 1001 77 10000 3.1 200 22:39 11.11.2019
4585 Clouds 13 1000 77 10000 4.6 80 22:20 11.11.2019
4586 Rain 12 1005 98 0 0.89 68 21:59 11.11.2019
4587 Rain 12 1005 98 0 1.34 90 21:39 11.11.2019
4588 Rain 12 1006 98 0 0.89 45 21:21 11.11.2019
4589 Rain 12 1002 85 0 0.89 200 20:59 11.11.2019
4590 Rain 12 1006 98 0 2.24 90 20:40 11.11.2019
4591 Rain 12 1006 98 0 3.13 90 20:19 11.11.2019
4592 Rain 12 1006 98 0 3.58 90 19:56 11.11.2019
4593 Rain 12 1006 98 0 2.24 45 19:37 11.11.2019
4594 Clouds 13 1001 72 10000 11.8 80 19:18 11.11.2019
4595 Clouds 12 1001 72 10000 14.4 90 18:41 11.11.2019
4596 Thunderstorm 12 1001 72 10000 14.4 90 18:21 11.11.2019
4597 Thunderstorm 12 1001 72 10000 14.4 90 17:59 11.11.2019
4598 Thunderstorm 12 1001 72 10000 12.9 80 17:40 11.11.2019
4599 Clouds 12 1001 77 10000 10.8 70 17:22 11.11.2019
4600 Thunderstorm 12 1002 67 10000 11.3 90 16:39 11.11.2019
4601 Thunderstorm 12 1006 87 10000 4.1 180 16:20 11.11.2019
4602 Thunderstorm 12 1006 87 10000 4.1 180 15:55 11.11.2019
4603 Rain 12 1007 87 9000 4.6 190 15:37 11.11.2019
4604 Thunderstorm 13 1007 87 8000 5.7 210 15:19 11.11.2019
4605 Thunderstorm 12 1008 82 8000 6.2 200 14:42 11.11.2019
4606 Thunderstorm 14 1007 82 8000 6.2 190 14:24 11.11.2019
4607 Thunderstorm 14 1008 82 8000 8.2 210 13:57 11.11.2019
4608 Thunderstorm 14 1008 82 8000 8.2 210 13:37 11.11.2019
4609 Thunderstorm 15 1008 77 10000 6.7 220 13:19 11.11.2019
4610 Thunderstorm 14 1008 77 10000 6.7 220 12:56 11.11.2019
4611 Thunderstorm 14 1008 68 10000 2.6 230 12:38 11.11.2019
4612 Clouds 14 1008 55 10000 1.5 0 12:19 11.11.2019
4613 Clouds 14 1008 55 10000 3.1 0 11:41 11.11.2019
4614 Clouds 14 1009 63 10000 2.1 160 11:22 11.11.2019
4615 Clouds 14 1009 63 10000 2.1 160 10:56 11.11.2019
4616 Clouds 15 1009 52 10000 2.6 250 10:38 11.11.2019
4617 Clouds 15 1009 67 10000 1 0 10:18 11.11.2019
4618 Clouds 14 1009 55 10000 3.6 170 09:43 11.11.2019
4619 Clouds 14 1009 63 10000 2.1 100 09:21 11.11.2019
4620 Clouds 13 1009 63 10000 2.1 100 08:59 11.11.2019
4621 Clouds 13 1009 72 10000 5.1 130 08:37 11.11.2019
4622 Rain 13 1010 72 10000 1.5 120 08:18 11.11.2019
4623 Rain 13 1009 55 10000 3.6 120 07:54 11.11.2019
4624 Rain 13 1009 55 10000 3.6 120 07:36 11.11.2019
4625 Rain 12 1009 55 10000 3.1 90 07:18 11.11.2019
4626 Rain 12 1009 59 10000 3.1 110 06:40 11.11.2019
4627 Clouds 12 1009 59 10000 3.1 130 06:20 11.11.2019
4628 Clouds 12 1009 59 10000 2.6 150 05:49 11.11.2019
4629 Clouds 13 1009 55 10000 3.6 170 03:56 11.11.2019
4630 Clouds 13 1010 55 10000 3.6 160 03:56 11.11.2019
4631 Clouds 13 1010 59 10000 3.6 150 02:55 11.11.2019
4632 Clouds 13 1010 59 10000 4.6 180 02:18 11.11.2019
4633 Clouds 13 1010 55 10000 7.2 170 01:51 11.11.2019
4634 Clouds 13 1010 55 10000 7.2 170 01:31 11.11.2019
4635 Clouds 14 1010 48 10000 10.3 190 00:41 11.11.2019
4636 Clouds 14 1010 48 10000 10.8 190 23:58 10.11.2019
4637 Clouds 14 1009 45 10000 10.3 190 23:38 10.11.2019
4638 Clouds 14 1009 45 10000 9.3 190 23:19 10.11.2019
4639 Clouds 14 1009 45 10000 9.3 190 22:57 10.11.2019
4640 Clouds 14 1009 45 10000 10.8 190 22:38 10.11.2019
4641 Clouds 14 1010 45 10000 8.7 180 22:20 10.11.2019
4642 Clouds 14 1010 45 10000 8.7 180 21:57 10.11.2019
4643 Clouds 14 1010 48 10000 8.2 180 21:38 10.11.2019
4644 Clouds 14 1010 51 10000 7.2 180 21:20 10.11.2019
4645 Clouds 14 1010 51 10000 7.2 180 21:20 10.11.2019
4646 Clouds 14 1010 51 10000 7.2 170 20:42 10.11.2019
4647 Clouds 14 1010 51 10000 6.7 180 20:22 10.11.2019
4648 Clouds 14 1010 51 10000 6.7 180 20:22 10.11.2019
4649 Clouds 14 1010 51 10000 6.7 180 19:56 10.11.2019
4650 Clouds 14 1010 48 10000 5.7 170 19:38 10.11.2019
4651 Clouds 14 1010 48 10000 5.7 170 19:38 10.11.2019
4652 Clouds 14 1010 48 10000 5.7 170 19:38 10.11.2019
4653 Clouds 14 1010 51 10000 6.2 180 19:19 10.11.2019
4654 Clouds 14 1010 51 10000 6.2 180 18:58 10.11.2019
4655 Clouds 14 1010 51 10000 6.2 180 18:58 10.11.2019
4656 Clouds 14 1009 55 10000 5.7 190 18:40 10.11.2019
4657 Clouds 14 1009 55 10000 5.7 170 18:20 10.11.2019
4658 Clouds 14 1009 55 10000 5.7 170 18:20 10.11.2019
4659 Clouds 14 1009 55 10000 5.7 170 17:57 10.11.2019
4660 Clouds 14 1009 52 10000 5.1 180 17:39 10.11.2019
4661 Clouds 14 1009 52 10000 4.6 170 17:20 10.11.2019
4662 Clouds 14 1009 52 10000 4.6 170 16:58 10.11.2019
4663 Clouds 15 1009 52 10000 6.7 180 16:40 10.11.2019
4664 Clouds 15 1009 52 10000 6.7 180 16:21 10.11.2019
4665 Clouds 15 1009 55 10000 4.6 180 15:56 10.11.2019
4666 Rain 15 1010 48 10000 5.1 190 15:37 10.11.2019
4667 Rain 15 1010 48 10000 5.1 190 15:37 10.11.2019
4668 Rain 15 1010 55 10000 5.7 190 15:18 10.11.2019
4669 Rain 15 1010 55 10000 5.7 190 14:55 10.11.2019
4670 Clouds 15 1010 55 10000 6.2 190 14:36 10.11.2019
4671 Clouds 15 1010 55 10000 7.7 200 14:18 10.11.2019
4672 Clouds 15 1010 59 10000 8.2 200 13:43 10.11.2019
4673 Clouds 15 1010 59 10000 8.2 200 13:21 10.11.2019
4674 Clouds 15 1010 63 10000 8.2 200 12:58 10.11.2019
4675 Clouds 15 1011 67 10000 6.7 210 12:40 10.11.2019
4676 Clouds 15 1011 63 10000 6.2 200 12:18 10.11.2019
4677 Clouds 15 1011 63 10000 6.2 200 11:54 10.11.2019
4678 Clouds 15 1012 67 10000 5.7 190 11:36 10.11.2019
4679 Clouds 14 1012 67 10000 7.2 190 11:18 10.11.2019
4680 Clouds 14 1012 59 10000 6.7 200 10:42 10.11.2019
4681 Clouds 14 1012 55 10000 6.2 190 10:20 10.11.2019
4682 Clouds 15 1012 55 10000 6.2 190 09:55 10.11.2019
4683 Clouds 14 1012 51 10000 6.7 200 09:37 10.11.2019
4684 Clouds 14 1011 55 10000 6.2 200 09:18 10.11.2019
4685 Clouds 13 1011 62 10000 6.7 200 08:39 10.11.2019
4686 Clouds 12 1011 62 10000 6.7 190 08:19 10.11.2019
4687 Clouds 11 1011 58 10000 5.7 190 07:44 10.11.2019
4688 Clouds 11 1011 67 10000 6.2 190 07:25 10.11.2019
4689 Clouds 11 1011 62 10000 7.2 190 06:54 10.11.2019
4690 Clouds 11 1011 59 10000 10.8 260 05:51 10.11.2019
4691 Clouds 11 1011 67 10000 11.8 260 03:28 10.11.2019
4692 Clouds 11 1011 59 10000 11.8 260 02:20 10.11.2019
4693 Rain 10 1011 71 10000 5.7 190 01:20 10.11.2019
4694 Clouds 11 1011 71 10000 6.7 200 00:48 10.11.2019
4695 Rain 11 1011 76 10000 7.7 200 00:23 10.11.2019
4696 Clouds 11 1011 76 10000 8.2 230 23:40 09.11.2019
4697 Rain 11 1011 67 8000 11.8 260 23:19 09.11.2019
4698 Thunderstorm 11 1011 67 10000 9.3 230 22:42 09.11.2019
4699 Thunderstorm 11 1011 67 10000 9.3 230 22:22 09.11.2019
4700 Rain 11 1011 72 9000 13.9 260 21:58 09.11.2019
4701 Clouds 11 1011 62 10000 9.8 210 21:39 09.11.2019
4702 Clouds 11 1011 62 10000 8.2 210 21:20 09.11.2019
4703 Clouds 11 1011 62 10000 8.2 210 20:56 09.11.2019
4704 Clouds 11 1011 71 10000 8.2 210 20:37 09.11.2019
4705 Rain 11 1010 67 10000 8.7 200 20:18 09.11.2019
4706 Rain 11 1011 62 8000 7.2 200 19:41 09.11.2019
4707 Clouds 12 1011 63 10000 10.8 230 19:22 09.11.2019
4708 Clouds 12 1011 63 10000 10.8 230 18:58 09.11.2019
4709 Clouds 11 1011 67 10000 8.7 200 18:39 09.11.2019
4710 Clouds 11 1010 71 10000 9.3 190 18:19 09.11.2019
4711 Clouds 12 1010 62 10000 8.2 190 17:43 09.11.2019
4712 Clouds 12 1011 71 10000 6.7 200 17:23 09.11.2019
4713 Clouds 12 1011 71 10000 6.7 200 16:59 09.11.2019
4714 Clouds 12 1011 67 10000 10.8 220 16:40 09.11.2019
4715 Rain 12 1011 63 10000 8.7 220 16:20 09.11.2019
4716 Clouds 13 1011 63 10000 9.8 220 15:43 09.11.2019
4717 Clouds 13 1011 63 10000 9.8 220 15:24 09.11.2019
4718 Clouds 13 1010 63 10000 9.8 230 14:59 09.11.2019
4719 Clouds 13 1011 72 10000 11.3 240 14:40 09.11.2019
4720 Clouds 13 1010 67 10000 11.3 230 14:18 09.11.2019
4721 Clouds 12 1010 67 10000 11.3 230 13:56 09.11.2019
4722 Clouds 13 1011 63 10000 11.3 240 13:36 09.11.2019
4723 Clouds 13 1011 67 10000 8.2 210 13:18 09.11.2019
4724 Clouds 13 1012 72 10000 7.7 200 12:42 09.11.2019
4725 Clouds 13 1012 72 10000 7.7 200 12:24 09.11.2019
4726 Clouds 13 1012 67 10000 6.2 190 11:56 09.11.2019
4727 Clouds 14 1012 63 10000 5.7 190 11:38 09.11.2019
4728 Clouds 14 1012 67 10000 8.2 190 11:18 09.11.2019
4729 Rain 14 1012 67 10000 6.7 190 10:41 09.11.2019
4730 Clouds 14 1012 63 10000 6.7 190 10:19 09.11.2019
4731 Clouds 14 1012 63 10000 6.7 190 09:56 09.11.2019
4732 Clouds 14 1012 63 10000 6.7 190 09:56 09.11.2019
4733 Clouds 15 1012 63 10000 6.2 190 09:38 09.11.2019
4734 Clouds 14 1012 67 10000 4.6 200 09:18 09.11.2019
4735 Clouds 13 1013 67 10000 4.6 190 08:43 09.11.2019
4736 Clouds 13 1013 67 10000 4.6 190 08:43 09.11.2019
4737 Clouds 13 1013 67 10000 4.6 190 08:24 09.11.2019
4738 Clouds 12 1012 72 10000 4.1 190 07:47 09.11.2019
4739 Clouds 12 1012 76 10000 3.1 190 07:24 09.11.2019
4740 Clouds 12 1012 82 10000 3.6 160 06:56 09.11.2019
4741 Clouds 12 1012 82 10000 3.6 160 06:38 09.11.2019
4742 Clouds 12 1012 82 10000 3.1 180 06:19 09.11.2019
4743 Clouds 12 1012 87 10000 3.1 160 05:37 09.11.2019
4744 Clouds 12 1012 93 10000 3.1 180 03:57 09.11.2019
4745 Clouds 12 1012 93 10000 3.1 180 03:57 09.11.2019
4746 Rain 12 1013 93 5000 6.2 210 02:45 09.11.2019
4747 Clouds 13 1012 87 10000 3.1 170 02:22 09.11.2019
4748 Clouds 13 1012 87 10000 4.1 160 00:57 09.11.2019
4749 Rain 13 1012 87 8000 4.1 150 00:39 09.11.2019
4750 Rain 13 1012 82 7000 6.7 230 00:20 09.11.2019
4751 Clouds 14 1012 77 10000 6.7 270 23:40 08.11.2019
4752 Clouds 14 1012 67 10000 4.1 220 23:21 08.11.2019
4753 Clouds 14 1012 72 10000 6.2 210 22:50 08.11.2019
4754 Clouds 14 1011 72 10000 4.6 210 22:22 08.11.2019
4755 Clouds 14 1011 72 10000 4.6 210 21:58 08.11.2019
4756 Clouds 14 1011 72 10000 6.2 200 21:40 08.11.2019
4757 Drizzle 14 1011 63 10000 7.2 200 21:22 08.11.2019
4758 Drizzle 15 1011 63 10000 7.2 200 20:57 08.11.2019
4759 Clouds 15 1011 63 10000 5.1 210 20:38 08.11.2019
4760 Clouds 15 1010 59 10000 6.2 180 20:18 08.11.2019
4761 Clouds 15 1010 59 10000 6.7 180 19:40 08.11.2019
4762 Clouds 15 1010 59 10000 7.7 190 19:19 08.11.2019
4763 Clouds 15 1010 59 10000 7.7 190 18:56 08.11.2019
4764 Clouds 15 1010 59 10000 7.2 180 18:38 08.11.2019
4765 Clouds 15 1010 59 10000 6.7 180 18:20 08.11.2019
4766 Clouds 15 1010 59 10000 5.7 190 17:56 08.11.2019
4767 Clouds 15 1010 59 10000 5.7 190 17:38 08.11.2019
4768 Clouds 16 1009 52 10000 5.7 180 17:20 08.11.2019
4769 Clouds 16 1009 52 10000 5.7 180 16:58 08.11.2019
4770 Clouds 16 1009 52 10000 5.7 180 16:58 08.11.2019
4771 Clouds 16 1009 52 10000 8.2 210 16:40 08.11.2019
4772 Clouds 16 1009 52 10000 8.2 210 16:40 08.11.2019
4773 Clouds 17 1009 52 10000 9.3 200 16:20 08.11.2019
4774 Clouds 17 1009 52 10000 9.3 200 15:59 08.11.2019
4775 Clouds 17 1009 52 10000 9.8 210 15:40 08.11.2019
4776 Clouds 18 1009 52 10000 9.8 210 15:22 08.11.2019
4777 Clouds 18 1009 52 10000 10.8 210 15:22 08.11.2019
4778 Clouds 18 1009 52 10000 10.8 210 14:56 08.11.2019
4779 Clouds 18 1008 52 10000 10.8 210 14:37 08.11.2019
4780 Clouds 18 1008 52 10000 10.8 210 14:37 08.11.2019
4781 Clouds 18 1008 52 10000 10.3 210 14:19 08.11.2019
4782 Clouds 18 1008 52 10000 10.3 210 13:58 08.11.2019
4783 Clouds 18 1009 52 10000 10.8 220 13:39 08.11.2019
4784 Clouds 18 1009 49 10000 9.8 210 13:20 08.11.2019
4785 Clouds 18 1009 52 10000 10.3 200 12:44 08.11.2019
4786 Clouds 18 1009 52 10000 10.3 200 12:26 08.11.2019
4787 Clouds 18 1009 52 10000 10.8 200 11:58 08.11.2019
4788 Clouds 18 1009 49 10000 9.8 200 11:39 08.11.2019
4789 Clouds 18 1009 49 10000 9.3 200 11:20 08.11.2019
4790 Clouds 18 1009 49 10000 9.3 200 10:57 08.11.2019
4791 Clouds 19 1009 56 10000 7.7 190 10:39 08.11.2019
4792 Clouds 19 1010 56 10000 7.2 200 10:21 08.11.2019
4793 Clouds 20 1010 56 10000 7.2 200 09:55 08.11.2019
4794 Clouds 19 1010 63 10000 7.2 200 09:36 08.11.2019
4795 Clouds 19 1010 59 10000 9.3 200 09:18 08.11.2019
4796 Clouds 19 1010 59 10000 8.7 200 08:41 08.11.2019
4797 Clouds 18 1009 63 10000 7.7 200 08:19 08.11.2019
4798 Clouds 18 1009 68 10000 7.2 200 07:41 08.11.2019
4799 Clouds 18 1009 68 10000 8.2 200 07:23 08.11.2019
4800 Clouds 18 1009 68 10000 8.2 190 06:43 08.11.2019
4801 Clear 18 1009 68 10000 7.2 190 06:25 08.11.2019
4802 Clear 18 1009 68 10000 7.2 190 05:57 08.11.2019
4803 Clouds 18 1009 63 10000 6.7 190 05:25 08.11.2019
4804 Clouds 17 1009 67 10000 6.2 190 04:19 08.11.2019
4805 Clouds 18 1009 63 10000 6.7 190 03:42 08.11.2019
4806 Clouds 18 1010 63 10000 6.2 200 02:55 08.11.2019
4807 Clear 16 1011 67 10000 4.6 190 01:50 08.11.2019
4808 Clear 16 1011 67 10000 4.6 190 01:32 08.11.2019
4809 Clouds 13 1011 67 10000 4.1 190 00:40 08.11.2019
4810 Clouds 13 1011 67 10000 4.6 190 00:20 08.11.2019
4811 Clouds 13 1011 67 10000 4.6 200 23:46 07.11.2019
4812 Clouds 13 1011 67 10000 4.6 200 23:27 07.11.2019
4813 Clouds 13 1011 72 10000 3.6 170 22:57 07.11.2019
4814 Clouds 13 1011 72 10000 3.1 180 22:37 07.11.2019
4815 Clouds 13 1011 72 10000 3.1 210 22:19 07.11.2019
4816 Clouds 13 1011 68 10000 4.1 230 21:39 07.11.2019
4817 Clouds 13 1011 55 10000 4.6 270 21:21 07.11.2019
4818 Clouds 13 1011 55 10000 4.6 270 20:59 07.11.2019
4819 Clouds 14 1011 59 10000 4.6 280 20:40 07.11.2019
4820 Clouds 14 1011 59 10000 4.6 280 20:40 07.11.2019
4821 Clouds 14 1011 55 10000 5.1 280 20:22 07.11.2019
4822 Clouds 14 1011 55 10000 5.1 280 19:58 07.11.2019
4823 Clouds 14 1011 59 10000 4.6 280 19:39 07.11.2019
4824 Clouds 14 1011 55 10000 5.7 280 19:20 07.11.2019
4825 Clouds 14 1011 55 10000 5.7 280 18:57 07.11.2019
4826 Clouds 14 1011 55 10000 4.1 290 18:38 07.11.2019
4827 Clouds 15 1011 55 10000 4.1 290 18:38 07.11.2019
4828 Clouds 14 1010 55 10000 4.6 300 18:19 07.11.2019
4829 Clouds 14 1010 55 10000 4.6 300 18:19 07.11.2019
4830 Clouds 15 1010 55 10000 4.6 300 17:56 07.11.2019
4831 Clouds 15 1011 59 10000 5.1 320 17:38 07.11.2019
4832 Clouds 15 1011 59 10000 5.1 320 17:20 07.11.2019
4833 Clouds 15 1010 55 10000 5.1 330 16:55 07.11.2019
4834 Clouds 16 1010 59 10000 4.6 320 16:37 07.11.2019
4835 Clouds 16 1010 59 10000 4.6 320 16:19 07.11.2019
4836 Clouds 16 1010 59 10000 5.7 320 15:40 07.11.2019
4837 Clouds 17 1010 59 10000 5.7 320 15:21 07.11.2019
4838 Clouds 17 1010 59 10000 4.6 350 14:58 07.11.2019
4839 Clouds 17 1010 55 10000 3.1 310 14:38 07.11.2019
4840 Clouds 17 1010 55 10000 3.1 310 14:20 07.11.2019
4841 Clouds 17 1009 55 10000 5.7 340 13:55 07.11.2019
4842 Clouds 17 1010 52 10000 5.7 330 13:37 07.11.2019
4843 Clouds 17 1010 52 10000 5.7 330 13:37 07.11.2019
4844 Clouds 17 1010 52 10000 5.7 330 13:19 07.11.2019
4845 Clouds 17 1010 52 10000 6.2 340 12:56 07.11.2019
4846 Clouds 17 1010 59 10000 5.7 340 12:38 07.11.2019
4847 Clouds 17 1010 59 10000 5.7 340 12:18 07.11.2019
4848 Clouds 16 1010 59 10000 5.1 330 11:42 07.11.2019
4849 Clouds 16 1010 59 10000 5.1 330 11:23 07.11.2019
4850 Clouds 16 1010 59 10000 5.1 330 11:23 07.11.2019
4851 Clouds 16 1010 59 10000 6.7 350 10:43 07.11.2019
4852 Clouds 16 1010 59 10000 6.7 350 10:20 07.11.2019
4853 Clouds 16 1010 59 10000 7.2 350 09:57 07.11.2019
4854 Clouds 16 1009 63 10000 6.7 350 09:38 07.11.2019
4855 Clouds 15 1009 63 10000 6.7 350 09:20 07.11.2019
4856 Clouds 15 1009 68 10000 6.2 350 08:46 07.11.2019
4857 Clouds 14 1009 77 10000 1 0 08:25 07.11.2019
4858 Clouds 14 1009 77 10000 1 0 08:25 07.11.2019
4859 Clouds 14 1009 72 10000 4.1 10 07:59 07.11.2019
4860 Clouds 14 1009 68 10000 9.3 340 07:40 07.11.2019
4861 Clouds 14 1009 68 10000 9.3 340 07:21 07.11.2019
4862 Rain 14 1008 77 9000 4.6 280 06:48 07.11.2019
4863 Clouds 14 1008 77 10000 3.1 180 06:28 07.11.2019
4864 Clouds 14 1008 82 10000 3.1 170 05:53 07.11.2019
4865 Clouds 14 1008 77 10000 3.6 180 05:34 07.11.2019
4866 Rain 14 1008 77 10000 4.1 210 04:57 07.11.2019
4867 Rain 14 1008 72 10000 7.7 260 04:38 07.11.2019
4868 Clouds 14 1008 82 10000 3.6 170 02:57 07.11.2019
4869 Rain 14 1008 77 10000 5.1 190 00:47 07.11.2019
4870 Clouds 14 1009 77 10000 3.6 180 00:19 07.11.2019
4871 Clouds 14 1009 82 10000 2.6 190 23:47 06.11.2019
4872 Clouds 14 1009 82 10000 2.6 190 23:22 06.11.2019
4873 Clouds 14 1008 72 10000 2.6 190 22:56 06.11.2019
4874 Clouds 14 1008 77 10000 3.1 180 22:37 06.11.2019
4875 Clouds 14 1008 77 10000 3.1 180 22:18 06.11.2019
4876 Clouds 14 1008 77 10000 3.1 180 21:42 06.11.2019
4877 Clouds 14 1009 77 10000 3.1 180 21:21 06.11.2019
4878 Clouds 14 1008 82 10000 3.1 190 20:59 06.11.2019
4879 Clouds 14 1008 82 10000 1.5 180 20:40 06.11.2019
4880 Clouds 14 1008 82 10000 1.5 180 20:22 06.11.2019
4881 Clouds 14 1008 82 10000 3.6 160 19:59 06.11.2019
4882 Clouds 14 1009 82 10000 3.6 160 19:40 06.11.2019
4883 Clouds 14 1009 82 10000 3.6 160 19:21 06.11.2019
4884 Clouds 14 1009 77 10000 4.6 200 18:58 06.11.2019
4885 Clouds 14 1009 77 10000 4.6 200 18:39 06.11.2019
4886 Drizzle 14 1008 82 10000 3.1 180 18:19 06.11.2019
4887 Drizzle 14 1008 82 10000 3.1 180 17:57 06.11.2019
4888 Clouds 14 1008 82 10000 3.6 200 17:39 06.11.2019
4889 Clouds 14 1008 82 10000 1.5 170 17:21 06.11.2019
4890 Clouds 14 1008 82 10000 1.5 170 16:55 06.11.2019
4891 Clouds 14 1008 82 10000 2.6 150 16:37 06.11.2019
4892 Clouds 14 1008 82 10000 2.1 170 16:18 06.11.2019
4893 Drizzle 15 1008 72 10000 4.1 160 15:54 06.11.2019
4894 Drizzle 15 1008 72 10000 4.1 160 15:36 06.11.2019
4895 Rain 15 1008 77 9000 3.1 160 15:18 06.11.2019
4896 Rain 15 1008 77 9000 3.1 160 14:55 06.11.2019
4897 Rain 15 1009 77 9000 3.1 190 14:37 06.11.2019
4898 Clouds 15 1008 72 10000 3.1 180 14:19 06.11.2019
4899 Clouds 15 1008 77 10000 4.1 190 13:40 06.11.2019
4900 Clouds 15 1008 77 10000 4.1 190 13:22 06.11.2019
4901 Clouds 15 1008 77 10000 3.6 170 12:58 06.11.2019
4902 Rain 15 1009 82 9000 4.6 210 12:39 06.11.2019
4903 Rain 15 1009 82 9000 4.6 210 12:39 06.11.2019
4904 Rain 14 1010 82 9000 5.7 200 12:21 06.11.2019
4905 Rain 15 1010 82 9000 5.7 200 11:58 06.11.2019
4906 Rain 15 1010 82 9000 4.1 220 11:38 06.11.2019
4907 Rain 15 1011 82 9000 4.1 180 11:18 06.11.2019
4908 Rain 15 1011 82 9000 4.1 180 10:56 06.11.2019
4909 Rain 15 1011 87 10000 3.6 170 10:38 06.11.2019
4910 Clouds 15 1011 72 9000 3.1 220 10:19 06.11.2019
4911 Clouds 16 1011 72 9000 3.1 220 09:56 06.11.2019
4912 Clouds 16 1011 77 10000 3.6 190 09:36 06.11.2019
4913 Clouds 16 1010 82 10000 3.6 200 09:18 06.11.2019
4914 Clouds 15 1010 82 10000 3.6 200 08:54 06.11.2019
4915 Clouds 15 1011 82 9000 5.1 260 08:36 06.11.2019
4916 Clouds 15 1011 72 10000 3.6 280 08:18 06.11.2019
4917 Clouds 15 1010 68 10000 3.6 280 07:40 06.11.2019
4918 Clouds 16 1010 68 10000 7.2 280 07:21 06.11.2019
4919 Clouds 16 1010 77 10000 9.8 280 06:45 06.11.2019
4920 Rain 16 1010 77 8000 10.8 280 06:25 06.11.2019
4921 Clouds 17 1009 72 10000 2.6 170 04:52 06.11.2019
4922 Clouds 17 1010 68 10000 4.1 200 02:22 06.11.2019
4923 Clouds 17 1010 68 10000 3.1 190 01:38 06.11.2019
4924 Clouds 17 1010 64 10000 4.1 190 00:39 06.11.2019
4925 Clouds 17 1010 64 10000 4.6 190 23:58 05.11.2019
4926 Clouds 17 1010 60 10000 4.6 200 23:39 05.11.2019
4927 Clouds 17 1010 60 10000 4.6 200 23:39 05.11.2019
4928 Clouds 18 1010 60 10000 4.6 190 23:21 05.11.2019
4929 Clouds 18 1010 64 10000 5.7 190 22:46 05.11.2019
4930 Clouds 18 1010 68 10000 5.7 200 22:20 05.11.2019
4931 Clouds 18 1010 68 10000 5.7 200 21:59 05.11.2019
4932 Clouds 18 1010 68 10000 5.1 200 21:41 05.11.2019
4933 Clouds 18 1010 68 10000 5.1 200 21:21 05.11.2019
4934 Clouds 18 1010 68 10000 5.1 200 20:58 05.11.2019
4935 Clouds 18 1010 77 10000 5.1 210 20:38 05.11.2019
4936 Clouds 18 1010 77 10000 5.1 190 20:20 05.11.2019
4937 Clouds 18 1010 77 10000 5.1 190 19:57 05.11.2019
4938 Clouds 19 1010 73 10000 5.7 210 19:38 05.11.2019
4939 Clouds 19 1010 73 10000 5.7 210 19:38 05.11.2019
4940 Clouds 19 1010 73 10000 5.1 220 19:20 05.11.2019
4941 Clouds 19 1010 73 10000 5.1 220 18:57 05.11.2019
4942 Clouds 19 1009 68 10000 5.1 200 18:39 05.11.2019
4943 Clouds 19 1009 68 10000 6.7 210 18:20 05.11.2019
4944 Clouds 19 1009 68 10000 6.7 210 18:20 05.11.2019
4945 Clouds 19 1009 68 10000 6.7 210 17:57 05.11.2019
4946 Clouds 19 1009 68 10000 7.7 220 17:38 05.11.2019
4947 Clouds 19 1008 64 10000 9.3 210 17:18 05.11.2019
4948 Clouds 20 1008 60 10000 10.3 210 16:54 05.11.2019
4949 Clouds 20 1008 60 10000 10.3 210 16:36 05.11.2019
4950 Clouds 20 1008 57 10000 8.7 210 16:18 05.11.2019
4951 Clouds 21 1008 53 10000 9.8 200 15:37 05.11.2019
4952 Clouds 22 1007 53 10000 10.3 190 15:19 05.11.2019
4953 Clouds 22 1007 53 10000 10.3 190 14:57 05.11.2019
4954 Clouds 21 1007 57 10000 10.8 200 14:38 05.11.2019
4955 Clouds 21 1008 57 10000 10.8 200 14:19 05.11.2019
4956 Clouds 21 1008 60 10000 14.9 210 13:43 05.11.2019
4957 Clouds 21 1008 60 10000 14.9 210 13:24 05.11.2019
4958 Clouds 21 1008 60 10000 14.9 210 12:59 05.11.2019
4959 Clouds 22 1008 64 10000 14.9 210 12:39 05.11.2019
4960 Clouds 22 1008 60 10000 14.9 200 12:19 05.11.2019
4961 Clouds 21 1008 60 10000 16.5 210 11:55 05.11.2019
4962 Clouds 22 1008 60 10000 16.5 210 11:36 05.11.2019
4963 Clouds 21 1009 60 10000 15.9 200 11:18 05.11.2019
4964 Clouds 21 1009 64 10000 13.4 200 10:42 05.11.2019
4965 Clouds 20 1009 64 10000 13.4 200 10:23 05.11.2019
4966 Clouds 20 1009 64 10000 13.4 200 09:57 05.11.2019
4967 Clouds 20 1009 64 10000 13.4 200 09:57 05.11.2019
4968 Clouds 20 1009 60 10000 13.9 200 09:38 05.11.2019
4969 Clouds 20 1008 64 10000 12.3 190 09:19 05.11.2019
4970 Clouds 19 1008 64 10000 12.3 190 08:54 05.11.2019
4971 Clouds 19 1009 64 10000 8.2 180 08:36 05.11.2019
4972 Clouds 19 1010 64 10000 10.3 170 08:18 05.11.2019
4973 Clouds 18 1009 64 10000 12.9 180 07:42 05.11.2019
4974 Clouds 18 1009 64 10000 12.9 180 07:23 05.11.2019
4975 Clear 18 1009 64 10000 10.8 200 06:51 05.11.2019
4976 Clear 17 1010 68 10000 8.7 200 05:52 05.11.2019
4977 Clear 17 1010 68 10000 8.7 200 05:34 05.11.2019
4978 Clear 17 1010 77 10000 9.3 190 04:47 05.11.2019
4979 Clear 17 1011 72 10000 7.2 190 04:18 05.11.2019
4980 Clear 17 1011 72 10000 7.7 190 03:23 05.11.2019
4981 Clear 17 1012 68 10000 6.7 190 02:41 05.11.2019
4982 Clear 17 1012 72 10000 7.7 200 01:48 05.11.2019
4983 Clouds 17 1012 68 10000 6.7 190 00:39 05.11.2019
4984 Clouds 17 1012 68 10000 5.7 200 00:18 05.11.2019
4985 Clouds 17 1012 64 10000 5.7 200 23:41 04.11.2019
4986 Clouds 17 1012 68 10000 6.7 210 23:18 04.11.2019
4987 Clouds 17 1012 68 10000 6.7 210 22:55 04.11.2019
4988 Clouds 16 1012 68 10000 6.2 200 22:36 04.11.2019
4989 Clouds 16 1012 68 10000 6.2 190 22:18 04.11.2019
4990 Clouds 16 1012 68 10000 6.2 200 21:54 04.11.2019
4991 Clouds 16 1012 68 10000 6.2 200 21:36 04.11.2019
4992 Clouds 16 1012 68 10000 6.7 200 21:18 04.11.2019
4993 Clouds 16 1012 68 10000 6.7 200 20:54 04.11.2019
4994 Clouds 17 1012 64 10000 6.2 190 20:36 04.11.2019
4995 Clouds 16 1012 64 10000 5.7 190 20:18 04.11.2019
4996 Clouds 16 1012 60 10000 5.7 190 19:42 04.11.2019
4997 Clouds 17 1012 64 10000 6.2 200 19:23 04.11.2019
4998 Clouds 17 1012 64 10000 6.2 200 18:58 04.11.2019
4999 Clouds 17 1012 64 10000 5.7 200 18:39 04.11.2019
5000 Clouds 17 1011 64 10000 5.7 220 18:21 04.11.2019
5001 Clouds 17 1011 64 10000 5.7 220 17:56 04.11.2019
5002 Clouds 17 1011 68 10000 6.7 240 17:36 04.11.2019
5003 Clouds 18 1011 64 10000 7.2 250 17:18 04.11.2019
5004 Clouds 18 1011 64 10000 6.7 240 16:42 04.11.2019
5005 Clouds 19 1011 64 10000 7.7 260 16:24 04.11.2019
5006 Clouds 19 1011 64 10000 7.7 260 15:58 04.11.2019
5007 Clouds 19 1011 68 10000 7.7 250 15:40 04.11.2019
5008 Clouds 19 1010 64 10000 7.7 240 15:21 04.11.2019
5009 Clouds 19 1010 64 10000 7.7 240 14:58 04.11.2019
5010 Clouds 20 1010 60 10000 8.2 260 14:39 04.11.2019
5011 Clouds 20 1010 60 10000 8.2 250 14:20 04.11.2019
5012 Clouds 20 1010 60 10000 8.2 250 13:57 04.11.2019
5013 Clouds 20 1011 60 10000 8.7 260 13:39 04.11.2019
5014 Clouds 20 1011 60 10000 8.2 260 13:20 04.11.2019
5015 Clouds 20 1011 60 10000 8.2 260 12:55 04.11.2019
5016 Clouds 20 1011 60 10000 8.2 260 12:55 04.11.2019
5017 Clouds 19 1010 64 10000 10.3 260 12:36 04.11.2019
5018 Clouds 19 1011 60 10000 8.2 260 12:18 04.11.2019
5019 Clouds 20 1011 60 10000 7.2 250 11:42 04.11.2019
5020 Clouds 19 1011 60 10000 7.2 250 11:23 04.11.2019
5021 Clouds 19 1011 64 10000 6.2 240 10:56 04.11.2019
5022 Clouds 19 1011 60 10000 6.2 260 10:38 04.11.2019
5023 Clouds 19 1011 60 10000 7.2 260 10:18 04.11.2019
5024 Clouds 18 1010 60 10000 8.2 270 09:44 04.11.2019
5025 Clouds 18 1010 60 10000 8.2 270 09:26 04.11.2019
5026 Clouds 18 1010 68 10000 8.2 270 08:56 04.11.2019
5027 Clouds 18 1010 60 10000 7.7 270 08:37 04.11.2019
5028 Clouds 16 1010 64 10000 8.7 270 08:18 04.11.2019
5029 Clouds 16 1009 68 10000 9.3 270 07:42 04.11.2019
5030 Clouds 16 1008 64 10000 9.3 270 07:20 04.11.2019
5031 Clouds 16 1008 64 10000 9.8 270 06:49 04.11.2019
5032 Clouds 16 1007 68 10000 10.3 270 06:18 04.11.2019
5033 Clouds 16 1007 68 10000 10.3 270 05:37 04.11.2019
5034 Clouds 16 1006 72 10000 13.4 260 04:41 04.11.2019
5035 Clouds 17 1006 73 10000 8.7 240 03:48 04.11.2019
5036 Rain 18 1005 72 10000 8.7 190 01:45 04.11.2019
5037 Rain 17 1005 77 10000 8.7 200 01:19 04.11.2019
5038 Rain 17 1006 77 10000 7.2 200 00:39 04.11.2019
5039 Rain 17 1006 77 10000 10.8 220 00:19 04.11.2019
5040 Clouds 18 1006 73 10000 10.8 230 23:40 03.11.2019
5041 Rain 18 1005 64 10000 9.3 200 23:21 03.11.2019
5042 Rain 18 1005 64 10000 9.3 200 22:57 03.11.2019
5043 Clouds 18 1005 56 10000 7.7 190 22:39 03.11.2019
5044 Clouds 18 1005 56 10000 7.7 200 22:19 03.11.2019
5045 Clouds 18 1005 64 10000 7.2 200 21:44 03.11.2019
5046 Rain 19 1005 68 10000 8.7 190 21:22 03.11.2019
5047 Rain 19 1005 68 10000 8.7 190 20:59 03.11.2019
5048 Clouds 19 1005 68 10000 8.2 190 20:38 03.11.2019
5049 Clouds 19 1005 68 10000 8.2 190 20:38 03.11.2019
5050 Clouds 20 1005 64 10000 7.7 190 20:20 03.11.2019
5051 Clouds 19 1005 64 10000 7.7 190 19:58 03.11.2019
5052 Clouds 20 1006 68 10000 7.2 190 19:39 03.11.2019
5053 Clouds 19 1006 68 10000 8.2 190 19:21 03.11.2019
5054 Clouds 19 1006 68 10000 8.2 190 18:59 03.11.2019
5055 Clouds 19 1006 68 10000 7.7 200 18:38 03.11.2019
5056 Clouds 19 1005 68 10000 7.7 200 18:18 03.11.2019
5057 Clouds 19 1005 68 10000 7.7 200 17:56 03.11.2019
5058 Clouds 19 1005 68 10000 8.7 190 17:37 03.11.2019
5059 Clouds 19 1005 68 10000 7.7 190 17:18 03.11.2019
5060 Clouds 19 1005 68 10000 8.7 200 16:54 03.11.2019
5061 Clouds 19 1005 68 10000 8.7 200 16:36 03.11.2019
5062 Clouds 19 1005 64 10000 7.2 190 16:18 03.11.2019
5063 Clouds 20 1004 64 10000 8.2 190 15:43 03.11.2019
5064 Clouds 20 1005 60 10000 8.7 190 15:24 03.11.2019
5065 Clouds 20 1005 60 10000 8.7 190 14:56 03.11.2019
5066 Clouds 20 1005 60 10000 10.3 200 14:38 03.11.2019
5067 Clouds 21 1005 60 10000 10.3 200 14:18 03.11.2019
5068 Clouds 21 1005 64 10000 9.8 200 13:43 03.11.2019
5069 Clouds 21 1005 69 10000 10.8 200 13:20 03.11.2019
5070 Clouds 21 1005 69 10000 10.8 200 12:58 03.11.2019
5071 Clouds 21 1006 64 10000 10.3 200 12:37 03.11.2019
5072 Clouds 20 1006 64 10000 9.8 190 12:19 03.11.2019
5073 Clouds 21 1006 64 10000 11.3 190 11:44 03.11.2019
5074 Clouds 20 1007 64 10000 9.3 200 11:22 03.11.2019
5075 Clouds 21 1007 64 10000 9.3 200 10:58 03.11.2019
5076 Clouds 20 1007 68 10000 10.3 200 10:40 03.11.2019
5077 Clouds 20 1007 64 10000 7.2 190 10:22 03.11.2019
5078 Clouds 20 1007 64 10000 7.2 190 09:56 03.11.2019
5079 Clouds 20 1007 64 10000 7.2 200 09:38 03.11.2019
5080 Clouds 20 1007 60 10000 6.7 200 09:20 03.11.2019
5081 Clouds 19 1007 56 10000 6.2 200 08:39 03.11.2019
5082 Clouds 19 1007 60 10000 8.2 190 08:20 03.11.2019
5083 Clouds 19 1007 60 10000 8.2 190 07:45 03.11.2019
5084 Clouds 18 1007 60 10000 8.2 190 07:24 03.11.2019
5085 Clouds 18 1007 64 10000 8.2 190 06:49 03.11.2019
5086 Clouds 18 1007 64 10000 8.2 190 06:30 03.11.2019
5087 Clouds 18 1008 64 10000 8.2 190 05:39 03.11.2019
5088 Clouds 18 1008 64 10000 10.3 190 04:56 03.11.2019
5089 Clouds 18 1008 64 10000 10.3 190 04:33 03.11.2019
5090 Clouds 17 1008 64 10000 9.3 200 03:31 03.11.2019
5091 Clouds 17 1008 64 10000 11.3 190 02:42 03.11.2019
5092 Clouds 18 1009 56 10000 11.3 190 02:19 03.11.2019
5093 Clouds 17 1010 60 10000 9.3 200 01:38 03.11.2019
5094 Clouds 17 1010 60 10000 10.3 200 01:20 03.11.2019
5095 Clouds 17 1010 60 10000 9.3 200 00:43 03.11.2019
5096 Clouds 17 1010 56 10000 9.8 190 00:25 03.11.2019
5097 Clouds 17 1011 56 10000 8.2 190 23:57 02.11.2019
5098 Clouds 17 1011 56 10000 8.2 190 23:38 02.11.2019
5099 Clouds 16 1011 64 10000 9.3 190 23:19 02.11.2019
5100 Clouds 16 1011 64 10000 9.3 190 23:19 02.11.2019
5101 Clouds 16 1011 64 10000 8.7 200 22:55 02.11.2019
5102 Clouds 16 1011 64 10000 8.7 200 22:37 02.11.2019
5103 Clouds 16 1011 68 10000 6.7 190 22:18 02.11.2019
5104 Clouds 16 1011 68 10000 6.7 190 21:56 02.11.2019
5105 Clouds 16 1011 68 10000 6.7 190 21:38 02.11.2019
5106 Clouds 16 1011 68 10000 7.7 190 21:18 02.11.2019
5107 Clouds 16 1011 68 10000 7.7 190 21:18 02.11.2019
5108 Clouds 16 1011 68 10000 7.7 190 20:58 02.11.2019
5109 Clouds 16 1011 72 10000 7.2 200 20:39 02.11.2019
5110 Clouds 16 1012 72 10000 6.7 190 20:19 02.11.2019
5111 Clouds 16 1012 72 10000 5.1 190 19:41 02.11.2019
5112 Clouds 16 1012 72 10000 5.1 190 19:23 02.11.2019
5113 Clouds 16 1012 72 10000 5.1 190 18:57 02.11.2019
5114 Clouds 17 1012 72 10000 5.7 190 18:38 02.11.2019
5115 Clouds 17 1011 72 10000 4.6 180 18:20 02.11.2019
5116 Clouds 17 1011 68 10000 5.7 200 17:58 02.11.2019
5117 Clouds 17 1011 68 10000 5.7 200 17:39 02.11.2019
5118 Clouds 18 1011 68 10000 4.6 250 17:21 02.11.2019
5119 Clouds 18 1011 68 10000 2.6 250 16:57 02.11.2019
5120 Clouds 19 1011 68 10000 2.6 250 16:36 02.11.2019
5121 Clouds 19 1011 64 10000 2.6 260 16:18 02.11.2019
5122 Clouds 19 1011 64 10000 3.1 260 15:42 02.11.2019
5123 Clouds 20 1011 64 10000 3.1 250 15:20 02.11.2019
5124 Clouds 20 1011 64 10000 3.6 250 14:43 02.11.2019
5125 Clouds 20 1011 64 10000 3.6 250 14:24 02.11.2019
5126 Clouds 20 1011 64 10000 3.6 250 13:58 02.11.2019
5127 Clouds 20 1011 64 10000 3.6 250 13:58 02.11.2019
5128 Clouds 20 1012 64 10000 3.6 250 13:39 02.11.2019
5129 Clouds 20 1012 68 10000 4.1 250 13:19 02.11.2019
5130 Clouds 20 1012 68 10000 4.1 240 12:41 02.11.2019
5131 Clouds 20 1012 68 10000 4.1 240 12:23 02.11.2019
5132 Clouds 20 1012 68 10000 4.1 230 11:59 02.11.2019
5133 Clouds 20 1013 68 10000 4.6 230 11:40 02.11.2019
5134 Clouds 20 1013 68 10000 5.1 230 11:22 02.11.2019
5135 Clouds 20 1013 68 10000 4.6 200 10:55 02.11.2019
5136 Clouds 20 1013 68 10000 4.6 200 10:36 02.11.2019
5137 Clouds 19 1013 68 10000 5.1 210 10:18 02.11.2019
5138 Clouds 19 1013 68 10000 5.7 210 09:40 02.11.2019
5139 Clouds 18 1013 77 10000 4.6 220 09:21 02.11.2019
5140 Clouds 17 1013 72 10000 2.6 200 08:50 02.11.2019
5141 Clouds 16 1013 77 10000 3.6 190 08:23 02.11.2019
5142 Clouds 15 1012 77 10000 3.1 190 07:52 02.11.2019
5143 Clouds 15 1012 77 10000 3.1 190 07:33 02.11.2019
5144 Clouds 14 1012 77 10000 3.1 190 06:59 02.11.2019
5145 Clouds 14 1012 77 10000 2.1 180 06:41 02.11.2019
5146 Clouds 14 1012 82 10000 3.1 200 06:21 02.11.2019
5147 Clear 14 1012 77 10000 3.1 200 05:38 02.11.2019
5148 Clear 14 1012 77 10000 3.1 190 04:24 02.11.2019
5149 Clear 14 1012 82 10000 3.1 200 03:51 02.11.2019
5150 Clear 14 1013 82 10000 3.1 200 02:50 02.11.2019
5151 Clouds 14 1013 77 10000 3.1 200 01:57 02.11.2019
5152 Clouds 14 1013 82 10000 2.6 180 01:27 02.11.2019
5153 Clouds 14 1013 82 10000 2.6 170 00:55 02.11.2019
5154 Clouds 14 1013 82 10000 2.1 170 00:29 02.11.2019
5155 Clouds 14 1013 77 10000 2.6 160 23:56 01.11.2019
5156 Clouds 14 1013 82 10000 3.1 160 23:37 01.11.2019
5157 Clouds 14 1013 82 10000 3.1 160 23:19 01.11.2019
5158 Clouds 14 1013 82 10000 2.6 150 22:42 01.11.2019
5159 Clouds 14 1014 77 10000 2.6 160 22:20 01.11.2019
5160 Clouds 14 1014 82 10000 2.6 170 21:43 01.11.2019
5161 Clouds 14 1014 82 10000 2.6 170 21:43 01.11.2019
5162 Clouds 14 1013 82 10000 1.5 190 21:24 01.11.2019
5163 Clouds 14 1013 82 10000 1.5 190 20:59 01.11.2019
5164 Clouds 14 1013 82 10000 1.5 180 20:41 01.11.2019
5165 Clouds 15 1013 82 10000 1.5 180 20:22 01.11.2019
5166 Clouds 15 1013 82 10000 2.1 180 19:59 01.11.2019
5167 Clouds 15 1013 82 10000 2.1 170 19:40 01.11.2019
5168 Clouds 15 1013 72 10000 3.6 220 19:21 01.11.2019
5169 Clouds 16 1013 72 10000 3.1 190 18:41 01.11.2019
5170 Clouds 16 1013 72 10000 3.1 200 18:21 01.11.2019
5171 Clouds 16 1013 72 10000 3.1 200 17:58 01.11.2019
5172 Clouds 16 1013 72 10000 3.6 210 17:40 01.11.2019
5173 Clouds 16 1012 68 10000 3.6 210 17:22 01.11.2019
5174 Clouds 17 1012 68 10000 3.6 210 16:40 01.11.2019
5175 Clouds 17 1012 64 10000 5.1 220 16:20 01.11.2019
5176 Clouds 17 1012 64 10000 5.1 220 15:56 01.11.2019
5177 Clouds 17 1012 72 10000 4.1 220 15:38 01.11.2019
5178 Clouds 17 1012 68 10000 5.1 210 15:20 01.11.2019
5179 Clouds 18 1012 68 10000 4.6 200 14:44 01.11.2019
5180 Clouds 18 1012 68 10000 4.6 200 14:25 01.11.2019
5181 Clouds 18 1012 72 10000 5.7 210 13:59 01.11.2019
5182 Clouds 18 1012 72 10000 5.7 220 13:40 01.11.2019
5183 Clouds 17 1013 72 10000 6.2 210 13:21 01.11.2019
5184 Clouds 17 1013 72 10000 5.1 210 12:55 01.11.2019
5185 Clouds 17 1013 72 10000 5.1 210 12:37 01.11.2019
5186 Clouds 16 1013 77 10000 5.7 210 12:18 01.11.2019
5187 Clouds 16 1014 68 10000 3.6 200 11:41 01.11.2019
5188 Clouds 16 1014 72 10000 5.1 210 11:23 01.11.2019
5189 Clouds 16 1014 68 10000 5.1 190 10:43 01.11.2019
5190 Clouds 16 1013 82 10000 4.1 200 10:25 01.11.2019
5191 Clouds 16 1013 82 10000 4.1 200 09:59 01.11.2019
5192 Clouds 16 1013 72 10000 5.1 190 09:41 01.11.2019
5193 Clouds 16 1013 72 10000 4.6 200 09:21 01.11.2019
5194 Clouds 16 1013 77 10000 3.6 190 08:46 01.11.2019
5195 Rain 15 1013 82 10000 3.1 190 08:23 01.11.2019
5196 Rain 15 1013 82 10000 3.1 190 07:58 01.11.2019
5197 Rain 15 1014 88 10000 3.6 180 07:40 01.11.2019
5198 Rain 15 1014 82 10000 5.1 180 07:21 01.11.2019
5199 Rain 16 1013 82 10000 7.2 210 06:49 01.11.2019
5200 Rain 16 1013 72 10000 5.7 190 06:22 01.11.2019
5201 Clouds 16 1013 77 10000 5.1 190 05:44 01.11.2019
5202 Clouds 16 1013 82 10000 4.1 210 04:39 01.11.2019
5203 Rain 16 1014 93 10000 2.6 190 03:32 01.11.2019
5204 Thunderstorm 16 1016 77 10000 4.6 200 01:46 01.11.2019
5205 Thunderstorm 16 1015 72 10000 4.6 200 00:58 01.11.2019
5206 Clouds 16 1016 72 10000 3.6 190 00:20 01.11.2019
5207 Clouds 16 1016 77 10000 3.6 160 23:44 31.10.2019
5208 Clouds 16 1016 77 10000 3.6 180 23:23 31.10.2019
5209 Clouds 16 1016 77 10000 3.6 180 22:58 31.10.2019
5210 Clouds 16 1017 82 10000 3.6 200 22:40 31.10.2019
5211 Clouds 17 1017 82 10000 2.6 180 22:21 31.10.2019
5212 Clouds 16 1017 88 10000 3.1 180 21:45 31.10.2019
5213 Clouds 16 1017 82 10000 2.6 180 21:23 31.10.2019
5214 Clouds 17 1017 82 10000 2.6 180 20:59 31.10.2019
5215 Clouds 17 1017 82 10000 2.1 170 20:40 31.10.2019
5216 Clouds 17 1017 77 10000 2.6 240 20:22 31.10.2019
5217 Clouds 17 1017 77 10000 4.1 260 19:45 31.10.2019
5218 Clouds 17 1017 77 10000 4.1 260 19:27 31.10.2019
5219 Clouds 18 1017 77 10000 4.1 270 18:59 31.10.2019
5220 Clouds 18 1017 77 10000 4.6 280 18:39 31.10.2019
5221 Clouds 18 1017 77 10000 5.1 270 18:21 31.10.2019
5222 Clouds 18 1017 77 10000 5.1 270 18:21 31.10.2019
5223 Clouds 18 1017 78 10000 6.2 280 17:55 31.10.2019
5224 Clouds 19 1017 78 10000 6.2 280 17:36 31.10.2019
5225 Clouds 19 1017 73 10000 6.2 280 17:18 31.10.2019
5226 Clouds 20 1017 73 10000 5.1 290 16:41 31.10.2019
5227 Clouds 20 1017 78 10000 3.1 290 16:20 31.10.2019
5228 Clouds 21 1017 78 10000 3.1 290 15:58 31.10.2019
5229 Clouds 21 1017 78 10000 2.6 300 15:40 31.10.2019
5230 Clouds 21 1017 68 10000 2.6 290 15:20 31.10.2019
5231 Clouds 21 1017 68 10000 2.6 290 14:57 31.10.2019
5232 Clouds 21 1017 73 10000 3.1 290 14:39 31.10.2019
5233 Clear 21 1017 73 10000 2.6 290 14:20 31.10.2019
5234 Clear 21 1017 73 10000 2.6 290 13:57 31.10.2019
5235 Clear 21 1017 73 10000 2.6 290 13:38 31.10.2019
5236 Clear 21 1018 73 10000 3.6 290 13:19 31.10.2019
5237 Clear 21 1018 73 10000 3.6 290 12:55 31.10.2019
5238 Clear 21 1018 73 10000 4.1 280 12:37 31.10.2019
5239 Clouds 21 1019 73 10000 3.1 270 12:18 31.10.2019
5240 Clouds 21 1019 73 10000 2.6 270 11:44 31.10.2019
5241 Clouds 20 1019 73 10000 2.1 260 11:20 31.10.2019
5242 Clouds 20 1019 73 10000 2.1 260 10:57 31.10.2019
5243 Clouds 20 1019 73 10000 1.5 260 10:38 31.10.2019
5244 Clear 20 1019 73 10000 1.5 260 10:20 31.10.2019
5245 Clear 18 1019 73 10000 1.5 200 09:45 31.10.2019
5246 Clear 18 1019 73 10000 1 0 09:20 31.10.2019
5247 Clear 18 1019 73 10000 1 0 08:57 31.10.2019
5248 Clear 17 1019 82 10000 2.1 150 08:39 31.10.2019
5249 Clouds 16 1018 88 10000 2.6 150 08:20 31.10.2019
5250 Clouds 16 1018 88 10000 2.1 140 07:45 31.10.2019
5251 Rain 15 1018 88 10000 2.1 140 07:24 31.10.2019
5252 Rain 15 1018 88 10000 2.1 140 06:52 31.10.2019
5253 Clouds 15 1018 88 10000 2.1 140 06:30 31.10.2019
5254 Clouds 16 1018 82 10000 2.1 180 05:19 31.10.2019
5255 Clouds 16 1019 88 10000 2.1 150 02:49 31.10.2019
5256 Clouds 16 1019 88 10000 2.1 150 02:25 31.10.2019
5257 Clouds 16 1019 88 10000 2.1 150 02:25 31.10.2019
5258 Clouds 16 1019 88 10000 2.1 160 01:20 31.10.2019
5259 Clouds 16 1019 82 10000 1.5 130 00:26 31.10.2019
5260 Clouds 16 1019 82 10000 1.5 90 23:42 30.10.2019
5261 Clouds 16 1019 82 10000 2.1 90 23:23 30.10.2019
5262 Clouds 16 1016 82 10000 2.1 70 22:42 30.10.2019
5263 Clouds 17 1019 77 10000 2.6 70 22:19 30.10.2019
5264 Clouds 17 1019 82 10000 2.6 80 21:55 30.10.2019
5265 Clouds 17 1019 82 10000 2.6 80 21:55 30.10.2019
5266 Clouds 17 1019 82 10000 2.6 80 21:37 30.10.2019
5267 Clouds 17 1019 82 10000 2.6 80 21:37 30.10.2019
5268 Clouds 16 995 99 0 0.47 348 21:18 30.10.2019
5269 Clouds 16 995 99 0 0.47 348 20:58 30.10.2019
5270 Clouds 16 995 99 0 0.24 33 20:39 30.10.2019
5271 Clouds 17 1019 77 10000 4.1 10 20:20 30.10.2019
5272 Rain 17 1019 77 10000 4.1 10 19:54 30.10.2019
5273 Rain 17 1019 77 10000 4.1 10 19:36 30.10.2019
5274 Rain 17 1019 77 10000 4.1 10 19:18 30.10.2019
5275 Clouds 18 1018 77 10000 3.6 10 18:39 30.10.2019
5276 Clouds 18 1018 77 10000 2.1 350 18:19 30.10.2019
5277 Clouds 18 1018 77 10000 2.1 350 17:56 30.10.2019
5278 Clouds 18 1018 77 10000 2.1 330 17:38 30.10.2019
5279 Clouds 18 1018 77 10000 2.1 330 17:38 30.10.2019
5280 Clouds 18 1018 77 10000 1.5 350 17:18 30.10.2019
5281 Clouds 18 1018 77 10000 1.5 350 16:55 30.10.2019
5282 Clouds 18 1018 77 10000 2.1 340 16:36 30.10.2019
5283 Clouds 20 1018 77 10000 2.6 330 16:18 30.10.2019
5284 Clouds 19 1018 73 10000 3.1 330 15:41 30.10.2019
5285 Clouds 19 1018 73 10000 3.1 330 15:41 30.10.2019
5286 Clouds 19 1018 73 10000 2.6 340 15:21 30.10.2019
5287 Clouds 19 1018 73 10000 2.6 340 15:21 30.10.2019
5288 Clouds 19 1018 73 10000 2.6 340 14:59 30.10.2019
5289 Clouds 20 1018 73 10000 2.1 300 14:41 30.10.2019
5290 Clouds 20 1018 78 10000 2.6 300 14:22 30.10.2019
5291 Clouds 21 1018 78 10000 2.6 300 13:58 30.10.2019
5292 Clouds 21 1018 78 10000 2.6 300 13:39 30.10.2019
5293 Clouds 21 1018 73 10000 2.1 300 13:19 30.10.2019
5294 Clouds 21 1018 73 10000 2.1 300 12:56 30.10.2019
5295 Clouds 22 1019 73 10000 2.6 310 12:37 30.10.2019
5296 Clouds 21 1019 73 10000 2.1 280 12:18 30.10.2019
5297 Clouds 21 1019 73 10000 2.1 260 11:41 30.10.2019
5298 Clouds 21 1019 77 10000 2.1 260 11:21 30.10.2019
5299 Clouds 21 1019 77 10000 2.1 250 10:45 30.10.2019
5300 Clouds 20 1019 77 10000 1.5 250 10:24 30.10.2019
5301 Clouds 20 1019 77 10000 1.5 250 09:57 30.10.2019
5302 Clouds 20 1019 77 10000 1 0 09:39 30.10.2019
5303 Clouds 19 1019 82 10000 1.5 220 09:19 30.10.2019
5304 Clouds 19 1019 82 10000 1.5 160 08:41 30.10.2019
5305 Clouds 17 1019 82 10000 1.5 160 08:22 30.10.2019
5306 Clouds 16 1018 88 10000 1.5 170 07:51 30.10.2019
5307 Clouds 16 1018 88 10000 1.5 170 07:33 30.10.2019
5308 Clouds 16 1018 88 10000 1.5 180 06:43 30.10.2019
5309 Clouds 16 1018 93 10000 3.1 160 06:23 30.10.2019
5310 Clouds 15 1018 88 10000 2.6 140 05:51 30.10.2019
5311 Clouds 15 1018 88 10000 2.6 140 05:32 30.10.2019
5312 Clouds 16 1018 93 10000 2.6 160 03:47 30.10.2019
5313 Clouds 16 1018 88 10000 2.1 170 03:20 30.10.2019
5314 Clouds 15 1018 88 10000 2.1 190 02:32 30.10.2019
5315 Clear 16 1018 88 10000 2.1 190 01:34 30.10.2019
5316 Clear 16 1018 88 10000 1.5 200 00:31 30.10.2019
5317 Clear 16 1018 88 10000 2.1 160 23:47 29.10.2019
5318 Clear 16 1018 88 10000 2.1 160 23:28 29.10.2019
5319 Clear 16 1018 88 10000 2.6 150 22:57 29.10.2019
5320 Clouds 16 1018 88 10000 1.5 180 22:38 29.10.2019
5321 Clouds 16 1018 82 10000 1 170 22:18 29.10.2019
5322 Clouds 17 1018 82 10000 1 170 21:54 29.10.2019
5323 Clouds 17 1018 82 10000 2.1 150 21:36 29.10.2019
5324 Clouds 17 1018 82 10000 2.1 160 21:18 29.10.2019
5325 Clouds 17 1018 82 10000 2.1 190 20:41 29.10.2019
5326 Clouds 17 1018 82 10000 2.1 190 20:22 29.10.2019
5327 Clouds 17 1018 82 10000 2.1 190 19:58 29.10.2019
5328 Clouds 17 1017 77 10000 2.1 140 19:39 29.10.2019
5329 Clouds 17 1017 77 10000 2.1 130 19:20 29.10.2019
5330 Clouds 18 1017 83 10000 2.6 30 18:57 29.10.2019
5331 Rain 18 1017 83 10000 2.6 30 18:38 29.10.2019
5332 Rain 18 1017 77 10000 2.1 50 18:19 29.10.2019
5333 Rain 19 1017 77 10000 2.1 40 17:56 29.10.2019
5334 Rain 19 1017 77 10000 2.1 40 17:37 29.10.2019
5335 Clouds 19 1017 83 10000 2.1 50 17:18 29.10.2019
5336 Clouds 20 1016 78 10000 3.1 40 16:40 29.10.2019
5337 Clouds 20 1016 78 10000 3.1 30 16:21 29.10.2019
5338 Clouds 21 1016 78 10000 3.1 30 15:57 29.10.2019
5339 Clouds 21 1016 78 10000 3.1 30 15:39 29.10.2019
5340 Clouds 21 1016 78 10000 3.1 30 15:20 29.10.2019
5341 Clouds 21 1016 78 10000 3.1 30 14:56 29.10.2019
5342 Clouds 21 1016 73 10000 2.6 10 14:38 29.10.2019
5343 Clouds 22 1016 78 10000 2.1 340 14:19 29.10.2019
5344 Clouds 22 1016 78 10000 2.1 320 13:40 29.10.2019
5345 Clouds 22 1016 78 10000 2.1 320 13:40 29.10.2019
5346 Clouds 22 1016 78 10000 2.1 330 13:22 29.10.2019
5347 Clouds 22 1016 78 10000 2.1 330 13:22 29.10.2019
5348 Clouds 22 1016 78 10000 2.1 330 12:55 29.10.2019
5349 Clouds 22 1017 73 10000 2.6 300 12:37 29.10.2019
5350 Clouds 22 1017 73 10000 3.1 290 12:19 29.10.2019
5351 Clouds 21 1017 77 10000 3.1 290 11:42 29.10.2019
5352 Clouds 21 1017 77 10000 3.1 290 11:22 29.10.2019
5353 Clear 21 1017 77 10000 3.1 270 10:58 29.10.2019
5354 Clear 21 1017 77 10000 3.1 270 10:39 29.10.2019
5355 Clear 21 1017 73 10000 3.1 240 10:20 29.10.2019
5356 Clear 20 1017 73 10000 3.1 240 09:58 29.10.2019
5357 Clear 20 1017 77 10000 4.6 220 09:40 29.10.2019
5358 Clear 20 1017 77 10000 5.7 220 09:21 29.10.2019
5359 Clear 19 1016 88 10000 2.6 200 08:45 29.10.2019
5360 Clear 18 1016 93 10000 2.6 160 08:26 29.10.2019
5361 Clear 17 1016 93 10000 2.6 160 07:55 29.10.2019
5362 Clear 16 1016 88 10000 1.5 120 07:37 29.10.2019
5363 Clear 16 1015 88 10000 2.1 50 07:18 29.10.2019
5364 Clear 16 1015 88 10000 1.5 70 06:45 29.10.2019
5365 Clear 16 1015 82 10000 0.5 0 06:25 29.10.2019
5366 Clear 16 1015 88 10000 1.5 160 05:50 29.10.2019
5367 Clear 15 1015 88 10000 1.5 160 05:26 29.10.2019
5368 Clear 15 1016 82 10000 1.5 190 04:32 29.10.2019
5369 Clear 16 1016 88 10000 1.5 150 02:33 29.10.2019
5370 Clear 15 1016 88 10000 2.1 90 01:47 29.10.2019
5371 Clear 16 1016 88 10000 1.5 140 01:21 29.10.2019
5372 Clear 15 1016 82 10000 1.5 170 00:48 29.10.2019
5373 Clear 16 1017 88 10000 1.5 190 23:44 28.10.2019
5374 Clear 16 1017 88 10000 2.6 180 23:21 28.10.2019
5375 Clear 16 1017 88 10000 2.6 180 22:59 28.10.2019
5376 Clear 16 1016 88 10000 1 0 22:38 28.10.2019
5377 Clear 16 1016 82 10000 2.1 150 22:18 28.10.2019
5378 Clear 16 1016 82 10000 2.1 150 21:56 28.10.2019
5379 Clear 16 1016 82 10000 2.1 150 21:56 28.10.2019
5380 Clear 16 1016 82 10000 1 110 21:38 28.10.2019
5381 Clear 17 1015 77 10000 0.5 0 21:20 28.10.2019
5382 Clear 17 1015 77 10000 0.5 0 20:54 28.10.2019
5383 Clear 17 1015 77 10000 1 0 20:36 28.10.2019
5384 Rain 17 1015 77 10000 2.1 100 20:18 28.10.2019
5385 Clouds 17 1015 77 10000 2.6 190 19:39 28.10.2019
5386 Clouds 17 1016 82 10000 2.6 190 19:21 28.10.2019
5387 Clouds 17 1016 82 10000 2.6 190 19:21 28.10.2019
5388 Clouds 17 1016 82 10000 2.6 190 18:59 28.10.2019
5389 Clouds 18 1016 77 10000 2.1 210 18:41 28.10.2019
5390 Clouds 18 1015 77 10000 3.1 200 18:21 28.10.2019
5391 Clouds 18 1015 77 10000 3.1 200 17:57 28.10.2019
5392 Clouds 18 1015 77 10000 3.1 210 17:39 28.10.2019
5393 Clouds 19 1015 73 10000 2.6 40 17:20 28.10.2019
5394 Clouds 19 1015 73 10000 2.6 40 16:58 28.10.2019
5395 Clouds 20 1015 69 10000 2.6 50 16:39 28.10.2019
5396 Clouds 20 1015 69 10000 3.1 60 16:21 28.10.2019
5397 Clouds 20 1015 69 10000 3.1 60 15:58 28.10.2019
5398 Clouds 20 1015 73 10000 4.6 70 15:40 28.10.2019
5399 Clouds 21 1015 73 10000 5.1 50 15:21 28.10.2019
5400 Clouds 21 1015 73 10000 5.1 50 14:57 28.10.2019
5401 Clouds 21 1015 78 10000 5.7 40 14:39 28.10.2019
5402 Clouds 22 1015 78 10000 5.7 40 14:19 28.10.2019
5403 Clouds 22 1015 73 10000 6.2 50 13:57 28.10.2019
5404 Clouds 22 1015 73 10000 6.2 50 13:38 28.10.2019
5405 Clouds 22 1016 69 10000 6.2 60 13:18 28.10.2019
5406 Clouds 21 1016 68 10000 6.2 50 12:42 28.10.2019
5407 Clear 22 1016 73 10000 5.7 60 12:21 28.10.2019
5408 Clear 22 1016 73 10000 5.7 40 11:54 28.10.2019
5409 Clear 21 1016 73 10000 5.7 40 11:36 28.10.2019
5410 Clear 21 1016 68 10000 5.1 40 11:18 28.10.2019
5411 Clear 21 1016 77 10000 4.6 40 10:40 28.10.2019
5412 Clear 21 1017 68 10000 2.6 20 10:21 28.10.2019
5413 Clear 20 1017 68 10000 2.6 20 09:57 28.10.2019
5414 Clear 20 1017 68 10000 2.1 250 09:38 28.10.2019
5415 Clear 19 1017 82 10000 1.5 230 09:19 28.10.2019
5416 Clear 19 1017 82 10000 1.5 230 08:57 28.10.2019
5417 Clear 18 1017 82 10000 1.5 180 08:38 28.10.2019
5418 Clear 17 1017 88 10000 2.1 180 08:19 28.10.2019
5419 Clear 17 1017 88 10000 2.1 180 07:55 28.10.2019
5420 Clear 16 1017 87 10000 3.1 180 07:36 28.10.2019
5421 Clear 16 1016 88 10000 2.1 160 07:18 28.10.2019
5422 Clear 15 1016 88 10000 1.5 160 06:39 28.10.2019
5423 Clear 15 1016 88 10000 1.5 180 05:40 28.10.2019
5424 Clear 15 1016 88 10000 2.6 80 03:45 28.10.2019
5425 Clear 15 1017 82 10000 2.1 160 02:46 28.10.2019
5426 Clear 15 1017 82 10000 2.1 160 02:27 28.10.2019
5427 Clear 15 1018 82 10000 2.6 150 00:57 28.10.2019
5428 Clouds 16 1018 82 10000 2.6 190 00:33 28.10.2019
5429 Clouds 16 1018 88 10000 2.6 150 23:47 27.10.2019
5430 Clouds 16 1018 88 10000 2.6 150 23:24 27.10.2019
5431 Clouds 16 1018 82 10000 1 0 22:58 27.10.2019
5432 Clouds 16 1018 82 10000 1 170 22:40 27.10.2019
5433 Clouds 16 1018 82 10000 0.5 0 22:21 27.10.2019
5434 Clouds 17 1018 82 10000 0.5 0 21:57 27.10.2019
5435 Clouds 17 1018 88 10000 0.5 0 21:39 27.10.2019
5436 Clouds 17 1018 82 10000 0.5 0 21:21 27.10.2019
5437 Clouds 17 1018 82 10000 0.5 0 20:56 27.10.2019
5438 Clouds 17 1018 82 10000 1 0 20:38 27.10.2019
5439 Clouds 17 1018 82 10000 1 0 20:20 27.10.2019
5440 Clouds 17 1018 82 10000 1 0 19:55 27.10.2019
5441 Clouds 17 1018 82 10000 1 0 19:36 27.10.2019
5442 Clouds 18 1018 83 10000 1 0 19:18 27.10.2019
5443 Clouds 18 1018 77 10000 3.1 120 18:55 27.10.2019
5444 Clouds 18 1018 77 10000 3.1 120 18:36 27.10.2019
5445 Clouds 19 1018 77 9000 3.6 60 18:18 27.10.2019
5446 Clouds 19 1017 77 9000 4.6 70 17:40 27.10.2019
5447 Clouds 19 1017 78 9000 4.6 70 17:19 27.10.2019
5448 Clouds 19 1017 78 9000 4.6 70 17:19 27.10.2019
5449 Clouds 19 1017 78 9000 4.6 70 16:58 27.10.2019
5450 Clouds 19 1017 78 9000 4.6 50 16:39 27.10.2019
5451 Rain 20 1018 78 9000 4.6 50 16:21 27.10.2019
5452 Rain 20 1018 78 9000 4.6 50 15:56 27.10.2019
5453 Clouds 20 1018 78 10000 4.6 50 15:38 27.10.2019
5454 Clouds 20 1018 78 10000 4.6 50 15:19 27.10.2019
5455 Clouds 20 1018 78 10000 5.1 50 14:43 27.10.2019
5456 Clouds 20 1018 78 10000 5.7 60 14:21 27.10.2019
5457 Clouds 21 1018 78 10000 5.7 60 13:58 27.10.2019
5458 Clouds 21 1018 78 10000 4.6 50 13:39 27.10.2019
5459 Clouds 21 1018 73 10000 5.1 40 13:20 27.10.2019
5460 Clouds 21 1018 73 10000 5.1 40 12:57 27.10.2019
5461 Clouds 21 1019 78 10000 4.6 10 12:38 27.10.2019
5462 Clouds 21 1019 83 10000 3.1 360 12:19 27.10.2019
5463 Clouds 21 1019 83 10000 2.6 360 11:41 27.10.2019
5464 Clouds 21 1020 83 10000 1.5 310 11:21 27.10.2019
5465 Clouds 20 1020 83 10000 1.5 280 10:45 27.10.2019
5466 Clouds 20 1020 83 10000 1.5 280 10:26 27.10.2019
5467 Clouds 20 1020 83 10000 2.1 250 09:58 27.10.2019
5468 Clouds 20 1020 82 10000 1.5 250 09:39 27.10.2019
5469 Clouds 20 1020 88 10000 2.1 230 09:19 27.10.2019
5470 Clouds 19 1019 88 10000 1 0 08:56 27.10.2019
5471 Clouds 18 1019 88 10000 1 0 08:37 27.10.2019
5472 Clouds 18 1019 88 10000 1 0 08:37 27.10.2019
5473 Clouds 17 1019 93 10000 1 0 08:18 27.10.2019
5474 Clouds 17 1019 88 10000 1.5 190 07:45 27.10.2019
5475 Clouds 17 1019 88 10000 1.5 190 07:25 27.10.2019
5476 Clear 16 1019 88 10000 6.7 160 06:52 27.10.2019
5477 Clear 16 1019 88 10000 6.7 160 06:29 27.10.2019
5478 Clear 16 1019 93 10000 1.5 190 05:45 27.10.2019
5479 Clouds 16 1019 88 10000 2.6 140 04:56 27.10.2019
5480 Rain 16 1019 93 10000 1.5 150 03:34 27.10.2019
5481 Clouds 16 1020 88 10000 1.5 180 02:25 27.10.2019
5482 Clouds 17 1020 88 10000 2.1 150 01:24 27.10.2019
5483 Clouds 17 1020 88 10000 1 180 00:52 27.10.2019
5484 Clouds 17 1020 88 10000 1 180 00:32 27.10.2019
5485 Clouds 17 1020 82 10000 0.5 0 23:57 26.10.2019
5486 Clouds 17 1020 88 10000 1 0 23:39 26.10.2019
5487 Clouds 17 1020 88 10000 2.1 180 23:21 26.10.2019
5488 Clouds 17 1020 88 10000 2.1 180 22:57 26.10.2019
5489 Clouds 17 1020 88 10000 3.1 210 22:38 26.10.2019
5490 Clouds 17 1020 82 10000 1 0 22:19 26.10.2019
5491 Clouds 18 1020 82 10000 1.5 190 21:44 26.10.2019
5492 Clouds 17 1020 82 10000 1.5 190 21:23 26.10.2019
5493 Clouds 18 1020 82 10000 1.5 200 20:59 26.10.2019
5494 Clouds 18 1019 83 10000 3.6 240 20:40 26.10.2019
5495 Clouds 18 1019 78 10000 3.6 260 20:19 26.10.2019
5496 Clouds 18 1019 78 10000 3.1 230 19:42 26.10.2019
5497 Clouds 18 1018 78 10000 3.1 210 19:21 26.10.2019
5498 Rain 18 994 86 0 1.37 199 18:58 26.10.2019
5499 Rain 18 994 85 0 1.37 199 18:39 26.10.2019
5500 Rain 18 994 84 0 0.45 1 18:20 26.10.2019
5501 Rain 19 994 82 0 2.25 106 17:57 26.10.2019
5502 Rain 20 994 81 0 2.25 106 17:38 26.10.2019
5503 Rain 20 994 81 0 2.25 106 17:20 26.10.2019
5504 Rain 20 994 73 0 0.89 329 16:45 26.10.2019
5505 Clouds 21 1017 64 10000 4.1 60 16:25 26.10.2019
5506 Clouds 21 1017 64 10000 4.1 60 15:59 26.10.2019
5507 Clouds 21 1017 64 10000 4.1 60 15:39 26.10.2019
5508 Clouds 21 1017 64 10000 4.1 60 15:18 26.10.2019
5509 Clouds 21 1018 64 10000 3.1 50 14:39 26.10.2019
5510 Clouds 21 1018 64 10000 4.6 60 14:19 26.10.2019
5511 Clouds 21 1019 60 0 3.55 127 13:58 26.10.2019
5512 Clouds 21 1019 60 0 3.55 127 13:37 26.10.2019
5513 Clouds 21 1019 73 10000 2.1 10 13:19 26.10.2019
5514 Clouds 20 1019 60 0 1.34 93 12:44 26.10.2019
5515 Clouds 20 1019 60 0 1.34 93 12:44 26.10.2019
5516 Clouds 20 1019 68 10000 3.6 220 12:21 26.10.2019
5517 Clouds 20 1019 68 10000 3.6 220 11:48 26.10.2019
5518 Clouds 20 1019 68 10000 3.6 220 11:25 26.10.2019
5519 Clouds 20 1018 77 10000 3.1 230 10:47 26.10.2019
5520 Clouds 20 1018 77 10000 3.1 230 10:27 26.10.2019
5521 Clouds 21 1018 73 10000 0.5 0 09:50 26.10.2019
5522 Clouds 21 1018 73 10000 0.5 0 09:30 26.10.2019
5523 Clouds 19 1018 72 10000 0.5 0 08:57 26.10.2019
5524 Clouds 18 1017 82 10000 1.5 140 08:39 26.10.2019
5525 Clouds 18 1017 82 10000 1.5 140 08:21 26.10.2019
5526 Clouds 18 1017 82 10000 1.5 130 07:43 26.10.2019
5527 Clouds 18 1017 82 10000 1 0 07:23 26.10.2019
5528 Clouds 18 1017 82 10000 2.1 160 06:41 26.10.2019
5529 Clouds 17 1017 88 10000 2.6 160 05:59 26.10.2019
5530 Clouds 20 1017 77 10000 3.1 320 05:19 26.10.2019
5531 Clouds 16 1017 72 10000 2.1 10 03:56 26.10.2019
5532 Clouds 16 1017 68 10000 5.1 90 02:35 26.10.2019
5533 Clouds 15 1017 82 10000 4.1 60 01:47 26.10.2019
5534 Clouds 15 1017 82 10000 6.2 80 00:56 26.10.2019
5535 Clouds 15 1017 82 10000 2.6 80 00:18 26.10.2019
5536 Clouds 15 1018 82 10000 1 0 23:40 25.10.2019
5537 Rain 15 1018 88 10000 3.6 220 23:19 25.10.2019
5538 Rain 15 1018 88 10000 3.6 210 22:40 25.10.2019
5539 Rain 15 1018 82 10000 1 220 22:21 25.10.2019
5540 Rain 15 1018 82 10000 1 220 21:57 25.10.2019
5541 Rain 15 1017 88 10000 2.1 140 21:38 25.10.2019
5542 Clouds 15 1017 88 10000 1.5 160 21:19 25.10.2019
5543 Clouds 15 1017 82 10000 1.5 0 20:44 25.10.2019
5544 Thunderstorm 15 1017 93 10000 2.6 130 20:20 25.10.2019
5545 Thunderstorm 15 1017 93 10000 2.6 130 20:20 25.10.2019
5546 Thunderstorm 15 1017 93 10000 2.6 130 19:56 25.10.2019
5547 Thunderstorm 15 1017 82 10000 2.1 140 19:38 25.10.2019
5548 Thunderstorm 15 1017 82 10000 1.5 210 19:20 25.10.2019
5549 Thunderstorm 15 1016 88 5000 1.5 150 18:43 25.10.2019
5550 Thunderstorm 16 1016 93 9000 3.1 70 18:20 25.10.2019
5551 Thunderstorm 17 1016 88 7000 2.6 50 17:41 25.10.2019
5552 Thunderstorm 17 1015 93 6000 6.2 70 17:20 25.10.2019
5553 Thunderstorm 17 1015 93 9000 5.1 80 16:47 25.10.2019
5554 Thunderstorm 19 1015 88 8000 1 0 16:24 25.10.2019
5555 Thunderstorm 19 1015 88 8000 1 0 15:58 25.10.2019
5556 Rain 18 1014 88 9000 3.1 130 15:40 25.10.2019
5557 Thunderstorm 19 1014 88 9000 2.1 80 15:21 25.10.2019
5558 Thunderstorm 19 1014 93 3000 12.3 70 14:43 25.10.2019
5559 Thunderstorm 19 1014 93 3000 12.3 70 14:24 25.10.2019
5560 Clouds 20 1014 73 10000 3.1 290 13:59 25.10.2019
5561 Clouds 20 1014 73 10000 3.1 270 13:41 25.10.2019
5562 Clouds 20 1014 68 10000 2.6 260 13:22 25.10.2019
5563 Clouds 20 1014 68 10000 2.6 260 12:55 25.10.2019
5564 Clouds 20 1015 68 10000 2.6 250 12:37 25.10.2019
5565 Clouds 20 1014 73 10000 2.6 250 12:18 25.10.2019
5566 Clouds 19 1015 68 10000 2.6 220 11:40 25.10.2019
5567 Clouds 18 1014 73 10000 3.1 220 11:22 25.10.2019
5568 Clouds 18 1014 73 10000 3.1 220 11:22 25.10.2019
5569 Clouds 19 1014 77 10000 2.6 180 10:55 25.10.2019
5570 Clouds 18 1014 77 10000 2.6 180 10:36 25.10.2019
5571 Clouds 17 1014 82 10000 2.6 150 10:18 25.10.2019
5572 Clouds 17 1014 77 10000 2.6 160 09:41 25.10.2019
5573 Clouds 17 1014 77 10000 2.6 160 09:41 25.10.2019
5574 Clouds 17 1014 82 10000 2.1 240 09:20 25.10.2019
5575 Clouds 16 1014 82 10000 2.1 240 08:56 25.10.2019
5576 Rain 16 1013 88 10000 4.1 290 08:38 25.10.2019
5577 Rain 16 1013 88 9000 4.1 280 08:19 25.10.2019
5578 Rain 16 1013 93 6000 3.1 180 07:44 25.10.2019
5579 Rain 16 1013 93 6000 3.1 180 07:26 25.10.2019
5580 Clouds 16 1012 82 10000 5.1 200 06:37 25.10.2019
5581 Clouds 16 1012 77 10000 3.1 180 05:48 25.10.2019
5582 Clouds 16 1012 77 10000 3.1 180 05:28 25.10.2019
5583 Clouds 16 1012 82 10000 2.6 190 04:30 25.10.2019
5584 Clouds 16 1012 88 10000 2.6 170 02:35 25.10.2019
5585 Clouds 16 1013 77 10000 2.6 180 01:52 25.10.2019
5586 Thunderstorm 16 1013 82 10000 2.6 200 00:34 25.10.2019
5587 Thunderstorm 16 1013 82 10000 3.1 200 23:43 24.10.2019
5588 Thunderstorm 16 1012 82 10000 2.1 230 23:24 24.10.2019
5589 Thunderstorm 16 1012 82 10000 2.1 230 22:59 24.10.2019
5590 Thunderstorm 16 1013 82 10000 6.7 220 22:39 24.10.2019
5591 Thunderstorm 17 1012 68 10000 2.6 250 22:19 24.10.2019
5592 Thunderstorm 17 1012 68 10000 2.6 250 22:19 24.10.2019
5593 Thunderstorm 17 1012 68 10000 2.6 250 21:57 24.10.2019
5594 Thunderstorm 17 1012 68 10000 2.6 250 21:57 24.10.2019
5595 Thunderstorm 17 1012 68 10000 2.6 250 21:38 24.10.2019
5596 Thunderstorm 18 1012 72 10000 3.6 150 21:20 24.10.2019
5597 Thunderstorm 18 1012 72 10000 3.6 150 20:59 24.10.2019
5598 Thunderstorm 19 1013 88 6000 6.2 150 20:39 24.10.2019
5599 Thunderstorm 19 1012 88 5000 4.6 30 20:21 24.10.2019
5600 Thunderstorm 18 1012 88 5000 4.6 30 19:56 24.10.2019
5601 Thunderstorm 19 1012 88 10000 6.2 350 19:37 24.10.2019
5602 Thunderstorm 19 1012 88 10000 7.2 320 19:19 24.10.2019
5603 Rain 19 1013 78 9000 6.7 280 18:55 24.10.2019
5604 Rain 19 1013 78 9000 6.7 280 18:37 24.10.2019
5605 Rain 20 1012 73 9000 4.6 240 18:18 24.10.2019
5606 Rain 21 1011 73 8000 3.6 250 17:42 24.10.2019
5607 Rain 21 1011 60 8000 1 0 17:20 24.10.2019
5608 Rain 21 1011 64 8000 2.1 70 16:58 24.10.2019
5609 Rain 21 1011 64 8000 2.1 70 16:39 24.10.2019
5610 Rain 21 1011 69 9000 3.6 10 16:21 24.10.2019
5611 Rain 22 1011 69 9000 3.6 10 15:58 24.10.2019
5612 Rain 22 1011 57 9000 7.2 290 15:40 24.10.2019
5613 Clouds 23 1010 42 10000 1 0 15:21 24.10.2019
5614 Clouds 23 1010 42 10000 1 0 14:57 24.10.2019
5615 Clouds 23 1011 44 10000 1.5 0 14:38 24.10.2019
5616 Clouds 23 1011 47 10000 5.7 80 14:20 24.10.2019
5617 Clouds 24 1012 50 10000 6.2 60 13:41 24.10.2019
5618 Clouds 23 1013 53 10000 2.6 40 13:20 24.10.2019
5619 Clouds 23 1013 53 10000 2.6 40 12:58 24.10.2019
5620 Clouds 23 1014 60 10000 2.1 270 12:40 24.10.2019
5621 Clouds 22 1013 41 10000 3.1 0 12:19 24.10.2019
5622 Clouds 23 1013 41 10000 3.1 0 11:57 24.10.2019
5623 Clouds 23 1014 44 10000 3.1 70 11:38 24.10.2019
5624 Clouds 23 1014 44 10000 6.2 80 11:19 24.10.2019
5625 Clouds 23 1014 44 10000 6.2 80 10:58 24.10.2019
5626 Clouds 22 1015 47 10000 5.7 70 10:38 24.10.2019
5627 Clouds 22 1015 47 10000 7.2 70 10:20 24.10.2019
5628 Clouds 20 1016 46 10000 3.1 70 09:38 24.10.2019
5629 Clouds 19 1016 56 10000 3.6 190 09:19 24.10.2019
5630 Clouds 19 1016 56 10000 3.6 190 08:55 24.10.2019
5631 Clouds 18 1016 53 10000 3.6 210 08:37 24.10.2019
5632 Clouds 18 1016 56 10000 3.6 210 08:18 24.10.2019
5633 -273 0 0 0 0 0 07:45 24.10.2019
5634 Clouds 18 1016 52 10000 3.6 230 07:22 24.10.2019
5635 Clouds 18 991 72 0 0.89 1 06:46 24.10.2019
5636 Clouds 18 1014 60 10000 4.6 230 06:23 24.10.2019
5637 Clouds 18 1014 60 10000 4.6 230 05:49 24.10.2019
5638 Clouds 18 1014 60 10000 4.6 230 05:28 24.10.2019
5639 Clouds 18 1014 77 10000 2.1 180 03:38 24.10.2019
5640 Clouds 18 1014 72 10000 1.5 160 02:56 24.10.2019
5641 Clouds 18 1014 72 10000 1.5 150 02:25 24.10.2019
5642 Clouds 18 1014 72 10000 2.6 140 01:51 24.10.2019
5643 Clouds 18 1014 72 10000 2.6 140 01:27 24.10.2019
5644 Clouds 18 1015 77 10000 1.5 160 00:41 24.10.2019
5645 Clouds 18 1015 77 10000 1.5 160 00:23 24.10.2019
5646 Clouds 18 1015 72 10000 1 0 23:43 23.10.2019
5647 Clouds 18 1015 72 10000 1 0 23:23 23.10.2019
5648 Clouds 19 1015 77 10000 1.5 0 22:57 23.10.2019
5649 Clouds 18 1015 82 10000 1 0 22:38 23.10.2019
5650 Clouds 19 1015 73 10000 2.1 20 22:19 23.10.2019
5651 Clouds 19 1015 73 10000 2.1 20 21:57 23.10.2019
5652 Clouds 19 1015 68 10000 0.5 0 21:38 23.10.2019
5653 Clouds 19 1015 77 10000 1 0 21:20 23.10.2019
5654 Clouds 19 1015 73 10000 1 0 20:57 23.10.2019
5655 Clouds 19 1015 73 10000 1 0 20:39 23.10.2019
5656 Clouds 19 1015 68 10000 2.1 190 20:20 23.10.2019
5657 Clouds 19 1015 68 10000 2.6 190 19:57 23.10.2019
5658 Clouds 20 1015 68 10000 2.6 190 19:38 23.10.2019
5659 Clouds 20 1015 78 10000 3.6 220 19:18 23.10.2019
5660 Clouds 20 1015 73 10000 2.6 230 18:54 23.10.2019
5661 Clouds 21 1015 73 10000 2.6 230 18:36 23.10.2019
5662 Clouds 21 1015 73 10000 2.6 230 18:36 23.10.2019
5663 Clouds 21 1015 73 10000 3.1 230 18:18 23.10.2019
5664 Clouds 21 1015 61 10000 1 0 17:41 23.10.2019
5665 Clouds 22 1015 73 10000 3.1 50 17:20 23.10.2019
5666 Clouds 22 1015 65 10000 5.1 50 16:56 23.10.2019
5667 Clouds 23 1015 65 10000 5.1 50 16:37 23.10.2019
5668 Clouds 23 1015 65 10000 5.7 40 16:19 23.10.2019
5669 Clouds 23 1015 61 10000 5.1 50 15:41 23.10.2019
5670 Clear 24 1015 57 10000 6.2 60 15:22 23.10.2019
5671 Clear 24 1015 57 10000 6.2 60 14:58 23.10.2019
5672 Clouds 24 1015 53 10000 5.7 50 14:38 23.10.2019
5673 Clouds 23 1016 60 10000 5.7 40 14:19 23.10.2019
5674 Clouds 24 1016 60 10000 5.7 40 13:57 23.10.2019
5675 Clouds 24 1016 73 10000 5.1 40 13:38 23.10.2019
5676 Clouds 23 1017 69 10000 3.6 30 13:20 23.10.2019
5677 Clouds 23 1017 78 10000 2.6 20 12:54 23.10.2019
5678 Clouds 23 1017 78 10000 2.6 20 12:54 23.10.2019
5679 Clouds 23 1017 78 10000 2.6 20 12:36 23.10.2019
5680 Clear 22 1017 73 10000 2.1 350 12:18 23.10.2019
5681 Clear 22 1018 68 10000 1 0 11:54 23.10.2019
5682 Clear 22 1018 68 10000 1 0 11:36 23.10.2019
5683 Clear 22 1018 64 10000 1 0 11:18 23.10.2019
5684 Clear 21 1018 64 10000 1.5 260 10:42 23.10.2019
5685 Clear 21 1018 64 10000 1.5 260 10:23 23.10.2019
5686 Clouds 20 1018 72 10000 2.1 140 09:41 23.10.2019
5687 Clouds 19 1018 77 10000 1.5 190 09:23 23.10.2019
5688 Clouds 19 1018 77 10000 1.5 190 09:23 23.10.2019
5689 Clouds 18 1018 77 10000 1.5 190 08:59 23.10.2019
5690 Clouds 18 1018 77 10000 1.5 140 08:41 23.10.2019
5691 Clouds 18 1017 88 10000 1.5 130 08:22 23.10.2019
5692 Clouds 17 1017 88 10000 1.5 160 07:45 23.10.2019
5693 Clouds 17 1017 82 10000 2.6 140 07:21 23.10.2019
5694 Clouds 17 1017 82 10000 2.1 150 06:46 23.10.2019
5695 Clouds 17 1018 88 10000 2.1 180 06:20 23.10.2019
5696 Clouds 17 1017 88 10000 2.6 210 05:41 23.10.2019
5697 Clouds 18 1017 82 10000 1.5 50 04:38 23.10.2019
5698 Clouds 18 1018 77 10000 2.1 170 03:34 23.10.2019
5699 Clouds 18 1018 88 10000 2.6 210 02:37 23.10.2019
5700 Clouds 17 1018 88 10000 1.5 130 01:28 23.10.2019
5701 Clouds 17 1018 82 10000 0.5 0 00:48 23.10.2019
5702 Clouds 17 1018 82 10000 0.5 0 00:28 23.10.2019
5703 Clouds 18 1018 82 10000 2.6 190 23:39 22.10.2019
5704 Clouds 18 1018 88 10000 1.5 190 23:18 22.10.2019
5705 Clouds 18 1018 88 10000 1.5 190 22:56 22.10.2019
5706 Clouds 18 1018 83 10000 1 0 22:38 22.10.2019
5707 Clouds 18 1018 83 10000 2.1 70 22:19 22.10.2019
5708 Clouds 19 1018 83 10000 2.1 70 21:56 22.10.2019
5709 Clouds 19 1018 88 10000 1.5 220 21:37 22.10.2019
5710 Clouds 19 1018 83 10000 3.1 220 21:18 22.10.2019
5711 Clouds 19 1018 83 10000 3.1 220 21:18 22.10.2019
5712 Clouds 19 1018 83 10000 4.1 210 20:55 22.10.2019
5713 Clouds 20 1018 83 10000 4.1 210 20:37 22.10.2019
5714 Clouds 20 1018 88 10000 5.1 220 20:19 22.10.2019
5715 Clouds 20 1018 88 10000 5.7 220 19:45 22.10.2019
5716 Clouds 20 1018 88 10000 5.7 220 19:26 22.10.2019
5717 Clouds 20 1018 83 10000 5.1 220 18:58 22.10.2019
5718 Clouds 21 1018 78 10000 4.1 220 18:40 22.10.2019
5719 Clouds 21 1018 78 10000 2.1 40 18:21 22.10.2019
5720 Clouds 22 1018 78 10000 2.1 40 17:57 22.10.2019
5721 Clouds 23 1017 69 10000 4.6 60 17:38 22.10.2019
5722 Clouds 23 1017 69 10000 5.7 60 17:19 22.10.2019
5723 Clouds 23 1017 69 10000 5.7 60 17:19 22.10.2019
5724 Clouds 23 1017 69 10000 5.7 60 16:57 22.10.2019
5725 Clouds 23 1017 78 10000 5.7 60 16:37 22.10.2019
5726 Clouds 23 1018 78 10000 5.7 50 16:19 22.10.2019
5727 Clouds 24 1018 69 10000 5.7 60 15:44 22.10.2019
5728 Clear 24 1018 73 10000 6.2 40 15:21 22.10.2019
5729 Clear 24 1019 73 10000 5.7 40 14:58 22.10.2019
5730 Clear 24 1019 73 10000 5.7 40 14:39 22.10.2019
5731 Clouds 24 1019 73 10000 5.1 40 14:19 22.10.2019
5732 Clouds 23 1019 78 10000 5.7 40 13:42 22.10.2019
5733 Clouds 23 1020 78 10000 5.1 40 13:21 22.10.2019
5734 Clouds 23 1020 78 10000 5.1 40 12:58 22.10.2019
5735 Clouds 23 1020 78 10000 3.6 30 12:39 22.10.2019
5736 Clouds 23 1021 78 10000 3.1 30 12:20 22.10.2019
5737 Clouds 23 1021 78 10000 3.1 30 12:20 22.10.2019
5738 Clouds 22 1021 78 10000 3.6 30 11:42 22.10.2019
5739 Clouds 22 1021 78 10000 3.6 30 11:23 22.10.2019
5740 Clouds 22 1020 78 10000 3.6 40 10:59 22.10.2019
5741 Clouds 21 1020 83 10000 2.6 10 10:38 22.10.2019
5742 Clouds 20 1021 78 10000 0.5 0 10:20 22.10.2019
5743 Clouds 20 1021 78 10000 0.5 0 10:00 22.10.2019
5744 Clouds 20 1021 78 10000 0.5 0 10:00 22.10.2019
5745 Clouds 20 1021 78 10000 0.5 0 10:00 22.10.2019
5746 Clouds 20 1020 83 10000 0.5 0 09:41 22.10.2019
5747 Clouds 19 1020 88 10000 1.5 170 09:22 22.10.2019
5748 Clouds 18 1020 88 10000 1.5 170 08:59 22.10.2019
5749 Clouds 18 1020 88 10000 1.5 140 08:40 22.10.2019
5750 Clouds 17 1020 88 10000 1.5 120 08:19 22.10.2019
5751 Clouds 17 1020 88 10000 2.6 140 07:44 22.10.2019
5752 Clouds 17 1020 88 10000 2.6 140 07:25 22.10.2019
5753 Clouds 17 1020 82 10000 2.6 150 06:45 22.10.2019
5754 Clouds 17 1020 82 10000 2.6 150 06:27 22.10.2019
5755 Clouds 17 1020 77 10000 2.1 220 05:48 22.10.2019
5756 Clouds 18 1019 77 10000 1.5 130 04:50 22.10.2019
5757 Clouds 18 1020 77 10000 1.5 160 02:31 22.10.2019
5758 Clouds 18 1020 77 10000 1.5 160 02:31 22.10.2019
5759 Clouds 17 1020 72 10000 1.5 210 01:39 22.10.2019
5760 Clouds 17 1020 72 10000 1.5 200 01:21 22.10.2019
5761 Clouds 17 1020 72 10000 2.1 220 00:56 22.10.2019
5762 Clouds 17 1020 72 10000 2.1 220 00:38 22.10.2019
5763 Clouds 17 1020 77 10000 2.1 190 00:19 22.10.2019
5764 Clouds 18 1021 72 10000 2.1 200 23:39 21.10.2019
5765 Clouds 18 1021 77 10000 1.5 200 23:19 21.10.2019
5766 Clouds 18 1021 77 10000 1.5 200 22:59 21.10.2019
5767 Clouds 18 1020 77 10000 1 180 22:40 21.10.2019
5768 Clouds 18 1020 77 10000 1 180 22:40 21.10.2019
5769 Clouds 18 1020 77 10000 0.5 0 22:20 21.10.2019
5770 Clouds 18 1020 77 10000 0.5 0 21:58 21.10.2019
5771 Clouds 18 1020 83 10000 1 210 21:39 21.10.2019
5772 Clouds 19 1020 83 10000 2.6 240 21:20 21.10.2019
5773 Clouds 19 1020 83 10000 2.6 240 20:58 21.10.2019
5774 Clouds 19 1020 78 10000 3.1 260 20:40 21.10.2019
5775 Clouds 19 1020 78 10000 3.1 250 20:20 21.10.2019
5776 Clouds 20 1020 78 10000 3.1 250 19:57 21.10.2019
5777 Clouds 20 1020 69 10000 2.1 0 19:39 21.10.2019
5778 Clouds 20 1020 60 10000 4.1 70 19:21 21.10.2019
5779 Clouds 21 1020 60 10000 4.1 70 18:55 21.10.2019
5780 Clouds 21 1020 64 10000 4.6 50 18:37 21.10.2019
5781 Clear 22 1020 69 10000 5.1 60 18:18 21.10.2019
5782 Clear 22 1020 73 10000 7.2 60 17:55 21.10.2019
5783 Clear 23 1020 73 10000 7.2 60 17:37 21.10.2019
5784 Clear 23 1020 69 10000 7.2 60 17:18 21.10.2019
5785 Clear 23 1020 69 10000 7.2 60 16:55 21.10.2019
5786 Clear 24 1020 65 10000 6.2 60 16:37 21.10.2019
5787 Clear 24 1020 57 10000 6.2 60 16:18 21.10.2019
5788 Clear 24 1021 69 10000 5.1 50 15:42 21.10.2019
5789 Clear 24 1021 69 10000 5.1 50 15:23 21.10.2019
5790 Clear 25 1021 65 10000 5.1 40 14:56 21.10.2019
5791 Clear 25 1021 69 10000 4.6 40 14:37 21.10.2019
5792 Clear 25 1021 69 10000 3.6 30 14:18 21.10.2019
5793 Clear 25 1021 69 10000 3.6 30 13:55 21.10.2019
5794 Clear 25 1021 78 10000 3.1 30 13:37 21.10.2019
5795 Clear 24 1021 73 10000 2.6 10 13:18 21.10.2019
5796 Clear 24 1021 83 10000 2.6 30 12:41 21.10.2019
5797 Clear 24 1022 78 10000 2.1 360 12:21 21.10.2019
5798 Clear 24 1022 78 10000 2.1 360 11:55 21.10.2019
5799 Clear 23 1022 73 10000 2.1 10 11:37 21.10.2019
5800 Clear 22 1021 69 10000 1 20 11:18 21.10.2019
5801 Clear 23 1021 69 10000 1 20 10:55 21.10.2019
5802 Clear 23 1021 69 10000 1 240 10:37 21.10.2019
5803 Clear 22 1021 73 10000 2.1 230 10:18 21.10.2019
5804 Clear 21 1021 73 10000 1 0 09:43 21.10.2019
5805 Clear 20 1021 73 10000 1 0 09:23 21.10.2019
5806 Clear 18 1020 82 10000 2.6 150 08:43 21.10.2019
5807 Clear 18 1020 82 10000 2.6 150 08:23 21.10.2019
5808 Clear 18 1020 82 10000 1.5 170 07:59 21.10.2019
5809 Clear 18 1020 82 10000 2.1 170 07:37 21.10.2019
5810 Clear 18 1020 88 10000 2.1 150 07:19 21.10.2019
5811 Clear 18 1020 77 10000 2.1 160 06:51 21.10.2019
5812 Clear 18 1020 77 10000 2.1 160 06:32 21.10.2019
5813 Clear 18 1020 77 10000 1.5 120 05:50 21.10.2019
5814 Clear 18 1019 77 10000 1.5 130 04:43 21.10.2019
5815 Clear 18 1020 77 10000 2.1 230 02:42 21.10.2019
5816 Clear 18 1020 77 10000 2.1 230 02:23 21.10.2019
5817 Clear 18 1020 77 10000 2.1 230 02:23 21.10.2019
5818 Clear 18 1020 77 10000 1.5 210 01:53 21.10.2019
5819 Clear 19 1020 77 10000 1.5 210 01:23 21.10.2019
5820 Clear 19 1020 77 10000 3.1 210 00:43 21.10.2019
5821 Clear 19 1020 77 10000 3.1 210 00:24 21.10.2019
5822 Clear 19 1020 83 10000 3.6 210 23:42 20.10.2019
5823 Clear 19 1020 73 10000 4.6 220 23:22 20.10.2019
5824 Clear 19 1020 73 10000 4.6 220 22:56 20.10.2019
5825 Clear 19 1020 73 10000 3.6 210 22:37 20.10.2019
5826 Clear 19 1019 73 10000 3.1 210 22:18 20.10.2019
5827 Clear 20 1019 69 10000 4.6 210 21:57 20.10.2019
5828 Clear 20 1019 69 10000 4.6 210 21:38 20.10.2019
5829 Clear 20 1019 69 10000 5.1 220 21:20 20.10.2019
5830 Clear 20 1019 69 10000 4.1 210 20:41 20.10.2019
5831 Clear 20 1018 64 10000 4.6 210 20:19 20.10.2019
5832 Clear 21 1018 64 10000 4.6 210 19:56 20.10.2019
5833 Clear 21 1018 64 10000 5.1 200 19:38 20.10.2019
5834 Clear 21 1018 73 10000 4.6 220 19:20 20.10.2019
5835 Clear 21 1018 73 10000 4.6 220 18:55 20.10.2019
5836 Clear 21 1018 65 10000 0.5 0 18:55 20.10.2019
5837 Clear 21 1018 65 10000 0.5 0 18:36 20.10.2019
5838 Clear 22 1018 65 10000 2.6 40 18:18 20.10.2019
5839 Clear 22 1017 61 10000 4.6 50 17:42 20.10.2019
5840 Clear 23 1017 61 10000 4.6 50 17:23 20.10.2019
5841 Clear 24 1017 61 10000 5.1 60 16:57 20.10.2019
5842 Clear 24 1017 61 10000 5.7 70 16:39 20.10.2019
5843 Clear 24 1017 61 10000 5.7 70 16:39 20.10.2019
5844 Clear 24 1017 54 10000 6.7 70 16:21 20.10.2019
5845 Clear 24 1017 54 10000 6.7 70 15:56 20.10.2019
5846 Clear 24 1017 61 10000 6.2 60 15:38 20.10.2019
5847 Clear 25 1018 65 10000 5.7 60 15:19 20.10.2019
5848 Clear 25 1018 65 10000 5.7 60 14:56 20.10.2019
5849 Clear 25 1018 61 10000 5.1 50 14:37 20.10.2019
5850 Clear 25 1018 61 10000 5.1 50 14:37 20.10.2019
5851 Clear 25 1018 51 10000 4.6 50 14:18 20.10.2019
5852 Clear 25 1018 73 10000 4.6 30 13:54 20.10.2019
5853 Clear 25 1018 73 10000 4.6 30 13:36 20.10.2019
5854 Clear 25 1019 69 10000 5.1 40 13:18 20.10.2019
5855 Clear 25 1019 69 10000 5.1 40 12:55 20.10.2019
5856 Clear 24 1019 69 10000 4.6 40 12:36 20.10.2019
5857 Clear 24 1019 69 10000 3.6 30 12:18 20.10.2019
5858 Clear 24 1019 60 10000 3.1 30 11:41 20.10.2019
5859 Clear 23 1019 60 10000 3.1 30 11:23 20.10.2019
5860 Clear 23 1019 60 10000 3.1 30 10:58 20.10.2019
5861 Clear 23 1019 64 10000 2.1 20 10:39 20.10.2019
5862 Clear 23 1019 60 10000 2.1 40 10:21 20.10.2019
5863 Clear 23 1019 60 10000 2.1 40 10:21 20.10.2019
5864 Clear 22 1019 60 10000 2.1 40 09:56 20.10.2019
5865 Clear 21 1019 64 10000 1.5 30 09:38 20.10.2019
5866 Clear 20 1019 64 10000 2.1 50 09:19 20.10.2019
5867 Clear 19 1018 68 10000 3.6 60 08:43 20.10.2019
5868 Clear 18 1018 64 10000 3.1 60 08:22 20.10.2019
5869 Clear 18 1018 64 10000 1 0 07:49 20.10.2019
5870 Clear 18 1018 64 10000 1 0 07:28 20.10.2019
5871 Clear 18 1017 64 10000 2.1 90 06:31 20.10.2019
5872 Clear 18 1017 73 10000 1 0 04:41 20.10.2019
5873 Clear 18 1017 73 10000 2.1 70 03:53 20.10.2019
5874 Clear 18 1017 56 10000 2.6 150 03:23 20.10.2019
5875 Clear 18 1017 56 10000 3.6 190 02:55 20.10.2019
5876 Clear 18 1017 82 10000 0.5 0 02:26 20.10.2019
5877 Clear 17 1017 82 10000 0.5 0 01:53 20.10.2019
5878 Clear 18 1017 82 10000 1 0 01:22 20.10.2019
5879 Clear 18 1017 82 10000 1 0 00:49 20.10.2019
5880 Clear 18 1017 77 10000 0.5 0 00:21 20.10.2019
5881 Clear 18 1017 77 10000 0.5 0 00:21 20.10.2019
5882 Clear 18 1017 77 10000 1 0 23:55 19.10.2019
5883 Clear 18 1017 77 10000 1 0 23:36 19.10.2019
5884 Clear 18 1017 77 10000 1.5 80 23:18 19.10.2019
5885 Clear 18 1017 77 10000 0.5 0 22:41 19.10.2019
5886 Clear 19 1017 77 10000 1.5 0 22:22 19.10.2019
5887 Clear 19 1017 77 10000 1.5 0 21:57 19.10.2019
5888 Clear 18 1017 88 10000 2.1 210 21:39 19.10.2019
5889 Clear 19 1017 83 10000 3.1 230 21:20 19.10.2019
5890 Clear 19 1017 83 10000 2.1 200 20:43 19.10.2019
5891 Clear 19 1017 83 10000 2.1 190 20:21 19.10.2019
5892 Clear 19 1017 78 10000 2.1 210 19:45 19.10.2019
5893 Clear 20 1017 78 10000 2.1 210 19:27 19.10.2019
5894 Clear 20 1016 73 10000 2.1 70 18:59 19.10.2019
5895 Clear 20 1016 69 10000 3.1 70 18:41 19.10.2019
5896 Clear 20 1016 69 10000 3.1 70 18:41 19.10.2019
5897 Clear 21 1016 69 10000 4.1 50 18:22 19.10.2019
5898 Clear 21 1016 69 10000 5.1 60 17:41 19.10.2019
5899 Clear 21 1016 69 10000 5.1 60 17:41 19.10.2019
5900 Clear 22 1016 69 10000 5.1 60 17:23 19.10.2019
5901 Clear 23 1016 69 10000 5.1 50 16:59 19.10.2019
5902 Clear 23 1016 69 10000 5.1 50 16:38 19.10.2019
5903 Clear 23 1016 69 10000 5.1 50 16:38 19.10.2019
5904 Clear 23 1017 69 10000 5.1 40 16:19 19.10.2019
5905 Clear 22 1017 69 10000 5.1 60 15:43 19.10.2019
5906 Clear 23 1017 69 10000 5.1 60 15:25 19.10.2019
5907 Clear 23 1017 69 10000 5.1 60 15:25 19.10.2019
5908 Clear 23 1017 69 10000 5.7 40 14:40 19.10.2019
5909 Clear 23 1017 69 10000 5.7 40 14:40 19.10.2019
5910 Clear 23 1017 64 10000 6.2 50 14:21 19.10.2019
5911 Clear 23 1017 64 10000 6.2 50 13:59 19.10.2019
5912 Clear 24 1017 64 10000 5.7 40 13:41 19.10.2019
5913 Clear 23 1018 69 10000 4.1 40 13:20 19.10.2019
5914 Clear 23 1018 69 10000 4.1 40 12:58 19.10.2019
5915 Clear 23 1018 73 10000 3.1 30 12:38 19.10.2019
5916 Clear 22 1018 68 10000 3.1 30 12:19 19.10.2019
5917 Clear 22 1018 73 10000 3.1 30 11:41 19.10.2019
5918 Clear 22 1018 68 10000 3.1 30 11:23 19.10.2019
5919 Clouds 22 1018 68 10000 2.6 40 10:58 19.10.2019
5920 Clouds 21 1018 73 10000 2.1 60 10:40 19.10.2019
5921 Clouds 20 1018 73 10000 2.1 60 10:22 19.10.2019
5922 Clouds 20 1018 77 10000 1 0 09:55 19.10.2019
5923 Clouds 19 1018 77 10000 1 40 09:37 19.10.2019
5924 Clouds 19 1018 77 10000 1 40 09:19 19.10.2019
5925 Clouds 17 1017 77 10000 1.5 180 08:40 19.10.2019
5926 Clouds 17 1017 77 10000 1.5 180 08:21 19.10.2019
5927 Clouds 16 1017 82 10000 1.5 180 07:46 19.10.2019
5928 Clouds 16 1017 77 10000 1 170 07:26 19.10.2019
5929 Clouds 16 1017 77 10000 1 170 07:26 19.10.2019
5930 Clear 16 1017 82 10000 2.1 80 06:48 19.10.2019
5931 Clear 16 1017 82 10000 2.1 80 06:30 19.10.2019
5932 Clear 16 1017 77 10000 2.1 80 05:35 19.10.2019
5933 Clear 16 1017 77 10000 1 0 04:26 19.10.2019
5934 Clear 16 1017 77 10000 3.1 210 02:56 19.10.2019
5935 Clear 16 1017 72 10000 2.1 200 01:56 19.10.2019
5936 Clear 17 1017 68 10000 2.6 210 01:37 19.10.2019
5937 Clear 17 1017 72 10000 2.1 190 00:49 19.10.2019
5938 Clear 17 1017 63 10000 2.6 190 00:28 19.10.2019
5939 Clear 16 1017 63 10000 2.6 190 23:56 18.10.2019
5940 Clear 16 1017 63 10000 2.6 190 23:56 18.10.2019
5941 Clear 16 1017 63 10000 2.6 180 23:37 18.10.2019
5942 Clear 16 1018 67 10000 2.1 170 23:19 18.10.2019
5943 Clear 16 1018 67 10000 2.1 170 22:54 18.10.2019
5944 Clear 17 1018 59 10000 1.5 210 22:36 18.10.2019
5945 Clear 17 1017 72 10000 1.5 110 22:18 18.10.2019
5946 Clear 17 1017 72 10000 1.5 110 21:54 18.10.2019
5947 Clear 17 1017 77 10000 2.6 100 21:36 18.10.2019
5948 Clear 17 1018 72 10000 3.1 60 21:18 18.10.2019
5949 Clear 18 1018 77 10000 3.6 50 20:41 18.10.2019
5950 Clear 18 1018 73 10000 4.1 60 20:22 18.10.2019
5951 Clear 18 1018 73 10000 4.1 60 19:58 18.10.2019
5952 Clear 18 1018 68 10000 4.6 50 19:40 18.10.2019
5953 Clear 19 1017 68 10000 4.6 50 19:21 18.10.2019
5954 Clear 19 1017 68 10000 4.6 50 18:58 18.10.2019
5955 Clear 19 1017 73 10000 5.1 50 18:40 18.10.2019
5956 Clear 20 1017 64 10000 5.7 50 18:21 18.10.2019
5957 Clear 20 1017 64 10000 5.7 50 17:55 18.10.2019
5958 Clear 21 1017 64 10000 5.7 50 17:36 18.10.2019
5959 Clear 21 1017 60 10000 5.7 60 17:18 18.10.2019
5960 Clear 22 1017 64 10000 5.7 50 16:38 18.10.2019
5961 Clear 22 1017 56 10000 5.7 60 16:20 18.10.2019
5962 Clear 22 1017 56 10000 5.7 60 15:57 18.10.2019
5963 Clear 23 1017 56 10000 5.7 50 15:37 18.10.2019
5964 Clear 22 1017 64 10000 5.7 40 15:19 18.10.2019
5965 Clear 23 1017 64 10000 5.7 40 14:56 18.10.2019
5966 Clear 23 1017 64 10000 5.1 40 14:38 18.10.2019
5967 Clear 23 1018 60 10000 4.1 40 14:19 18.10.2019
5968 Clear 22 1018 60 10000 4.1 40 13:55 18.10.2019
5969 Clear 23 1018 60 10000 4.1 40 13:36 18.10.2019
5970 Clear 23 1018 60 10000 3.1 10 13:18 18.10.2019
5971 Clear 22 1018 60 10000 3.1 10 12:54 18.10.2019
5972 Clear 22 1019 64 10000 2.1 320 12:36 18.10.2019
5973 Clear 21 1019 64 10000 1.5 300 12:18 18.10.2019
5974 Clear 21 1019 64 10000 2.6 250 11:41 18.10.2019
5975 Clear 21 1019 68 10000 2.6 250 11:20 18.10.2019
5976 Clear 21 1019 68 10000 2.6 250 10:57 18.10.2019
5977 Clear 21 1019 68 10000 2.6 250 10:57 18.10.2019
5978 Clear 21 1019 68 10000 2.1 240 10:39 18.10.2019
5979 Clear 20 1019 64 10000 1.5 240 10:19 18.10.2019
5980 Clear 20 1019 64 10000 1.5 240 09:57 18.10.2019
5981 Clear 19 1019 63 10000 1 0 09:39 18.10.2019
5982 Clear 18 1019 77 10000 0.5 0 09:19 18.10.2019
5983 Clear 17 1018 72 10000 1 130 08:44 18.10.2019
5984 Clear 16 1018 77 10000 2.1 140 08:24 18.10.2019
5985 Clear 15 1018 72 10000 2.1 160 07:51 18.10.2019
5986 Clear 15 1018 72 10000 2.1 160 07:33 18.10.2019
5987 Clear 15 1018 67 10000 1 0 06:55 18.10.2019
5988 Clear 15 1018 67 10000 1 0 06:35 18.10.2019
5989 Clear 15 1018 63 10000 1 100 05:59 18.10.2019
5990 Clear 15 1018 67 10000 1.5 150 05:41 18.10.2019
5991 Clear 15 1018 72 10000 2.1 160 05:18 18.10.2019
5992 Clear 15 1019 77 10000 1.5 160 03:36 18.10.2019
5993 Clear 15 1019 72 10000 1.5 150 02:54 18.10.2019
5994 Clear 15 1019 77 10000 1 0 02:32 18.10.2019
5995 Clear 15 1019 77 10000 1 170 01:39 18.10.2019
5996 Clear 15 1019 63 10000 1 180 01:20 18.10.2019
5997 Clear 15 1019 67 10000 2.1 160 00:41 18.10.2019
5998 Clear 15 1019 67 10000 1.5 180 00:19 18.10.2019
5999 Clear 15 1019 77 10000 2.1 140 23:40 17.10.2019
6000 Clear 15 1019 72 10000 2.1 140 23:20 17.10.2019
6001 Clear 16 1019 68 10000 2.1 110 22:57 17.10.2019
6002 Clear 16 1019 68 10000 2.1 110 22:39 17.10.2019
6003 Clear 16 1019 68 10000 2.1 130 22:19 17.10.2019
6004 Clear 16 1019 68 10000 2.1 130 21:57 17.10.2019
6005 Clear 16 1019 68 10000 2.1 130 21:57 17.10.2019
6006 Clear 16 1019 68 10000 4.1 80 21:39 17.10.2019
6007 Clear 17 1019 64 10000 5.1 70 21:20 17.10.2019
6008 Clear 17 1019 64 10000 5.1 70 20:58 17.10.2019
6009 Clear 17 1019 72 10000 4.6 70 20:39 17.10.2019
6010 Clear 17 1019 68 10000 4.6 70 20:19 17.10.2019
6011 Clear 17 1019 68 10000 4.6 70 19:59 17.10.2019
6012 Clear 17 1019 68 10000 4.6 70 19:39 17.10.2019
6013 Clear 18 1019 68 10000 4.6 70 19:19 17.10.2019
6014 Clear 18 1019 68 10000 4.6 70 19:19 17.10.2019
6015 Clear 18 1019 68 10000 4.6 70 18:58 17.10.2019
6016 Clear 18 1019 64 10000 4.6 70 18:38 17.10.2019
6017 Clear 19 1019 64 10000 4.6 60 18:19 17.10.2019
6018 Clouds 20 1019 64 10000 4.6 40 17:42 17.10.2019
6019 Clouds 21 1019 64 10000 4.1 30 17:23 17.10.2019
6020 Clouds 21 1019 64 10000 4.6 20 16:57 17.10.2019
6021 Clouds 22 1019 64 10000 4.6 20 16:38 17.10.2019
6022 Clouds 22 1019 64 10000 4.6 360 16:18 17.10.2019
6023 Clouds 22 1019 64 10000 4.1 10 15:55 17.10.2019
6024 Clouds 22 1019 64 10000 4.1 10 15:37 17.10.2019
6025 Clear 22 1019 60 10000 3.6 10 15:19 17.10.2019
6026 Clouds 22 1019 64 10000 3.1 10 14:43 17.10.2019
6027 Clouds 22 1019 64 10000 3.1 10 14:24 17.10.2019
6028 Clouds 22 1019 64 10000 3.1 10 14:24 17.10.2019
6029 -273 0 0 0 0 0 14:24 17.10.2019
6030 Clouds 22 1020 56 10000 3.6 350 13:57 17.10.2019
6031 Clouds 22 1020 60 10000 3.1 350 13:39 17.10.2019
6032 Clouds 21 1020 64 10000 3.1 330 13:19 17.10.2019
6033 Clouds 21 1021 64 10000 2.6 330 12:41 17.10.2019
6034 Clouds 20 1021 64 10000 2.1 310 12:21 17.10.2019
6035 Clouds 20 1021 64 10000 2.1 310 11:59 17.10.2019
6036 Clear 20 1021 64 10000 2.1 280 11:41 17.10.2019
6037 Clear 20 1021 64 10000 2.1 280 11:41 17.10.2019
6038 Clear 19 1021 64 10000 2.1 260 11:20 17.10.2019
6039 Clear 19 1021 64 10000 2.1 260 10:57 17.10.2019
6040 Clear 19 1021 64 10000 2.1 260 10:39 17.10.2019
6041 Clear 19 1020 64 10000 1 0 10:19 17.10.2019
6042 Clear 18 1020 64 10000 1 0 09:55 17.10.2019
6043 Clear 18 1020 63 10000 1 0 09:36 17.10.2019
6044 Clear 17 1020 72 10000 1.5 170 09:18 17.10.2019
6045 Clear 17 1020 72 10000 1.5 170 09:18 17.10.2019
6046 Clear 16 1020 72 10000 2.1 170 08:46 17.10.2019
6047 Clear 15 1020 72 10000 2.1 170 08:26 17.10.2019
6048 Clear 14 1019 77 10000 2.6 150 07:56 17.10.2019
6049 Clear 14 1019 77 10000 2.6 150 07:38 17.10.2019
6050 Clear 13 1019 77 10000 1.5 170 07:19 17.10.2019
6051 Clear 13 1019 77 10000 2.1 180 06:40 17.10.2019
6052 Clouds 13 1019 72 10000 2.1 170 06:21 17.10.2019
6053 Clouds 13 1019 72 10000 2.1 170 06:21 17.10.2019
6054 Clouds 13 1019 72 10000 2.1 170 05:58 17.10.2019
6055 Clouds 13 1019 77 10000 2.6 160 05:32 17.10.2019
6056 Clouds 15 1019 77 10000 2.1 180 04:57 17.10.2019
6057 Clouds 15 1019 72 10000 2.1 170 03:55 17.10.2019
6058 Clouds 15 1020 72 10000 2.1 160 02:53 17.10.2019
6059 Clouds 15 1020 72 10000 2.6 160 01:55 17.10.2019
6060 Clouds 15 1020 67 10000 3.1 160 00:41 17.10.2019
6061 Clouds 15 1020 67 10000 2.6 150 00:20 17.10.2019
6062 Clouds 15 1020 67 10000 2.6 150 00:20 17.10.2019
6063 Clear 15 1020 67 10000 2.1 150 23:42 16.10.2019
6064 Clouds 15 1020 63 10000 2.1 150 23:21 16.10.2019
6065 Clouds 15 1020 63 10000 2.1 150 22:57 16.10.2019
6066 Clouds 16 1020 63 10000 2.1 160 22:38 16.10.2019
6067 Clouds 16 1020 63 10000 2.1 160 22:20 16.10.2019
6068 Clouds 16 1020 63 10000 2.1 160 21:58 16.10.2019
6069 Clouds 16 1020 59 10000 1.5 160 21:38 16.10.2019
6070 Clouds 16 1019 63 10000 2.1 160 21:20 16.10.2019
6071 Clouds 16 1019 63 10000 2.1 160 20:58 16.10.2019
6072 Clouds 16 1019 63 10000 2.1 160 20:58 16.10.2019
6073 Clouds 16 1019 59 10000 1.5 0 20:40 16.10.2019
6074 Clouds 17 1019 60 10000 1.5 290 20:21 16.10.2019
6075 Clouds 17 1019 60 10000 1.5 290 19:59 16.10.2019
6076 Clouds 17 1019 56 10000 3.1 270 19:40 16.10.2019
6077 Clouds 17 1019 56 10000 4.6 280 19:21 16.10.2019
6078 -273 0 0 0 0 0 18:56 16.10.2019
6079 Clouds 18 1019 56 10000 4.6 280 18:56 16.10.2019
6080 Clouds 18 1019 56 10000 5.7 290 18:37 16.10.2019
6081 Clouds 19 1019 60 10000 6.2 290 18:18 16.10.2019
6082 Clouds 19 1019 60 10000 6.2 290 18:18 16.10.2019
6083 Clouds 19 1019 60 10000 6.2 290 18:18 16.10.2019
6084 Clouds 19 1019 60 10000 6.2 290 17:55 16.10.2019
6085 Clouds 19 1019 60 10000 6.2 290 17:54 16.10.2019
6086 Clouds 20 1019 64 10000 6.7 290 17:36 16.10.2019
6087 Clouds 20 1019 64 10000 7.7 290 17:18 16.10.2019
6088 Clouds 21 1019 64 10000 7.7 300 16:43 16.10.2019
6089 Clouds 21 1019 60 10000 7.2 290 16:22 16.10.2019
6090 Clouds 21 1019 60 10000 7.2 290 15:59 16.10.2019
6091 Clouds 22 1019 60 10000 7.2 290 15:39 16.10.2019
6092 Clouds 22 1019 64 10000 6.2 290 15:19 16.10.2019
6093 Clouds 22 1019 64 10000 6.2 290 14:58 16.10.2019
6094 Clouds 22 1019 64 10000 6.2 290 14:39 16.10.2019
6095 Clouds 22 1019 68 10000 6.2 290 14:20 16.10.2019
6096 Clouds 22 1019 68 10000 6.2 290 13:57 16.10.2019
6097 Clouds 22 1019 68 10000 6.2 300 13:39 16.10.2019
6098 Clouds 22 1020 73 10000 5.1 290 13:21 16.10.2019
6099 Clouds 22 1020 73 10000 5.1 270 12:42 16.10.2019
6100 Clouds 22 1020 73 10000 4.6 280 12:20 16.10.2019
6101 Clouds 22 1020 73 10000 5.1 280 11:55 16.10.2019
6102 Clouds 21 1020 73 10000 5.1 280 11:36 16.10.2019
6103 Clouds 21 1020 73 10000 4.6 270 11:18 16.10.2019
6104 Clouds 21 1020 68 10000 4.1 210 10:36 16.10.2019
6105 Clouds 21 1020 68 10000 4.1 210 10:36 16.10.2019
6106 Clouds 21 1020 73 10000 3.6 230 10:18 16.10.2019
6107 Clouds 21 1019 73 10000 5.1 250 09:40 16.10.2019
6108 Clouds 20 1019 73 10000 5.7 260 09:22 16.10.2019
6109 Clouds 20 1019 73 10000 5.7 260 08:57 16.10.2019
6110 Clouds 19 1019 73 10000 5.1 270 08:39 16.10.2019
6111 Clouds 19 1019 73 10000 5.1 270 08:39 16.10.2019
6112 Clouds 19 1018 78 10000 5.1 260 08:20 16.10.2019
6113 Clouds 18 1018 78 10000 5.1 270 07:43 16.10.2019
6114 Clouds 18 1018 78 10000 4.1 250 07:24 16.10.2019
6115 Clouds 18 1018 78 10000 4.1 250 06:51 16.10.2019
6116 Clouds 18 1018 83 10000 3.1 200 06:30 16.10.2019
6117 Clouds 18 1018 83 10000 5.1 250 05:22 16.10.2019
6118 Clouds 19 1018 77 10000 4.1 200 02:53 16.10.2019
6119 Clouds 19 1018 77 10000 4.1 200 01:38 16.10.2019
6120 Clouds 19 1018 78 10000 5.1 210 01:18 16.10.2019
6121 Clouds 20 1018 78 10000 4.6 220 00:42 16.10.2019
6122 Clouds 20 1018 73 10000 4.6 210 23:59 15.10.2019
6123 Clouds 20 1017 78 10000 5.1 200 23:39 15.10.2019
6124 Clouds 19 1017 78 10000 4.6 230 23:21 15.10.2019
6125 Clouds 20 1017 83 10000 4.1 210 22:55 15.10.2019
6126 Clouds 20 1017 83 10000 4.1 210 22:55 15.10.2019
6127 Clouds 20 1017 83 10000 4.1 210 22:37 15.10.2019
6128 Clouds 20 1017 83 10000 5.1 210 22:19 15.10.2019
6129 Clouds 20 1017 83 10000 5.1 210 22:19 15.10.2019
6130 Clouds 20 1017 83 10000 5.1 210 21:55 15.10.2019
6131 Rain 20 1017 83 10000 5.7 220 21:37 15.10.2019
6132 Clouds 20 1017 73 10000 3.6 200 21:19 15.10.2019
6133 Clouds 20 1017 73 10000 3.6 200 21:19 15.10.2019
6134 Clouds 21 1017 73 10000 3.6 200 20:56 15.10.2019
6135 Clouds 21 1017 83 10000 4.6 240 20:37 15.10.2019
6136 Clouds 21 1017 78 10000 4.1 220 20:19 15.10.2019
6137 Clouds 21 1017 78 10000 4.1 220 19:56 15.10.2019
6138 Clouds 21 1017 73 10000 5.7 230 19:37 15.10.2019
6139 Clouds 21 1016 73 10000 7.7 230 19:19 15.10.2019
6140 Clouds 22 1016 73 10000 7.2 220 18:44 15.10.2019
6141 -273 0 0 0 0 0 18:26 15.10.2019
6142 Clouds 23 1016 69 10000 7.2 220 17:57 15.10.2019
6143 Clouds 23 1015 65 10000 6.7 210 17:38 15.10.2019
6144 Clouds 23 1015 61 10000 7.2 210 17:19 15.10.2019
6145 Clouds 23 1015 57 10000 7.7 210 16:46 15.10.2019
6146 Clouds 23 1015 57 10000 7.7 210 16:23 15.10.2019
6147 Clouds 23 1015 57 10000 8.2 210 15:59 15.10.2019
6148 Clouds 23 1015 54 10000 8.2 210 15:40 15.10.2019
6149 Clouds 24 1015 54 10000 7.7 220 15:20 15.10.2019
6150 Clouds 24 1016 51 10000 6.7 210 14:57 15.10.2019
6151 Clouds 24 1016 51 10000 6.7 210 14:38 15.10.2019
6152 Clouds 24 1016 51 10000 6.7 210 14:38 15.10.2019
6153 Clouds 24 1016 51 10000 6.7 210 14:19 15.10.2019
6154 Clouds 24 1016 51 10000 6.7 200 13:44 15.10.2019
6155 Clouds 24 1017 57 10000 7.2 200 13:21 15.10.2019
6156 Clouds 24 1017 57 10000 7.2 200 12:59 15.10.2019
6157 Clouds 24 1017 61 10000 6.7 210 12:39 15.10.2019
6158 Clouds 24 1017 57 10000 7.7 210 12:20 15.10.2019
6159 Clouds 24 1017 57 10000 7.7 210 11:55 15.10.2019
6160 Clouds 24 1017 54 10000 4.1 180 11:37 15.10.2019
6161 Clouds 23 1017 57 10000 3.1 140 11:18 15.10.2019
6162 Clouds 22 1017 57 10000 5.1 180 10:42 15.10.2019
6163 Clouds 22 1017 69 10000 1.5 0 10:19 15.10.2019
6164 Clouds 21 1017 69 10000 1.5 0 09:57 15.10.2019
6165 Clouds 21 1017 83 10000 2.1 0 09:37 15.10.2019
6166 Clouds 20 1017 83 10000 1 0 09:19 15.10.2019
6167 Clouds 20 1017 82 10000 0.5 0 08:42 15.10.2019
6168 Clouds 19 1017 77 10000 1 0 08:22 15.10.2019
6169 Clouds 18 1017 77 10000 1 0 07:56 15.10.2019
6170 -273 0 0 0 0 0 07:56 15.10.2019
6171 Clear 18 1017 82 10000 0.5 0 07:38 15.10.2019
6172 Clear 18 1017 82 10000 1.5 100 07:19 15.10.2019
6173 Clear 19 1017 82 10000 2.6 60 06:44 15.10.2019
6174 Clear 18 1017 82 10000 2.6 60 06:26 15.10.2019
6175 Clear 19 1017 77 10000 3.1 70 05:41 15.10.2019
6176 Clear 19 1017 73 10000 1.5 0 05:23 15.10.2019
6177 Clear 19 1017 77 10000 2.1 150 04:32 15.10.2019
6178 Clear 19 1017 73 10000 1 0 03:37 15.10.2019
6179 Clear 18 1018 72 10000 1.5 180 02:29 15.10.2019
6180 Clouds 19 1018 72 10000 2.6 200 01:48 15.10.2019
6181 Clouds 19 1018 73 10000 1 150 01:19 15.10.2019
6182 Clouds 19 1018 77 10000 1.5 220 00:49 15.10.2019
6183 Clouds 19 1018 73 10000 0.5 0 00:21 15.10.2019
6184 Clouds 19 1018 73 10000 2.1 60 23:44 14.10.2019
6185 Clouds 19 1019 73 10000 2.1 210 23:20 14.10.2019
6186 Clouds 19 1019 73 10000 2.1 210 22:57 14.10.2019
6187 Clouds 19 1019 73 10000 2.6 220 22:38 14.10.2019
6188 Clouds 19 1019 68 10000 2.1 200 22:18 14.10.2019
6189 Clouds 20 1019 68 10000 1.5 160 21:41 14.10.2019
6190 Clouds 20 1019 68 10000 1 0 21:22 14.10.2019
6191 Clouds 20 1019 68 10000 1 0 20:59 14.10.2019
6192 Clouds 20 1019 68 10000 2.1 200 20:40 14.10.2019
6193 Clouds 20 1019 73 10000 2.1 170 20:22 14.10.2019
6194 Clouds 20 1019 73 10000 2.1 170 19:59 14.10.2019
6195 -273 0 0 0 0 0 19:41 14.10.2019
6196 Clouds 20 1019 73 10000 3.1 220 19:41 14.10.2019
6197 Clouds 20 1019 73 10000 3.1 220 19:23 14.10.2019
6198 Clouds 21 1019 69 10000 1.5 60 18:58 14.10.2019
6199 Clouds 21 1018 64 10000 2.6 80 18:38 14.10.2019
6200 Clouds 21 1018 69 10000 5.1 70 18:19 14.10.2019
6201 Clouds 22 1018 69 10000 5.1 70 17:56 14.10.2019
6202 Clouds 22 1018 69 10000 5.7 70 17:37 14.10.2019
6203 Clouds 22 1018 69 10000 5.7 70 17:19 14.10.2019
6204 Clouds 22 1019 73 10000 6.2 60 16:43 14.10.2019
6205 Clouds 23 1019 65 10000 6.7 70 16:21 14.10.2019
6206 Clouds 23 1019 57 10000 6.7 60 15:42 14.10.2019
6207 Clouds 24 1019 61 10000 6.7 70 15:23 14.10.2019
6208 Clouds 24 1019 61 10000 6.7 70 14:57 14.10.2019
6209 Clouds 24 1019 61 10000 6.7 70 14:57 14.10.2019
6210 Clouds 24 1019 57 10000 6.2 60 14:39 14.10.2019
6211 Clouds 25 1020 57 10000 4.6 50 14:20 14.10.2019
6212 Clouds 24 1020 69 10000 4.1 40 13:44 14.10.2019
6213 Clouds 24 1021 69 10000 2.6 10 13:21 14.10.2019
6214 Clouds 24 1021 69 10000 2.6 10 12:55 14.10.2019
6215 Clouds 24 1021 78 10000 3.6 20 12:37 14.10.2019
6216 Clear 23 1021 78 10000 3.1 30 12:18 14.10.2019
6217 Clear 23 1021 78 10000 2.1 20 11:44 14.10.2019
6218 Clear 23 1021 78 10000 2.1 20 11:26 14.10.2019
6219 Clear 23 1021 78 10000 1.5 300 10:57 14.10.2019
6220 Clear 22 1021 78 10000 1 260 10:38 14.10.2019
6221 Clear 22 1021 77 10000 1 270 10:19 14.10.2019
6222 Clear 21 1021 77 10000 0.5 0 09:42 14.10.2019
6223 Clear 20 1021 82 10000 1.5 160 09:21 14.10.2019
6224 Clear 19 1021 82 10000 1.5 220 08:51 14.10.2019
6225 Clear 19 1021 82 10000 1 0 08:23 14.10.2019
6226 Clear 18 1021 82 10000 1 0 07:59 14.10.2019
6227 Clear 18 1020 82 10000 1 0 07:39 14.10.2019
6228 Clear 18 1021 82 10000 1.5 160 07:18 14.10.2019
6229 Clear 18 1021 77 10000 0.5 190 06:29 14.10.2019
6230 Clear 18 1021 77 10000 1.5 130 05:57 14.10.2019
6231 Clear 18 1021 77 10000 1.5 220 05:29 14.10.2019
6232 Clear 17 1021 77 10000 1 0 04:42 14.10.2019
6233 Clear 18 1021 77 10000 1.5 210 03:27 14.10.2019
6234 Clear 18 1022 82 10000 2.1 200 02:36 14.10.2019
6235 Clear 18 1022 77 10000 1 180 01:22 14.10.2019
6236 Clear 18 1022 82 10000 1.5 190 00:53 14.10.2019
6237 Clear 18 1022 82 10000 1.5 160 00:19 14.10.2019
6238 Clear 19 1022 83 10000 0.5 280 23:44 13.10.2019
6239 Clear 19 1022 83 10000 1.5 290 23:20 13.10.2019
6240 Clear 19 1022 83 10000 1.5 290 22:58 13.10.2019
6241 Clear 19 1022 73 10000 1.5 70 22:40 13.10.2019
6242 Clouds 19 1022 73 10000 1 0 22:21 13.10.2019
6243 Clouds 19 1022 73 10000 3.1 190 21:58 13.10.2019
6244 Clouds 19 1022 73 10000 3.1 190 21:37 13.10.2019
6245 Clouds 20 1022 73 10000 2.6 190 21:19 13.10.2019
6246 Clouds 20 1022 73 10000 2.6 190 21:19 13.10.2019
6247 Clouds 20 1022 73 10000 2.6 190 20:57 13.10.2019
6248 Clouds 20 1022 73 10000 2.6 180 20:38 13.10.2019
6249 Clouds 20 1022 73 10000 4.1 220 20:20 13.10.2019
6250 Clouds 20 1022 73 10000 4.1 220 19:58 13.10.2019
6251 Clouds 20 1021 73 10000 4.1 210 19:39 13.10.2019
6252 Clouds 20 1021 73 10000 4.1 210 19:39 13.10.2019
6253 Clouds 21 1021 69 10000 3.6 200 19:21 13.10.2019
6254 -273 0 0 0 0 0 18:57 13.10.2019
6255 Clouds 21 1021 69 10000 3.6 200 18:56 13.10.2019
6256 Clouds 21 1021 64 10000 4.1 200 18:36 13.10.2019
6257 Clouds 22 1021 61 10000 2.6 0 18:18 13.10.2019
6258 Clouds 22 1021 65 10000 4.6 70 17:44 13.10.2019
6259 Clouds 22 1021 65 10000 4.6 70 17:44 13.10.2019
6260 Clouds 23 1021 69 10000 6.2 70 17:26 13.10.2019
6261 Clouds 23 1021 69 10000 6.2 70 16:58 13.10.2019
6262 Clouds 24 1021 65 10000 6.7 70 16:40 13.10.2019
6263 Clouds 23 1021 69 10000 7.7 70 16:18 13.10.2019
6264 Clouds 23 1021 69 10000 7.7 70 15:56 13.10.2019
6265 -273 0 0 0 0 0 15:56 13.10.2019
6266 Clouds 23 1021 69 10000 7.7 60 15:37 13.10.2019
6267 Clouds 24 1021 73 10000 7.7 60 15:18 13.10.2019
6268 Clouds 24 1021 73 10000 7.7 60 14:56 13.10.2019
6269 Clouds 24 1021 65 10000 7.7 60 14:38 13.10.2019
6270 Clouds 24 1022 65 10000 6.7 60 14:18 13.10.2019
6271 Clouds 24 1022 69 10000 5.1 40 13:39 13.10.2019
6272 Clouds 24 1023 73 10000 4.1 30 13:21 13.10.2019
6273 Clouds 24 1023 73 10000 4.1 30 12:59 13.10.2019
6274 Clouds 24 1023 78 10000 3.1 20 12:39 13.10.2019
6275 Clear 24 1023 78 10000 3.1 30 12:20 13.10.2019
6276 Clear 23 1023 78 10000 3.1 30 11:58 13.10.2019
6277 Clear 23 1023 78 10000 2.6 20 11:39 13.10.2019
6278 Clear 23 1023 78 10000 2.1 360 11:20 13.10.2019
6279 Clear 22 1023 73 10000 1 350 10:43 13.10.2019
6280 Clear 22 1023 73 10000 1 350 10:24 13.10.2019
6281 Clear 21 1023 77 10000 1 270 09:59 13.10.2019
6282 Clear 21 1023 73 10000 0.5 0 09:39 13.10.2019
6283 -273 0 0 0 0 0 09:21 13.10.2019
6284 Clear 19 1022 88 10000 2.6 150 08:43 13.10.2019
6285 Clear 18 1022 88 10000 2.6 150 08:25 13.10.2019
6286 Clear 18 1022 82 10000 1 0 07:51 13.10.2019
6287 Clear 18 1022 82 10000 1 0 07:33 13.10.2019
6288 Clear 18 1022 77 10000 0.5 0 06:53 13.10.2019
6289 Clear 18 1022 77 10000 0.5 0 06:23 13.10.2019
6290 Clear 18 1022 77 10000 0.5 0 05:19 13.10.2019
6291 Clear 18 1022 72 10000 1 0 04:34 13.10.2019
6292 Clear 18 1022 72 10000 1 0 04:34 13.10.2019
6293 Clear 18 1023 82 10000 2.6 190 03:24 13.10.2019
6294 Clear 18 1023 88 10000 2.6 200 02:30 13.10.2019
6295 Clear 18 1023 77 10000 1 0 01:36 13.10.2019
6296 Clear 18 1023 77 10000 1 0 01:36 13.10.2019
6297 Clear 18 1022 88 10000 1.5 130 00:56 13.10.2019
6298 Clear 18 1023 88 10000 1.5 140 00:37 13.10.2019
6299 Clear 18 1023 88 10000 1.5 140 00:37 13.10.2019
6300 Clear 18 1023 82 10000 1.5 150 00:18 13.10.2019
6301 Clear 18 1023 82 10000 1.5 200 23:41 12.10.2019
6302 Clear 18 1023 88 10000 1 0 23:23 12.10.2019
6303 Clear 18 1023 88 10000 1 0 22:58 12.10.2019
6304 Clear 19 1023 83 10000 1 0 22:40 12.10.2019
6305 Clear 19 1023 83 10000 1 0 22:22 12.10.2019
6306 Clear 19 1023 83 10000 1 0 22:22 12.10.2019
6307 Clear 19 1023 83 10000 1 0 21:58 12.10.2019
6308 Clear 19 1023 83 10000 1 0 21:58 12.10.2019
6309 Clear 19 1023 83 10000 1.5 190 21:39 12.10.2019
6310 Clear 19 1023 83 10000 2.6 250 21:21 12.10.2019
6311 Clear 19 1023 83 10000 2.6 250 20:54 12.10.2019
6312 Clear 20 1022 78 10000 1 0 20:36 12.10.2019
6313 Clear 20 1022 78 10000 2.1 220 20:18 12.10.2019
6314 Clouds 20 1022 78 10000 1.5 90 19:36 12.10.2019
6315 Clouds 21 1022 78 10000 3.6 70 19:18 12.10.2019
6316 Clouds 21 1022 78 10000 4.6 60 18:42 12.10.2019
6317 Clouds 22 1022 73 10000 5.7 60 18:24 12.10.2019
6318 Clouds 22 1022 73 10000 5.7 50 17:46 12.10.2019
6319 Clouds 22 1022 73 10000 5.7 50 17:21 12.10.2019
6320 Clouds 23 1022 73 10000 5.7 50 16:58 12.10.2019
6321 Clouds 23 1022 73 10000 6.2 50 16:40 12.10.2019
6322 Clouds 23 1022 73 10000 6.2 50 16:20 12.10.2019
6323 Clouds 24 1022 73 10000 6.2 50 15:56 12.10.2019
6324 Clouds 24 1022 73 10000 6.2 60 15:37 12.10.2019
6325 Clouds 24 1022 65 10000 6.2 60 15:18 12.10.2019
6326 Clouds 24 1022 65 10000 5.7 70 14:39 12.10.2019
6327 Clouds 24 1022 64 10000 5.7 50 14:20 12.10.2019
6328 Clouds 24 1023 64 10000 5.1 40 13:50 12.10.2019
6329 Clouds 24 1023 64 10000 5.1 40 13:32 12.10.2019
6330 Clouds 24 1023 73 10000 4.1 40 12:55 12.10.2019
6331 Clouds 23 1023 73 10000 4.1 40 12:37 12.10.2019
6332 Clouds 23 1023 73 10000 4.1 40 12:19 12.10.2019
6333 Clear 23 1023 78 10000 2.6 20 11:43 12.10.2019
6334 Clear 23 1023 78 10000 2.6 20 11:43 12.10.2019
6335 Clear 22 1023 78 10000 2.1 360 11:22 12.10.2019
6336 Clear 22 1023 78 10000 2.1 360 10:58 12.10.2019
6337 Clear 22 1023 78 10000 1.5 340 10:39 12.10.2019
6338 Clear 22 1023 78 10000 0.5 0 10:20 12.10.2019
6339 Clear 21 1023 77 10000 1 0 09:57 12.10.2019
6340 -273 0 0 0 0 0 09:57 12.10.2019
6341 Clear 20 1023 77 10000 1 0 09:37 12.10.2019
6342 Clear 20 1022 82 10000 1.5 180 09:19 12.10.2019
6343 Clear 18 1022 88 10000 1 180 08:43 12.10.2019
6344 Clear 18 1022 82 10000 1 0 08:23 12.10.2019
6345 Clear 18 1022 82 10000 0.5 150 07:49 12.10.2019
6346 Clouds 18 1022 82 10000 0.5 0 07:30 12.10.2019
6347 Clear 18 1022 82 10000 1 170 06:27 12.10.2019
6348 Clear 18 1022 88 10000 1.5 170 05:42 12.10.2019
6349 Clear 18 1022 82 10000 1.5 150 04:34 12.10.2019
6350 Clouds 18 1022 88 10000 1 0 03:53 12.10.2019
6351 Clouds 18 1022 82 10000 1 140 02:45 12.10.2019
6352 Clear 18 1022 88 10000 2.1 170 01:32 12.10.2019
6353 Clear 18 1022 88 10000 2.1 170 01:32 12.10.2019
6354 Clear 19 1022 82 10000 1.5 150 00:55 12.10.2019
6355 Clear 19 1022 82 10000 1.5 150 00:37 12.10.2019
6356 Clear 19 1022 82 10000 1 0 23:55 11.10.2019
6357 Clear 19 1021 82 10000 0.5 0 23:36 11.10.2019
6358 Clear 19 1021 77 10000 1 0 23:18 11.10.2019
6359 Clear 19 1021 77 10000 1 0 23:18 11.10.2019
6360 Clear 19 1021 77 10000 1.5 100 22:37 11.10.2019
6361 Clear 19 1021 77 10000 2.1 130 22:18 11.10.2019
6362 Clear 19 1021 73 10000 3.6 90 21:42 11.10.2019
6363 Clear 20 1021 73 10000 5.1 60 21:21 11.10.2019
6364 Clear 20 1021 73 10000 5.1 60 20:57 11.10.2019
6365 Clear 20 1020 73 10000 5.7 70 20:38 11.10.2019
6366 Clear 20 1020 73 10000 6.2 60 20:19 11.10.2019
6367 Clear 20 1020 73 10000 6.2 60 19:55 11.10.2019
6368 Clear 20 1020 73 10000 6.2 60 19:36 11.10.2019
6369 Clear 21 1020 69 10000 6.7 70 19:18 11.10.2019
6370 Clear 21 1020 69 10000 6.7 70 19:18 11.10.2019
6371 Clear 21 1020 69 10000 6.7 70 19:18 11.10.2019
6372 Clear 21 1020 69 10000 7.2 70 18:54 11.10.2019
6373 Clear 22 1020 69 10000 7.2 70 18:36 11.10.2019
6374 Clear 22 1020 69 10000 7.2 70 18:36 11.10.2019
6375 Clear 22 1020 64 10000 8.2 70 18:18 11.10.2019
6376 Clear 23 1020 64 10000 8.2 70 17:54 11.10.2019
6377 Clear 23 1020 64 10000 7.7 70 17:36 11.10.2019
6378 Clear 23 1020 64 10000 8.7 70 17:18 11.10.2019
6379 Clear 23 1020 64 10000 8.7 70 17:18 11.10.2019
6380 Clear 23 1020 64 10000 9.3 70 16:39 11.10.2019
6381 Clouds 23 1020 69 10000 9.3 60 16:19 11.10.2019
6382 Clouds 23 1020 69 10000 9.3 60 15:58 11.10.2019
6383 Clouds 24 1020 64 10000 9.3 60 15:38 11.10.2019
6384 Clouds 24 1020 64 10000 9.3 60 15:18 11.10.2019
6385 Clouds 24 1021 64 10000 8.7 70 14:46 11.10.2019
6386 Clouds 24 1021 64 10000 9.3 70 14:28 11.10.2019
6387 Clouds 23 1021 64 10000 8.7 60 13:56 11.10.2019
6388 Clouds 24 1021 64 10000 8.7 60 13:37 11.10.2019
6389 Clouds 24 1021 64 10000 8.7 70 13:18 11.10.2019
6390 Clouds 24 1021 64 10000 7.7 70 12:42 11.10.2019
6391 Clouds 23 1021 64 10000 7.7 70 12:22 11.10.2019
6392 Clouds 23 1021 64 10000 7.7 70 12:00 11.10.2019
6393 Clouds 22 1021 69 10000 6.7 60 11:40 11.10.2019
6394 Clouds 22 1021 69 10000 6.7 60 11:21 11.10.2019
6395 Clouds 22 1021 69 10000 6.7 70 10:56 11.10.2019
6396 Clouds 22 1021 69 10000 6.7 70 10:38 11.10.2019
6397 Clouds 21 1021 73 10000 5.1 70 10:20 11.10.2019
6398 Clouds 21 1021 73 10000 5.1 70 10:20 11.10.2019
6399 Clouds 21 1021 73 10000 5.1 70 09:55 11.10.2019
6400 Clouds 21 1020 73 10000 4.1 70 09:37 11.10.2019
6401 Clouds 20 1020 77 10000 4.6 70 09:18 11.10.2019
6402 Clouds 20 1020 77 10000 4.6 70 09:18 11.10.2019
6403 Clouds 19 1020 77 10000 4.6 70 08:54 11.10.2019
6404 Clouds 19 1020 77 10000 4.6 70 08:36 11.10.2019
6405 Clouds 19 1019 77 10000 4.6 70 08:18 11.10.2019
6406 Clouds 19 1019 82 10000 4.6 70 07:41 11.10.2019
6407 Clouds 19 1020 82 10000 4.1 70 07:22 11.10.2019
6408 Clouds 19 1019 82 10000 4.1 70 06:47 11.10.2019
6409 Clouds 19 1019 88 10000 3.6 60 06:22 11.10.2019
6410 Clouds 18 1019 88 10000 4.1 70 05:37 11.10.2019
6411 Clouds 19 1019 88 10000 3.6 60 04:59 11.10.2019
6412 Clouds 19 1019 88 10000 4.6 80 04:24 11.10.2019
6413 Clouds 19 1019 83 10000 4.1 50 02:19 11.10.2019
6414 Clouds 19 1019 83 10000 4.1 50 00:47 11.10.2019
6415 Clouds 19 1019 83 10000 4.1 50 00:27 11.10.2019
6416 Clouds 20 1019 83 10000 4.1 40 23:44 10.10.2019
6417 Clouds 19 1018 83 10000 4.1 40 23:22 10.10.2019
6418 Clouds 19 1018 83 10000 3.6 50 22:57 10.10.2019
6419 Clouds 19 1018 83 10000 3.6 50 22:39 10.10.2019
6420 Clouds 20 1018 83 10000 4.1 40 22:20 10.10.2019
6421 Clouds 20 1018 83 10000 4.1 40 21:57 10.10.2019
6422 Clouds 20 1018 83 10000 4.1 40 21:39 10.10.2019
6423 Clouds 20 1018 83 10000 3.6 40 21:20 10.10.2019
6424 Clouds 20 1017 83 10000 3.1 50 20:43 10.10.2019
6425 Clouds 20 1017 83 10000 3.6 50 20:22 10.10.2019
6426 Clouds 21 1017 83 10000 3.6 50 19:59 10.10.2019
6427 Clouds 21 1017 83 10000 3.6 50 19:41 10.10.2019
6428 Clouds 20 1017 83 10000 3.6 50 19:41 10.10.2019
6429 Clouds 21 1017 78 10000 3.6 30 19:21 10.10.2019
6430 Clouds 21 1017 78 10000 3.6 30 18:59 10.10.2019
6431 Clouds 21 1017 83 10000 4.6 10 18:39 10.10.2019
6432 Clouds 22 1017 83 10000 5.1 20 18:20 10.10.2019
6433 Clouds 22 1017 83 10000 5.1 20 17:55 10.10.2019
6434 Clouds 22 1017 83 10000 5.7 10 17:36 10.10.2019
6435 Clouds 23 1017 83 10000 5.7 10 17:18 10.10.2019
6436 Clouds 23 1017 83 10000 5.1 20 16:44 10.10.2019
6437 Clouds 23 1017 83 10000 5.1 20 16:26 10.10.2019
6438 Clouds 23 1016 83 10000 4.1 20 15:57 10.10.2019
6439 Clouds 23 1016 83 10000 4.1 20 15:37 10.10.2019
6440 Clouds 23 1016 78 10000 4.1 30 15:19 10.10.2019
6441 Clouds 24 1016 78 10000 4.1 30 14:54 10.10.2019
6442 Clouds 24 1016 78 10000 4.1 20 14:36 10.10.2019
6443 Clouds 24 1016 78 10000 4.1 20 14:18 10.10.2019
6444 Clouds 24 1016 78 10000 4.1 20 13:41 10.10.2019
6445 Clouds 24 1017 83 10000 3.6 20 13:23 10.10.2019
6446 Clouds 24 1017 78 10000 3.6 40 12:57 10.10.2019
6447 Clouds 23 1017 78 10000 3.6 40 12:39 10.10.2019
6448 Clouds 23 1017 78 10000 4.1 40 12:20 10.10.2019
6449 Clouds 23 1017 78 10000 4.1 40 11:56 10.10.2019
6450 Clouds 23 1017 78 10000 4.1 40 11:38 10.10.2019
6451 Clouds 23 1017 78 10000 3.1 50 11:19 10.10.2019
6452 Clouds 22 1017 83 10000 1 0 10:44 10.10.2019
6453 Clouds 23 1017 83 10000 1 0 10:26 10.10.2019
6454 Clouds 22 1017 83 10000 2.1 250 09:56 10.10.2019
6455 Clouds 22 1016 88 10000 1.5 230 09:38 10.10.2019
6456 Clouds 20 1016 88 10000 1 180 09:20 10.10.2019
6457 Clouds 20 1016 88 10000 1 180 08:57 10.10.2019
6458 Clouds 19 1016 94 10000 2.1 160 08:37 10.10.2019
6459 Clouds 19 1016 88 10000 1 200 08:18 10.10.2019
6460 Clouds 18 1015 88 10000 1 200 07:44 10.10.2019
6461 Clouds 18 1015 94 10000 1.5 140 07:21 10.10.2019
6462 Clouds 19 1015 88 10000 1.5 170 06:48 10.10.2019
6463 Clouds 19 1015 88 10000 1.5 170 06:29 10.10.2019
6464 Clouds 18 1015 88 10000 1.5 170 05:28 10.10.2019
6465 Clouds 18 1015 82 10000 1.5 160 04:47 10.10.2019
6466 Clouds 18 1015 88 10000 1 0 04:26 10.10.2019
6467 Clouds 18 1015 88 10000 1 0 04:26 10.10.2019
6468 Clear 19 1016 82 10000 2.1 130 01:44 10.10.2019
6469 Clear 19 1016 82 10000 2.1 130 01:25 10.10.2019
6470 Clear 19 1016 88 10000 2.1 180 00:54 10.10.2019
6471 Clear 19 1016 88 10000 2.1 180 00:54 10.10.2019
6472 Clear 19 1016 88 10000 1 0 00:23 10.10.2019
6473 Clear 20 1016 83 10000 2.1 80 23:40 09.10.2019
6474 Clear 20 1016 78 10000 0.5 0 23:21 09.10.2019
6475 Clear 20 1016 78 10000 0.5 0 22:56 09.10.2019
6476 Clear 19 1016 83 10000 1 0 22:38 09.10.2019
6477 Clear 19 1016 82 10000 3.1 120 22:20 09.10.2019
6478 Clear 20 1016 83 10000 2.6 80 21:41 09.10.2019
6479 Clear 20 1016 83 10000 4.1 80 21:21 09.10.2019
6480 Clear 20 1016 83 10000 4.1 80 20:56 09.10.2019
6481 Clear 20 1016 83 10000 5.1 60 20:38 09.10.2019
6482 Clear 21 1016 69 10000 4.6 80 20:19 09.10.2019
6483 Clear 21 1016 69 10000 4.6 80 20:19 09.10.2019
6484 Clear 21 1016 69 10000 4.6 80 19:58 09.10.2019
6485 Clear 21 1015 73 10000 5.7 50 19:40 09.10.2019
6486 Clear 21 1015 69 10000 4.6 60 19:21 09.10.2019
6487 Clouds 21 1015 73 10000 7.2 70 18:38 09.10.2019
6488 Clouds 23 1015 78 10000 7.7 60 18:20 09.10.2019
6489 Clouds 22 1015 78 10000 7.7 60 17:57 09.10.2019
6490 Clouds 23 1015 73 10000 8.2 60 17:37 09.10.2019
6491 Clouds 23 1015 69 10000 8.2 70 17:19 09.10.2019
6492 Clouds 23 1015 69 10000 8.2 70 16:56 09.10.2019
6493 Clouds 23 1015 69 10000 8.7 70 16:37 09.10.2019
6494 Clouds 23 1015 73 10000 7.7 70 16:18 09.10.2019
6495 Clouds 23 1015 73 10000 7.7 70 16:18 09.10.2019
6496 Clouds 23 1015 73 10000 7.7 70 15:55 09.10.2019
6497 Clouds 24 1016 73 10000 8.2 60 15:36 09.10.2019
6498 Clouds 24 1016 69 10000 7.2 60 15:18 09.10.2019
6499 Clouds 24 1016 69 10000 6.7 50 14:44 09.10.2019
6500 Clear 24 1016 73 10000 6.2 40 14:19 09.10.2019
6501 Clear 24 1016 73 10000 6.2 40 13:58 09.10.2019
6502 Clear 24 1017 73 10000 7.2 40 13:36 09.10.2019
6503 Clear 24 1017 73 10000 6.2 40 13:18 09.10.2019
6504 Clear 23 1018 65 10000 1.5 0 12:42 09.10.2019
6505 Clear 22 1018 69 10000 2.6 0 12:22 09.10.2019
6506 Clear 23 1018 69 10000 2.6 0 11:58 09.10.2019
6507 Clear 22 1018 69 10000 1.5 290 11:39 09.10.2019
6508 Clear 23 1018 69 10000 2.6 250 11:20 09.10.2019
6509 Clear 23 1018 69 10000 2.6 250 10:58 09.10.2019
6510 Clear 22 1018 73 10000 3.1 240 10:40 09.10.2019
6511 Clear 21 1018 68 10000 3.1 240 10:18 09.10.2019
6512 Clear 21 1017 68 10000 2.1 220 09:43 09.10.2019
6513 Clear 20 1017 73 10000 1.5 0 09:20 09.10.2019
6514 Clear 20 1017 73 10000 1.5 0 08:57 09.10.2019
6515 Clear 19 1017 68 10000 5.7 70 08:37 09.10.2019
6516 Clear 19 1017 68 10000 5.7 80 08:18 09.10.2019
6517 Clear 18 1017 73 10000 5.7 70 07:46 09.10.2019
6518 Clear 18 1017 73 10000 4.1 60 07:24 09.10.2019
6519 Clear 18 1017 73 10000 4.1 60 07:24 09.10.2019
6520 Clear 18 994 96 0 1.49 150.25 06:56 09.10.2019
6521 Clear 18 994 95 0 0.71 125.707 06:25 09.10.2019
6522 Clear 18 1017 72 10000 4.1 60 05:47 09.10.2019
6523 Clear 18 1022 90 0 0.89 45 04:41 09.10.2019
6524 Clear 18 1017 68 10000 4.1 70 03:43 09.10.2019
6525 Clear 18 1017 68 10000 4.1 70 03:43 09.10.2019
6526 Clear 18 1018 72 10000 1 0 01:55 09.10.2019
6527 Clear 18 1018 72 10000 2.1 110 01:22 09.10.2019
6528 Clear 18 1018 72 10000 2.1 110 01:22 09.10.2019
6529 Clear 18 1018 72 10000 2.1 110 00:59 09.10.2019
6530 Clear 18 1017 72 10000 2.6 80 00:40 09.10.2019
6531 Clouds 18 1017 68 10000 3.6 80 00:22 09.10.2019
6532 Clouds 18 1017 68 10000 3.6 80 23:58 08.10.2019
6533 Clouds 19 1017 64 10000 5.1 70 23:37 08.10.2019
6534 Clear 18 1017 60 10000 6.2 60 23:18 08.10.2019
6535 Clear 19 1017 60 10000 6.2 60 22:41 08.10.2019
6536 Clear 19 1017 60 10000 6.2 60 22:41 08.10.2019
6537 Clear 19 1016 68 10000 6.2 50 22:21 08.10.2019
6538 Clear 19 1016 68 10000 6.2 50 21:58 08.10.2019
6539 Clear 19 1016 68 10000 6.2 50 21:39 08.10.2019
6540 Clear 19 1016 68 10000 6.2 50 21:39 08.10.2019
6541 Clear 19 1016 64 10000 5.7 60 21:20 08.10.2019
6542 Clear 19 1016 64 10000 5.7 60 20:58 08.10.2019
6543 Clear 19 1016 64 10000 6.7 60 20:39 08.10.2019
6544 Clear 19 1016 64 10000 6.7 60 20:21 08.10.2019
6545 Clear 19 1016 64 10000 6.7 60 19:59 08.10.2019
6546 Clear 19 1015 64 10000 6.7 60 19:41 08.10.2019
6547 Clear 19 1015 64 10000 7.7 70 19:23 08.10.2019
6548 Clear 20 1015 60 10000 8.2 60 18:57 08.10.2019
6549 Clear 20 1015 60 10000 8.2 60 18:39 08.10.2019
6550 Clear 20 1014 64 10000 8.2 60 18:19 08.10.2019
6551 Clear 21 1014 64 10000 8.2 60 17:55 08.10.2019
6552 Clear 20 1014 64 10000 9.3 60 17:36 08.10.2019
6553 Clear 20 1014 60 10000 9.3 60 17:18 08.10.2019
6554 Clear 21 1014 56 10000 9.8 60 16:41 08.10.2019
6555 Clear 22 1014 56 10000 10.8 70 16:22 08.10.2019
6556 Clear 20 1014 56 10000 10.8 70 15:57 08.10.2019
6557 Clouds 20 1013 56 10000 10.8 60 15:37 08.10.2019
6558 Clouds 21 1013 56 10000 11.3 60 15:19 08.10.2019
6559 Clouds 22 1013 56 10000 11.3 60 15:19 08.10.2019
6560 Clouds 22 1013 56 10000 11.3 60 14:42 08.10.2019
6561 Clouds 21 1013 56 10000 11.8 50 14:21 08.10.2019
6562 Clouds 21 1013 56 10000 11.8 50 13:59 08.10.2019
6563 Clouds 22 1013 50 10000 10.8 60 13:39 08.10.2019
6564 Clouds 21 1014 56 10000 10.3 50 13:21 08.10.2019
6565 Clouds 21 1014 56 10000 10.3 50 12:59 08.10.2019
6566 Clouds 21 1014 53 10000 10.3 60 12:40 08.10.2019
6567 Clouds 21 1014 53 10000 10.8 70 12:20 08.10.2019
6568 Clouds 21 1014 53 10000 10.8 70 11:56 08.10.2019
6569 Clouds 21 1014 56 10000 10.3 50 11:37 08.10.2019
6570 Clouds 20 1013 64 10000 10.3 50 11:19 08.10.2019
6571 Clouds 20 1013 56 10000 10.3 60 10:40 08.10.2019
6572 Clouds 20 1013 60 10000 10.8 50 10:22 08.10.2019
6573 Clouds 20 1013 60 10000 10.8 50 09:58 08.10.2019
6574 Clouds 21 1012 60 10000 9.3 50 09:40 08.10.2019
6575 Clouds 19 1011 64 10000 9.8 50 09:20 08.10.2019
6576 Clouds 19 1011 60 10000 10.3 60 08:44 08.10.2019
6577 Clouds 19 1010 64 10000 9.3 60 08:25 08.10.2019
6578 Clouds 18 1009 60 10000 9.3 60 07:47 08.10.2019
6579 Clouds 18 1009 64 10000 9.8 50 07:23 08.10.2019
6580 Clouds 18 1009 64 10000 9.8 50 06:57 08.10.2019
6581 Clouds 18 1009 68 10000 10.3 50 06:35 08.10.2019
6582 Clouds 18 1009 68 10000 10.3 50 05:59 08.10.2019
6583 Clouds 18 1008 68 10000 11.3 50 05:40 08.10.2019
6584 Clouds 17 1007 68 10000 12.3 50 04:55 08.10.2019
6585 Clouds 16 1007 72 10000 10.8 60 03:30 08.10.2019
6586 Clouds 16 1007 72 10000 10.8 60 03:30 08.10.2019
6587 Rain 16 1007 88 10000 5.7 70 02:40 08.10.2019
6588 Rain 16 1007 88 10000 4.6 70 01:56 08.10.2019
6589 Clouds 16 1006 82 10000 4.6 70 01:38 08.10.2019
6590 Rain 15 1005 93 10000 2.1 120 00:55 08.10.2019
6591 Clouds 15 1006 93 10000 1 0 00:23 08.10.2019
6592 Rain 15 1005 93 7000 0.5 0 23:44 07.10.2019
6593 Rain 15 1005 93 6000 1.5 110 23:21 07.10.2019
6594 Rain 15 1005 93 6000 1.5 110 23:21 07.10.2019
6595 Rain 15 1005 93 6000 1.5 110 22:59 07.10.2019
6596 Rain 15 1005 93 3000 3.6 70 22:40 07.10.2019
6597 Rain 15 1005 88 7000 3.6 50 22:21 07.10.2019
6598 Rain 15 1005 88 7000 3.6 50 21:59 07.10.2019
6599 Clouds 14 1004 82 10000 4.1 70 21:40 07.10.2019
6600 Clouds 15 1004 77 10000 3.6 80 21:21 07.10.2019
6601 Clouds 15 1004 77 10000 3.6 80 20:59 07.10.2019
6602 Rain 15 1003 82 10000 5.7 70 20:39 07.10.2019
6603 Clouds 15 1003 82 10000 5.1 70 20:21 07.10.2019
6604 Clouds 15 1003 82 10000 5.1 70 19:59 07.10.2019
6605 Rain 15 1003 88 8000 4.6 90 19:41 07.10.2019
6606 Rain 15 1003 82 8000 4.6 50 19:20 07.10.2019
6607 Rain 15 1003 82 8000 4.6 50 18:59 07.10.2019
6608 Rain 15 1003 82 7000 6.7 30 18:40 07.10.2019
6609 Rain 15 1003 88 5000 7.7 20 18:19 07.10.2019
6610 Rain 15 1003 88 5000 7.7 20 18:19 07.10.2019
6611 Rain 16 1003 72 8000 6.7 260 17:55 07.10.2019
6612 Rain 16 1003 72 8000 6.7 260 17:37 07.10.2019
6613 Rain 15 1003 77 7000 5.1 240 17:18 07.10.2019
6614 Rain 16 1003 68 8000 8.2 260 16:43 07.10.2019
6615 Rain 17 1003 72 7000 7.7 290 16:25 07.10.2019
6616 Rain 17 1003 72 7000 7.7 290 15:57 07.10.2019
6617 Rain 17 1003 77 5000 6.2 270 15:38 07.10.2019
6618 Rain 18 1003 77 10000 5.1 310 15:20 07.10.2019
6619 Rain 18 1003 77 5000 7.7 300 14:41 07.10.2019
6620 Rain 19 1003 77 10000 7.2 290 14:22 07.10.2019
6621 Rain 21 1003 68 10000 4.6 220 13:44 07.10.2019
6622 Clouds 21 1004 77 10000 4.1 200 13:21 07.10.2019
6623 Clouds 21 1004 77 10000 4.1 200 12:57 07.10.2019
6624 Rain 21 1005 64 10000 3.1 200 12:39 07.10.2019
6625 Clouds 21 1005 56 10000 1 0 12:20 07.10.2019
6626 Clouds 21 1005 56 10000 1 0 12:20 07.10.2019
6627 Rain 19 1005 64 10000 4.6 360 11:59 07.10.2019
6628 Rain 19 1005 64 10000 4.6 360 11:39 07.10.2019
6629 Rain 19 1006 68 10000 7.7 270 11:20 07.10.2019
6630 Rain 19 1006 68 10000 8.2 260 10:43 07.10.2019
6631 Clouds 19 1006 73 10000 9.3 250 10:23 07.10.2019
6632 Clouds 19 1006 73 10000 9.3 250 09:58 07.10.2019
6633 Clouds 19 1006 68 10000 9.3 250 09:38 07.10.2019
6634 Clouds 19 1006 68 10000 7.7 250 09:20 07.10.2019
6635 Clouds 19 1006 73 10000 9.8 260 08:43 07.10.2019
6636 Clouds 19 1006 68 10000 10.8 270 08:20 07.10.2019
6637 Clouds 19 1006 68 10000 9.3 270 07:49 07.10.2019
6638 Clouds 18 1006 68 10000 9.3 270 07:28 07.10.2019
6639 Clouds 18 1006 73 10000 9.3 260 06:58 07.10.2019
6640 Clouds 18 1007 68 10000 5.7 200 06:39 07.10.2019
6641 Clouds 18 1007 68 10000 5.7 200 06:19 07.10.2019
6642 Clouds 19 1007 68 10000 5.1 210 05:26 07.10.2019
6643 Clouds 19 1008 68 10000 4.1 190 04:50 07.10.2019
6644 Clouds 19 1009 72 10000 4.6 200 03:48 07.10.2019
6645 Clouds 19 1009 72 10000 4.6 200 03:30 07.10.2019
6646 Clouds 19 1009 72 10000 4.6 200 03:30 07.10.2019
6647 Clouds 19 1010 68 10000 5.1 200 02:39 07.10.2019
6648 Clouds 19 1011 72 10000 3.1 190 02:19 07.10.2019
6649 Clouds 19 1011 64 10000 4.1 230 01:24 07.10.2019
6650 Clouds 19 1012 64 10000 5.7 260 00:53 07.10.2019
6651 Clouds 19 1012 64 10000 5.7 260 00:26 07.10.2019
6652 Clouds 18 1012 68 10000 5.1 270 23:59 06.10.2019
6653 Clouds 18 1012 68 10000 3.6 270 23:40 06.10.2019
6654 Clouds 18 1012 64 10000 4.1 290 23:20 06.10.2019
6655 Clouds 19 1012 68 10000 4.1 280 22:56 06.10.2019
6656 Clouds 19 1012 68 10000 4.1 280 22:37 06.10.2019
6657 Clouds 19 1012 64 10000 4.1 260 22:19 06.10.2019
6658 Clouds 20 1012 64 10000 3.1 290 21:55 06.10.2019
6659 Clouds 20 1012 64 10000 3.1 290 21:37 06.10.2019
6660 Clouds 20 1012 64 10000 2.6 280 21:18 06.10.2019
6661 Clouds 20 1012 64 10000 2.6 280 21:18 06.10.2019
6662 Clouds 20 1012 64 10000 3.6 280 20:55 06.10.2019
6663 Clouds 20 1012 64 10000 3.6 280 20:36 06.10.2019
6664 Clouds 20 1012 64 10000 3.6 280 20:18 06.10.2019
6665 Clouds 20 1012 64 10000 3.6 280 19:55 06.10.2019
6666 Clouds 20 1012 68 10000 4.1 280 19:36 06.10.2019
6667 Clouds 21 1012 68 10000 5.1 280 19:18 06.10.2019
6668 Clouds 21 1012 60 10000 5.7 280 18:55 06.10.2019
6669 Clouds 21 1012 60 10000 5.7 280 18:36 06.10.2019
6670 Clouds 21 1012 60 10000 5.7 280 18:18 06.10.2019
6671 Clouds 21 1012 60 10000 5.7 280 18:18 06.10.2019
6672 Clouds 21 1012 60 10000 5.7 280 18:18 06.10.2019
6673 Clouds 22 1012 64 10000 5.7 290 17:42 06.10.2019
6674 Clouds 22 1012 60 10000 5.7 290 17:20 06.10.2019
6675 Clouds 22 1012 60 10000 5.7 290 17:20 06.10.2019
6676 Clouds 22 1013 64 10000 6.2 280 16:55 06.10.2019
6677 Clouds 22 1013 64 10000 6.2 280 16:37 06.10.2019
6678 Clouds 22 1013 64 10000 6.2 280 16:37 06.10.2019
6679 Clouds 22 1013 64 10000 6.2